<?xml version='1.0' encoding='UTF-8'?><gpx version="1.1" creator="JPX - https://github.com/jenetics/jpx" xmlns="http://www.topografix.com/GPX/1/1"><trk><trkseg><trkpt lat="45.54407456125999" lon="11.880154982750089"><ele>20.0</ele><time>2026-04-03T09:07:40.999Z</time></trkpt><trkpt lat="45.54399285058474" lon="11.880124220321774"><ele>20.0</ele><time>2026-04-03T09:07:43.999Z</time></trkpt><trkpt lat="45.544005031095715" lon="11.880033054586724"><ele>20.0</ele><time>2026-04-03T09:07:45.999Z</time></trkpt><trkpt lat="45.54403696200102" lon="11.87990741495268"><ele>20.0</ele><time>2026-04-03T09:07:48.999Z</time></trkpt><trkpt lat="45.54405938166304" lon="11.879811218672325"><ele>20.0</ele><time>2026-04-03T09:07:50.999Z</time></trkpt><trkpt lat="45.54407668366389" lon="11.87972461503767"><ele>20.0</ele><time>2026-04-03T09:07:52.999Z</time></trkpt><trkpt lat="45.54408838213768" lon="11.87961079402939"><ele>20.166666666666668</ele><time>2026-04-03T09:07:55.999Z</time></trkpt><trkpt lat="45.54412139694222" lon="11.879488678753683"><ele>20.333333333333336</ele><time>2026-04-03T09:07:58.999Z</time></trkpt><trkpt lat="45.54413440632005" lon="11.879391207865861"><ele>20.5</ele><time>2026-04-03T09:08:00.999Z</time></trkpt><trkpt lat="45.544159315451225" lon="11.879279368627522"><ele>20.666666666666668</ele><time>2026-04-03T09:08:02.999Z</time></trkpt><trkpt lat="45.544181689788005" lon="11.879163043669076"><ele>20.833333333333332</ele><time>2026-04-03T09:08:04.999Z</time></trkpt><trkpt lat="45.544194081241535" lon="11.879043662282266"><ele>21.0</ele><time>2026-04-03T09:08:06.999Z</time></trkpt><trkpt lat="45.544214293296854" lon="11.878932136394884"><ele>21.142857142857142</ele><time>2026-04-03T09:08:08.999Z</time></trkpt><trkpt lat="45.54424039617502" lon="11.87882669311201"><ele>21.285714285714285</ele><time>2026-04-03T09:08:10.999Z</time></trkpt><trkpt lat="45.54426143266099" lon="11.878718722259423"><ele>21.42857142857143</ele><time>2026-04-03T09:08:12.999Z</time></trkpt><trkpt lat="45.544271677683625" lon="11.878625240085167"><ele>21.57142857142857</ele><time>2026-04-03T09:08:14.999Z</time></trkpt><trkpt lat="45.54430991872405" lon="11.878543513263155"><ele>21.714285714285715</ele><time>2026-04-03T09:08:17.999Z</time></trkpt><trkpt lat="45.5443765492431" lon="11.878562004548536"><ele>21.857142857142858</ele><time>2026-04-03T09:08:19.999Z</time></trkpt><trkpt lat="45.54445253236416" lon="11.878605066581423"><ele>22.0</ele><time>2026-04-03T09:08:21.999Z</time></trkpt><trkpt lat="45.54454719042695" lon="11.878635160535362"><ele>22.0</ele><time>2026-04-03T09:08:23.999Z</time></trkpt><trkpt lat="45.54464512209174" lon="11.878680494528966"><ele>22.0</ele><time>2026-04-03T09:08:25.999Z</time></trkpt><trkpt lat="45.54473578318929" lon="11.878707996475045"><ele>22.0</ele><time>2026-04-03T09:08:27.999Z</time></trkpt><trkpt lat="45.54482306581212" lon="11.878738550472905"><ele>22.0</ele><time>2026-04-03T09:08:29.999Z</time></trkpt><trkpt lat="45.54490887472476" lon="11.878781325867301"><ele>22.0</ele><time>2026-04-03T09:08:31.999Z</time></trkpt><trkpt lat="45.544997662719915" lon="11.878807040943194"><ele>22.0</ele><time>2026-04-03T09:08:33.999Z</time></trkpt><trkpt lat="45.545078195233465" lon="11.87883092131138"><ele>22.0</ele><time>2026-04-03T09:08:35.999Z</time></trkpt><trkpt lat="45.54516319910171" lon="11.878871207764218"><ele>22.0</ele><time>2026-04-03T09:08:37.999Z</time></trkpt><trkpt lat="45.545253332399" lon="11.8789133184447"><ele>22.0</ele><time>2026-04-03T09:08:39.999Z</time></trkpt><trkpt lat="45.54535277363593" lon="11.878951826485842"><ele>22.0</ele><time>2026-04-03T09:08:41.999Z</time></trkpt><trkpt lat="45.545455136009735" lon="11.878995142098157"><ele>22.0</ele><time>2026-04-03T09:08:43.999Z</time></trkpt><trkpt lat="45.54556283309494" lon="11.87902934884585"><ele>22.0</ele><time>2026-04-03T09:08:45.999Z</time></trkpt><trkpt lat="45.54567210605554" lon="11.87908019505689"><ele>22.0</ele><time>2026-04-03T09:08:47.999Z</time></trkpt><trkpt lat="45.54578569705227" lon="11.879121276633928"><ele>22.0</ele><time>2026-04-03T09:08:49.999Z</time></trkpt><trkpt lat="45.545894160976154" lon="11.879159376564788"><ele>22.0</ele><time>2026-04-03T09:08:51.999Z</time></trkpt><trkpt lat="45.546003338263745" lon="11.879201032072991"><ele>22.0</ele><time>2026-04-03T09:08:53.999Z</time></trkpt><trkpt lat="45.54611195285353" lon="11.879246948312163"><ele>22.0</ele><time>2026-04-03T09:08:55.999Z</time></trkpt><trkpt lat="45.546223281042835" lon="11.87928866095993"><ele>22.0</ele><time>2026-04-03T09:08:57.999Z</time></trkpt><trkpt lat="45.54633317082359" lon="11.879331123965217"><ele>21.25</ele><time>2026-04-03T09:08:59.999Z</time></trkpt><trkpt lat="45.546445005162475" lon="11.879374317634717"><ele>20.5</ele><time>2026-04-03T09:09:01.999Z</time></trkpt><trkpt lat="45.54655714633137" lon="11.879420437575881"><ele>19.75</ele><time>2026-04-03T09:09:03.999Z</time></trkpt><trkpt lat="45.54667115077601" lon="11.879462596216232"><ele>19.0</ele><time>2026-04-03T09:09:05.999Z</time></trkpt><trkpt lat="45.546786888213724" lon="11.879502917306151"><ele>19.0</ele><time>2026-04-03T09:09:07.999Z</time></trkpt><trkpt lat="45.546894489638504" lon="11.879540809432708"><ele>19.0</ele><time>2026-04-03T09:09:09.999Z</time></trkpt><trkpt lat="45.546998888374866" lon="11.879584930053689"><ele>19.0</ele><time>2026-04-03T09:09:11.999Z</time></trkpt><trkpt lat="45.5471073311285" lon="11.879624456193763"><ele>19.0</ele><time>2026-04-03T09:09:13.999Z</time></trkpt><trkpt lat="45.547218544565595" lon="11.87966333681024"><ele>19.0</ele><time>2026-04-03T09:09:15.999Z</time></trkpt><trkpt lat="45.54732798151048" lon="11.879712099033192"><ele>19.5</ele><time>2026-04-03T09:09:17.999Z</time></trkpt><trkpt lat="45.5474410865879" lon="11.879756997980495"><ele>20.0</ele><time>2026-04-03T09:09:19.999Z</time></trkpt><trkpt lat="45.547556258216076" lon="11.879796977936572"><ele>20.5</ele><time>2026-04-03T09:09:21.999Z</time></trkpt><trkpt lat="45.54766682208361" lon="11.879845371458453"><ele>21.0</ele><time>2026-04-03T09:09:23.999Z</time></trkpt><trkpt lat="45.54778209411085" lon="11.879893923018388"><ele>21.25</ele><time>2026-04-03T09:09:25.999Z</time></trkpt><trkpt lat="45.54789378114527" lon="11.879937220894018"><ele>21.5</ele><time>2026-04-03T09:09:27.999Z</time></trkpt><trkpt lat="45.54800693920319" lon="11.879987416142546"><ele>21.75</ele><time>2026-04-03T09:09:29.999Z</time></trkpt><trkpt lat="45.548119567839485" lon="11.880041683658792"><ele>22.0</ele><time>2026-04-03T09:09:31.999Z</time></trkpt><trkpt lat="45.54823395316179" lon="11.880095418299474"><ele>21.75</ele><time>2026-04-03T09:09:33.998Z</time></trkpt><trkpt lat="45.548349490299" lon="11.880148359443853"><ele>21.5</ele><time>2026-04-03T09:09:35.999Z</time></trkpt><trkpt lat="45.548458019831045" lon="11.88020392520922"><ele>21.25</ele><time>2026-04-03T09:09:37.999Z</time></trkpt><trkpt lat="45.548567917572626" lon="11.880250174621212"><ele>21.0</ele><time>2026-04-03T09:09:39.999Z</time></trkpt><trkpt lat="45.54867885789554" lon="11.880296636808062"><ele>21.200000000000003</ele><time>2026-04-03T09:09:41.999Z</time></trkpt><trkpt lat="45.54878821025453" lon="11.880341569244893"><ele>21.400000000000002</ele><time>2026-04-03T09:09:43.999Z</time></trkpt><trkpt lat="45.548895842584656" lon="11.880384961728222"><ele>21.6</ele><time>2026-04-03T09:09:45.999Z</time></trkpt><trkpt lat="45.54900172210324" lon="11.8804228231121"><ele>21.8</ele><time>2026-04-03T09:09:47.999Z</time></trkpt><trkpt lat="45.54911039929431" lon="11.880460603027393"><ele>22.0</ele><time>2026-04-03T09:09:49.999Z</time></trkpt><trkpt lat="45.54922267201695" lon="11.880502015501833"><ele>22.0</ele><time>2026-04-03T09:09:51.999Z</time></trkpt><trkpt lat="45.54933141563354" lon="11.880543086834644"><ele>22.0</ele><time>2026-04-03T09:09:53.999Z</time></trkpt><trkpt lat="45.549447527749145" lon="11.880590517748484"><ele>22.0</ele><time>2026-04-03T09:09:55.999Z</time></trkpt><trkpt lat="45.54956298568584" lon="11.880638594549493"><ele>22.0</ele><time>2026-04-03T09:09:57.999Z</time></trkpt><trkpt lat="45.549675961219016" lon="11.880683530575945"><ele>21.75</ele><time>2026-04-03T09:09:59.999Z</time></trkpt><trkpt lat="45.54979603129768" lon="11.88073150659597"><ele>21.5</ele><time>2026-04-03T09:10:01.999Z</time></trkpt><trkpt lat="45.54990979305821" lon="11.880777045660102"><ele>21.25</ele><time>2026-04-03T09:10:03.999Z</time></trkpt><trkpt lat="45.55002396265466" lon="11.88081690696758"><ele>21.0</ele><time>2026-04-03T09:10:05.999Z</time></trkpt><trkpt lat="45.550138663572994" lon="11.880861107147934"><ele>21.0</ele><time>2026-04-03T09:10:07.999Z</time></trkpt><trkpt lat="45.55025231881336" lon="11.880903937613914"><ele>21.0</ele><time>2026-04-03T09:10:09.999Z</time></trkpt><trkpt lat="45.55036690034211" lon="11.880939606651006"><ele>21.0</ele><time>2026-04-03T09:10:11.999Z</time></trkpt><trkpt lat="45.55048289761383" lon="11.880974117632693"><ele>21.0</ele><time>2026-04-03T09:10:13.999Z</time></trkpt><trkpt lat="45.55059814874286" lon="11.881002748170525"><ele>21.0</ele><time>2026-04-03T09:10:15.999Z</time></trkpt><trkpt lat="45.55071547596093" lon="11.88100581221337"><ele>21.0</ele><time>2026-04-03T09:10:17.999Z</time></trkpt><trkpt lat="45.550834118144365" lon="11.881019749146816"><ele>21.0</ele><time>2026-04-03T09:10:19.999Z</time></trkpt><trkpt lat="45.55095548416969" lon="11.881027610937856"><ele>21.0</ele><time>2026-04-03T09:10:21.999Z</time></trkpt><trkpt lat="45.551077279397354" lon="11.881041219428887"><ele>21.0</ele><time>2026-04-03T09:10:23.999Z</time></trkpt><trkpt lat="45.55119702964709" lon="11.881057307759187"><ele>21.0</ele><time>2026-04-03T09:10:25.999Z</time></trkpt><trkpt lat="45.55131404732665" lon="11.88107828911325"><ele>21.0</ele><time>2026-04-03T09:10:27.999Z</time></trkpt><trkpt lat="45.55141477657749" lon="11.88109899715757"><ele>21.0</ele><time>2026-04-03T09:10:30Z</time></trkpt><trkpt lat="45.551509769033615" lon="11.881119072864502"><ele>21.0</ele><time>2026-04-03T09:10:32Z</time></trkpt><trkpt lat="45.55159457559512" lon="11.881138989419613"><ele>21.166666666666668</ele><time>2026-04-03T09:10:34Z</time></trkpt><trkpt lat="45.55163542259054" lon="11.881249425263219"><ele>21.333333333333332</ele><time>2026-04-03T09:10:37Z</time></trkpt><trkpt lat="45.551641625901816" lon="11.881353533712524"><ele>21.5</ele><time>2026-04-03T09:10:39Z</time></trkpt><trkpt lat="45.551667135933485" lon="11.88145854733684"><ele>21.666666666666664</ele><time>2026-04-03T09:10:41Z</time></trkpt><trkpt lat="45.55169177593204" lon="11.881552189001997"><ele>21.833333333333332</ele><time>2026-04-03T09:10:43Z</time></trkpt><trkpt lat="45.55171493193264" lon="11.881658851565428"><ele>22.0</ele><time>2026-04-03T09:10:45Z</time></trkpt><trkpt lat="45.55173662489446" lon="11.881787849729024"><ele>22.0</ele><time>2026-04-03T09:10:47Z</time></trkpt><trkpt lat="45.5517658799419" lon="11.881922165556562"><ele>22.0</ele><time>2026-04-03T09:10:49Z</time></trkpt><trkpt lat="45.551799353798486" lon="11.882057471978602"><ele>22.0</ele><time>2026-04-03T09:10:51Z</time></trkpt><trkpt lat="45.55182836966764" lon="11.882195720736332"><ele>22.0</ele><time>2026-04-03T09:10:53Z</time></trkpt><trkpt lat="45.55185786388966" lon="11.8823427290556"><ele>22.0</ele><time>2026-04-03T09:10:55Z</time></trkpt><trkpt lat="45.5518903754483" lon="11.882495029738728"><ele>22.0</ele><time>2026-04-03T09:10:57Z</time></trkpt><trkpt lat="45.55191917374154" lon="11.882645009196771"><ele>22.0</ele><time>2026-04-03T09:10:59Z</time></trkpt><trkpt lat="45.55195221080439" lon="11.882795364922428"><ele>22.0</ele><time>2026-04-03T09:11:01Z</time></trkpt><trkpt lat="45.55198661422103" lon="11.882950734046645"><ele>22.0</ele><time>2026-04-03T09:11:03Z</time></trkpt><trkpt lat="45.55201882292366" lon="11.88310706242101"><ele>22.0</ele><time>2026-04-03T09:11:05Z</time></trkpt><trkpt lat="45.55205147671729" lon="11.883269969122715"><ele>22.0</ele><time>2026-04-03T09:11:07Z</time></trkpt><trkpt lat="45.55208458618099" lon="11.883430265586535"><ele>22.0</ele><time>2026-04-03T09:11:09Z</time></trkpt><trkpt lat="45.55212595854198" lon="11.883586164696938"><ele>22.0</ele><time>2026-04-03T09:11:11Z</time></trkpt><trkpt lat="45.55215773096824" lon="11.883738346733153"><ele>22.0</ele><time>2026-04-03T09:11:13Z</time></trkpt><trkpt lat="45.552188766566985" lon="11.88388871788064"><ele>22.0</ele><time>2026-04-03T09:11:15Z</time></trkpt><trkpt lat="45.55221729001449" lon="11.884039205672874"><ele>22.0</ele><time>2026-04-03T09:11:17Z</time></trkpt><trkpt lat="45.552253712395384" lon="11.884184986119244"><ele>22.0</ele><time>2026-04-03T09:11:19Z</time></trkpt><trkpt lat="45.55228527460049" lon="11.884331227129172"><ele>22.0</ele><time>2026-04-03T09:11:21Z</time></trkpt><trkpt lat="45.552314437400774" lon="11.884478833376168"><ele>22.0</ele><time>2026-04-03T09:11:23Z</time></trkpt><trkpt lat="45.552352023925685" lon="11.884622909060598"><ele>21.8</ele><time>2026-04-03T09:11:25Z</time></trkpt><trkpt lat="45.55238317117989" lon="11.884769982588653"><ele>21.6</ele><time>2026-04-03T09:11:27Z</time></trkpt><trkpt lat="45.55240037622002" lon="11.884915051434708"><ele>21.400000000000002</ele><time>2026-04-03T09:11:29Z</time></trkpt><trkpt lat="45.552428226702844" lon="11.88504917553121"><ele>21.200000000000003</ele><time>2026-04-03T09:11:31Z</time></trkpt><trkpt lat="45.5524568549651" lon="11.885179289593024"><ele>21.0</ele><time>2026-04-03T09:11:33Z</time></trkpt><trkpt lat="45.55248794146542" lon="11.885311922268418"><ele>21.0</ele><time>2026-04-03T09:11:35Z</time></trkpt><trkpt lat="45.5525212740833" lon="11.885452443941388"><ele>21.0</ele><time>2026-04-03T09:11:37Z</time></trkpt><trkpt lat="45.55254343608445" lon="11.885597498916049"><ele>21.0</ele><time>2026-04-03T09:11:38.999Z</time></trkpt><trkpt lat="45.552576279083105" lon="11.885740600773733"><ele>21.0</ele><time>2026-04-03T09:11:40.999Z</time></trkpt><trkpt lat="45.552612747907204" lon="11.885880076386353"><ele>21.0</ele><time>2026-04-03T09:11:42.999Z</time></trkpt><trkpt lat="45.55264028685364" lon="11.88602372326148"><ele>20.8</ele><time>2026-04-03T09:11:44.999Z</time></trkpt><trkpt lat="45.55267197985652" lon="11.886170524252003"><ele>20.6</ele><time>2026-04-03T09:11:46.999Z</time></trkpt><trkpt lat="45.55270204466" lon="11.886324974801209"><ele>20.4</ele><time>2026-04-03T09:11:48.999Z</time></trkpt><trkpt lat="45.55273970914981" lon="11.886485078769264"><ele>20.2</ele><time>2026-04-03T09:11:50.999Z</time></trkpt><trkpt lat="45.55276797371151" lon="11.886629451325724"><ele>20.0</ele><time>2026-04-03T09:11:52.999Z</time></trkpt><trkpt lat="45.552798404989154" lon="11.886781734087998"><ele>20.0</ele><time>2026-04-03T09:11:54.999Z</time></trkpt><trkpt lat="45.552824027934335" lon="11.886919622464358"><ele>20.0</ele><time>2026-04-03T09:11:57Z</time></trkpt><trkpt lat="45.55285471828506" lon="11.887048819714773"><ele>20.0</ele><time>2026-04-03T09:11:59Z</time></trkpt><trkpt lat="45.55288079568948" lon="11.887168262354887"><ele>20.0</ele><time>2026-04-03T09:12:01Z</time></trkpt><trkpt lat="45.55290713595384" lon="11.88729015006494"><ele>20.0</ele><time>2026-04-03T09:12:03Z</time></trkpt><trkpt lat="45.55294508771524" lon="11.887391071448654"><ele>20.2</ele><time>2026-04-03T09:12:06Z</time></trkpt><trkpt lat="45.55297231417385" lon="11.887523966808596"><ele>20.4</ele><time>2026-04-03T09:12:09Z</time></trkpt><trkpt lat="45.55297905996825" lon="11.887640969404"><ele>20.6</ele><time>2026-04-03T09:12:11Z</time></trkpt><trkpt lat="45.5530187148832" lon="11.887770973968719"><ele>20.8</ele><time>2026-04-03T09:12:13Z</time></trkpt><trkpt lat="45.553047984729034" lon="11.887907119440115"><ele>21.0</ele><time>2026-04-03T09:12:15Z</time></trkpt><trkpt lat="45.553064213258565" lon="11.888046322475276"><ele>21.0</ele><time>2026-04-03T09:12:17Z</time></trkpt><trkpt lat="45.55309569282004" lon="11.888180553048421"><ele>21.0</ele><time>2026-04-03T09:12:19Z</time></trkpt><trkpt lat="45.553132859730695" lon="11.888324356249072"><ele>21.0</ele><time>2026-04-03T09:12:21Z</time></trkpt><trkpt lat="45.55316146532541" lon="11.88846887981169"><ele>21.0</ele><time>2026-04-03T09:12:23Z</time></trkpt><trkpt lat="45.553193440233045" lon="11.888620109935056"><ele>21.0</ele><time>2026-04-03T09:12:25Z</time></trkpt><trkpt lat="45.55322831008447" lon="11.88877515469656"><ele>21.0</ele><time>2026-04-03T09:12:27Z</time></trkpt><trkpt lat="45.55326258007254" lon="11.888926337109519"><ele>21.0</ele><time>2026-04-03T09:12:29Z</time></trkpt><trkpt lat="45.55330050175781" lon="11.889083347034179"><ele>21.0</ele><time>2026-04-03T09:12:31Z</time></trkpt><trkpt lat="45.55332338190392" lon="11.889240619883424"><ele>21.0</ele><time>2026-04-03T09:12:33Z</time></trkpt><trkpt lat="45.55336465001412" lon="11.88940090590283"><ele>20.75</ele><time>2026-04-03T09:12:35Z</time></trkpt><trkpt lat="45.55339383281661" lon="11.889564058916774"><ele>20.5</ele><time>2026-04-03T09:12:37Z</time></trkpt><trkpt lat="45.55343285962817" lon="11.889726100164747"><ele>20.25</ele><time>2026-04-03T09:12:39Z</time></trkpt><trkpt lat="45.55346845370673" lon="11.889885125465176"><ele>20.0</ele><time>2026-04-03T09:12:41Z</time></trkpt><trkpt lat="45.5534976773657" lon="11.890043948600749"><ele>20.4</ele><time>2026-04-03T09:12:43Z</time></trkpt><trkpt lat="45.553534581601255" lon="11.890205336173684"><ele>20.8</ele><time>2026-04-03T09:12:45Z</time></trkpt><trkpt lat="45.55356322814532" lon="11.890358666765989"><ele>21.200000000000003</ele><time>2026-04-03T09:12:47Z</time></trkpt><trkpt lat="45.55359697821049" lon="11.890504116046746"><ele>21.6</ele><time>2026-04-03T09:12:49Z</time></trkpt><trkpt lat="45.55363243844859" lon="11.890653787171235"><ele>22.0</ele><time>2026-04-03T09:12:51Z</time></trkpt><trkpt lat="45.553664754266066" lon="11.89080208797106"><ele>22.0</ele><time>2026-04-03T09:12:53Z</time></trkpt><trkpt lat="45.55369041201935" lon="11.89094356384212"><ele>22.0</ele><time>2026-04-03T09:12:55Z</time></trkpt><trkpt lat="45.55371105974421" lon="11.891080524907604"><ele>22.0</ele><time>2026-04-03T09:12:57Z</time></trkpt><trkpt lat="45.55375101321824" lon="11.891216565987797"><ele>22.0</ele><time>2026-04-03T09:12:59Z</time></trkpt><trkpt lat="45.55377718673443" lon="11.891363628768959"><ele>22.0</ele><time>2026-04-03T09:13:01Z</time></trkpt><trkpt lat="45.55380550491881" lon="11.89151030063613"><ele>22.0</ele><time>2026-04-03T09:13:03Z</time></trkpt><trkpt lat="45.55384008819371" lon="11.891650718410453"><ele>22.0</ele><time>2026-04-03T09:13:05Z</time></trkpt><trkpt lat="45.55386801651715" lon="11.891782684132492"><ele>22.0</ele><time>2026-04-03T09:13:07Z</time></trkpt><trkpt lat="45.55389092446756" lon="11.891904311827322"><ele>22.0</ele><time>2026-04-03T09:13:09Z</time></trkpt><trkpt lat="45.55391318714822" lon="11.892020140908887"><ele>22.0</ele><time>2026-04-03T09:13:11Z</time></trkpt><trkpt lat="45.55394232857381" lon="11.892137082069532"><ele>21.8</ele><time>2026-04-03T09:13:13Z</time></trkpt><trkpt lat="45.55397083809433" lon="11.892264240854715"><ele>21.6</ele><time>2026-04-03T09:13:15Z</time></trkpt><trkpt lat="45.55400185660197" lon="11.892402867799333"><ele>21.400000000000002</ele><time>2026-04-03T09:13:17Z</time></trkpt><trkpt lat="45.55403257843488" lon="11.892550292296777"><ele>21.200000000000003</ele><time>2026-04-03T09:13:19Z</time></trkpt><trkpt lat="45.55405968098336" lon="11.892703713373956"><ele>21.0</ele><time>2026-04-03T09:13:21Z</time></trkpt><trkpt lat="45.554095405441416" lon="11.89286172599627"><ele>20.8</ele><time>2026-04-03T09:13:23Z</time></trkpt><trkpt lat="45.55413922954585" lon="11.893010700851638"><ele>20.6</ele><time>2026-04-03T09:13:25Z</time></trkpt><trkpt lat="45.554177376994936" lon="11.89315672224265"><ele>20.4</ele><time>2026-04-03T09:13:27Z</time></trkpt><trkpt lat="45.554196893576076" lon="11.893267982748727"><ele>20.2</ele><time>2026-04-03T09:13:29Z</time></trkpt><trkpt lat="45.554219538600044" lon="11.893403487649831"><ele>20.0</ele><time>2026-04-03T09:13:31Z</time></trkpt><trkpt lat="45.5542462763169" lon="11.893553845303671"><ele>20.4</ele><time>2026-04-03T09:13:33Z</time></trkpt><trkpt lat="45.55428428090065" lon="11.893699132000483"><ele>20.8</ele><time>2026-04-03T09:13:35Z</time></trkpt><trkpt lat="45.554312286098124" lon="11.893843273794193"><ele>21.200000000000003</ele><time>2026-04-03T09:13:37Z</time></trkpt><trkpt lat="45.55434276622961" lon="11.893981647806438"><ele>21.6</ele><time>2026-04-03T09:13:39Z</time></trkpt><trkpt lat="45.5543688154183" lon="11.89412482472148"><ele>22.0</ele><time>2026-04-03T09:13:41Z</time></trkpt><trkpt lat="45.5544062720849" lon="11.894284778221412"><ele>22.25</ele><time>2026-04-03T09:13:43Z</time></trkpt><trkpt lat="45.55443848463735" lon="11.894449171005729"><ele>22.5</ele><time>2026-04-03T09:13:45Z</time></trkpt><trkpt lat="45.55447275787359" lon="11.894606479835186"><ele>22.75</ele><time>2026-04-03T09:13:47Z</time></trkpt><trkpt lat="45.554513453905216" lon="11.894768438175369"><ele>23.0</ele><time>2026-04-03T09:13:49Z</time></trkpt><trkpt lat="45.55455227928936" lon="11.894903850205536"><ele>22.4</ele><time>2026-04-03T09:13:51Z</time></trkpt><trkpt lat="45.55457561652947" lon="11.89504826386387"><ele>21.799999999999997</ele><time>2026-04-03T09:13:54Z</time></trkpt><trkpt lat="45.5545966262493" lon="11.895193614029782"><ele>21.2</ele><time>2026-04-03T09:13:56Z</time></trkpt><trkpt lat="45.55463446306132" lon="11.895333655690163"><ele>20.6</ele><time>2026-04-03T09:13:58Z</time></trkpt><trkpt lat="45.55465757093417" lon="11.895486907048022"><ele>20.0</ele><time>2026-04-03T09:14:00Z</time></trkpt><trkpt lat="45.55468935566032" lon="11.89564660281122"><ele>20.0</ele><time>2026-04-03T09:14:02Z</time></trkpt><trkpt lat="45.55472069964947" lon="11.895798472980518"><ele>20.0</ele><time>2026-04-03T09:14:04Z</time></trkpt><trkpt lat="45.554753436520784" lon="11.895958360496374"><ele>20.0</ele><time>2026-04-03T09:14:06Z</time></trkpt><trkpt lat="45.55478879096537" lon="11.896114073292217"><ele>20.0</ele><time>2026-04-03T09:14:08Z</time></trkpt><trkpt lat="45.55482755389667" lon="11.896262535159304"><ele>20.0</ele><time>2026-04-03T09:14:10Z</time></trkpt><trkpt lat="45.554858672882915" lon="11.89642341412396"><ele>20.0</ele><time>2026-04-03T09:14:12Z</time></trkpt><trkpt lat="45.55488860910712" lon="11.89658815922846"><ele>20.0</ele><time>2026-04-03T09:14:14Z</time></trkpt><trkpt lat="45.5549221917062" lon="11.89674049843727"><ele>20.0</ele><time>2026-04-03T09:14:16Z</time></trkpt><trkpt lat="45.55495755891624" lon="11.896887871099386"><ele>20.0</ele><time>2026-04-03T09:14:18Z</time></trkpt><trkpt lat="45.55498857263587" lon="11.897044444715938"><ele>20.0</ele><time>2026-04-03T09:14:20Z</time></trkpt><trkpt lat="45.55502231849509" lon="11.897195043609766"><ele>20.0</ele><time>2026-04-03T09:14:22Z</time></trkpt><trkpt lat="45.55504979466459" lon="11.897355001239598"><ele>20.0</ele><time>2026-04-03T09:14:24Z</time></trkpt><trkpt lat="45.55508328439771" lon="11.897503411422782"><ele>20.0</ele><time>2026-04-03T09:14:26Z</time></trkpt><trkpt lat="45.555111633759445" lon="11.897646825145491"><ele>20.2</ele><time>2026-04-03T09:14:28Z</time></trkpt><trkpt lat="45.555139733084886" lon="11.897786439056306"><ele>20.4</ele><time>2026-04-03T09:14:30Z</time></trkpt><trkpt lat="45.55517883560037" lon="11.897916553741961"><ele>20.6</ele><time>2026-04-03T09:14:32Z</time></trkpt><trkpt lat="45.5552043311725" lon="11.898045870878976"><ele>20.8</ele><time>2026-04-03T09:14:34Z</time></trkpt><trkpt lat="45.555234188072184" lon="11.89818890293469"><ele>21.0</ele><time>2026-04-03T09:14:36Z</time></trkpt><trkpt lat="45.5552572832247" lon="11.898333139693566"><ele>21.0</ele><time>2026-04-03T09:14:38Z</time></trkpt><trkpt lat="45.55530304908312" lon="11.89841923241294"><ele>21.0</ele><time>2026-04-03T09:14:40Z</time></trkpt><trkpt lat="45.55536637957579" lon="11.898447163396229"><ele>21.0</ele><time>2026-04-03T09:14:42Z</time></trkpt><trkpt lat="45.555377343580275" lon="11.898537455098618"><ele>21.0</ele><time>2026-04-03T09:14:44Z</time></trkpt><trkpt lat="45.555351400277395" lon="11.898658538065211"><ele>21.0</ele><time>2026-04-03T09:14:46Z</time></trkpt><trkpt lat="45.55535233774421" lon="11.898806955796628"><ele>21.0</ele><time>2026-04-03T09:14:48Z</time></trkpt><trkpt lat="45.55539746768882" lon="11.898946912686654"><ele>21.0</ele><time>2026-04-03T09:14:50Z</time></trkpt><trkpt lat="45.55542202458282" lon="11.899080573202818"><ele>21.0</ele><time>2026-04-03T09:14:52Z</time></trkpt><trkpt lat="45.55545463289985" lon="11.899220402162623"><ele>21.0</ele><time>2026-04-03T09:14:54Z</time></trkpt><trkpt lat="45.5554817608058" lon="11.899365540930418"><ele>21.0</ele><time>2026-04-03T09:14:56Z</time></trkpt><trkpt lat="45.55551675812992" lon="11.899511674122465"><ele>21.0</ele><time>2026-04-03T09:14:58Z</time></trkpt><trkpt lat="45.555544141463145" lon="11.89966228656006"><ele>20.8</ele><time>2026-04-03T09:15:00Z</time></trkpt><trkpt lat="45.55557694307939" lon="11.899815488396998"><ele>20.6</ele><time>2026-04-03T09:15:02Z</time></trkpt><trkpt lat="45.555615855401115" lon="11.899964671312569"><ele>20.4</ele><time>2026-04-03T09:15:04Z</time></trkpt><trkpt lat="45.55564529796272" lon="11.900110108403878"><ele>20.2</ele><time>2026-04-03T09:15:06Z</time></trkpt><trkpt lat="45.55567970514349" lon="11.900256619604686"><ele>20.0</ele><time>2026-04-03T09:15:08Z</time></trkpt><trkpt lat="45.555712886630396" lon="11.900395186591583"><ele>20.0</ele><time>2026-04-03T09:15:10Z</time></trkpt><trkpt lat="45.55573715423355" lon="11.90053772133337"><ele>20.0</ele><time>2026-04-03T09:15:12Z</time></trkpt><trkpt lat="45.55577321392945" lon="11.900674792235044"><ele>20.0</ele><time>2026-04-03T09:15:14Z</time></trkpt><trkpt lat="45.55579756435631" lon="11.90081498536294"><ele>20.0</ele><time>2026-04-03T09:15:16Z</time></trkpt><trkpt lat="45.555825879580965" lon="11.900958138551891"><ele>20.0</ele><time>2026-04-03T09:15:18Z</time></trkpt><trkpt lat="45.55585862632971" lon="11.90110832617544"><ele>19.75</ele><time>2026-04-03T09:15:20Z</time></trkpt><trkpt lat="45.555884293693516" lon="11.901268400735258"><ele>19.5</ele><time>2026-04-03T09:15:22Z</time></trkpt><trkpt lat="45.55592379603857" lon="11.901436121710546"><ele>19.25</ele><time>2026-04-03T09:15:24Z</time></trkpt><trkpt lat="45.555959924788546" lon="11.90159015191525"><ele>19.0</ele><time>2026-04-03T09:15:26Z</time></trkpt><trkpt lat="45.55599397819739" lon="11.901752952258194"><ele>18.75</ele><time>2026-04-03T09:15:28Z</time></trkpt><trkpt lat="45.556024273147266" lon="11.901912758418804"><ele>18.5</ele><time>2026-04-03T09:15:30Z</time></trkpt><trkpt lat="45.55605763982789" lon="11.902073270735766"><ele>18.25</ele><time>2026-04-03T09:15:32Z</time></trkpt><trkpt lat="45.55609025974845" lon="11.902236923179732"><ele>18.0</ele><time>2026-04-03T09:15:34Z</time></trkpt><trkpt lat="45.55612432793517" lon="11.902385961412325"><ele>18.0</ele><time>2026-04-03T09:15:36Z</time></trkpt><trkpt lat="45.55615810952772" lon="11.902540884526394"><ele>18.0</ele><time>2026-04-03T09:15:38Z</time></trkpt><trkpt lat="45.556185455004616" lon="11.902686689085238"><ele>18.0</ele><time>2026-04-03T09:15:40Z</time></trkpt><trkpt lat="45.55622544872872" lon="11.902846779259997"><ele>18.0</ele><time>2026-04-03T09:15:42Z</time></trkpt><trkpt lat="45.5562560032563" lon="11.90300214863628"><ele>18.0</ele><time>2026-04-03T09:15:44Z</time></trkpt><trkpt lat="45.5562855130904" lon="11.903159151440692"><ele>18.0</ele><time>2026-04-03T09:15:46Z</time></trkpt><trkpt lat="45.556321030961335" lon="11.903305492024264"><ele>18.0</ele><time>2026-04-03T09:15:48Z</time></trkpt><trkpt lat="45.556361504433475" lon="11.903458316222128"><ele>18.0</ele><time>2026-04-03T09:15:50Z</time></trkpt><trkpt lat="45.5563992143734" lon="11.9036233918588"><ele>18.000000000000004</ele><time>2026-04-03T09:15:52Z</time></trkpt><trkpt lat="45.55641937910824" lon="11.903716489672048"><ele>18.0</ele><time>2026-04-03T09:15:53Z</time></trkpt><trkpt lat="45.55643816886431" lon="11.903818403283486"><ele>18.0</ele><time>2026-04-03T09:15:54Z</time></trkpt><trkpt lat="45.55644776394427" lon="11.903917423210087"><ele>18.0</ele><time>2026-04-03T09:15:55Z</time></trkpt><trkpt lat="45.55646623529007" lon="11.904012699969819"><ele>18.0</ele><time>2026-04-03T09:15:56Z</time></trkpt><trkpt lat="45.55649085310978" lon="11.904105340949867"><ele>18.000000000000004</ele><time>2026-04-03T09:15:57Z</time></trkpt><trkpt lat="45.556511709263" lon="11.90419641002231"><ele>18.0</ele><time>2026-04-03T09:15:58Z</time></trkpt><trkpt lat="45.5565301232214" lon="11.904289832931028"><ele>18.2</ele><time>2026-04-03T09:15:59Z</time></trkpt><trkpt lat="45.55656108440574" lon="11.904462209821828"><ele>18.4</ele><time>2026-04-03T09:16:01Z</time></trkpt><trkpt lat="45.55658061321986" lon="11.90454852630894"><ele>18.599999999999998</ele><time>2026-04-03T09:16:02Z</time></trkpt><trkpt lat="45.55661977563931" lon="11.904710070050353"><ele>18.8</ele><time>2026-04-03T09:16:04Z</time></trkpt><trkpt lat="45.55665606586096" lon="11.904869711533209"><ele>19.0</ele><time>2026-04-03T09:16:06Z</time></trkpt><trkpt lat="45.55668449436061" lon="11.905027822393839"><ele>19.2</ele><time>2026-04-03T09:16:08Z</time></trkpt><trkpt lat="45.55672077251559" lon="11.905185707513798"><ele>19.4</ele><time>2026-04-03T09:16:10Z</time></trkpt><trkpt lat="45.556755355939096" lon="11.90534406655556"><ele>19.6</ele><time>2026-04-03T09:16:12Z</time></trkpt><trkpt lat="45.556788831190104" lon="11.905513076711172"><ele>19.8</ele><time>2026-04-03T09:16:14Z</time></trkpt><trkpt lat="45.55680973500911" lon="11.90560806974323"><ele>20.0</ele><time>2026-04-03T09:16:15Z</time></trkpt><trkpt lat="45.55682974516037" lon="11.905703496864332"><ele>20.0</ele><time>2026-04-03T09:16:16Z</time></trkpt><trkpt lat="45.556849446643696" lon="11.905789898946573"><ele>20.0</ele><time>2026-04-03T09:16:17Z</time></trkpt><trkpt lat="45.55688489570939" lon="11.905953152691193"><ele>20.0</ele><time>2026-04-03T09:16:19Z</time></trkpt><trkpt lat="45.55690980099508" lon="11.906096981239228"><ele>20.0</ele><time>2026-04-03T09:16:21Z</time></trkpt><trkpt lat="45.556943726994184" lon="11.90625297100364"><ele>20.0</ele><time>2026-04-03T09:16:23Z</time></trkpt><trkpt lat="45.55697748543635" lon="11.90640101198582"><ele>20.0</ele><time>2026-04-03T09:16:25Z</time></trkpt><trkpt lat="45.5570079129715" lon="11.906542349548086"><ele>20.0</ele><time>2026-04-03T09:16:27Z</time></trkpt><trkpt lat="45.55703430210332" lon="11.90667501355281"><ele>20.0</ele><time>2026-04-03T09:16:29Z</time></trkpt><trkpt lat="45.557059382852046" lon="11.906805184910336"><ele>20.0</ele><time>2026-04-03T09:16:31Z</time></trkpt><trkpt lat="45.557082894565596" lon="11.906933045533268"><ele>20.0</ele><time>2026-04-03T09:16:33Z</time></trkpt><trkpt lat="45.55711297153107" lon="11.907052974984762"><ele>19.833333333333336</ele><time>2026-04-03T09:16:35Z</time></trkpt><trkpt lat="45.557141659161694" lon="11.90716082763941"><ele>19.666666666666668</ele><time>2026-04-03T09:16:37Z</time></trkpt><trkpt lat="45.55716620175178" lon="11.90727742610058"><ele>19.5</ele><time>2026-04-03T09:16:39Z</time></trkpt><trkpt lat="45.55718963279217" lon="11.907386123415735"><ele>19.333333333333332</ele><time>2026-04-03T09:16:41Z</time></trkpt><trkpt lat="45.5572209499048" lon="11.907493966945761"><ele>19.166666666666664</ele><time>2026-04-03T09:16:43Z</time></trkpt><trkpt lat="45.55724251360921" lon="11.907588495096796"><ele>19.0</ele><time>2026-04-03T09:16:45Z</time></trkpt><trkpt lat="45.55720401079798" lon="11.9076601101756"><ele>19.0</ele><time>2026-04-03T09:16:49Z</time></trkpt><trkpt lat="45.55715672958968" lon="11.907561813868261"><ele>19.0</ele><time>2026-04-03T09:16:52Z</time></trkpt><trkpt lat="45.55709034222315" lon="11.907502751991979"><ele>19.0</ele><time>2026-04-03T09:16:54Z</time></trkpt><trkpt lat="45.556993007719434" lon="11.907503020213952"><ele>19.0</ele><time>2026-04-03T09:16:56Z</time></trkpt><trkpt lat="45.556904341865184" lon="11.907516314963917"><ele>19.0</ele><time>2026-04-03T09:16:58Z</time></trkpt><trkpt lat="45.556817606483904" lon="11.907541063191358"><ele>19.0</ele><time>2026-04-03T09:17:00Z</time></trkpt><trkpt lat="45.55674514314033" lon="11.907562390693178"><ele>19.166666666666664</ele><time>2026-04-03T09:17:02Z</time></trkpt><trkpt lat="45.5566654864788" lon="11.907491558440421"><ele>19.333333333333332</ele><time>2026-04-03T09:17:05Z</time></trkpt><trkpt lat="45.55661968399396" lon="11.907405368639665"><ele>19.5</ele><time>2026-04-03T09:17:07Z</time></trkpt><trkpt lat="45.55658365677383" lon="11.907311273145732"><ele>19.666666666666668</ele><time>2026-04-03T09:17:09Z</time></trkpt><trkpt lat="45.55654550990725" lon="11.907206710523685"><ele>19.833333333333336</ele><time>2026-04-03T09:17:11Z</time></trkpt><trkpt lat="45.55651174822039" lon="11.907106281447083"><ele>20.0</ele><time>2026-04-03T09:17:13Z</time></trkpt><trkpt lat="45.556488271114375" lon="11.906995975441186"><ele>20.0</ele><time>2026-04-03T09:17:15Z</time></trkpt><trkpt lat="45.55646229528551" lon="11.906874510380476"><ele>20.0</ele><time>2026-04-03T09:17:17Z</time></trkpt><trkpt lat="45.55645060200285" lon="11.9067709956482"><ele>20.0</ele><time>2026-04-03T09:17:19Z</time></trkpt><trkpt lat="45.55643985768322" lon="11.906662698143371"><ele>20.0</ele><time>2026-04-03T09:17:21Z</time></trkpt><trkpt lat="45.55641911452565" lon="11.906563434067268"><ele>20.0</ele><time>2026-04-03T09:17:23Z</time></trkpt><trkpt lat="45.55637432023269" lon="11.906446205095735"><ele>20.0</ele><time>2026-04-03T09:17:26Z</time></trkpt><trkpt lat="45.556337414202815" lon="11.90637043488458"><ele>20.0</ele><time>2026-04-03T09:17:28Z</time></trkpt><trkpt lat="45.55629011353058" lon="11.906289307016202"><ele>20.0</ele><time>2026-04-03T09:17:30Z</time></trkpt><trkpt lat="45.556237351967795" lon="11.906228267094155"><ele>20.0</ele><time>2026-04-03T09:17:32Z</time></trkpt><trkpt lat="45.556176890256275" lon="11.9061758855855"><ele>20.0</ele><time>2026-04-03T09:17:34Z</time></trkpt><trkpt lat="45.55609315219823" lon="11.906132246510568"><ele>20.0</ele><time>2026-04-03T09:17:36Z</time></trkpt><trkpt lat="45.55599965929907" lon="11.906113683462962"><ele>20.0</ele><time>2026-04-03T09:17:38Z</time></trkpt><trkpt lat="45.555905785628894" lon="11.906148354629908"><ele>19.8</ele><time>2026-04-03T09:17:40Z</time></trkpt><trkpt lat="45.5558216062701" lon="11.90620979217888"><ele>19.6</ele><time>2026-04-03T09:17:42Z</time></trkpt><trkpt lat="45.555754380273655" lon="11.906300974842322"><ele>19.4</ele><time>2026-04-03T09:17:44Z</time></trkpt><trkpt lat="45.55569726550598" lon="11.906406523392073"><ele>19.2</ele><time>2026-04-03T09:17:46Z</time></trkpt><trkpt lat="45.55563041245213" lon="11.906508293376454"><ele>19.0</ele><time>2026-04-03T09:17:48Z</time></trkpt><trkpt lat="45.55555717204272" lon="11.906602095519435"><ele>19.0</ele><time>2026-04-03T09:17:50Z</time></trkpt><trkpt lat="45.555470867972325" lon="11.906662914338703"><ele>19.0</ele><time>2026-04-03T09:17:52Z</time></trkpt><trkpt lat="45.55538079764834" lon="11.906691144534722"><ele>19.0</ele><time>2026-04-03T09:17:54Z</time></trkpt><trkpt lat="45.55529046841477" lon="11.906717881112145"><ele>19.0</ele><time>2026-04-03T09:17:56Z</time></trkpt><trkpt lat="45.555200458720904" lon="11.906744616952453"><ele>19.0</ele><time>2026-04-03T09:17:58.001Z</time></trkpt><trkpt lat="45.55510889615823" lon="11.906763835055322"><ele>18.8</ele><time>2026-04-03T09:18:00.001Z</time></trkpt><trkpt lat="45.55501758256219" lon="11.906784861253092"><ele>18.599999999999998</ele><time>2026-04-03T09:18:02.001Z</time></trkpt><trkpt lat="45.5549293944754" lon="11.906787373005196"><ele>18.4</ele><time>2026-04-03T09:18:04.001Z</time></trkpt><trkpt lat="45.55484549904498" lon="11.906755849558154"><ele>18.2</ele><time>2026-04-03T09:18:06.001Z</time></trkpt><trkpt lat="45.55476049316521" lon="11.906697515112809"><ele>18.0</ele><time>2026-04-03T09:18:08.001Z</time></trkpt><trkpt lat="45.554688662674195" lon="11.906611229679509"><ele>18.0</ele><time>2026-04-03T09:18:10.001Z</time></trkpt><trkpt lat="45.554618938002065" lon="11.906531967134036"><ele>18.0</ele><time>2026-04-03T09:18:12.001Z</time></trkpt><trkpt lat="45.55455424721533" lon="11.906454696543205"><ele>18.0</ele><time>2026-04-03T09:18:14.001Z</time></trkpt><trkpt lat="45.5544929894715" lon="11.906382542963048"><ele>18.0</ele><time>2026-04-03T09:18:16Z</time></trkpt><trkpt lat="45.553642348428774" lon="11.905238432820799"><ele>18.0</ele><time>2026-04-03T09:18:49Z</time></trkpt><trkpt lat="45.553553500255155" lon="11.905206078674556"><ele>18.0</ele><time>2026-04-03T09:18:52Z</time></trkpt><trkpt lat="45.55347399790357" lon="11.905192332353353"><ele>18.0</ele><time>2026-04-03T09:18:54Z</time></trkpt><trkpt lat="45.553386574653494" lon="11.90519702621913"><ele>18.0</ele><time>2026-04-03T09:18:56Z</time></trkpt><trkpt lat="45.55329470862611" lon="11.905244191594072"><ele>18.0</ele><time>2026-04-03T09:18:58Z</time></trkpt><trkpt lat="45.553204874092536" lon="11.905259172799843"><ele>18.0</ele><time>2026-04-03T09:19:00Z</time></trkpt><trkpt lat="45.553117763280284" lon="11.905296867812915"><ele>18.0</ele><time>2026-04-03T09:19:02Z</time></trkpt><trkpt lat="45.553042666359154" lon="11.905331568684598"><ele>18.0</ele><time>2026-04-03T09:19:04Z</time></trkpt><trkpt lat="45.5529607667269" lon="11.905347905486188"><ele>18.0</ele><time>2026-04-03T09:19:06Z</time></trkpt><trkpt lat="45.552880280475705" lon="11.905393729069107"><ele>18.0</ele><time>2026-04-03T09:19:08Z</time></trkpt><trkpt lat="45.55278646940129" lon="11.90541626436025"><ele>18.0</ele><time>2026-04-03T09:19:10Z</time></trkpt><trkpt lat="45.55269289561867" lon="11.90543434355458"><ele>18.0</ele><time>2026-04-03T09:19:12Z</time></trkpt><trkpt lat="45.55260015404611" lon="11.905455797831966"><ele>18.0</ele><time>2026-04-03T09:19:14Z</time></trkpt><trkpt lat="45.55251667906562" lon="11.905509101022353"><ele>18.0</ele><time>2026-04-03T09:19:16Z</time></trkpt><trkpt lat="45.55245371375689" lon="11.905513886959568"><ele>18.0</ele><time>2026-04-03T09:19:17Z</time></trkpt><trkpt lat="45.55238057936421" lon="11.905600992984118"><ele>18.0</ele><time>2026-04-03T09:19:19Z</time></trkpt><trkpt lat="45.55231900049458" lon="11.905705501164318"><ele>18.0</ele><time>2026-04-03T09:19:21Z</time></trkpt><trkpt lat="45.55223959618388" lon="11.905788715364352"><ele>18.0</ele><time>2026-04-03T09:19:23Z</time></trkpt><trkpt lat="45.552136864793326" lon="11.905837099236463"><ele>18.2</ele><time>2026-04-03T09:19:25Z</time></trkpt><trkpt lat="45.55202599737371" lon="11.905856935705273"><ele>18.4</ele><time>2026-04-03T09:19:27Z</time></trkpt><trkpt lat="45.55191443513048" lon="11.905865625045298"><ele>18.599999999999998</ele><time>2026-04-03T09:19:29Z</time></trkpt><trkpt lat="45.55180739846077" lon="11.905900268763254"><ele>18.8</ele><time>2026-04-03T09:19:31Z</time></trkpt><trkpt lat="45.55169431910299" lon="11.905937269826177"><ele>19.0</ele><time>2026-04-03T09:19:33Z</time></trkpt><trkpt lat="45.55158868745078" lon="11.90600923985905"><ele>19.0</ele><time>2026-04-03T09:19:35Z</time></trkpt><trkpt lat="45.55148522119085" lon="11.906091802341521"><ele>19.0</ele><time>2026-04-03T09:19:37Z</time></trkpt><trkpt lat="45.55138350808433" lon="11.90616225671509"><ele>19.0</ele><time>2026-04-03T09:19:39Z</time></trkpt><trkpt lat="45.5512749200538" lon="11.906202271618332"><ele>19.0</ele><time>2026-04-03T09:19:41Z</time></trkpt><trkpt lat="45.55115893159562" lon="11.906178477176299"><ele>19.0</ele><time>2026-04-03T09:19:43Z</time></trkpt><trkpt lat="45.5510556376558" lon="11.906109365046046"><ele>19.0</ele><time>2026-04-03T09:19:45Z</time></trkpt><trkpt lat="45.55096263819868" lon="11.906043304163358"><ele>19.0</ele><time>2026-04-03T09:19:47Z</time></trkpt><trkpt lat="45.55087443843375" lon="11.90598726672941"><ele>19.0</ele><time>2026-04-03T09:19:49Z</time></trkpt><trkpt lat="45.55079079533357" lon="11.905930789028737"><ele>19.0</ele><time>2026-04-03T09:19:51Z</time></trkpt><trkpt lat="45.55072560423318" lon="11.90583363893162"><ele>19.0</ele><time>2026-04-03T09:19:53Z</time></trkpt><trkpt lat="45.550700322314036" lon="11.905696649530013"><ele>19.0</ele><time>2026-04-03T09:19:55Z</time></trkpt><trkpt lat="45.55068273520825" lon="11.90554812073392"><ele>19.0</ele><time>2026-04-03T09:19:57Z</time></trkpt><trkpt lat="45.55065688447838" lon="11.905410440210309"><ele>19.0</ele><time>2026-04-03T09:19:59Z</time></trkpt><trkpt lat="45.55060909226868" lon="11.905287894611583"><ele>19.0</ele><time>2026-04-03T09:20:01Z</time></trkpt><trkpt lat="45.55053643958609" lon="11.90518615066223"><ele>19.0</ele><time>2026-04-03T09:20:03Z</time></trkpt><trkpt lat="45.55044628439449" lon="11.905102965292357"><ele>19.0</ele><time>2026-04-03T09:20:05Z</time></trkpt><trkpt lat="45.55034929243382" lon="11.905039795943262"><ele>19.0</ele><time>2026-04-03T09:20:07Z</time></trkpt><trkpt lat="45.550250911404035" lon="11.905001751269115"><ele>19.0</ele><time>2026-04-03T09:20:09Z</time></trkpt><trkpt lat="45.55014381444291" lon="11.90499385266818"><ele>19.0</ele><time>2026-04-03T09:20:11Z</time></trkpt><trkpt lat="45.55004417003937" lon="11.905003811010308"><ele>18.599999999999998</ele><time>2026-04-03T09:20:13Z</time></trkpt><trkpt lat="45.549944203751764" lon="11.904993163583097"><ele>18.2</ele><time>2026-04-03T09:20:15Z</time></trkpt><trkpt lat="45.54984860828255" lon="11.904958045178839"><ele>17.799999999999997</ele><time>2026-04-03T09:20:17Z</time></trkpt><trkpt lat="45.54975313627692" lon="11.904909415201677"><ele>17.4</ele><time>2026-04-03T09:20:19Z</time></trkpt><trkpt lat="45.54965585194723" lon="11.904863507961123"><ele>17.0</ele><time>2026-04-03T09:20:21Z</time></trkpt><trkpt lat="45.549550114608174" lon="11.904851634117346"><ele>17.2</ele><time>2026-04-03T09:20:23Z</time></trkpt><trkpt lat="45.54944619467333" lon="11.904880465102433"><ele>17.4</ele><time>2026-04-03T09:20:25Z</time></trkpt><trkpt lat="45.549347315042205" lon="11.904944201224438"><ele>17.6</ele><time>2026-04-03T09:20:27Z</time></trkpt><trkpt lat="45.54925858336478" lon="11.905029077626097"><ele>17.8</ele><time>2026-04-03T09:20:29Z</time></trkpt><trkpt lat="45.54916962644641" lon="11.905105259275139"><ele>18.0</ele><time>2026-04-03T09:20:31Z</time></trkpt><trkpt lat="45.549080281346974" lon="11.905182549769359"><ele>18.0</ele><time>2026-04-03T09:20:33Z</time></trkpt><trkpt lat="45.548987528507695" lon="11.905251412260338"><ele>18.0</ele><time>2026-04-03T09:20:35Z</time></trkpt><trkpt lat="45.54889149238117" lon="11.90527724659049"><ele>18.0</ele><time>2026-04-03T09:20:37Z</time></trkpt><trkpt lat="45.54878564608341" lon="11.90526649316222"><ele>18.0</ele><time>2026-04-03T09:20:39Z</time></trkpt><trkpt lat="45.548664629453704" lon="11.905252629827414"><ele>18.0</ele><time>2026-04-03T09:20:41Z</time></trkpt><trkpt lat="45.54855305405281" lon="11.905262906486017"><ele>18.0</ele><time>2026-04-03T09:20:43Z</time></trkpt><trkpt lat="45.54845871531988" lon="11.905332164759502"><ele>18.0</ele><time>2026-04-03T09:20:45Z</time></trkpt><trkpt lat="45.54838668352989" lon="11.905440143572314"><ele>18.0</ele><time>2026-04-03T09:20:47Z</time></trkpt><trkpt lat="45.548331925747256" lon="11.905582818440752"><ele>18.0</ele><time>2026-04-03T09:20:49Z</time></trkpt><trkpt lat="45.548302234409455" lon="11.905666327624777"><ele>18.0</ele><time>2026-04-03T09:20:50Z</time></trkpt><trkpt lat="45.548266333772" lon="11.905748661421136"><ele>18.0</ele><time>2026-04-03T09:20:51Z</time></trkpt><trkpt lat="45.54822853968769" lon="11.905826639662003"><ele>18.0</ele><time>2026-04-03T09:20:52Z</time></trkpt><trkpt lat="45.54814173832014" lon="11.905954974408166"><ele>18.0</ele><time>2026-04-03T09:20:54Z</time></trkpt><trkpt lat="45.54803474571329" lon="11.906052800642593"><ele>18.0</ele><time>2026-04-03T09:20:56Z</time></trkpt><trkpt lat="45.54798490747496" lon="11.906108042279596"><ele>18.0</ele><time>2026-04-03T09:20:57Z</time></trkpt><trkpt lat="45.54789665005823" lon="11.906198151150994"><ele>18.4</ele><time>2026-04-03T09:20:59Z</time></trkpt><trkpt lat="45.54780462406931" lon="11.906268933694752"><ele>18.8</ele><time>2026-04-03T09:21:01Z</time></trkpt><trkpt lat="45.547706489924636" lon="11.906327198768404"><ele>19.2</ele><time>2026-04-03T09:21:03Z</time></trkpt><trkpt lat="45.54761613754666" lon="11.906386686363161"><ele>19.6</ele><time>2026-04-03T09:21:05Z</time></trkpt><trkpt lat="45.547533250304475" lon="11.90648210380971"><ele>20.0</ele><time>2026-04-03T09:21:07Z</time></trkpt><trkpt lat="45.54747600931298" lon="11.906602176239563"><ele>20.0</ele><time>2026-04-03T09:21:09Z</time></trkpt><trkpt lat="45.54744057690119" lon="11.90674058314587"><ele>20.0</ele><time>2026-04-03T09:21:11Z</time></trkpt><trkpt lat="45.54740998363045" lon="11.906865481807401"><ele>20.0</ele><time>2026-04-03T09:21:13Z</time></trkpt><trkpt lat="45.547358666665374" lon="11.906975606786695"><ele>20.0</ele><time>2026-04-03T09:21:15Z</time></trkpt><trkpt lat="45.547273677964164" lon="11.90705164575383"><ele>20.0</ele><time>2026-04-03T09:21:17Z</time></trkpt><trkpt lat="45.54717430550008" lon="11.907076814318689"><ele>20.0</ele><time>2026-04-03T09:21:19Z</time></trkpt><trkpt lat="45.54706716857983" lon="11.90708639204849"><ele>20.0</ele><time>2026-04-03T09:21:21Z</time></trkpt><trkpt lat="45.54696292324901" lon="11.907096503654971"><ele>20.0</ele><time>2026-04-03T09:21:23Z</time></trkpt><trkpt lat="45.546863284795236" lon="11.90710945613968"><ele>20.0</ele><time>2026-04-03T09:21:25Z</time></trkpt><trkpt lat="45.546756970135526" lon="11.9071195368187"><ele>20.0</ele><time>2026-04-03T09:21:27Z</time></trkpt><trkpt lat="45.546652349527534" lon="11.907144834985347"><ele>20.0</ele><time>2026-04-03T09:21:29Z</time></trkpt><trkpt lat="45.546551467399226" lon="11.907179067072832"><ele>20.0</ele><time>2026-04-03T09:21:31Z</time></trkpt><trkpt lat="45.54644090737314" lon="11.907230810070098"><ele>20.0</ele><time>2026-04-03T09:21:33Z</time></trkpt><trkpt lat="45.54634404931162" lon="11.907299723973848"><ele>20.0</ele><time>2026-04-03T09:21:35Z</time></trkpt><trkpt lat="45.546252071034765" lon="11.907369100122969"><ele>20.0</ele><time>2026-04-03T09:21:37Z</time></trkpt><trkpt lat="45.546172738932725" lon="11.907477795539172"><ele>19.6</ele><time>2026-04-03T09:21:39Z</time></trkpt><trkpt lat="45.546104114507536" lon="11.907598227694505"><ele>19.2</ele><time>2026-04-03T09:21:41Z</time></trkpt><trkpt lat="45.54607738258465" lon="11.907752566620774"><ele>18.8</ele><time>2026-04-03T09:21:43Z</time></trkpt><trkpt lat="45.54607003323538" lon="11.907901555534067"><ele>18.4</ele><time>2026-04-03T09:21:45Z</time></trkpt><trkpt lat="45.54604496252511" lon="11.908036149871183"><ele>18.0</ele><time>2026-04-03T09:21:47Z</time></trkpt><trkpt lat="45.54598648391525" lon="11.908128873785847"><ele>18.0</ele><time>2026-04-03T09:21:49Z</time></trkpt><trkpt lat="45.54589387499693" lon="11.908168145880849"><ele>18.0</ele><time>2026-04-03T09:21:51Z</time></trkpt><trkpt lat="45.5457980665974" lon="11.908178614125877"><ele>18.0</ele><time>2026-04-03T09:21:53Z</time></trkpt><trkpt lat="45.545704138056514" lon="11.908190814752636"><ele>18.0</ele><time>2026-04-03T09:21:55Z</time></trkpt><trkpt lat="45.54560972687052" lon="11.908192294268693"><ele>18.0</ele><time>2026-04-03T09:21:57Z</time></trkpt><trkpt lat="45.545514364908065" lon="11.908193489568376"><ele>18.0</ele><time>2026-04-03T09:21:59Z</time></trkpt><trkpt lat="45.54542329194043" lon="11.908174485801323"><ele>18.0</ele><time>2026-04-03T09:22:01Z</time></trkpt><trkpt lat="45.5453313394493" lon="11.908111693825493"><ele>18.0</ele><time>2026-04-03T09:22:03Z</time></trkpt><trkpt lat="45.54524682898169" lon="11.9080220075717"><ele>18.0</ele><time>2026-04-03T09:22:05Z</time></trkpt><trkpt lat="45.54517066436527" lon="11.90792875677799"><ele>18.0</ele><time>2026-04-03T09:22:07Z</time></trkpt><trkpt lat="45.54507484966193" lon="11.907881190571524"><ele>18.0</ele><time>2026-04-03T09:22:09Z</time></trkpt><trkpt lat="45.5449717314442" lon="11.907894341927317"><ele>18.0</ele><time>2026-04-03T09:22:11Z</time></trkpt><trkpt lat="45.54488639234584" lon="11.907987837873"><ele>18.0</ele><time>2026-04-03T09:22:13Z</time></trkpt><trkpt lat="45.544820409133195" lon="11.908121140878622"><ele>18.0</ele><time>2026-04-03T09:22:15Z</time></trkpt><trkpt lat="45.54474931726025" lon="11.908249694585313"><ele>18.0</ele><time>2026-04-03T09:22:17Z</time></trkpt><trkpt lat="45.54466567121062" lon="11.908343872037007"><ele>18.166666666666668</ele><time>2026-04-03T09:22:19Z</time></trkpt><trkpt lat="45.54459076460174" lon="11.908428289790505"><ele>18.333333333333332</ele><time>2026-04-03T09:22:21Z</time></trkpt><trkpt lat="45.54452578409026" lon="11.908520152364058"><ele>18.5</ele><time>2026-04-03T09:22:23Z</time></trkpt><trkpt lat="45.544470727411735" lon="11.908618577681656"><ele>18.666666666666664</ele><time>2026-04-03T09:22:25Z</time></trkpt><trkpt lat="45.544426192371134" lon="11.908727034788157"><ele>18.833333333333332</ele><time>2026-04-03T09:22:27Z</time></trkpt><trkpt lat="45.54439061609145" lon="11.90883398091344"><ele>19.0</ele><time>2026-04-03T09:22:29Z</time></trkpt><trkpt lat="45.54435754773104" lon="11.90894592323384"><ele>19.0</ele><time>2026-04-03T09:22:31Z</time></trkpt><trkpt lat="45.54432651312164" lon="11.909053996863255"><ele>19.0</ele><time>2026-04-03T09:22:33Z</time></trkpt><trkpt lat="45.544290225946476" lon="11.909149943768004"><ele>19.0</ele><time>2026-04-03T09:22:35Z</time></trkpt><trkpt lat="45.544238401999344" lon="11.909233999584943"><ele>19.0</ele><time>2026-04-03T09:22:37Z</time></trkpt><trkpt lat="45.5441649688534" lon="11.90930242626873"><ele>19.0</ele><time>2026-04-03T09:22:39Z</time></trkpt><trkpt lat="45.544093039826144" lon="11.909363467612073"><ele>19.0</ele><time>2026-04-03T09:22:41Z</time></trkpt><trkpt lat="45.54402883779676" lon="11.90944345570583"><ele>19.799999999999997</ele><time>2026-04-03T09:22:43Z</time></trkpt><trkpt lat="45.5439744212922" lon="11.909564978191822"><ele>20.599999999999998</ele><time>2026-04-03T09:22:45Z</time></trkpt><trkpt lat="45.54392698024084" lon="11.909695839033443"><ele>21.4</ele><time>2026-04-03T09:22:47Z</time></trkpt><trkpt lat="45.54390464433371" lon="11.909815612707305"><ele>22.2</ele><time>2026-04-03T09:22:49Z</time></trkpt><trkpt lat="45.54386250252964" lon="11.909924255295127"><ele>23.0</ele><time>2026-04-03T09:22:51Z</time></trkpt><trkpt lat="45.543795739187104" lon="11.909991528265527"><ele>23.0</ele><time>2026-04-03T09:22:53Z</time></trkpt><trkpt lat="45.54371832420094" lon="11.91000922777206"><ele>23.0</ele><time>2026-04-03T09:22:55Z</time></trkpt><trkpt lat="45.54363526896245" lon="11.910012729675321"><ele>23.0</ele><time>2026-04-03T09:22:57Z</time></trkpt><trkpt lat="45.54354988241359" lon="11.909976518778466"><ele>23.0</ele><time>2026-04-03T09:22:59Z</time></trkpt><trkpt lat="45.54346714061284" lon="11.909927740349419"><ele>23.0</ele><time>2026-04-03T09:23:01Z</time></trkpt><trkpt lat="45.54338515532684" lon="11.90988574186687"><ele>23.0</ele><time>2026-04-03T09:23:03Z</time></trkpt><trkpt lat="45.54330752831729" lon="11.90982758648065"><ele>22.28571428571429</ele><time>2026-04-03T09:23:05Z</time></trkpt><trkpt lat="45.54323249879997" lon="11.909784827704259"><ele>21.57142857142857</ele><time>2026-04-03T09:23:07Z</time></trkpt><trkpt lat="45.54316144430322" lon="11.90976857757151"><ele>20.857142857142858</ele><time>2026-04-03T09:23:09Z</time></trkpt><trkpt lat="45.5430912361927" lon="11.909766681416029"><ele>20.142857142857146</ele><time>2026-04-03T09:23:11Z</time></trkpt><trkpt lat="45.54301864848405" lon="11.909790022505671"><ele>19.42857142857143</ele><time>2026-04-03T09:23:13Z</time></trkpt><trkpt lat="45.54295636065014" lon="11.909841022162153"><ele>18.714285714285715</ele><time>2026-04-03T09:23:15Z</time></trkpt><trkpt lat="45.54291524370225" lon="11.909912370929883"><ele>18.0</ele><time>2026-04-03T09:23:17Z</time></trkpt><trkpt lat="45.54286853673074" lon="11.909986076457592"><ele>18.000000000000004</ele><time>2026-04-03T09:23:19Z</time></trkpt><trkpt lat="45.54282627788571" lon="11.910065396038531"><ele>18.0</ele><time>2026-04-03T09:23:21Z</time></trkpt><trkpt lat="45.542770432793624" lon="11.910138769577589"><ele>18.0</ele><time>2026-04-03T09:23:23Z</time></trkpt><trkpt lat="45.54270196852814" lon="11.91019139675337"><ele>18.0</ele><time>2026-04-03T09:23:25Z</time></trkpt><trkpt lat="45.54263824767634" lon="11.9102478203315"><ele>18.0</ele><time>2026-04-03T09:23:27Z</time></trkpt><trkpt lat="45.54257647930642" lon="11.91029518360972"><ele>18.000000000000004</ele><time>2026-04-03T09:23:29Z</time></trkpt><trkpt lat="45.54249678768168" lon="11.910302854851682"><ele>18.0</ele><time>2026-04-03T09:23:32Z</time></trkpt><trkpt lat="45.54242989798059" lon="11.910281775420847"><ele>18.0</ele><time>2026-04-03T09:23:36Z</time></trkpt><trkpt lat="45.542498555474175" lon="11.910288770951867"><ele>18.0</ele><time>2026-04-03T09:24:41Z</time></trkpt><trkpt lat="45.54269802145351" lon="11.91018090854043"><ele>18.0</ele><time>2026-04-03T09:24:47Z</time></trkpt><trkpt lat="45.54278570408509" lon="11.910106744925294"><ele>18.0</ele><time>2026-04-03T09:24:49Z</time></trkpt><trkpt lat="45.54285750863846" lon="11.910017735598846"><ele>18.0</ele><time>2026-04-03T09:24:51Z</time></trkpt><trkpt lat="45.542909298571175" lon="11.909904607986114"><ele>18.0</ele><time>2026-04-03T09:24:53Z</time></trkpt><trkpt lat="45.54298233029124" lon="11.90981421928218"><ele>18.0</ele><time>2026-04-03T09:24:55Z</time></trkpt><trkpt lat="45.54307429638535" lon="11.90976483978978"><ele>18.0</ele><time>2026-04-03T09:24:57Z</time></trkpt><trkpt lat="45.5431717979125" lon="11.909760552389256"><ele>18.0</ele><time>2026-04-03T09:24:59Z</time></trkpt><trkpt lat="45.54326178915441" lon="11.909790496912308"><ele>18.0</ele><time>2026-04-03T09:25:01Z</time></trkpt><trkpt lat="45.543341008156276" lon="11.909845574797552"><ele>18.0</ele><time>2026-04-03T09:25:03Z</time></trkpt><trkpt lat="45.54342739288244" lon="11.909899103815999"><ele>18.0</ele><time>2026-04-03T09:25:05Z</time></trkpt><trkpt lat="45.543517897091085" lon="11.909945563310405"><ele>18.0</ele><time>2026-04-03T09:25:07Z</time></trkpt><trkpt lat="45.543609976209275" lon="11.90999361802176"><ele>18.0</ele><time>2026-04-03T09:25:09Z</time></trkpt><trkpt lat="45.543712142294446" lon="11.910003791608297"><ele>19.0</ele><time>2026-04-03T09:25:11Z</time></trkpt><trkpt lat="45.54380440884648" lon="11.909981778351002"><ele>20.0</ele><time>2026-04-03T09:25:13Z</time></trkpt><trkpt lat="45.54387482502363" lon="11.909908897990285"><ele>21.0</ele><time>2026-04-03T09:25:15Z</time></trkpt><trkpt lat="45.54391126362375" lon="11.909787663469316"><ele>22.0</ele><time>2026-04-03T09:25:17Z</time></trkpt><trkpt lat="45.543945610553294" lon="11.90965111905304"><ele>23.0</ele><time>2026-04-03T09:25:19Z</time></trkpt><trkpt lat="45.54399225266796" lon="11.909521484434455"><ele>23.0</ele><time>2026-04-03T09:25:21Z</time></trkpt><trkpt lat="45.544059408309884" lon="11.909413355596675"><ele>23.0</ele><time>2026-04-03T09:25:23Z</time></trkpt><trkpt lat="45.54414461853701" lon="11.909329989612065"><ele>23.0</ele><time>2026-04-03T09:25:25Z</time></trkpt><trkpt lat="45.5442273997712" lon="11.909243303580517"><ele>23.0</ele><time>2026-04-03T09:25:27Z</time></trkpt><trkpt lat="45.54430269380188" lon="11.909145801862511"><ele>23.0</ele><time>2026-04-03T09:25:29Z</time></trkpt><trkpt lat="45.544342700819904" lon="11.90900397491529"><ele>22.2</ele><time>2026-04-03T09:25:31Z</time></trkpt><trkpt lat="45.54438420569972" lon="11.908867984013572"><ele>21.4</ele><time>2026-04-03T09:25:33Z</time></trkpt><trkpt lat="45.544426860088784" lon="11.908733040069023"><ele>20.599999999999998</ele><time>2026-04-03T09:25:35Z</time></trkpt><trkpt lat="45.544484852422364" lon="11.90859527121656"><ele>19.799999999999997</ele><time>2026-04-03T09:25:37Z</time></trkpt><trkpt lat="45.544564636980446" lon="11.908473853997926"><ele>19.0</ele><time>2026-04-03T09:25:39Z</time></trkpt><trkpt lat="45.54465053695051" lon="11.908364940535872"><ele>18.8</ele><time>2026-04-03T09:25:41Z</time></trkpt><trkpt lat="45.54473694389359" lon="11.908257213295322"><ele>18.599999999999998</ele><time>2026-04-03T09:25:43Z</time></trkpt><trkpt lat="45.544816441412955" lon="11.908147701604566"><ele>18.4</ele><time>2026-04-03T09:25:45Z</time></trkpt><trkpt lat="45.54487390215927" lon="11.90802804317464"><ele>18.2</ele><time>2026-04-03T09:25:47Z</time></trkpt><trkpt lat="45.54493581728975" lon="11.907934985367657"><ele>18.0</ele><time>2026-04-03T09:25:49Z</time></trkpt><trkpt lat="45.54502270119184" lon="11.9078844019575"><ele>18.0</ele><time>2026-04-03T09:25:51Z</time></trkpt><trkpt lat="45.545122408896106" lon="11.90789704930436"><ele>18.0</ele><time>2026-04-03T09:25:53Z</time></trkpt><trkpt lat="45.545208795563774" lon="11.907974704203703"><ele>18.0</ele><time>2026-04-03T09:25:55Z</time></trkpt><trkpt lat="45.54528328429094" lon="11.908077315840234"><ele>18.0</ele><time>2026-04-03T09:25:57Z</time></trkpt><trkpt lat="45.54537282520042" lon="11.908158889792375"><ele>18.0</ele><time>2026-04-03T09:25:59Z</time></trkpt><trkpt lat="45.545471874478686" lon="11.908205373338237"><ele>18.0</ele><time>2026-04-03T09:26:01Z</time></trkpt><trkpt lat="45.54558065204103" lon="11.90820858623004"><ele>18.0</ele><time>2026-04-03T09:26:03Z</time></trkpt><trkpt lat="45.545683240581454" lon="11.90821453576435"><ele>18.0</ele><time>2026-04-03T09:26:05Z</time></trkpt><trkpt lat="45.545777162723006" lon="11.90820151272303"><ele>18.0</ele><time>2026-04-03T09:26:07Z</time></trkpt><trkpt lat="45.54587729825567" lon="11.908186102178623"><ele>18.0</ele><time>2026-04-03T09:26:09Z</time></trkpt><trkpt lat="45.54595785472741" lon="11.908156330650273"><ele>18.0</ele><time>2026-04-03T09:26:11Z</time></trkpt><trkpt lat="45.54602436121078" lon="11.908100544903604"><ele>18.0</ele><time>2026-04-03T09:26:13Z</time></trkpt><trkpt lat="45.546068622136" lon="11.907979529899865"><ele>18.0</ele><time>2026-04-03T09:26:15Z</time></trkpt><trkpt lat="45.5460785236072" lon="11.907834232361873"><ele>18.0</ele><time>2026-04-03T09:26:17Z</time></trkpt><trkpt lat="45.546087044652914" lon="11.907691681081724"><ele>18.0</ele><time>2026-04-03T09:26:19Z</time></trkpt><trkpt lat="45.54611332885022" lon="11.9075771217134"><ele>18.333333333333332</ele><time>2026-04-03T09:26:21Z</time></trkpt><trkpt lat="45.54616711196745" lon="11.907464378344619"><ele>18.666666666666668</ele><time>2026-04-03T09:26:23Z</time></trkpt><trkpt lat="45.546243871386025" lon="11.907392739346411"><ele>19.0</ele><time>2026-04-03T09:26:25Z</time></trkpt><trkpt lat="45.54631710033202" lon="11.907327847461024"><ele>19.333333333333336</ele><time>2026-04-03T09:26:27Z</time></trkpt><trkpt lat="45.54638702598142" lon="11.907272925539933"><ele>19.666666666666668</ele><time>2026-04-03T09:26:29Z</time></trkpt><trkpt lat="45.54647439714205" lon="11.90722594655455"><ele>20.0</ele><time>2026-04-03T09:26:31Z</time></trkpt><trkpt lat="45.5465609939035" lon="11.907183021999117"><ele>20.0</ele><time>2026-04-03T09:26:33Z</time></trkpt><trkpt lat="45.54666081928952" lon="11.907150569124497"><ele>20.0</ele><time>2026-04-03T09:26:35Z</time></trkpt><trkpt lat="45.54677056150094" lon="11.907137048865664"><ele>20.0</ele><time>2026-04-03T09:26:37Z</time></trkpt><trkpt lat="45.54687205801104" lon="11.907117902406567"><ele>20.0</ele><time>2026-04-03T09:26:39Z</time></trkpt><trkpt lat="45.546981920356096" lon="11.907107295358001"><ele>20.0</ele><time>2026-04-03T09:26:41Z</time></trkpt><trkpt lat="45.54708930002938" lon="11.907095493895694"><ele>20.0</ele><time>2026-04-03T09:26:43Z</time></trkpt><trkpt lat="45.54719121113621" lon="11.90707965148451"><ele>20.0</ele><time>2026-04-03T09:26:45Z</time></trkpt><trkpt lat="45.547289371420334" lon="11.907041732972498"><ele>20.0</ele><time>2026-04-03T09:26:47Z</time></trkpt><trkpt lat="45.54737254902693" lon="11.906961747606598"><ele>20.0</ele><time>2026-04-03T09:26:49Z</time></trkpt><trkpt lat="45.54742538272854" lon="11.906827766564467"><ele>20.0</ele><time>2026-04-03T09:26:51Z</time></trkpt><trkpt lat="45.547464894822795" lon="11.906678532481875"><ele>20.0</ele><time>2026-04-03T09:26:53Z</time></trkpt><trkpt lat="45.54752223816966" lon="11.906537698490098"><ele>20.0</ele><time>2026-04-03T09:26:55Z</time></trkpt><trkpt lat="45.54759545296655" lon="11.906423078603183"><ele>20.0</ele><time>2026-04-03T09:26:57Z</time></trkpt><trkpt lat="45.547697766401384" lon="11.906348809325479"><ele>20.0</ele><time>2026-04-03T09:26:59Z</time></trkpt><trkpt lat="45.547809582624566" lon="11.906284201983942"><ele>19.8</ele><time>2026-04-03T09:27:01Z</time></trkpt><trkpt lat="45.54790880039873" lon="11.906213905429615"><ele>19.6</ele><time>2026-04-03T09:27:03Z</time></trkpt><trkpt lat="45.54800271103732" lon="11.906120984691874"><ele>19.4</ele><time>2026-04-03T09:27:05Z</time></trkpt><trkpt lat="45.54809427891669" lon="11.906028359868959"><ele>19.2</ele><time>2026-04-03T09:27:07Z</time></trkpt><trkpt lat="45.54817884308042" lon="11.90593550793017"><ele>19.0</ele><time>2026-04-03T09:27:09Z</time></trkpt><trkpt lat="45.548254004211024" lon="11.905833624851125"><ele>18.8</ele><time>2026-04-03T09:27:11Z</time></trkpt><trkpt lat="45.54830861185088" lon="11.905707868088964"><ele>18.599999999999998</ele><time>2026-04-03T09:27:13Z</time></trkpt><trkpt lat="45.54836087856862" lon="11.905581082528657"><ele>18.4</ele><time>2026-04-03T09:27:15Z</time></trkpt><trkpt lat="45.54841438662559" lon="11.905445972985186"><ele>18.2</ele><time>2026-04-03T09:27:17Z</time></trkpt><trkpt lat="45.548489021042286" lon="11.905343008392656"><ele>18.0</ele><time>2026-04-03T09:27:19Z</time></trkpt><trkpt lat="45.54858541794781" lon="11.905284990439265"><ele>18.0</ele><time>2026-04-03T09:27:21Z</time></trkpt><trkpt lat="45.548697705584104" lon="11.905268552027445"><ele>18.0</ele><time>2026-04-03T09:27:23Z</time></trkpt><trkpt lat="45.54880263634629" lon="11.905290805572761"><ele>18.0</ele><time>2026-04-03T09:27:25Z</time></trkpt><trkpt lat="45.548915582900364" lon="11.905297407865783"><ele>18.0</ele><time>2026-04-03T09:27:27Z</time></trkpt><trkpt lat="45.54902175098521" lon="11.905263483108259"><ele>18.0</ele><time>2026-04-03T09:27:29Z</time></trkpt><trkpt lat="45.54912090102051" lon="11.905180562031251"><ele>18.0</ele><time>2026-04-03T09:27:31Z</time></trkpt><trkpt lat="45.54922315211403" lon="11.905086238599647"><ele>18.0</ele><time>2026-04-03T09:27:33Z</time></trkpt><trkpt lat="45.54932929057576" lon="11.904994396491979"><ele>18.0</ele><time>2026-04-03T09:27:35Z</time></trkpt><trkpt lat="45.54942837059731" lon="11.904909268652991"><ele>18.0</ele><time>2026-04-03T09:27:37Z</time></trkpt><trkpt lat="45.54953210706441" lon="11.904869530837336"><ele>17.8</ele><time>2026-04-03T09:27:39Z</time></trkpt><trkpt lat="45.549642439183685" lon="11.9048713190638"><ele>17.6</ele><time>2026-04-03T09:27:41Z</time></trkpt><trkpt lat="45.54975064223938" lon="11.904920677154223"><ele>17.4</ele><time>2026-04-03T09:27:43Z</time></trkpt><trkpt lat="45.549853409408094" lon="11.90497490051576"><ele>17.2</ele><time>2026-04-03T09:27:45Z</time></trkpt><trkpt lat="45.54996240683436" lon="11.905021057283678"><ele>17.0</ele><time>2026-04-03T09:27:47Z</time></trkpt><trkpt lat="45.550078996027636" lon="11.90502899688925"><ele>17.0</ele><time>2026-04-03T09:27:49Z</time></trkpt><trkpt lat="45.55019513954098" lon="11.905017801606599"><ele>17.0</ele><time>2026-04-03T09:27:51Z</time></trkpt><trkpt lat="45.55031047514129" lon="11.905035338503545"><ele>17.0</ele><time>2026-04-03T09:27:53Z</time></trkpt><trkpt lat="45.5504173028408" lon="11.905098269627956"><ele>17.0</ele><time>2026-04-03T09:27:55Z</time></trkpt><trkpt lat="45.55051464729861" lon="11.90518915995029"><ele>17.5</ele><time>2026-04-03T09:27:57Z</time></trkpt><trkpt lat="45.55060601739914" lon="11.905295124521757"><ele>18.0</ele><time>2026-04-03T09:27:59Z</time></trkpt><trkpt lat="45.55065944285733" lon="11.905429317508151"><ele>18.5</ele><time>2026-04-03T09:28:01Z</time></trkpt><trkpt lat="45.550685881869896" lon="11.905594281132666"><ele>19.0</ele><time>2026-04-03T09:28:03Z</time></trkpt><trkpt lat="45.55070717253185" lon="11.905746831279851"><ele>19.0</ele><time>2026-04-03T09:28:05Z</time></trkpt><trkpt lat="45.55074298897885" lon="11.905898109319953"><ele>19.0</ele><time>2026-04-03T09:28:07Z</time></trkpt><trkpt lat="45.55083915913211" lon="11.905995017333359"><ele>19.0</ele><time>2026-04-03T09:28:09Z</time></trkpt><trkpt lat="45.5509436411766" lon="11.906049329332571"><ele>19.0</ele><time>2026-04-03T09:28:11Z</time></trkpt><trkpt lat="45.55100030691914" lon="11.906088961061123"><ele>19.0</ele><time>2026-04-03T09:28:12Z</time></trkpt><trkpt lat="45.55110596934976" lon="11.906154113450143"><ele>19.0</ele><time>2026-04-03T09:28:14Z</time></trkpt><trkpt lat="45.55121653929066" lon="11.906213807105583"><ele>19.0</ele><time>2026-04-03T09:28:16Z</time></trkpt><trkpt lat="45.55133372031493" lon="11.90621633988754"><ele>19.0</ele><time>2026-04-03T09:28:18Z</time></trkpt><trkpt lat="45.55144795917091" lon="11.906148358034708"><ele>19.0</ele><time>2026-04-03T09:28:20Z</time></trkpt><trkpt lat="45.55155656123139" lon="11.90606149357842"><ele>19.0</ele><time>2026-04-03T09:28:22Z</time></trkpt><trkpt lat="45.55166250600217" lon="11.905981999718447"><ele>19.0</ele><time>2026-04-03T09:28:24Z</time></trkpt><trkpt lat="45.55176758433612" lon="11.905928894191776"><ele>19.0</ele><time>2026-04-03T09:28:26Z</time></trkpt><trkpt lat="45.551869020322236" lon="11.905893407577585"><ele>19.0</ele><time>2026-04-03T09:28:28Z</time></trkpt><trkpt lat="45.55198287802738" lon="11.905881381933929"><ele>18.8</ele><time>2026-04-03T09:28:30Z</time></trkpt><trkpt lat="45.552091803802476" lon="11.90586453111966"><ele>18.599999999999998</ele><time>2026-04-03T09:28:32Z</time></trkpt><trkpt lat="45.5522035671267" lon="11.905844182027263"><ele>18.4</ele><time>2026-04-03T09:28:34Z</time></trkpt><trkpt lat="45.55229968529076" lon="11.905768818725326"><ele>18.2</ele><time>2026-04-03T09:28:36Z</time></trkpt><trkpt lat="45.552380873423544" lon="11.905661734222752"><ele>18.0</ele><time>2026-04-03T09:28:38Z</time></trkpt><trkpt lat="45.55246232409431" lon="11.905544781296735"><ele>18.0</ele><time>2026-04-03T09:28:40Z</time></trkpt><trkpt lat="45.55255994768459" lon="11.905459453210673"><ele>18.0</ele><time>2026-04-03T09:28:42Z</time></trkpt><trkpt lat="45.55262230207484" lon="11.905435834194181"><ele>18.0</ele><time>2026-04-03T09:28:43Z</time></trkpt><trkpt lat="45.55273807327816" lon="11.905417710414847"><ele>18.0</ele><time>2026-04-03T09:28:45Z</time></trkpt><trkpt lat="45.55296065709327" lon="11.90534867185818"><ele>18.0</ele><time>2026-04-03T09:28:49Z</time></trkpt><trkpt lat="45.55307793171528" lon="11.905302266021792"><ele>18.0</ele><time>2026-04-03T09:28:51Z</time></trkpt><trkpt lat="45.553188120093374" lon="11.905265365627443"><ele>18.0</ele><time>2026-04-03T09:28:53Z</time></trkpt><trkpt lat="45.55329961557376" lon="11.905236285431174"><ele>18.0</ele><time>2026-04-03T09:28:55Z</time></trkpt><trkpt lat="45.5534190504338" lon="11.90521271606514"><ele>18.0</ele><time>2026-04-03T09:28:57Z</time></trkpt><trkpt lat="45.55353635141758" lon="11.905217902628793"><ele>18.0</ele><time>2026-04-03T09:28:59Z</time></trkpt><trkpt lat="45.553650841648754" lon="11.905284889263623"><ele>18.0</ele><time>2026-04-03T09:29:01Z</time></trkpt><trkpt lat="45.553741040694646" lon="11.905389376360851"><ele>18.0</ele><time>2026-04-03T09:29:03Z</time></trkpt><trkpt lat="45.553822267470935" lon="11.905510206195752"><ele>18.0</ele><time>2026-04-03T09:29:05Z</time></trkpt><trkpt lat="45.55390125175787" lon="11.905627737940184"><ele>18.0</ele><time>2026-04-03T09:29:07Z</time></trkpt><trkpt lat="45.55398489240197" lon="11.905752876756097"><ele>18.0</ele><time>2026-04-03T09:29:09Z</time></trkpt><trkpt lat="45.55406701240488" lon="11.905877126097433"><ele>18.0</ele><time>2026-04-03T09:29:11Z</time></trkpt><trkpt lat="45.554154114065824" lon="11.90600106999256"><ele>18.0</ele><time>2026-04-03T09:29:13Z</time></trkpt><trkpt lat="45.554245515185286" lon="11.906121515158734"><ele>18.0</ele><time>2026-04-03T09:29:15Z</time></trkpt><trkpt lat="45.55429151665744" lon="11.906183547974313"><ele>18.0</ele><time>2026-04-03T09:29:16Z</time></trkpt><trkpt lat="45.554343084010966" lon="11.906239391429972"><ele>18.0</ele><time>2026-04-03T09:29:17Z</time></trkpt><trkpt lat="45.554392825042996" lon="11.906297334323312"><ele>18.0</ele><time>2026-04-03T09:29:18Z</time></trkpt><trkpt lat="45.55448749737395" lon="11.90640133745697"><ele>18.0</ele><time>2026-04-03T09:29:20Z</time></trkpt><trkpt lat="45.55457256048007" lon="11.906503730523706"><ele>18.0</ele><time>2026-04-03T09:29:22Z</time></trkpt><trkpt lat="45.554657472740885" lon="11.906593335999315"><ele>18.0</ele><time>2026-04-03T09:29:24Z</time></trkpt><trkpt lat="45.55474218375614" lon="11.906693667520218"><ele>18.0</ele><time>2026-04-03T09:29:26Z</time></trkpt><trkpt lat="45.554828311383254" lon="11.906781946198622"><ele>18.0</ele><time>2026-04-03T09:29:28Z</time></trkpt><trkpt lat="45.55492870018738" lon="11.906817488507825"><ele>18.0</ele><time>2026-04-03T09:29:30Z</time></trkpt><trkpt lat="45.5550364021902" lon="11.906812623250893"><ele>18.0</ele><time>2026-04-03T09:29:32Z</time></trkpt><trkpt lat="45.555150236122905" lon="11.906796038317578"><ele>18.0</ele><time>2026-04-03T09:29:34Z</time></trkpt><trkpt lat="45.55526367723878" lon="11.906761990566006"><ele>18.0</ele><time>2026-04-03T09:29:36Z</time></trkpt><trkpt lat="45.55537903954537" lon="11.90673282643264"><ele>18.0</ele><time>2026-04-03T09:29:38Z</time></trkpt><trkpt lat="45.55549399350555" lon="11.906691181168833"><ele>18.25</ele><time>2026-04-03T09:29:40Z</time></trkpt><trkpt lat="45.55559905794058" lon="11.90661298610754"><ele>18.5</ele><time>2026-04-03T09:29:42Z</time></trkpt><trkpt lat="45.555679409108215" lon="11.906490907435755"><ele>18.75</ele><time>2026-04-03T09:29:44Z</time></trkpt><trkpt lat="45.55575351755586" lon="11.906367648557067"><ele>19.0</ele><time>2026-04-03T09:29:46Z</time></trkpt><trkpt lat="45.55583005041389" lon="11.906253076382162"><ele>19.0</ele><time>2026-04-03T09:29:48Z</time></trkpt><trkpt lat="45.55592106360225" lon="11.906159269092408"><ele>19.0</ele><time>2026-04-03T09:29:50Z</time></trkpt><trkpt lat="45.556031394119415" lon="11.906128864006703"><ele>19.0</ele><time>2026-04-03T09:29:52Z</time></trkpt><trkpt lat="45.55614649668388" lon="11.90616069485691"><ele>19.0</ele><time>2026-04-03T09:29:54Z</time></trkpt><trkpt lat="45.55624441248504" lon="11.906242526149594"><ele>19.25</ele><time>2026-04-03T09:29:56Z</time></trkpt><trkpt lat="45.55632830093431" lon="11.90635232470888"><ele>19.5</ele><time>2026-04-03T09:29:58Z</time></trkpt><trkpt lat="45.55639057025893" lon="11.906481097132039"><ele>19.75</ele><time>2026-04-03T09:30:00Z</time></trkpt><trkpt lat="45.556428952366716" lon="11.906632430272854"><ele>20.0</ele><time>2026-04-03T09:30:02Z</time></trkpt><trkpt lat="45.55645708087828" lon="11.906792647992525"><ele>20.0</ele><time>2026-04-03T09:30:04Z</time></trkpt><trkpt lat="45.55647246280003" lon="11.906949510725465"><ele>20.0</ele><time>2026-04-03T09:30:06Z</time></trkpt><trkpt lat="45.55650475087775" lon="11.907101018850964"><ele>20.0</ele><time>2026-04-03T09:30:08Z</time></trkpt><trkpt lat="45.55655108449507" lon="11.907232549470665"><ele>20.0</ele><time>2026-04-03T09:30:10Z</time></trkpt><trkpt lat="45.55660483978229" lon="11.907360902852465"><ele>20.0</ele><time>2026-04-03T09:30:12Z</time></trkpt><trkpt lat="45.5566680021073" lon="11.907480696743166"><ele>20.0</ele><time>2026-04-03T09:30:14Z</time></trkpt><trkpt lat="45.556744618255635" lon="11.907565215331337"><ele>20.0</ele><time>2026-04-03T09:30:16Z</time></trkpt><trkpt lat="45.556847444602205" lon="11.907556343198712"><ele>20.0</ele><time>2026-04-03T09:30:18Z</time></trkpt><trkpt lat="45.556954344940614" lon="11.907500155419463"><ele>20.0</ele><time>2026-04-03T09:30:20Z</time></trkpt><trkpt lat="45.55706040259704" lon="11.907506756832223"><ele>20.0</ele><time>2026-04-03T09:30:22Z</time></trkpt><trkpt lat="45.55714610801144" lon="11.907547241774038"><ele>20.166666666666668</ele><time>2026-04-03T09:30:24Z</time></trkpt><trkpt lat="45.55719601175553" lon="11.90763108162065"><ele>20.333333333333336</ele><time>2026-04-03T09:30:26Z</time></trkpt><trkpt lat="45.55724774056678" lon="11.907721532307411"><ele>20.5</ele><time>2026-04-03T09:30:30Z</time></trkpt><trkpt lat="45.55729276019699" lon="11.907799147871703"><ele>20.666666666666668</ele><time>2026-04-03T09:30:32Z</time></trkpt><trkpt lat="45.55731552267177" lon="11.907947893161168"><ele>20.833333333333332</ele><time>2026-04-03T09:30:34Z</time></trkpt><trkpt lat="45.55733335899575" lon="11.908098439035147"><ele>21.0</ele><time>2026-04-03T09:30:36Z</time></trkpt><trkpt lat="45.55736783058084" lon="11.908256174872474"><ele>21.25</ele><time>2026-04-03T09:30:38Z</time></trkpt><trkpt lat="45.557408675428036" lon="11.908415206010023"><ele>21.5</ele><time>2026-04-03T09:30:40Z</time></trkpt><trkpt lat="45.55743962374185" lon="11.908575882372352"><ele>21.75</ele><time>2026-04-03T09:30:42Z</time></trkpt><trkpt lat="45.55747545624734" lon="11.908734846319934"><ele>22.0</ele><time>2026-04-03T09:30:44Z</time></trkpt><trkpt lat="45.557512149787094" lon="11.908891432534661"><ele>22.0</ele><time>2026-04-03T09:30:46Z</time></trkpt><trkpt lat="45.557545507759876" lon="11.909052967852706"><ele>22.0</ele><time>2026-04-03T09:30:48Z</time></trkpt><trkpt lat="45.5575782468697" lon="11.909216232739345"><ele>22.0</ele><time>2026-04-03T09:30:50Z</time></trkpt><trkpt lat="45.557622058837254" lon="11.909369757148513"><ele>22.0</ele><time>2026-04-03T09:30:52Z</time></trkpt><trkpt lat="45.5576537363321" lon="11.909519639670712"><ele>22.0</ele><time>2026-04-03T09:30:54Z</time></trkpt><trkpt lat="45.55767927597737" lon="11.909659463214128"><ele>22.0</ele><time>2026-04-03T09:30:56Z</time></trkpt><trkpt lat="45.557701640949126" lon="11.909790528548937"><ele>22.0</ele><time>2026-04-03T09:30:58Z</time></trkpt><trkpt lat="45.557726746848836" lon="11.909911026045213"><ele>22.0</ele><time>2026-04-03T09:31:00Z</time></trkpt><trkpt lat="45.557754994955154" lon="11.910028490149065"><ele>22.0</ele><time>2026-04-03T09:31:02Z</time></trkpt><trkpt lat="45.557780045786004" lon="11.91014515646031"><ele>22.0</ele><time>2026-04-03T09:31:04Z</time></trkpt><trkpt lat="45.5577971328336" lon="11.91025441860406"><ele>22.0</ele><time>2026-04-03T09:31:06Z</time></trkpt><trkpt lat="45.55783471165496" lon="11.9103336902268"><ele>22.0</ele><time>2026-04-03T09:31:28Z</time></trkpt><trkpt lat="45.55791385430673" lon="11.91037768744621"><ele>22.0</ele><time>2026-04-03T09:31:31Z</time></trkpt><trkpt lat="45.55792241914822" lon="11.910485524273385"><ele>22.0</ele><time>2026-04-03T09:31:33Z</time></trkpt><trkpt lat="45.55789407365926" lon="11.910613953087488"><ele>22.0</ele><time>2026-04-03T09:31:35Z</time></trkpt><trkpt lat="45.557888658584076" lon="11.910764362071166"><ele>21.8</ele><time>2026-04-03T09:31:37Z</time></trkpt><trkpt lat="45.55781325692904" lon="11.910924234822698"><ele>21.6</ele><time>2026-04-03T09:31:39Z</time></trkpt><trkpt lat="45.55780874914985" lon="11.911069097392996"><ele>21.400000000000002</ele><time>2026-04-03T09:31:41Z</time></trkpt><trkpt lat="45.55779350135963" lon="11.911191108846111"><ele>21.200000000000003</ele><time>2026-04-03T09:31:43Z</time></trkpt><trkpt lat="45.557774531789484" lon="11.911336676143222"><ele>21.0</ele><time>2026-04-03T09:31:45Z</time></trkpt><trkpt lat="45.558065210073394" lon="11.911491928269522"><ele>21.0</ele><time>2026-04-03T09:31:46Z</time></trkpt><trkpt lat="45.558106835565916" lon="11.911669664511926"><ele>21.0</ele><time>2026-04-03T09:31:48Z</time></trkpt><trkpt lat="45.55813305412918" lon="11.911755164894315"><ele>21.0</ele><time>2026-04-03T09:31:49Z</time></trkpt><trkpt lat="45.558166647450435" lon="11.911927774187646"><ele>21.0</ele><time>2026-04-03T09:31:51Z</time></trkpt><trkpt lat="45.55818340233381" lon="11.912017722756914"><ele>21.0</ele><time>2026-04-03T09:31:52Z</time></trkpt><trkpt lat="45.55820255216763" lon="11.912107036939878"><ele>21.0</ele><time>2026-04-03T09:31:53Z</time></trkpt><trkpt lat="45.55822142388234" lon="11.912202436781312"><ele>21.0</ele><time>2026-04-03T09:31:54Z</time></trkpt><trkpt lat="45.558231214727655" lon="11.912299797883545"><ele>21.0</ele><time>2026-04-03T09:31:55Z</time></trkpt><trkpt lat="45.558249379753796" lon="11.912392969634976"><ele>21.0</ele><time>2026-04-03T09:31:56Z</time></trkpt><trkpt lat="45.55827265631838" lon="11.912486592641065"><ele>21.0</ele><time>2026-04-03T09:31:57Z</time></trkpt><trkpt lat="45.55829029516551" lon="11.912576381522802"><ele>21.0</ele><time>2026-04-03T09:31:58Z</time></trkpt><trkpt lat="45.55830726195005" lon="11.91266463047073"><ele>21.0</ele><time>2026-04-03T09:31:59Z</time></trkpt><trkpt lat="45.55832306621" lon="11.912757290013909"><ele>21.0</ele><time>2026-04-03T09:32:00Z</time></trkpt><trkpt lat="45.55836150937913" lon="11.912936862911447"><ele>21.0</ele><time>2026-04-03T09:32:02Z</time></trkpt><trkpt lat="45.55838655029361" lon="11.91303089861017"><ele>21.0</ele><time>2026-04-03T09:32:03Z</time></trkpt><trkpt lat="45.55840498012426" lon="11.913119924492387"><ele>21.0</ele><time>2026-04-03T09:32:04Z</time></trkpt><trkpt lat="45.55843115952945" lon="11.913243098575162"><ele>21.0</ele><time>2026-04-03T09:32:06Z</time></trkpt><trkpt lat="45.55845736828944" lon="11.91337044586949"><ele>20.857142857142858</ele><time>2026-04-03T09:32:08Z</time></trkpt><trkpt lat="45.5584868000218" lon="11.913518598820694"><ele>20.714285714285715</ele><time>2026-04-03T09:32:10Z</time></trkpt><trkpt lat="45.55851006690619" lon="11.913602512325701"><ele>20.57142857142857</ele><time>2026-04-03T09:32:11Z</time></trkpt><trkpt lat="45.558532818185235" lon="11.913688750932966"><ele>20.42857142857143</ele><time>2026-04-03T09:32:12Z</time></trkpt><trkpt lat="45.558546020897616" lon="11.91377896181183"><ele>20.285714285714285</ele><time>2026-04-03T09:32:13Z</time></trkpt><trkpt lat="45.558561073867914" lon="11.913877239780259"><ele>20.142857142857142</ele><time>2026-04-03T09:32:14Z</time></trkpt><trkpt lat="45.5585809424572" lon="11.913962930298673"><ele>20.0</ele><time>2026-04-03T09:32:15Z</time></trkpt><trkpt lat="45.55860697411133" lon="11.914052528553732"><ele>20.0</ele><time>2026-04-03T09:32:16Z</time></trkpt><trkpt lat="45.558623300949485" lon="11.91414264750417"><ele>20.0</ele><time>2026-04-03T09:32:17Z</time></trkpt><trkpt lat="45.558636789009796" lon="11.914232413688246"><ele>20.0</ele><time>2026-04-03T09:32:18Z</time></trkpt><trkpt lat="45.55866900973301" lon="11.914409758655077"><ele>20.0</ele><time>2026-04-03T09:32:20Z</time></trkpt><trkpt lat="45.55868956478481" lon="11.91449886344092"><ele>20.0</ele><time>2026-04-03T09:32:21Z</time></trkpt><trkpt lat="45.55870969227657" lon="11.914590024724271"><ele>20.0</ele><time>2026-04-03T09:32:22Z</time></trkpt><trkpt lat="45.5587253150964" lon="11.914679821775744"><ele>20.2</ele><time>2026-04-03T09:32:23Z</time></trkpt><trkpt lat="45.558750239027944" lon="11.914770002093363"><ele>20.4</ele><time>2026-04-03T09:32:24Z</time></trkpt><trkpt lat="45.558785074904556" lon="11.914942949980265"><ele>20.6</ele><time>2026-04-03T09:32:26Z</time></trkpt><trkpt lat="45.55882466901784" lon="11.915106062256168"><ele>20.8</ele><time>2026-04-03T09:32:28Z</time></trkpt><trkpt lat="45.55885513573187" lon="11.915268325137164"><ele>21.0</ele><time>2026-04-03T09:32:30Z</time></trkpt><trkpt lat="45.558884066361856" lon="11.915412848619031"><ele>21.0</ele><time>2026-04-03T09:32:32Z</time></trkpt><trkpt lat="45.55891824611593" lon="11.915580660995174"><ele>21.0</ele><time>2026-04-03T09:32:34Z</time></trkpt><trkpt lat="45.55893711194629" lon="11.915671462410359"><ele>21.0</ele><time>2026-04-03T09:32:35Z</time></trkpt><trkpt lat="45.558959507330314" lon="11.915761226808817"><ele>21.0</ele><time>2026-04-03T09:32:36Z</time></trkpt><trkpt lat="45.55897990473997" lon="11.915855007783739"><ele>21.0</ele><time>2026-04-03T09:32:37Z</time></trkpt><trkpt lat="45.5590008255419" lon="11.91594652189614"><ele>21.0</ele><time>2026-04-03T09:32:38Z</time></trkpt><trkpt lat="45.55902049854442" lon="11.91603949395337"><ele>21.0</ele><time>2026-04-03T09:32:39Z</time></trkpt><trkpt lat="45.55903797899546" lon="11.916131723392223"><ele>21.0</ele><time>2026-04-03T09:32:40Z</time></trkpt><trkpt lat="45.55905766439851" lon="11.91621759862585"><ele>21.0</ele><time>2026-04-03T09:32:41Z</time></trkpt><trkpt lat="45.55908299637825" lon="11.916309687966422"><ele>21.0</ele><time>2026-04-03T09:32:42Z</time></trkpt><trkpt lat="45.559104908063304" lon="11.916401687199885"><ele>21.0</ele><time>2026-04-03T09:32:43Z</time></trkpt><trkpt lat="45.55912390170843" lon="11.916492238494705"><ele>21.0</ele><time>2026-04-03T09:32:44Z</time></trkpt><trkpt lat="45.559143333660046" lon="11.9165790953161"><ele>21.0</ele><time>2026-04-03T09:32:45Z</time></trkpt><trkpt lat="45.559178851938846" lon="11.916740773316254"><ele>20.8</ele><time>2026-04-03T09:32:47Z</time></trkpt><trkpt lat="45.55922273666041" lon="11.916901482649806"><ele>20.6</ele><time>2026-04-03T09:32:49Z</time></trkpt><trkpt lat="45.55924534665564" lon="11.917054788312319"><ele>20.4</ele><time>2026-04-03T09:32:51Z</time></trkpt><trkpt lat="45.559278543831695" lon="11.917200129449059"><ele>20.2</ele><time>2026-04-03T09:32:53Z</time></trkpt><trkpt lat="45.55931300402649" lon="11.917334119658385"><ele>20.0</ele><time>2026-04-03T09:32:55Z</time></trkpt><trkpt lat="45.55934057540165" lon="11.91745543519658"><ele>20.0</ele><time>2026-04-03T09:32:57Z</time></trkpt><trkpt lat="45.5593668386828" lon="11.91756669713139"><ele>20.0</ele><time>2026-04-03T09:32:59Z</time></trkpt><trkpt lat="45.55937380049213" lon="11.917712030724127"><ele>20.0</ele><time>2026-04-03T09:33:01Z</time></trkpt><trkpt lat="45.55941072230043" lon="11.91784073534901"><ele>20.0</ele><time>2026-04-03T09:33:03Z</time></trkpt><trkpt lat="45.55944397655558" lon="11.917988566998206"><ele>20.0</ele><time>2026-04-03T09:33:05Z</time></trkpt><trkpt lat="45.55946403662355" lon="11.91807650189589"><ele>20.0</ele><time>2026-04-03T09:33:06Z</time></trkpt><trkpt lat="45.55949875697039" lon="11.918248714293215"><ele>20.0</ele><time>2026-04-03T09:33:08Z</time></trkpt><trkpt lat="45.559541875998654" lon="11.918419612663884"><ele>20.0</ele><time>2026-04-03T09:33:10Z</time></trkpt><trkpt lat="45.559561005312695" lon="11.918509372468428"><ele>20.0</ele><time>2026-04-03T09:33:11Z</time></trkpt><trkpt lat="45.55957899095199" lon="11.918598771188345"><ele>20.0</ele><time>2026-04-03T09:33:12Z</time></trkpt><trkpt lat="45.559595758936304" lon="11.918695134535712"><ele>20.0</ele><time>2026-04-03T09:33:13Z</time></trkpt><trkpt lat="45.559611634358795" lon="11.918791547837545"><ele>20.0</ele><time>2026-04-03T09:33:14Z</time></trkpt><trkpt lat="45.55962965442899" lon="11.918881526053388"><ele>20.0</ele><time>2026-04-03T09:33:15Z</time></trkpt><trkpt lat="45.55966157603305" lon="11.91906518501997"><ele>20.0</ele><time>2026-04-03T09:33:17Z</time></trkpt><trkpt lat="45.55970009852881" lon="11.919239378959814"><ele>20.0</ele><time>2026-04-03T09:33:19Z</time></trkpt><trkpt lat="45.559722487806404" lon="11.919330945043741"><ele>19.857142857142858</ele><time>2026-04-03T09:33:20Z</time></trkpt><trkpt lat="45.55973485483639" lon="11.919426949211168"><ele>19.714285714285715</ele><time>2026-04-03T09:33:21Z</time></trkpt><trkpt lat="45.55974252566668" lon="11.919520299811616"><ele>19.57142857142857</ele><time>2026-04-03T09:33:22Z</time></trkpt><trkpt lat="45.55977566488729" lon="11.919605373689448"><ele>19.42857142857143</ele><time>2026-04-03T09:33:23Z</time></trkpt><trkpt lat="45.55979724245073" lon="11.919697346813056"><ele>19.28571428571429</ele><time>2026-04-03T09:33:24Z</time></trkpt><trkpt lat="45.559814585122886" lon="11.919785876788161"><ele>19.142857142857142</ele><time>2026-04-03T09:33:25Z</time></trkpt><trkpt lat="45.55983419735901" lon="11.919879988055126"><ele>19.0</ele><time>2026-04-03T09:33:26Z</time></trkpt><trkpt lat="45.55985189178402" lon="11.919972035962381"><ele>19.0</ele><time>2026-04-03T09:33:27Z</time></trkpt><trkpt lat="45.55987477680701" lon="11.920059920075921"><ele>19.0</ele><time>2026-04-03T09:33:28Z</time></trkpt><trkpt lat="45.55989220552874" lon="11.920151471501311"><ele>19.0</ele><time>2026-04-03T09:33:29Z</time></trkpt><trkpt lat="45.559908607007635" lon="11.920239602425289"><ele>19.0</ele><time>2026-04-03T09:33:30Z</time></trkpt><trkpt lat="45.55993352688416" lon="11.92032847814674"><ele>19.0</ele><time>2026-04-03T09:33:31Z</time></trkpt><trkpt lat="45.55995562114676" lon="11.920420813431328"><ele>19.0</ele><time>2026-04-03T09:33:32Z</time></trkpt><trkpt lat="45.559970934180164" lon="11.920510785408947"><ele>19.0</ele><time>2026-04-03T09:33:33Z</time></trkpt><trkpt lat="45.56000723980453" lon="11.920683324690055"><ele>19.285714285714285</ele><time>2026-04-03T09:33:35Z</time></trkpt><trkpt lat="45.5600282117642" lon="11.920769955931481"><ele>19.571428571428573</ele><time>2026-04-03T09:33:36Z</time></trkpt><trkpt lat="45.56005051623841" lon="11.920860551825182"><ele>19.857142857142858</ele><time>2026-04-03T09:33:37Z</time></trkpt><trkpt lat="45.56008665521547" lon="11.921028179526486"><ele>20.142857142857142</ele><time>2026-04-03T09:33:39Z</time></trkpt><trkpt lat="45.56010396188101" lon="11.92111600338161"><ele>20.42857142857143</ele><time>2026-04-03T09:33:40Z</time></trkpt><trkpt lat="45.56012257390872" lon="11.921203798328728"><ele>20.714285714285715</ele><time>2026-04-03T09:33:41Z</time></trkpt><trkpt lat="45.56014178223465" lon="11.921292665014937"><ele>21.0</ele><time>2026-04-03T09:33:42Z</time></trkpt><trkpt lat="45.56016180133198" lon="11.921379660978443"><ele>21.0</ele><time>2026-04-03T09:33:43Z</time></trkpt><trkpt lat="45.56019783083769" lon="11.921557195817174"><ele>21.0</ele><time>2026-04-03T09:33:45Z</time></trkpt><trkpt lat="45.56021874435027" lon="11.921642796910495"><ele>21.0</ele><time>2026-04-03T09:33:46Z</time></trkpt><trkpt lat="45.56027185692258" lon="11.92181423048316"><ele>21.0</ele><time>2026-04-03T09:33:48Z</time></trkpt><trkpt lat="45.56030582564712" lon="11.921895491627698"><ele>21.0</ele><time>2026-04-03T09:33:49Z</time></trkpt><trkpt lat="45.56032737961267" lon="11.9219812995511"><ele>21.0</ele><time>2026-04-03T09:33:50Z</time></trkpt><trkpt lat="45.56034894149133" lon="11.922072665604965"><ele>21.0</ele><time>2026-04-03T09:33:51Z</time></trkpt><trkpt lat="45.56038116590779" lon="11.922154601765332"><ele>21.0</ele><time>2026-04-03T09:33:52Z</time></trkpt><trkpt lat="45.560412916443106" lon="11.92223491453597"><ele>21.0</ele><time>2026-04-03T09:33:53Z</time></trkpt><trkpt lat="45.56044253845117" lon="11.922317712360533"><ele>21.0</ele><time>2026-04-03T09:33:54Z</time></trkpt><trkpt lat="45.560476401786325" lon="11.922397302271774"><ele>21.0</ele><time>2026-04-03T09:33:55Z</time></trkpt><trkpt lat="45.560505660832646" lon="11.922481679401905"><ele>21.0</ele><time>2026-04-03T09:33:56Z</time></trkpt><trkpt lat="45.56053585871213" lon="11.922566260815024"><ele>21.0</ele><time>2026-04-03T09:33:57Z</time></trkpt><trkpt lat="45.56056835859113" lon="11.922650966906698"><ele>21.0</ele><time>2026-04-03T09:33:58Z</time></trkpt><trkpt lat="45.56059935026643" lon="11.922731353084998"><ele>21.0</ele><time>2026-04-03T09:33:59Z</time></trkpt><trkpt lat="45.56066285097931" lon="11.9228848428386"><ele>21.0</ele><time>2026-04-03T09:34:01Z</time></trkpt><trkpt lat="45.560705697382666" lon="11.922956736077607"><ele>21.0</ele><time>2026-04-03T09:34:02Z</time></trkpt><trkpt lat="45.56074468526997" lon="11.923028810944118"><ele>21.0</ele><time>2026-04-03T09:34:03Z</time></trkpt><trkpt lat="45.5608102550775" lon="11.923173310329327"><ele>21.0</ele><time>2026-04-03T09:34:05Z</time></trkpt><trkpt lat="45.56087814778327" lon="11.923308388917306"><ele>21.0</ele><time>2026-04-03T09:34:07Z</time></trkpt><trkpt lat="45.5609560555278" lon="11.923425490241929"><ele>21.0</ele><time>2026-04-03T09:34:09Z</time></trkpt><trkpt lat="45.56101429888053" lon="11.923551808394603"><ele>21.0</ele><time>2026-04-03T09:34:11Z</time></trkpt><trkpt lat="45.5610650233497" lon="11.923650648038661"><ele>21.0</ele><time>2026-04-03T09:34:13Z</time></trkpt><trkpt lat="45.56113456274571" lon="11.923730235604417"><ele>20.666666666666668</ele><time>2026-04-03T09:34:15Z</time></trkpt><trkpt lat="45.561196727357796" lon="11.92379876620693"><ele>20.333333333333332</ele><time>2026-04-03T09:34:17Z</time></trkpt><trkpt lat="45.561277804502716" lon="11.923804333624442"><ele>20.0</ele><time>2026-04-03T09:34:20Z</time></trkpt><trkpt lat="45.56121033311853" lon="11.923807675961356"><ele>19.666666666666664</ele><time>2026-04-03T09:34:31Z</time></trkpt><trkpt lat="45.56113622411516" lon="11.92376275980957"><ele>19.333333333333332</ele><time>2026-04-03T09:34:34Z</time></trkpt><trkpt lat="45.561075691755505" lon="11.923734577129997"><ele>19.0</ele><time>2026-04-03T09:34:36Z</time></trkpt><trkpt lat="45.56099693986408" lon="11.923710416230584"><ele>19.0</ele><time>2026-04-03T09:34:38Z</time></trkpt><trkpt lat="45.560899274656016" lon="11.923674952890975"><ele>19.0</ele><time>2026-04-03T09:34:40Z</time></trkpt><trkpt lat="45.56079939726636" lon="11.923627443006035"><ele>19.0</ele><time>2026-04-03T09:34:42Z</time></trkpt><trkpt lat="45.56069654152347" lon="11.923592070562053"><ele>19.0</ele><time>2026-04-03T09:34:44Z</time></trkpt><trkpt lat="45.56059254161074" lon="11.923551022780936"><ele>19.0</ele><time>2026-04-03T09:34:46Z</time></trkpt><trkpt lat="45.56048229358968" lon="11.923503515034145"><ele>19.0</ele><time>2026-04-03T09:34:48Z</time></trkpt><trkpt lat="45.56037342202621" lon="11.923453508710812"><ele>19.0</ele><time>2026-04-03T09:34:50Z</time></trkpt><trkpt lat="45.560260011819196" lon="11.92341171886785"><ele>19.0</ele><time>2026-04-03T09:34:52Z</time></trkpt><trkpt lat="45.560143999339765" lon="11.923371106792112"><ele>19.0</ele><time>2026-04-03T09:34:54Z</time></trkpt><trkpt lat="45.560025686363424" lon="11.923327533053584"><ele>19.0</ele><time>2026-04-03T09:34:56Z</time></trkpt><trkpt lat="45.55996523338208" lon="11.923301167128137"><ele>19.0</ele><time>2026-04-03T09:34:57Z</time></trkpt><trkpt lat="45.55990536182909" lon="11.92327142441894"><ele>19.0</ele><time>2026-04-03T09:34:58Z</time></trkpt><trkpt lat="45.559845700000295" lon="11.923241693163805"><ele>19.0</ele><time>2026-04-03T09:34:59Z</time></trkpt><trkpt lat="45.55978552454685" lon="11.923214767902522"><ele>19.0</ele><time>2026-04-03T09:35:00Z</time></trkpt><trkpt lat="45.559723278339895" lon="11.92319392603387"><ele>19.0</ele><time>2026-04-03T09:35:01Z</time></trkpt><trkpt lat="45.55966171840404" lon="11.923171865966474"><ele>19.0</ele><time>2026-04-03T09:35:02Z</time></trkpt><trkpt lat="45.559542645736855" lon="11.923114413432714"><ele>19.0</ele><time>2026-04-03T09:35:04Z</time></trkpt><trkpt lat="45.5594248618244" lon="11.923062511684853"><ele>19.0</ele><time>2026-04-03T09:35:06Z</time></trkpt><trkpt lat="45.559306973142505" lon="11.923005396740534"><ele>19.0</ele><time>2026-04-03T09:35:08Z</time></trkpt><trkpt lat="45.55924497520231" lon="11.922982444045653"><ele>19.0</ele><time>2026-04-03T09:35:09Z</time></trkpt><trkpt lat="45.55918191118536" lon="11.922961047084062"><ele>19.0</ele><time>2026-04-03T09:35:10Z</time></trkpt><trkpt lat="45.559060949334615" lon="11.92290949372334"><ele>19.0</ele><time>2026-04-03T09:35:12Z</time></trkpt><trkpt lat="45.55900051098981" lon="11.922877777434989"><ele>19.0</ele><time>2026-04-03T09:35:13Z</time></trkpt><trkpt lat="45.55893997401351" lon="11.922847867508164"><ele>19.0</ele><time>2026-04-03T09:35:14Z</time></trkpt><trkpt lat="45.55882245277678" lon="11.922796915735912"><ele>19.0</ele><time>2026-04-03T09:35:16Z</time></trkpt><trkpt lat="45.558705490663996" lon="11.922748426186768"><ele>19.0</ele><time>2026-04-03T09:35:18Z</time></trkpt><trkpt lat="45.55858388281224" lon="11.922704328642302"><ele>19.0</ele><time>2026-04-03T09:35:20Z</time></trkpt><trkpt lat="45.55846403030742" lon="11.92266200638674"><ele>19.0</ele><time>2026-04-03T09:35:22Z</time></trkpt><trkpt lat="45.55834126364837" lon="11.922626590711412"><ele>19.0</ele><time>2026-04-03T09:35:24Z</time></trkpt><trkpt lat="45.55821911958086" lon="11.922593786976813"><ele>19.0</ele><time>2026-04-03T09:35:26Z</time></trkpt><trkpt lat="45.55809708871645" lon="11.92256968351028"><ele>19.0</ele><time>2026-04-03T09:35:28Z</time></trkpt><trkpt lat="45.557979842136795" lon="11.922554749879895"><ele>19.0</ele><time>2026-04-03T09:35:30Z</time></trkpt><trkpt lat="45.55787605179306" lon="11.922647316181173"><ele>19.0</ele><time>2026-04-03T09:35:32Z</time></trkpt><trkpt lat="45.55784540199801" lon="11.922730939806003"><ele>19.0</ele><time>2026-04-03T09:35:33Z</time></trkpt><trkpt lat="45.55783666718572" lon="11.922823329665794"><ele>19.0</ele><time>2026-04-03T09:35:34Z</time></trkpt><trkpt lat="45.557858399939285" lon="11.923006814896034"><ele>19.0</ele><time>2026-04-03T09:35:36Z</time></trkpt><trkpt lat="45.55788100634251" lon="11.923172177178989"><ele>19.0</ele><time>2026-04-03T09:35:38Z</time></trkpt><trkpt lat="45.557915818196506" lon="11.9232529046789"><ele>19.0</ele><time>2026-04-03T09:35:39Z</time></trkpt><trkpt lat="45.557981283220805" lon="11.923266439860548"><ele>19.0</ele><time>2026-04-03T09:35:40Z</time></trkpt><trkpt lat="45.558100790153894" lon="11.923247297993097"><ele>19.0</ele><time>2026-04-03T09:35:42Z</time></trkpt><trkpt lat="45.55822595880067" lon="11.923239748324724"><ele>19.0</ele><time>2026-04-03T09:35:44Z</time></trkpt><trkpt lat="45.55835065345563" lon="11.923229035815227"><ele>19.0</ele><time>2026-04-03T09:35:46Z</time></trkpt><trkpt lat="45.55841516160616" lon="11.923232836008724"><ele>19.0</ele><time>2026-04-03T09:35:47Z</time></trkpt><trkpt lat="45.558479510418934" lon="11.923244905269044"><ele>19.0</ele><time>2026-04-03T09:35:48Z</time></trkpt><trkpt lat="45.558546826973746" lon="11.923259096146392"><ele>19.0</ele><time>2026-04-03T09:35:49Z</time></trkpt><trkpt lat="45.55861160034436" lon="11.923278821075108"><ele>19.0</ele><time>2026-04-03T09:35:50Z</time></trkpt><trkpt lat="45.55867781614528" lon="11.923297366615506"><ele>19.0</ele><time>2026-04-03T09:35:51Z</time></trkpt><trkpt lat="45.558743159580686" lon="11.923315831781983"><ele>19.0</ele><time>2026-04-03T09:35:52Z</time></trkpt><trkpt lat="45.558807583291916" lon="11.923332480071917"><ele>19.0</ele><time>2026-04-03T09:35:53Z</time></trkpt><trkpt lat="45.55887157465895" lon="11.923351336334887"><ele>19.0</ele><time>2026-04-03T09:35:54Z</time></trkpt><trkpt lat="45.558935057633285" lon="11.923373524465456"><ele>19.0</ele><time>2026-04-03T09:35:55Z</time></trkpt><trkpt lat="45.55899978176824" lon="11.923395776449832"><ele>19.0</ele><time>2026-04-03T09:35:56Z</time></trkpt><trkpt lat="45.55906646454054" lon="11.92341200418858"><ele>19.0</ele><time>2026-04-03T09:35:57Z</time></trkpt><trkpt lat="45.55913340787158" lon="11.923429800341731"><ele>19.142857142857142</ele><time>2026-04-03T09:35:58Z</time></trkpt><trkpt lat="45.55920080033369" lon="11.923455440642211"><ele>19.28571428571429</ele><time>2026-04-03T09:35:59Z</time></trkpt><trkpt lat="45.559268453427585" lon="11.923479155883593"><ele>19.42857142857143</ele><time>2026-04-03T09:36:00Z</time></trkpt><trkpt lat="45.55933728114642" lon="11.923501946643706"><ele>19.57142857142857</ele><time>2026-04-03T09:36:01Z</time></trkpt><trkpt lat="45.55940592883849" lon="11.923526843120497"><ele>19.714285714285715</ele><time>2026-04-03T09:36:02Z</time></trkpt><trkpt lat="45.55947077548633" lon="11.923552924404332"><ele>19.857142857142858</ele><time>2026-04-03T09:36:03Z</time></trkpt><trkpt lat="45.55953503331461" lon="11.923580189629"><ele>20.0</ele><time>2026-04-03T09:36:04Z</time></trkpt><trkpt lat="45.55959519622095" lon="11.923607951156104"><ele>20.0</ele><time>2026-04-03T09:36:05Z</time></trkpt><trkpt lat="45.559689116189176" lon="11.923472574243839"><ele>20.0</ele><time>2026-04-03T09:36:06Z</time></trkpt><trkpt lat="45.55975001224562" lon="11.923497136391934"><ele>20.0</ele><time>2026-04-03T09:36:07Z</time></trkpt><trkpt lat="45.55981107213667" lon="11.92352176463407"><ele>20.0</ele><time>2026-04-03T09:36:08Z</time></trkpt><trkpt lat="45.559871669677875" lon="11.923546206386735"><ele>20.0</ele><time>2026-04-03T09:36:09Z</time></trkpt><trkpt lat="45.55999111684188" lon="11.923594384863003"><ele>20.0</ele><time>2026-04-03T09:36:11Z</time></trkpt><trkpt lat="45.560109802176655" lon="11.923642256067536"><ele>20.0</ele><time>2026-04-03T09:36:13Z</time></trkpt><trkpt lat="45.56017079605331" lon="11.923666857677079"><ele>20.0</ele><time>2026-04-03T09:36:14Z</time></trkpt><trkpt lat="45.56029323651188" lon="11.923715542219174"><ele>20.0</ele><time>2026-04-03T09:36:16Z</time></trkpt><trkpt lat="45.560354543465046" lon="11.923739797522703"><ele>20.0</ele><time>2026-04-03T09:36:17Z</time></trkpt><trkpt lat="45.56041637634737" lon="11.923764260921315"><ele>20.0</ele><time>2026-04-03T09:36:18Z</time></trkpt><trkpt lat="45.560480139016136" lon="11.923789407794871"><ele>20.0</ele><time>2026-04-03T09:36:19Z</time></trkpt><trkpt lat="45.560542297374234" lon="11.92381388668129"><ele>20.0</ele><time>2026-04-03T09:36:20Z</time></trkpt><trkpt lat="45.56060480559238" lon="11.923838503344232"><ele>19.8</ele><time>2026-04-03T09:36:21Z</time></trkpt><trkpt lat="45.56072310425561" lon="11.923885091107907"><ele>19.6</ele><time>2026-04-03T09:36:23Z</time></trkpt><trkpt lat="45.5607848206048" lon="11.92390939592146"><ele>19.4</ele><time>2026-04-03T09:36:24Z</time></trkpt><trkpt lat="45.56084650340246" lon="11.923933687525015"><ele>19.2</ele><time>2026-04-03T09:36:25Z</time></trkpt><trkpt lat="45.560933327950444" lon="11.924140095341455"><ele>19.0</ele><time>2026-04-03T09:36:27Z</time></trkpt><trkpt lat="45.561057949988246" lon="11.92418250868886"><ele>19.2</ele><time>2026-04-03T09:36:29Z</time></trkpt><trkpt lat="45.56117585185517" lon="11.92423456634647"><ele>19.4</ele><time>2026-04-03T09:36:31Z</time></trkpt><trkpt lat="45.56123815179568" lon="11.92425000199216"><ele>19.6</ele><time>2026-04-03T09:36:32Z</time></trkpt><trkpt lat="45.56135297726134" lon="11.924290648691896"><ele>19.8</ele><time>2026-04-03T09:36:34Z</time></trkpt><trkpt lat="45.56147217498745" lon="11.924327394955709"><ele>20.0</ele><time>2026-04-03T09:36:36Z</time></trkpt><trkpt lat="45.56153546743277" lon="11.924351502926346"><ele>20.2</ele><time>2026-04-03T09:36:37Z</time></trkpt><trkpt lat="45.56164805288908" lon="11.924425477840073"><ele>20.4</ele><time>2026-04-03T09:36:39Z</time></trkpt><trkpt lat="45.56173412318907" lon="11.92452040745221"><ele>20.6</ele><time>2026-04-03T09:36:41Z</time></trkpt><trkpt lat="45.56177539622364" lon="11.924590547012698"><ele>20.8</ele><time>2026-04-03T09:36:43Z</time></trkpt><trkpt lat="45.561837959029745" lon="11.924636999574561"><ele>21.0</ele><time>2026-04-03T09:36:45Z</time></trkpt><trkpt lat="45.561924704536295" lon="11.924722680815101"><ele>21.5</ele><time>2026-04-03T09:36:47Z</time></trkpt><trkpt lat="45.56203632703209" lon="11.924797598877772"><ele>22.0</ele><time>2026-04-03T09:36:49Z</time></trkpt><trkpt lat="45.562109729521886" lon="11.924780134677523"><ele>22.5</ele><time>2026-04-03T09:36:50Z</time></trkpt><trkpt lat="45.56217879781469" lon="11.924720841522374"><ele>23.0</ele><time>2026-04-03T09:36:51Z</time></trkpt><trkpt lat="45.56224165025249" lon="11.92468512849877"><ele>23.5</ele><time>2026-04-03T09:36:52Z</time></trkpt><trkpt lat="45.56231218014702" lon="11.924715287716378"><ele>24.0</ele><time>2026-04-03T09:36:53Z</time></trkpt><trkpt lat="45.56236918657611" lon="11.924779749609277"><ele>24.0</ele><time>2026-04-03T09:36:54Z</time></trkpt><trkpt lat="45.56241723192957" lon="11.924843928391931"><ele>24.0</ele><time>2026-04-03T09:36:55Z</time></trkpt><trkpt lat="45.56251052295314" lon="11.924948166985928"><ele>24.0</ele><time>2026-04-03T09:36:57Z</time></trkpt><trkpt lat="45.56260558938099" lon="11.925053947412849"><ele>24.0</ele><time>2026-04-03T09:36:59Z</time></trkpt><trkpt lat="45.562711923119146" lon="11.925133494235581"><ele>24.0</ele><time>2026-04-03T09:37:01Z</time></trkpt><trkpt lat="45.5628119715711" lon="11.92520349401233"><ele>23.6</ele><time>2026-04-03T09:37:03Z</time></trkpt><trkpt lat="45.56290291318113" lon="11.925281253421582"><ele>23.2</ele><time>2026-04-03T09:37:05Z</time></trkpt><trkpt lat="45.5629802264309" lon="11.925355191022394"><ele>22.8</ele><time>2026-04-03T09:37:07Z</time></trkpt><trkpt lat="45.56305461384831" lon="11.925417210567305"><ele>22.400000000000002</ele><time>2026-04-03T09:37:09Z</time></trkpt><trkpt lat="45.56312061072376" lon="11.925509254037618"><ele>22.0</ele><time>2026-04-03T09:37:12Z</time></trkpt><trkpt lat="45.563207448766065" lon="11.925578957055071"><ele>22.0</ele><time>2026-04-03T09:37:14Z</time></trkpt><trkpt lat="45.56330970803803" lon="11.925650955134799"><ele>22.0</ele><time>2026-04-03T09:37:16Z</time></trkpt><trkpt lat="45.56341888866264" lon="11.925706455364901"><ele>22.0</ele><time>2026-04-03T09:37:18Z</time></trkpt><trkpt lat="45.56353403408559" lon="11.925754488184843"><ele>22.0</ele><time>2026-04-03T09:37:20Z</time></trkpt><trkpt lat="45.56364586265231" lon="11.925822702796443"><ele>22.0</ele><time>2026-04-03T09:37:22Z</time></trkpt><trkpt lat="45.563760769025265" lon="11.925851578005089"><ele>22.0</ele><time>2026-04-03T09:37:24Z</time></trkpt><trkpt lat="45.56387032638827" lon="11.925900700602796"><ele>22.0</ele><time>2026-04-03T09:37:26Z</time></trkpt><trkpt lat="45.563989048537934" lon="11.925951677807829"><ele>22.0</ele><time>2026-04-03T09:37:28Z</time></trkpt><trkpt lat="45.56404890266522" lon="11.925980889390951"><ele>22.0</ele><time>2026-04-03T09:37:29Z</time></trkpt><trkpt lat="45.564170119519396" lon="11.926024322897268"><ele>21.857142857142858</ele><time>2026-04-03T09:37:31Z</time></trkpt><trkpt lat="45.5642315209421" lon="11.926044602086124"><ele>21.714285714285715</ele><time>2026-04-03T09:37:32Z</time></trkpt><trkpt lat="45.564293055659505" lon="11.926071285211556"><ele>21.57142857142857</ele><time>2026-04-03T09:37:33Z</time></trkpt><trkpt lat="45.564355215425266" lon="11.926095182767893"><ele>21.42857142857143</ele><time>2026-04-03T09:37:34Z</time></trkpt><trkpt lat="45.564415703015555" lon="11.926121892267679"><ele>21.285714285714285</ele><time>2026-04-03T09:37:35Z</time></trkpt><trkpt lat="45.56447806304492" lon="11.926148078022834"><ele>21.142857142857142</ele><time>2026-04-03T09:37:36Z</time></trkpt><trkpt lat="45.56453955444575" lon="11.926178184157092"><ele>21.0</ele><time>2026-04-03T09:37:37Z</time></trkpt><trkpt lat="45.56460337500941" lon="11.926199307626792"><ele>21.0</ele><time>2026-04-03T09:37:38Z</time></trkpt><trkpt lat="45.56466625486922" lon="11.926226871151185"><ele>21.0</ele><time>2026-04-03T09:37:39Z</time></trkpt><trkpt lat="45.56473017249053" lon="11.926246449928087"><ele>21.0</ele><time>2026-04-03T09:37:40Z</time></trkpt><trkpt lat="45.56479579636667" lon="11.926252306626745"><ele>21.0</ele><time>2026-04-03T09:37:41Z</time></trkpt><trkpt lat="45.564863062889344" lon="11.92626818949155"><ele>21.0</ele><time>2026-04-03T09:37:42Z</time></trkpt><trkpt lat="45.56493729800728" lon="11.926276054885092"><ele>21.0</ele><time>2026-04-03T09:37:43Z</time></trkpt><trkpt lat="45.5650000217588" lon="11.92631360110621"><ele>21.0</ele><time>2026-04-03T09:37:44Z</time></trkpt><trkpt lat="45.565066676569174" lon="11.926343695008457"><ele>21.0</ele><time>2026-04-03T09:37:45Z</time></trkpt><trkpt lat="45.56513426417867" lon="11.926367848223746"><ele>21.0</ele><time>2026-04-03T09:37:46Z</time></trkpt><trkpt lat="45.56520050358994" lon="11.926389225707515"><ele>21.0</ele><time>2026-04-03T09:37:47Z</time></trkpt><trkpt lat="45.56526644830056" lon="11.926414074610294"><ele>21.0</ele><time>2026-04-03T09:37:48Z</time></trkpt><trkpt lat="45.56533513897739" lon="11.926433497233672"><ele>21.0</ele><time>2026-04-03T09:37:49Z</time></trkpt><trkpt lat="45.56540318221806" lon="11.92644899718839"><ele>21.0</ele><time>2026-04-03T09:37:50Z</time></trkpt><trkpt lat="45.56546698621001" lon="11.926459292748044"><ele>21.0</ele><time>2026-04-03T09:37:51Z</time></trkpt><trkpt lat="45.56553170514306" lon="11.92647029327302"><ele>21.0</ele><time>2026-04-03T09:37:52Z</time></trkpt><trkpt lat="45.56565057635103" lon="11.92650511020707"><ele>21.0</ele><time>2026-04-03T09:37:54Z</time></trkpt><trkpt lat="45.56576382232003" lon="11.926539605144333"><ele>21.0</ele><time>2026-04-03T09:37:56Z</time></trkpt><trkpt lat="45.565875119421776" lon="11.926573005452846"><ele>21.0</ele><time>2026-04-03T09:37:58Z</time></trkpt><trkpt lat="45.56599124100503" lon="11.926617309306517"><ele>21.0</ele><time>2026-04-03T09:38:00Z</time></trkpt><trkpt lat="45.5660547823902" lon="11.926638856615899"><ele>21.0</ele><time>2026-04-03T09:38:01Z</time></trkpt><trkpt lat="45.566118162536604" lon="11.926660466840655"><ele>21.0</ele><time>2026-04-03T09:38:02Z</time></trkpt><trkpt lat="45.566181783144785" lon="11.926685554135648"><ele>21.0</ele><time>2026-04-03T09:38:03Z</time></trkpt><trkpt lat="45.56624396428738" lon="11.926715509753633"><ele>21.0</ele><time>2026-04-03T09:38:04Z</time></trkpt><trkpt lat="45.566306768532336" lon="11.926740772157459"><ele>21.0</ele><time>2026-04-03T09:38:05Z</time></trkpt><trkpt lat="45.56636898045798" lon="11.926763596989192"><ele>21.0</ele><time>2026-04-03T09:38:06Z</time></trkpt><trkpt lat="45.56648661781978" lon="11.926807165516358"><ele>21.0</ele><time>2026-04-03T09:38:08Z</time></trkpt><trkpt lat="45.5665489877241" lon="11.92682631415771"><ele>21.0</ele><time>2026-04-03T09:38:09Z</time></trkpt><trkpt lat="45.56661485837757" lon="11.926848630686838"><ele>21.0</ele><time>2026-04-03T09:38:10Z</time></trkpt><trkpt lat="45.566681951893585" lon="11.926874857164758"><ele>21.0</ele><time>2026-04-03T09:38:11Z</time></trkpt><trkpt lat="45.56675091579125" lon="11.926902097546439"><ele>21.0</ele><time>2026-04-03T09:38:12Z</time></trkpt><trkpt lat="45.566820233526705" lon="11.926928349381964"><ele>21.0</ele><time>2026-04-03T09:38:13Z</time></trkpt><trkpt lat="45.56688915582874" lon="11.926950830006694"><ele>21.0</ele><time>2026-04-03T09:38:14Z</time></trkpt><trkpt lat="45.56695873416674" lon="11.926973334619426"><ele>21.142857142857142</ele><time>2026-04-03T09:38:15Z</time></trkpt><trkpt lat="45.56702863661985" lon="11.926996226462956"><ele>21.285714285714285</ele><time>2026-04-03T09:38:16Z</time></trkpt><trkpt lat="45.5670984884892" lon="11.927024207122432"><ele>21.42857142857143</ele><time>2026-04-03T09:38:17Z</time></trkpt><trkpt lat="45.567167380854286" lon="11.927054018838952"><ele>21.57142857142857</ele><time>2026-04-03T09:38:18Z</time></trkpt><trkpt lat="45.567235538205956" lon="11.92708248282386"><ele>21.714285714285715</ele><time>2026-04-03T09:38:19Z</time></trkpt><trkpt lat="45.56730497878551" lon="11.927106277704615"><ele>21.857142857142858</ele><time>2026-04-03T09:38:20Z</time></trkpt><trkpt lat="45.56737268494948" lon="11.927130536235177"><ele>22.0</ele><time>2026-04-03T09:38:21Z</time></trkpt><trkpt lat="45.56744096436796" lon="11.927160940973101"><ele>22.0</ele><time>2026-04-03T09:38:22Z</time></trkpt><trkpt lat="45.567507256482266" lon="11.92719309494997"><ele>22.0</ele><time>2026-04-03T09:38:23Z</time></trkpt><trkpt lat="45.567576658202256" lon="11.927219965056231"><ele>22.0</ele><time>2026-04-03T09:38:24Z</time></trkpt><trkpt lat="45.56764418049902" lon="11.927244509862932"><ele>22.0</ele><time>2026-04-03T09:38:25Z</time></trkpt><trkpt lat="45.56771160611244" lon="11.927271707398447"><ele>22.0</ele><time>2026-04-03T09:38:26Z</time></trkpt><trkpt lat="45.567779591878285" lon="11.92730551937037"><ele>22.0</ele><time>2026-04-03T09:38:27Z</time></trkpt><trkpt lat="45.567850567241145" lon="11.927331415158372"><ele>22.0</ele><time>2026-04-03T09:38:28Z</time></trkpt><trkpt lat="45.567921218876826" lon="11.927353565178825"><ele>22.0</ele><time>2026-04-03T09:38:29Z</time></trkpt><trkpt lat="45.56799070513401" lon="11.927379095260989"><ele>22.0</ele><time>2026-04-03T09:38:30Z</time></trkpt><trkpt lat="45.56806089303453" lon="11.927408062985545"><ele>22.0</ele><time>2026-04-03T09:38:31Z</time></trkpt><trkpt lat="45.56812621103136" lon="11.92744384618608"><ele>22.0</ele><time>2026-04-03T09:38:32Z</time></trkpt><trkpt lat="45.568192552836855" lon="11.927480829528367"><ele>22.0</ele><time>2026-04-03T09:38:33Z</time></trkpt><trkpt lat="45.56826147519985" lon="11.927510544820286"><ele>22.0</ele><time>2026-04-03T09:38:34Z</time></trkpt><trkpt lat="45.568331520014205" lon="11.927535003975526"><ele>22.0</ele><time>2026-04-03T09:38:35Z</time></trkpt><trkpt lat="45.56840070876782" lon="11.92756117958857"><ele>22.0</ele><time>2026-04-03T09:38:36Z</time></trkpt><trkpt lat="45.56846956810449" lon="11.92758962475733"><ele>22.0</ele><time>2026-04-03T09:38:37Z</time></trkpt><trkpt lat="45.56853917003196" lon="11.927617613455068"><ele>22.0</ele><time>2026-04-03T09:38:38Z</time></trkpt><trkpt lat="45.56860845090846" lon="11.92764789281955"><ele>22.0</ele><time>2026-04-03T09:38:39Z</time></trkpt><trkpt lat="45.56867623584322" lon="11.927677423410232"><ele>22.0</ele><time>2026-04-03T09:38:40Z</time></trkpt><trkpt lat="45.56874345165724" lon="11.927703652174046"><ele>22.0</ele><time>2026-04-03T09:38:41Z</time></trkpt><trkpt lat="45.568812206088914" lon="11.927732684065393"><ele>22.0</ele><time>2026-04-03T09:38:42Z</time></trkpt><trkpt lat="45.568881395084674" lon="11.927761624865779"><ele>22.0</ele><time>2026-04-03T09:38:43Z</time></trkpt><trkpt lat="45.5689512226124" lon="11.927787045317029"><ele>22.0</ele><time>2026-04-03T09:38:44Z</time></trkpt><trkpt lat="45.56902073684274" lon="11.927816534134584"><ele>22.0</ele><time>2026-04-03T09:38:45Z</time></trkpt><trkpt lat="45.569089612113295" lon="11.92784703937794"><ele>22.0</ele><time>2026-04-03T09:38:46Z</time></trkpt><trkpt lat="45.56915963197647" lon="11.927875579423485"><ele>22.0</ele><time>2026-04-03T09:38:47Z</time></trkpt><trkpt lat="45.569227838179295" lon="11.927911234924279"><ele>22.0</ele><time>2026-04-03T09:38:48Z</time></trkpt><trkpt lat="45.56929798060127" lon="11.927945698154844"><ele>22.0</ele><time>2026-04-03T09:38:49Z</time></trkpt><trkpt lat="45.56936850279198" lon="11.927976341209483"><ele>22.0</ele><time>2026-04-03T09:38:50Z</time></trkpt><trkpt lat="45.569436943597225" lon="11.928001818109593"><ele>22.0</ele><time>2026-04-03T09:38:51Z</time></trkpt><trkpt lat="45.56950348329108" lon="11.928033793758427"><ele>22.0</ele><time>2026-04-03T09:38:52Z</time></trkpt><trkpt lat="45.56956963466988" lon="11.928060957174324"><ele>22.0</ele><time>2026-04-03T09:38:53Z</time></trkpt><trkpt lat="45.56963302119545" lon="11.92808701634192"><ele>22.0</ele><time>2026-04-03T09:38:54Z</time></trkpt><trkpt lat="45.56969590819747" lon="11.928112039913877"><ele>22.0</ele><time>2026-04-03T09:38:55Z</time></trkpt><trkpt lat="45.569761140369216" lon="11.92814400090892"><ele>22.0</ele><time>2026-04-03T09:38:56Z</time></trkpt><trkpt lat="45.56982933895376" lon="11.928175589994828"><ele>21.833333333333332</ele><time>2026-04-03T09:38:57Z</time></trkpt><trkpt lat="45.569902744724" lon="11.92820264684895"><ele>21.666666666666664</ele><time>2026-04-03T09:38:58Z</time></trkpt><trkpt lat="45.56997713121972" lon="11.928228299815114"><ele>21.5</ele><time>2026-04-03T09:38:59Z</time></trkpt><trkpt lat="45.57004877684076" lon="11.928257568698983"><ele>21.333333333333332</ele><time>2026-04-03T09:39:00Z</time></trkpt><trkpt lat="45.57012165126868" lon="11.928292600905458"><ele>21.166666666666668</ele><time>2026-04-03T09:39:01Z</time></trkpt><trkpt lat="45.57019341535367" lon="11.928324293881035"><ele>21.0</ele><time>2026-04-03T09:39:02Z</time></trkpt><trkpt lat="45.57026920961454" lon="11.928353582559405"><ele>21.0</ele><time>2026-04-03T09:39:03Z</time></trkpt><trkpt lat="45.570346327106726" lon="11.928387236415302"><ele>21.0</ele><time>2026-04-03T09:39:04Z</time></trkpt><trkpt lat="45.5704236497231" lon="11.928416010571791"><ele>21.0</ele><time>2026-04-03T09:39:05Z</time></trkpt><trkpt lat="45.57050085106943" lon="11.928446572202402"><ele>21.0</ele><time>2026-04-03T09:39:06Z</time></trkpt><trkpt lat="45.57057635107624" lon="11.928477327142863"><ele>21.0</ele><time>2026-04-03T09:39:07Z</time></trkpt><trkpt lat="45.57065248592527" lon="11.928505522688695"><ele>21.0</ele><time>2026-04-03T09:39:08Z</time></trkpt><trkpt lat="45.57072727197788" lon="11.928533973558686"><ele>21.142857142857142</ele><time>2026-04-03T09:39:09Z</time></trkpt><trkpt lat="45.57079928982972" lon="11.928559143577168"><ele>21.285714285714285</ele><time>2026-04-03T09:39:10Z</time></trkpt><trkpt lat="45.57086822518304" lon="11.92859242754224"><ele>21.42857142857143</ele><time>2026-04-03T09:39:11Z</time></trkpt><trkpt lat="45.57093148667292" lon="11.928639912013821"><ele>21.57142857142857</ele><time>2026-04-03T09:39:12Z</time></trkpt><trkpt lat="45.570993613549646" lon="11.92868522655226"><ele>21.714285714285715</ele><time>2026-04-03T09:39:13Z</time></trkpt><trkpt lat="45.5710597279991" lon="11.928722507364311"><ele>21.857142857142858</ele><time>2026-04-03T09:39:14Z</time></trkpt><trkpt lat="45.57112355357939" lon="11.928765105044633"><ele>22.0</ele><time>2026-04-03T09:39:15Z</time></trkpt><trkpt lat="45.571187180750854" lon="11.92880971103633"><ele>21.8</ele><time>2026-04-03T09:39:16Z</time></trkpt><trkpt lat="45.57130439163371" lon="11.928705816058441"><ele>21.6</ele><time>2026-04-03T09:39:17Z</time></trkpt><trkpt lat="45.57136594423703" lon="11.928750781340598"><ele>21.400000000000002</ele><time>2026-04-03T09:39:18Z</time></trkpt><trkpt lat="45.57148588493399" lon="11.928830582318202"><ele>21.200000000000003</ele><time>2026-04-03T09:39:20Z</time></trkpt><trkpt lat="45.57154396610373" lon="11.928872026525562"><ele>21.0</ele><time>2026-04-03T09:39:21Z</time></trkpt><trkpt lat="45.5716011966011" lon="11.92891286594728"><ele>21.0</ele><time>2026-04-03T09:39:22Z</time></trkpt><trkpt lat="45.571708887132665" lon="11.928989713718073"><ele>21.0</ele><time>2026-04-03T09:39:24Z</time></trkpt><trkpt lat="45.57180478190521" lon="11.929058144058128"><ele>21.0</ele><time>2026-04-03T09:39:26Z</time></trkpt><trkpt lat="45.57180868277654" lon="11.92921656698442"><ele>21.0</ele><time>2026-04-03T09:39:27Z</time></trkpt><trkpt lat="45.571907070273696" lon="11.929261750029465"><ele>21.0</ele><time>2026-04-03T09:39:29Z</time></trkpt><trkpt lat="45.572013659953576" lon="11.92933916925992"><ele>21.5</ele><time>2026-04-03T09:39:31Z</time></trkpt><trkpt lat="45.57210072825801" lon="11.929431751401106"><ele>22.0</ele><time>2026-04-03T09:39:33Z</time></trkpt><trkpt lat="45.572168170346636" lon="11.929452790870448"><ele>22.5</ele><time>2026-04-03T09:39:35Z</time></trkpt><trkpt lat="45.57225277568359" lon="11.92941482397058"><ele>23.0</ele><time>2026-04-03T09:39:38Z</time></trkpt><trkpt lat="45.57230996602825" lon="11.929358533350397"><ele>23.5</ele><time>2026-04-03T09:39:40Z</time></trkpt><trkpt lat="45.572383504114434" lon="11.929385718397011"><ele>24.0</ele><time>2026-04-03T09:39:42Z</time></trkpt><trkpt lat="45.57245540599559" lon="11.929440895661331"><ele>24.0</ele><time>2026-04-03T09:39:44Z</time></trkpt><trkpt lat="45.57254223550336" lon="11.929457171512228"><ele>24.0</ele><time>2026-04-03T09:39:46Z</time></trkpt><trkpt lat="45.57264396655796" lon="11.929472080892467"><ele>24.0</ele><time>2026-04-03T09:39:48Z</time></trkpt><trkpt lat="45.5727502318929" lon="11.929486978899991"><ele>24.0</ele><time>2026-04-03T09:39:50Z</time></trkpt><trkpt lat="45.57284339316453" lon="11.92947762867167"><ele>24.0</ele><time>2026-04-03T09:39:52Z</time></trkpt><trkpt lat="45.572955180306316" lon="11.929450079514996"><ele>23.5</ele><time>2026-04-03T09:39:54Z</time></trkpt><trkpt lat="45.5730411015244" lon="11.929424204557193"><ele>23.0</ele><time>2026-04-03T09:39:56Z</time></trkpt><trkpt lat="45.573133104285816" lon="11.929403748378231"><ele>22.5</ele><time>2026-04-03T09:39:58Z</time></trkpt><trkpt lat="45.5732305341863" lon="11.929371247358809"><ele>22.0</ele><time>2026-04-03T09:40:00Z</time></trkpt><trkpt lat="45.573282927753255" lon="11.929456747856863"><ele>21.5</ele><time>2026-04-03T09:40:01Z</time></trkpt><trkpt lat="45.57336727236276" lon="11.929438010339918"><ele>21.0</ele><time>2026-04-03T09:40:03Z</time></trkpt><trkpt lat="45.57344312204904" lon="11.92942217678162"><ele>21.0</ele><time>2026-04-03T09:40:05Z</time></trkpt><trkpt lat="45.57350842781724" lon="11.929415035516309"><ele>21.0</ele><time>2026-04-03T09:40:07Z</time></trkpt><trkpt lat="45.57358820550852" lon="11.929415093355587"><ele>21.0</ele><time>2026-04-03T09:40:10Z</time></trkpt><trkpt lat="45.573662772440514" lon="11.929418987610717"><ele>21.0</ele><time>2026-04-03T09:40:13Z</time></trkpt><trkpt lat="45.5737201546417" lon="11.92951736598938"><ele>21.0</ele><time>2026-04-03T09:40:17Z</time></trkpt><trkpt lat="45.57376752713854" lon="11.929602588121346"><ele>21.0</ele><time>2026-04-03T09:40:19Z</time></trkpt><trkpt lat="45.573801257926796" lon="11.929680987812253"><ele>21.5</ele><time>2026-04-03T09:40:21Z</time></trkpt><trkpt lat="45.573813782245274" lon="11.929783039001158"><ele>22.0</ele><time>2026-04-03T09:40:24Z</time></trkpt><trkpt lat="45.57380889185284" lon="11.929892855750593"><ele>22.5</ele><time>2026-04-03T09:40:28Z</time></trkpt><trkpt lat="45.57388299804819" lon="11.929658449300868"><ele>23.0</ele><time>2026-04-03T09:40:37Z</time></trkpt><trkpt lat="45.57403851825428" lon="11.92959021700823"><ele>23.0</ele><time>2026-04-03T09:40:39Z</time></trkpt><trkpt lat="45.57406649521173" lon="11.929945827669235"><ele>23.0</ele><time>2026-04-03T09:40:40Z</time></trkpt><trkpt lat="45.57415108551982" lon="11.929950286131119"><ele>23.0</ele><time>2026-04-03T09:40:43Z</time></trkpt><trkpt lat="45.574085454060544" lon="11.929980006685518"><ele>23.0</ele><time>2026-04-03T09:40:50Z</time></trkpt><trkpt lat="45.57400855916942" lon="11.929965946159273"><ele>23.0</ele><time>2026-04-03T09:40:52Z</time></trkpt><trkpt lat="45.573961540250686" lon="11.930077118711582"><ele>23.0</ele><time>2026-04-03T09:41:00Z</time></trkpt><trkpt lat="45.57396228306301" lon="11.930225571333088"><ele>23.0</ele><time>2026-04-03T09:41:02Z</time></trkpt><trkpt lat="45.5739285953851" lon="11.930350772165669"><ele>23.0</ele><time>2026-04-03T09:41:04Z</time></trkpt><trkpt lat="45.573883173356016" lon="11.930415391058483"><ele>23.0</ele><time>2026-04-03T09:41:07.02Z</time></trkpt><trkpt lat="45.57384504906718" lon="11.930509228717543"><ele>23.0</ele><time>2026-04-03T09:41:10.019Z</time></trkpt><trkpt lat="45.57385782524668" lon="11.930682370904636"><ele>23.0</ele><time>2026-04-03T09:41:13Z</time></trkpt><trkpt lat="45.57391488827129" lon="11.9307464738738"><ele>23.0</ele><time>2026-04-03T09:41:15Z</time></trkpt><trkpt lat="45.57397088448875" lon="11.930795838825743"><ele>23.0</ele><time>2026-04-03T09:41:18Z</time></trkpt><trkpt lat="45.574041377867445" lon="11.9308399136573"><ele>23.0</ele><time>2026-04-03T09:41:21Z</time></trkpt><trkpt lat="45.57396054682813" lon="11.930847174363972"><ele>23.0</ele><time>2026-04-03T09:41:42Z</time></trkpt><trkpt lat="45.573883003383365" lon="11.930806912615944"><ele>23.0</ele><time>2026-04-03T09:41:45Z</time></trkpt><trkpt lat="45.57381891177309" lon="11.930787154038237"><ele>23.0</ele><time>2026-04-03T09:41:47Z</time></trkpt><trkpt lat="45.5737553346467" lon="11.93076849487203"><ele>23.0</ele><time>2026-04-03T09:41:49Z</time></trkpt><trkpt lat="45.57372462757112" lon="11.93067875630341"><ele>23.0</ele><time>2026-04-03T09:42:08Z</time></trkpt><trkpt lat="45.57372433202438" lon="11.93058665790918"><ele>23.0</ele><time>2026-04-03T09:42:13Z</time></trkpt><trkpt lat="45.57380558113909" lon="11.9306191749897"><ele>23.0</ele><time>2026-04-03T09:42:17Z</time></trkpt><trkpt lat="45.573884050621594" lon="11.930652046777311"><ele>23.0</ele><time>2026-04-03T09:42:20Z</time></trkpt><trkpt lat="45.57396932032273" lon="11.93067926493143"><ele>23.0</ele><time>2026-04-03T09:42:23Z</time></trkpt><trkpt lat="45.5740655120572" lon="11.930730707956725"><ele>23.0</ele><time>2026-04-03T09:42:26Z</time></trkpt><trkpt lat="45.57416349329668" lon="11.93076592578515"><ele>23.0</ele><time>2026-04-03T09:42:28Z</time></trkpt><trkpt lat="45.574265297768015" lon="11.930816322979855"><ele>23.0</ele><time>2026-04-03T09:42:30Z</time></trkpt><trkpt lat="45.57437072884281" lon="11.930865385792679"><ele>23.0</ele><time>2026-04-03T09:42:32Z</time></trkpt><trkpt lat="45.574479396285774" lon="11.930909017062516"><ele>23.0</ele><time>2026-04-03T09:42:34Z</time></trkpt><trkpt lat="45.574597374454996" lon="11.930956870338811"><ele>22.833333333333336</ele><time>2026-04-03T09:42:36Z</time></trkpt><trkpt lat="45.574638421301245" lon="11.931039428955872"><ele>22.666666666666668</ele><time>2026-04-03T09:42:37Z</time></trkpt><trkpt lat="45.57475504990503" lon="11.93109010879667"><ele>22.5</ele><time>2026-04-03T09:42:39Z</time></trkpt><trkpt lat="45.57487326491714" lon="11.931141477002031"><ele>22.333333333333332</ele><time>2026-04-03T09:42:41Z</time></trkpt><trkpt lat="45.574934367599084" lon="11.931168028044436"><ele>22.166666666666664</ele><time>2026-04-03T09:42:42Z</time></trkpt><trkpt lat="45.57499618705605" lon="11.931194800112658"><ele>22.0</ele><time>2026-04-03T09:42:43Z</time></trkpt><trkpt lat="45.57505789695076" lon="11.931221493237105"><ele>22.0</ele><time>2026-04-03T09:42:44Z</time></trkpt><trkpt lat="45.575121571524036" lon="11.931249036151751"><ele>22.0</ele><time>2026-04-03T09:42:45Z</time></trkpt><trkpt lat="45.575186220903845" lon="11.931277000770075"><ele>22.0</ele><time>2026-04-03T09:42:46Z</time></trkpt><trkpt lat="45.57525059640538" lon="11.931304846928457"><ele>22.0</ele><time>2026-04-03T09:42:47Z</time></trkpt><trkpt lat="45.5753153657682" lon="11.931332863443089"><ele>22.0</ele><time>2026-04-03T09:42:48Z</time></trkpt><trkpt lat="45.57538290333515" lon="11.931362077349435"><ele>22.0</ele><time>2026-04-03T09:42:49Z</time></trkpt><trkpt lat="45.575448946541194" lon="11.93139064489656"><ele>22.0</ele><time>2026-04-03T09:42:50Z</time></trkpt><trkpt lat="45.57551530328494" lon="11.931419348072902"><ele>22.0</ele><time>2026-04-03T09:42:51Z</time></trkpt><trkpt lat="45.57557727997641" lon="11.931446156547016"><ele>22.0</ele><time>2026-04-03T09:42:52Z</time></trkpt><trkpt lat="45.57564543262121" lon="11.93147614047473"><ele>22.0</ele><time>2026-04-03T09:42:53Z</time></trkpt><trkpt lat="45.575711373617224" lon="11.931505326820423"><ele>22.0</ele><time>2026-04-03T09:42:54Z</time></trkpt><trkpt lat="45.57577866710768" lon="11.931534831462741"><ele>22.0</ele><time>2026-04-03T09:42:55Z</time></trkpt><trkpt lat="45.575843461747844" lon="11.931562802509376"><ele>22.0</ele><time>2026-04-03T09:42:56Z</time></trkpt><trkpt lat="45.575909632934035" lon="11.931591367726543"><ele>22.0</ele><time>2026-04-03T09:42:57Z</time></trkpt><trkpt lat="45.57597280293722" lon="11.93161863731346"><ele>22.0</ele><time>2026-04-03T09:42:58Z</time></trkpt><trkpt lat="45.57608331389769" lon="11.931666343469207"><ele>22.0</ele><time>2026-04-03T09:43:00Z</time></trkpt><trkpt lat="45.57614406591537" lon="11.931692569264477"><ele>22.0</ele><time>2026-04-03T09:43:01Z</time></trkpt><trkpt lat="45.57626551517935" lon="11.931744997323317"><ele>22.0</ele><time>2026-04-03T09:43:03Z</time></trkpt><trkpt lat="45.576332074138044" lon="11.931773729956207"><ele>22.0</ele><time>2026-04-03T09:43:04Z</time></trkpt><trkpt lat="45.57639995957923" lon="11.93180303521415"><ele>22.0</ele><time>2026-04-03T09:43:05Z</time></trkpt><trkpt lat="45.57646179728909" lon="11.931831508285315"><ele>22.0</ele><time>2026-04-03T09:43:06Z</time></trkpt><trkpt lat="45.57652323618367" lon="11.931861163441113"><ele>22.0</ele><time>2026-04-03T09:43:07Z</time></trkpt><trkpt lat="45.57661716932679" lon="11.931916700458617"><ele>22.0</ele><time>2026-04-03T09:43:09Z</time></trkpt><trkpt lat="45.57670206827142" lon="11.931989322364274"><ele>22.0</ele><time>2026-04-03T09:43:11Z</time></trkpt><trkpt lat="45.576782476281195" lon="11.932067012671936"><ele>22.0</ele><time>2026-04-03T09:43:13Z</time></trkpt><trkpt lat="45.57685867262298" lon="11.932156435615449"><ele>22.0</ele><time>2026-04-03T09:43:15Z</time></trkpt><trkpt lat="45.5769494624312" lon="11.932344785114413"><ele>22.0</ele><time>2026-04-03T09:43:17Z</time></trkpt><trkpt lat="45.57703180456004" lon="11.932402516758359"><ele>22.0</ele><time>2026-04-03T09:43:18Z</time></trkpt><trkpt lat="45.5770922252609" lon="11.932428879643242"><ele>22.0</ele><time>2026-04-03T09:43:19Z</time></trkpt><trkpt lat="45.57717109634744" lon="11.932457995192062"><ele>22.0</ele><time>2026-04-03T09:43:20Z</time></trkpt><trkpt lat="45.57747781656748" lon="11.93237314518704"><ele>22.0</ele><time>2026-04-03T09:43:24Z</time></trkpt><trkpt lat="45.57753038465266" lon="11.932306107679134"><ele>22.0</ele><time>2026-04-03T09:43:25Z</time></trkpt><trkpt lat="45.577595098442" lon="11.932343238335186"><ele>22.0</ele><time>2026-04-03T09:43:28Z</time></trkpt><trkpt lat="45.5776305234603" lon="11.932461973106838"><ele>22.0</ele><time>2026-04-03T09:43:30Z</time></trkpt><trkpt lat="45.57771083815392" lon="11.93252535510763"><ele>22.0</ele><time>2026-04-03T09:43:32Z</time></trkpt><trkpt lat="45.57780342151124" lon="11.932590189294507"><ele>22.0</ele><time>2026-04-03T09:43:34Z</time></trkpt><trkpt lat="45.57789523451165" lon="11.932651756523407"><ele>22.0</ele><time>2026-04-03T09:43:36Z</time></trkpt><trkpt lat="45.577982581435016" lon="11.932733476594676"><ele>22.0</ele><time>2026-04-03T09:43:38Z</time></trkpt><trkpt lat="45.57807465136105" lon="11.932802949687803"><ele>22.0</ele><time>2026-04-03T09:43:40Z</time></trkpt><trkpt lat="45.57816675567139" lon="11.932887936604459"><ele>22.0</ele><time>2026-04-03T09:43:42Z</time></trkpt><trkpt lat="45.57826094157239" lon="11.93297645894281"><ele>22.0</ele><time>2026-04-03T09:43:44Z</time></trkpt><trkpt lat="45.578356665279195" lon="11.933051694853749"><ele>22.0</ele><time>2026-04-03T09:43:46Z</time></trkpt><trkpt lat="45.578457923240556" lon="11.933142666257194"><ele>22.0</ele><time>2026-04-03T09:43:48Z</time></trkpt><trkpt lat="45.57856150229889" lon="11.933232681161163"><ele>22.0</ele><time>2026-04-03T09:43:50Z</time></trkpt><trkpt lat="45.57865732987724" lon="11.933332590249869"><ele>22.0</ele><time>2026-04-03T09:43:52Z</time></trkpt><trkpt lat="45.57874948229185" lon="11.933430523053502"><ele>21.6</ele><time>2026-04-03T09:43:54Z</time></trkpt><trkpt lat="45.57883948068453" lon="11.933524717559436"><ele>21.200000000000003</ele><time>2026-04-03T09:43:56Z</time></trkpt><trkpt lat="45.57893932316675" lon="11.93363988475479"><ele>20.8</ele><time>2026-04-03T09:43:58Z</time></trkpt><trkpt lat="45.578992324076346" lon="11.933703384097356"><ele>20.4</ele><time>2026-04-03T09:43:59Z</time></trkpt><trkpt lat="45.579047860960685" lon="11.933751385545012"><ele>20.0</ele><time>2026-04-03T09:44:00Z</time></trkpt><trkpt lat="45.57914214805247" lon="11.93386030800573"><ele>20.0</ele><time>2026-04-03T09:44:02Z</time></trkpt><trkpt lat="45.57919770583871" lon="11.933906399399"><ele>20.0</ele><time>2026-04-03T09:44:03Z</time></trkpt><trkpt lat="45.57924971297672" lon="11.933958563958852"><ele>20.0</ele><time>2026-04-03T09:44:04Z</time></trkpt><trkpt lat="45.579300793787944" lon="11.934019904225083"><ele>20.0</ele><time>2026-04-03T09:44:05Z</time></trkpt><trkpt lat="45.57934460431343" lon="11.93409099422283"><ele>20.0</ele><time>2026-04-03T09:44:06Z</time></trkpt><trkpt lat="45.579388548751204" lon="11.934156306990214"><ele>20.0</ele><time>2026-04-03T09:44:07Z</time></trkpt><trkpt lat="45.57944565600589" lon="11.934220754674582"><ele>20.0</ele><time>2026-04-03T09:44:08Z</time></trkpt><trkpt lat="45.57950001329777" lon="11.934278218034002"><ele>20.333333333333336</ele><time>2026-04-03T09:44:09Z</time></trkpt><trkpt lat="45.57954770015047" lon="11.93434103603801"><ele>20.666666666666668</ele><time>2026-04-03T09:44:10Z</time></trkpt><trkpt lat="45.579596479454906" lon="11.934405956835663"><ele>21.0</ele><time>2026-04-03T09:44:11Z</time></trkpt><trkpt lat="45.57964069534732" lon="11.934474285869072"><ele>21.333333333333332</ele><time>2026-04-03T09:44:12Z</time></trkpt><trkpt lat="45.5797293642723" lon="11.934595979736757"><ele>21.666666666666664</ele><time>2026-04-03T09:44:14Z</time></trkpt><trkpt lat="45.57982099943124" lon="11.934704116121935"><ele>22.0</ele><time>2026-04-03T09:44:16Z</time></trkpt><trkpt lat="45.57990496316796" lon="11.934832065994177"><ele>22.0</ele><time>2026-04-03T09:44:18Z</time></trkpt><trkpt lat="45.57998533113643" lon="11.934962557053188"><ele>22.0</ele><time>2026-04-03T09:44:20Z</time></trkpt><trkpt lat="45.58006901051392" lon="11.935078131415777"><ele>22.0</ele><time>2026-04-03T09:44:22Z</time></trkpt><trkpt lat="45.58014840577407" lon="11.935221899466017"><ele>22.0</ele><time>2026-04-03T09:44:24Z</time></trkpt><trkpt lat="45.580232049424936" lon="11.935350854039351"><ele>22.0</ele><time>2026-04-03T09:44:26Z</time></trkpt><trkpt lat="45.58031387198451" lon="11.935478654850058"><ele>22.0</ele><time>2026-04-03T09:44:28Z</time></trkpt><trkpt lat="45.580390053734135" lon="11.935614888856032"><ele>22.0</ele><time>2026-04-03T09:44:30Z</time></trkpt><trkpt lat="45.580432997389174" lon="11.935681985162255"><ele>22.0</ele><time>2026-04-03T09:44:31Z</time></trkpt><trkpt lat="45.58050555921276" lon="11.935819090456778"><ele>22.0</ele><time>2026-04-03T09:44:33Z</time></trkpt><trkpt lat="45.58057795543994" lon="11.93595303669645"><ele>22.200000000000003</ele><time>2026-04-03T09:44:35Z</time></trkpt><trkpt lat="45.58061603218378" lon="11.936024668351584"><ele>22.4</ele><time>2026-04-03T09:44:36Z</time></trkpt><trkpt lat="45.58066860751402" lon="11.936129934130394"><ele>22.6</ele><time>2026-04-03T09:44:38Z</time></trkpt><trkpt lat="45.58076031682595" lon="11.936232514438736"><ele>22.799999999999997</ele><time>2026-04-03T09:44:40Z</time></trkpt><trkpt lat="45.580812734980576" lon="11.9362895724268"><ele>23.0</ele><time>2026-04-03T09:44:41Z</time></trkpt><trkpt lat="45.5809128020749" lon="11.93639809826414"><ele>23.0</ele><time>2026-04-03T09:44:43Z</time></trkpt><trkpt lat="45.580965545130645" lon="11.936468448710542"><ele>23.0</ele><time>2026-04-03T09:44:44Z</time></trkpt><trkpt lat="45.58101819920141" lon="11.936555199659807"><ele>23.0</ele><time>2026-04-03T09:44:45Z</time></trkpt><trkpt lat="45.58107358420933" lon="11.936638562367808"><ele>23.0</ele><time>2026-04-03T09:44:46Z</time></trkpt><trkpt lat="45.58112465494947" lon="11.936714491016824"><ele>23.0</ele><time>2026-04-03T09:44:47Z</time></trkpt><trkpt lat="45.58116623799854" lon="11.936804464011553"><ele>23.0</ele><time>2026-04-03T09:44:48Z</time></trkpt><trkpt lat="45.581205268452436" lon="11.936892629566648"><ele>22.714285714285715</ele><time>2026-04-03T09:44:49Z</time></trkpt><trkpt lat="45.581247829470826" lon="11.93698093407652"><ele>22.428571428571427</ele><time>2026-04-03T09:44:50Z</time></trkpt><trkpt lat="45.581286447384" lon="11.93706654381999"><ele>22.142857142857142</ele><time>2026-04-03T09:44:51Z</time></trkpt><trkpt lat="45.58132373665413" lon="11.937154213919714"><ele>21.857142857142858</ele><time>2026-04-03T09:44:52Z</time></trkpt><trkpt lat="45.581361078926925" lon="11.937241938251697"><ele>21.57142857142857</ele><time>2026-04-03T09:44:53Z</time></trkpt><trkpt lat="45.58140793208863" lon="11.937325400429838"><ele>21.285714285714285</ele><time>2026-04-03T09:44:54Z</time></trkpt><trkpt lat="45.581443109603114" lon="11.937411100911998"><ele>21.0</ele><time>2026-04-03T09:44:55Z</time></trkpt><trkpt lat="45.581481828723085" lon="11.937496683013578"><ele>21.333333333333332</ele><time>2026-04-03T09:44:56Z</time></trkpt><trkpt lat="45.581514210056326" lon="11.93757895532499"><ele>21.666666666666668</ele><time>2026-04-03T09:44:57Z</time></trkpt><trkpt lat="45.58155663739621" lon="11.937658847929196"><ele>22.0</ele><time>2026-04-03T09:44:58Z</time></trkpt><trkpt lat="45.58158769279377" lon="11.93773827500276"><ele>22.333333333333336</ele><time>2026-04-03T09:44:59Z</time></trkpt><trkpt lat="45.58161658375369" lon="11.937819756182797"><ele>22.666666666666668</ele><time>2026-04-03T09:45:00Z</time></trkpt><trkpt lat="45.58167081862291" lon="11.937975089168278"><ele>23.0</ele><time>2026-04-03T09:45:02Z</time></trkpt><trkpt lat="45.58173506641676" lon="11.93811582606024"><ele>23.0</ele><time>2026-04-03T09:45:04Z</time></trkpt><trkpt lat="45.581782834635774" lon="11.938254951653157"><ele>23.0</ele><time>2026-04-03T09:45:06Z</time></trkpt><trkpt lat="45.58182273886978" lon="11.93835805328101"><ele>23.0</ele><time>2026-04-03T09:45:08Z</time></trkpt><trkpt lat="45.58186192066898" lon="11.938457165373167"><ele>23.0</ele><time>2026-04-03T09:45:10Z</time></trkpt><trkpt lat="45.58187728552725" lon="11.938567419101979"><ele>23.0</ele><time>2026-04-03T09:45:13Z</time></trkpt><trkpt lat="45.58181933062618" lon="11.938653153480105"><ele>23.0</ele><time>2026-04-03T09:45:15Z</time></trkpt><trkpt lat="45.581736816848455" lon="11.938675625658101"><ele>23.166666666666668</ele><time>2026-04-03T09:45:17Z</time></trkpt><trkpt lat="45.58166441827631" lon="11.938715753280524"><ele>23.333333333333336</ele><time>2026-04-03T09:45:19Z</time></trkpt><trkpt lat="45.58161173415078" lon="11.938795843798648"><ele>23.5</ele><time>2026-04-03T09:45:21Z</time></trkpt><trkpt lat="45.58165207893316" lon="11.938873299683864"><ele>23.666666666666668</ele><time>2026-04-03T09:45:23Z</time></trkpt><trkpt lat="45.581719965745066" lon="11.93883511359146"><ele>23.833333333333332</ele><time>2026-04-03T09:45:25Z</time></trkpt><trkpt lat="45.581801053287016" lon="11.938837168573025"><ele>24.0</ele><time>2026-04-03T09:45:28Z</time></trkpt><trkpt lat="45.5818432821995" lon="11.938952066271707"><ele>24.0</ele><time>2026-04-03T09:45:31Z</time></trkpt><trkpt lat="45.58186124426634" lon="11.939064490540893"><ele>24.0</ele><time>2026-04-03T09:45:33Z</time></trkpt><trkpt lat="45.58189214846828" lon="11.939149471645782"><ele>24.0</ele><time>2026-04-03T09:45:35Z</time></trkpt><trkpt lat="45.58192885089108" lon="11.939255992425759"><ele>24.0</ele><time>2026-04-03T09:45:37Z</time></trkpt><trkpt lat="45.58197129939873" lon="11.939379653385123"><ele>24.0</ele><time>2026-04-03T09:45:39Z</time></trkpt><trkpt lat="45.58202014980926" lon="11.939511475418351"><ele>24.0</ele><time>2026-04-03T09:45:41Z</time></trkpt><trkpt lat="45.58206661317514" lon="11.9396528467433"><ele>23.799999999999997</ele><time>2026-04-03T09:45:43Z</time></trkpt><trkpt lat="45.58211000813426" lon="11.939805878877298"><ele>23.599999999999998</ele><time>2026-04-03T09:45:45Z</time></trkpt><trkpt lat="45.5821534024214" lon="11.939973977895951"><ele>23.4</ele><time>2026-04-03T09:45:47Z</time></trkpt><trkpt lat="45.58218640617157" lon="11.940086637937814"><ele>23.2</ele><time>2026-04-03T09:45:49Z</time></trkpt><trkpt lat="45.58221668562073" lon="11.940175459559827"><ele>23.0</ele><time>2026-04-03T09:45:52Z</time></trkpt><trkpt lat="45.582248372633195" lon="11.940303021752257"><ele>23.0</ele><time>2026-04-03T09:45:54Z</time></trkpt><trkpt lat="45.58228885273992" lon="11.94045219826969"><ele>23.0</ele><time>2026-04-03T09:45:56Z</time></trkpt><trkpt lat="45.58234080490363" lon="11.940588422351"><ele>23.0</ele><time>2026-04-03T09:45:58Z</time></trkpt><trkpt lat="45.58239332238324" lon="11.940734703168228"><ele>23.0</ele><time>2026-04-03T09:46:00Z</time></trkpt><trkpt lat="45.58243158382843" lon="11.940900916495716"><ele>23.0</ele><time>2026-04-03T09:46:02Z</time></trkpt><trkpt lat="45.58245674680426" lon="11.940986273931358"><ele>23.0</ele><time>2026-04-03T09:46:03Z</time></trkpt><trkpt lat="45.58250056003185" lon="11.941151394230719"><ele>23.0</ele><time>2026-04-03T09:46:05Z</time></trkpt><trkpt lat="45.582552439007884" lon="11.941306187237394"><ele>23.0</ele><time>2026-04-03T09:46:07Z</time></trkpt><trkpt lat="45.5825973829526" lon="11.941471225953933"><ele>23.0</ele><time>2026-04-03T09:46:09Z</time></trkpt><trkpt lat="45.58264678534743" lon="11.941638370803835"><ele>23.166666666666668</ele><time>2026-04-03T09:46:11Z</time></trkpt><trkpt lat="45.5826731883716" lon="11.941724510368877"><ele>23.333333333333336</ele><time>2026-04-03T09:46:12Z</time></trkpt><trkpt lat="45.5827191933189" lon="11.941885151023584"><ele>23.5</ele><time>2026-04-03T09:46:14Z</time></trkpt><trkpt lat="45.58274725806905" lon="11.941967047579668"><ele>23.666666666666668</ele><time>2026-04-03T09:46:15Z</time></trkpt><trkpt lat="45.582777001846466" lon="11.942048824131358"><ele>23.833333333333332</ele><time>2026-04-03T09:46:16Z</time></trkpt><trkpt lat="45.58280896864252" lon="11.942139308527459"><ele>24.0</ele><time>2026-04-03T09:46:17Z</time></trkpt><trkpt lat="45.58284237169925" lon="11.942231403296777"><ele>23.833333333333332</ele><time>2026-04-03T09:46:18Z</time></trkpt><trkpt lat="45.582868034329834" lon="11.942330436536672"><ele>23.666666666666668</ele><time>2026-04-03T09:46:19Z</time></trkpt><trkpt lat="45.58289180728886" lon="11.94243325315017"><ele>23.5</ele><time>2026-04-03T09:46:20Z</time></trkpt><trkpt lat="45.58291510519297" lon="11.942541878816526"><ele>23.333333333333336</ele><time>2026-04-03T09:46:21Z</time></trkpt><trkpt lat="45.58294703200584" lon="11.942642681747321"><ele>23.166666666666668</ele><time>2026-04-03T09:46:22Z</time></trkpt><trkpt lat="45.58298323824822" lon="11.942742822659168"><ele>23.0</ele><time>2026-04-03T09:46:23Z</time></trkpt><trkpt lat="45.58301501361928" lon="11.942840174764282"><ele>23.0</ele><time>2026-04-03T09:46:24Z</time></trkpt><trkpt lat="45.5830437930111" lon="11.94293290494462"><ele>23.0</ele><time>2026-04-03T09:46:25Z</time></trkpt><trkpt lat="45.58306275405295" lon="11.943021488198461"><ele>23.0</ele><time>2026-04-03T09:46:26Z</time></trkpt><trkpt lat="45.583098629369815" lon="11.943107923876028"><ele>23.0</ele><time>2026-04-03T09:46:27Z</time></trkpt><trkpt lat="45.58312465999394" lon="11.943190792273011"><ele>23.0</ele><time>2026-04-03T09:46:28Z</time></trkpt><trkpt lat="45.58314802857129" lon="11.943277059213951"><ele>23.0</ele><time>2026-04-03T09:46:29Z</time></trkpt><trkpt lat="45.58317415038963" lon="11.943359897945117"><ele>23.0</ele><time>2026-04-03T09:46:30Z</time></trkpt><trkpt lat="45.583198270910245" lon="11.943443225664153"><ele>22.799999999999997</ele><time>2026-04-03T09:46:31Z</time></trkpt><trkpt lat="45.583248335005095" lon="11.943614159742099"><ele>22.6</ele><time>2026-04-03T09:46:33Z</time></trkpt><trkpt lat="45.58327458624378" lon="11.943699457642596"><ele>22.4</ele><time>2026-04-03T09:46:34Z</time></trkpt><trkpt lat="45.583326870648314" lon="11.943867470338708"><ele>22.200000000000003</ele><time>2026-04-03T09:46:36Z</time></trkpt><trkpt lat="45.58335433015165" lon="11.943952291632344"><ele>22.0</ele><time>2026-04-03T09:46:37Z</time></trkpt><trkpt lat="45.58337836620241" lon="11.944040018174327"><ele>22.0</ele><time>2026-04-03T09:46:38Z</time></trkpt><trkpt lat="45.583408297190935" lon="11.944127436981885"><ele>22.0</ele><time>2026-04-03T09:46:39Z</time></trkpt><trkpt lat="45.583433567629214" lon="11.944211220022664"><ele>22.0</ele><time>2026-04-03T09:46:40Z</time></trkpt><trkpt lat="45.58346504469273" lon="11.944298374195654"><ele>22.0</ele><time>2026-04-03T09:46:41Z</time></trkpt><trkpt lat="45.58349261715657" lon="11.944388348708381"><ele>22.0</ele><time>2026-04-03T09:46:42Z</time></trkpt><trkpt lat="45.58351912222634" lon="11.94447181357957"><ele>22.0</ele><time>2026-04-03T09:46:43Z</time></trkpt><trkpt lat="45.58353713415842" lon="11.944560370980973"><ele>22.0</ele><time>2026-04-03T09:46:44Z</time></trkpt><trkpt lat="45.58356682369113" lon="11.94464661469669"><ele>22.0</ele><time>2026-04-03T09:46:45Z</time></trkpt><trkpt lat="45.5835925782569" lon="11.94473770448202"><ele>22.0</ele><time>2026-04-03T09:46:46Z</time></trkpt><trkpt lat="45.58361777698009" lon="11.944828635431474"><ele>22.0</ele><time>2026-04-03T09:46:47Z</time></trkpt><trkpt lat="45.583671449325635" lon="11.944991255599213"><ele>22.0</ele><time>2026-04-03T09:46:49Z</time></trkpt><trkpt lat="45.583697678785406" lon="11.945084154549052"><ele>22.0</ele><time>2026-04-03T09:46:50Z</time></trkpt><trkpt lat="45.58372529930248" lon="11.945179202766257"><ele>22.0</ele><time>2026-04-03T09:46:51Z</time></trkpt><trkpt lat="45.583745924018785" lon="11.945271199554012"><ele>22.0</ele><time>2026-04-03T09:46:52Z</time></trkpt><trkpt lat="45.58377240308774" lon="11.945361163385078"><ele>22.0</ele><time>2026-04-03T09:46:53Z</time></trkpt><trkpt lat="45.583798448205506" lon="11.945457344391029"><ele>22.0</ele><time>2026-04-03T09:46:54Z</time></trkpt><trkpt lat="45.583834719372625" lon="11.945546325384813"><ele>22.0</ele><time>2026-04-03T09:46:55Z</time></trkpt><trkpt lat="45.58386316303848" lon="11.945640440703235"><ele>22.0</ele><time>2026-04-03T09:46:56Z</time></trkpt><trkpt lat="45.58388792351679" lon="11.945727277216186"><ele>22.0</ele><time>2026-04-03T09:46:57Z</time></trkpt><trkpt lat="45.5839067779402" lon="11.945817266713753"><ele>22.0</ele><time>2026-04-03T09:46:58Z</time></trkpt><trkpt lat="45.58393803089617" lon="11.945909088011273"><ele>22.142857142857142</ele><time>2026-04-03T09:46:59Z</time></trkpt><trkpt lat="45.58397379093621" lon="11.945992418555567"><ele>22.285714285714285</ele><time>2026-04-03T09:47:00Z</time></trkpt><trkpt lat="45.5840001189907" lon="11.946088830788618"><ele>22.42857142857143</ele><time>2026-04-03T09:47:01Z</time></trkpt><trkpt lat="45.58402770441283" lon="11.946181938149557"><ele>22.57142857142857</ele><time>2026-04-03T09:47:02Z</time></trkpt><trkpt lat="45.584060464659885" lon="11.946275895739719"><ele>22.71428571428571</ele><time>2026-04-03T09:47:03Z</time></trkpt><trkpt lat="45.584085107517225" lon="11.946369979144476"><ele>22.857142857142858</ele><time>2026-04-03T09:47:04Z</time></trkpt><trkpt lat="45.58411522214512" lon="11.946463648118824"><ele>23.0</ele><time>2026-04-03T09:47:05Z</time></trkpt><trkpt lat="45.5841426406226" lon="11.9465633889872"><ele>23.0</ele><time>2026-04-03T09:47:06Z</time></trkpt><trkpt lat="45.58416577980879" lon="11.946658419561494"><ele>23.0</ele><time>2026-04-03T09:47:07Z</time></trkpt><trkpt lat="45.58419449147182" lon="11.946756660734414"><ele>23.0</ele><time>2026-04-03T09:47:08Z</time></trkpt><trkpt lat="45.58422982846801" lon="11.946849226365828"><ele>23.0</ele><time>2026-04-03T09:47:09Z</time></trkpt><trkpt lat="45.584258940947755" lon="11.94694599167736"><ele>23.0</ele><time>2026-04-03T09:47:10Z</time></trkpt><trkpt lat="45.584289481782534" lon="11.94704272375665"><ele>23.0</ele><time>2026-04-03T09:47:11Z</time></trkpt><trkpt lat="45.58431253995805" lon="11.947142315138425"><ele>23.0</ele><time>2026-04-03T09:47:12Z</time></trkpt><trkpt lat="45.584343711891805" lon="11.947240287408645"><ele>22.799999999999997</ele><time>2026-04-03T09:47:13Z</time></trkpt><trkpt lat="45.58437949626132" lon="11.947333961645713"><ele>22.6</ele><time>2026-04-03T09:47:14Z</time></trkpt><trkpt lat="45.58440783375746" lon="11.947422623994301"><ele>22.4</ele><time>2026-04-03T09:47:15Z</time></trkpt><trkpt lat="45.58433996425466" lon="11.94760179681481"><ele>22.200000000000003</ele><time>2026-04-03T09:47:16Z</time></trkpt><trkpt lat="45.58440221324759" lon="11.947748714217678"><ele>22.0</ele><time>2026-04-03T09:47:18Z</time></trkpt><trkpt lat="45.58445514735888" lon="11.947912243647043"><ele>22.0</ele><time>2026-04-03T09:47:20Z</time></trkpt><trkpt lat="45.58450441249406" lon="11.948071828227976"><ele>22.0</ele><time>2026-04-03T09:47:22Z</time></trkpt><trkpt lat="45.58453003149043" lon="11.94815481575181"><ele>22.0</ele><time>2026-04-03T09:47:23Z</time></trkpt><trkpt lat="45.584577294161384" lon="11.948309681810317"><ele>22.0</ele><time>2026-04-03T09:47:25Z</time></trkpt><trkpt lat="45.58462003723188" lon="11.948450589063006"><ele>22.0</ele><time>2026-04-03T09:47:27Z</time></trkpt><trkpt lat="45.58465725820739" lon="11.948579193817201"><ele>22.0</ele><time>2026-04-03T09:47:29Z</time></trkpt><trkpt lat="45.58471314677071" lon="11.948737776930376"><ele>22.0</ele><time>2026-04-03T09:47:31Z</time></trkpt><trkpt lat="45.58479065713293" lon="11.948875416603682"><ele>22.0</ele><time>2026-04-03T09:47:33Z</time></trkpt><trkpt lat="45.58485470763313" lon="11.948995120467385"><ele>22.0</ele><time>2026-04-03T09:47:35Z</time></trkpt><trkpt lat="45.584942138176" lon="11.949018232122475"><ele>22.0</ele><time>2026-04-03T09:47:37Z</time></trkpt><trkpt lat="45.584941454406966" lon="11.94914662202631"><ele>21.833333333333332</ele><time>2026-04-03T09:47:39Z</time></trkpt><trkpt lat="45.58492103827479" lon="11.949233583827532"><ele>21.666666666666664</ele><time>2026-04-03T09:47:41Z</time></trkpt><trkpt lat="45.58490314773329" lon="11.949343701711992"><ele>21.5</ele><time>2026-04-03T09:47:43Z</time></trkpt><trkpt lat="45.58488287309591" lon="11.949468493941094"><ele>21.333333333333332</ele><time>2026-04-03T09:47:45Z</time></trkpt><trkpt lat="45.584863582720956" lon="11.94958418159889"><ele>21.166666666666668</ele><time>2026-04-03T09:47:47Z</time></trkpt><trkpt lat="45.584847737323" lon="11.949677484334266"><ele>21.0</ele><time>2026-04-03T09:47:49Z</time></trkpt><trkpt lat="45.58482823483702" lon="11.949792321216078"><ele>21.0</ele><time>2026-04-03T09:47:51Z</time></trkpt><trkpt lat="45.58521146666976" lon="11.950046746007835"><ele>21.0</ele><time>2026-04-03T09:47:53Z</time></trkpt><trkpt lat="45.58524223932477" lon="11.950183597374654"><ele>21.0</ele><time>2026-04-03T09:47:55Z</time></trkpt><trkpt lat="45.58527348068451" lon="11.950264452543903"><ele>21.0</ele><time>2026-04-03T09:47:56Z</time></trkpt><trkpt lat="45.585320278562214" lon="11.950419393896768"><ele>21.0</ele><time>2026-04-03T09:47:58Z</time></trkpt><trkpt lat="45.58537347206181" lon="11.950573320354842"><ele>21.0</ele><time>2026-04-03T09:48:00Z</time></trkpt><trkpt lat="45.58540327449754" lon="11.950654653032583"><ele>21.0</ele><time>2026-04-03T09:48:01Z</time></trkpt><trkpt lat="45.58543241904936" lon="11.950791945697883"><ele>21.166666666666668</ele><time>2026-04-03T09:48:03Z</time></trkpt><trkpt lat="45.585470718823025" lon="11.950897551866271"><ele>21.333333333333332</ele><time>2026-04-03T09:48:05Z</time></trkpt><trkpt lat="45.5854952123522" lon="11.950992558957871"><ele>21.5</ele><time>2026-04-03T09:48:08Z</time></trkpt><trkpt lat="45.585533487265074" lon="11.95106428483982"><ele>21.666666666666664</ele><time>2026-04-03T09:49:11Z</time></trkpt><trkpt lat="45.585577367323936" lon="11.951160198529141"><ele>21.833333333333332</ele><time>2026-04-03T09:49:14Z</time></trkpt><trkpt lat="45.585602163974514" lon="11.951273858550111"><ele>22.0</ele><time>2026-04-03T09:49:16Z</time></trkpt><trkpt lat="45.585649004624834" lon="11.951384440671259"><ele>22.0</ele><time>2026-04-03T09:49:18Z</time></trkpt><trkpt lat="45.58567416481582" lon="11.951512705708533"><ele>22.0</ele><time>2026-04-03T09:49:20Z</time></trkpt><trkpt lat="45.58570992749322" lon="11.951661742183589"><ele>22.0</ele><time>2026-04-03T09:49:22Z</time></trkpt><trkpt lat="45.585754958994286" lon="11.951806891088886"><ele>22.0</ele><time>2026-04-03T09:49:24Z</time></trkpt><trkpt lat="45.58579621542156" lon="11.951955454498146"><ele>22.0</ele><time>2026-04-03T09:49:26Z</time></trkpt><trkpt lat="45.58584657577" lon="11.95211008697865"><ele>22.0</ele><time>2026-04-03T09:49:28Z</time></trkpt><trkpt lat="45.58589905451297" lon="11.952247681796388"><ele>22.0</ele><time>2026-04-03T09:49:30Z</time></trkpt><trkpt lat="45.58594960261851" lon="11.952405883663982"><ele>22.0</ele><time>2026-04-03T09:49:32Z</time></trkpt><trkpt lat="45.58599941705739" lon="11.9525482307122"><ele>22.0</ele><time>2026-04-03T09:49:34Z</time></trkpt><trkpt lat="45.58602402704973" lon="11.952632097021878"><ele>22.0</ele><time>2026-04-03T09:49:35Z</time></trkpt><trkpt lat="45.58605241878382" lon="11.952777078734709"><ele>22.0</ele><time>2026-04-03T09:49:37Z</time></trkpt><trkpt lat="45.58610684867471" lon="11.95292184596139"><ele>22.0</ele><time>2026-04-03T09:49:39Z</time></trkpt><trkpt lat="45.58614848925169" lon="11.953076414325674"><ele>22.0</ele><time>2026-04-03T09:49:41Z</time></trkpt><trkpt lat="45.58619315012929" lon="11.953239727198977"><ele>22.0</ele><time>2026-04-03T09:49:43Z</time></trkpt><trkpt lat="45.586247518425196" lon="11.953406859175754"><ele>22.166666666666664</ele><time>2026-04-03T09:49:45Z</time></trkpt><trkpt lat="45.5862722755924" lon="11.953493843281679"><ele>22.333333333333332</ele><time>2026-04-03T09:49:46Z</time></trkpt><trkpt lat="45.58629066308751" lon="11.95358058714385"><ele>22.5</ele><time>2026-04-03T09:49:47Z</time></trkpt><trkpt lat="45.58634996245706" lon="11.95374288484044"><ele>22.666666666666668</ele><time>2026-04-03T09:49:49Z</time></trkpt><trkpt lat="45.586375654601234" lon="11.953830703936735"><ele>22.833333333333336</ele><time>2026-04-03T09:49:50Z</time></trkpt><trkpt lat="45.58640506552875" lon="11.953916750091565"><ele>23.0</ele><time>2026-04-03T09:49:51Z</time></trkpt><trkpt lat="45.58643545443506" lon="11.954005478817788"><ele>23.0</ele><time>2026-04-03T09:49:52Z</time></trkpt><trkpt lat="45.58646110078723" lon="11.954088131895091"><ele>23.0</ele><time>2026-04-03T09:49:53Z</time></trkpt><trkpt lat="45.58648762736784" lon="11.954172229043541"><ele>23.0</ele><time>2026-04-03T09:49:54Z</time></trkpt><trkpt lat="45.58651220295147" lon="11.954259117395612"><ele>23.0</ele><time>2026-04-03T09:49:55Z</time></trkpt><trkpt lat="45.58653603299619" lon="11.95434620781769"><ele>23.0</ele><time>2026-04-03T09:49:56Z</time></trkpt><trkpt lat="45.586587180325964" lon="11.954508857578979"><ele>23.0</ele><time>2026-04-03T09:49:58Z</time></trkpt><trkpt lat="45.58661886395481" lon="11.95459177129311"><ele>23.0</ele><time>2026-04-03T09:49:59Z</time></trkpt><trkpt lat="45.586661517905725" lon="11.95476183094105"><ele>23.0</ele><time>2026-04-03T09:50:01Z</time></trkpt><trkpt lat="45.5866901653928" lon="11.954846239181954"><ele>23.0</ele><time>2026-04-03T09:50:02Z</time></trkpt><trkpt lat="45.586716861102964" lon="11.95493183716632"><ele>23.0</ele><time>2026-04-03T09:50:03Z</time></trkpt><trkpt lat="45.58674202206227" lon="11.955019389107784"><ele>23.0</ele><time>2026-04-03T09:50:04Z</time></trkpt><trkpt lat="45.58679065397277" lon="11.955174515123739"><ele>23.0</ele><time>2026-04-03T09:50:06Z</time></trkpt><trkpt lat="45.58681857814907" lon="11.955257168099202"><ele>23.0</ele><time>2026-04-03T09:50:07Z</time></trkpt><trkpt lat="45.58685465795814" lon="11.955407247749605"><ele>23.0</ele><time>2026-04-03T09:50:09Z</time></trkpt><trkpt lat="45.58689915181038" lon="11.955564471990673"><ele>23.0</ele><time>2026-04-03T09:50:11Z</time></trkpt><trkpt lat="45.58695506987134" lon="11.955714652429537"><ele>23.0</ele><time>2026-04-03T09:50:13Z</time></trkpt><trkpt lat="45.58700154710979" lon="11.955867677461955"><ele>22.599999999999998</ele><time>2026-04-03T09:50:15Z</time></trkpt><trkpt lat="45.58704212223866" lon="11.956022375678332"><ele>22.2</ele><time>2026-04-03T09:50:17Z</time></trkpt><trkpt lat="45.58708090719681" lon="11.956164174732493"><ele>21.8</ele><time>2026-04-03T09:50:19Z</time></trkpt><trkpt lat="45.5871275740487" lon="11.956298465549528"><ele>21.4</ele><time>2026-04-03T09:50:21Z</time></trkpt><trkpt lat="45.587191260595546" lon="11.95641293238794"><ele>21.0</ele><time>2026-04-03T09:50:23Z</time></trkpt><trkpt lat="45.58729910264128" lon="11.956399115187184"><ele>21.0</ele><time>2026-04-03T09:50:25Z</time></trkpt><trkpt lat="45.5873929987536" lon="11.95638025286437"><ele>21.0</ele><time>2026-04-03T09:50:27Z</time></trkpt><trkpt lat="45.58748894184327" lon="11.95639598610916"><ele>21.0</ele><time>2026-04-03T09:50:29Z</time></trkpt><trkpt lat="45.587591924336685" lon="11.956388898581498"><ele>21.0</ele><time>2026-04-03T09:50:31Z</time></trkpt><trkpt lat="45.58768621482114" lon="11.956379926205264"><ele>21.0</ele><time>2026-04-03T09:50:33Z</time></trkpt><trkpt lat="45.587793543874426" lon="11.956367063863791"><ele>21.200000000000003</ele><time>2026-04-03T09:50:35Z</time></trkpt><trkpt lat="45.58787349090083" lon="11.956261739472998"><ele>21.400000000000002</ele><time>2026-04-03T09:50:37Z</time></trkpt><trkpt lat="45.58788995418304" lon="11.956103598234538"><ele>21.6</ele><time>2026-04-03T09:50:39Z</time></trkpt><trkpt lat="45.58791957689253" lon="11.955968750827632"><ele>21.8</ele><time>2026-04-03T09:50:41Z</time></trkpt><trkpt lat="45.58793560139423" lon="11.955863487861428"><ele>22.0</ele><time>2026-04-03T09:50:43Z</time></trkpt><trkpt lat="45.5879571752824" lon="11.955769502988726"><ele>22.200000000000003</ele><time>2026-04-03T09:50:46Z</time></trkpt><trkpt lat="45.587980151890314" lon="11.95593275378713"><ele>22.4</ele><time>2026-04-03T09:50:50Z</time></trkpt><trkpt lat="45.58795307485637" lon="11.956072039594577"><ele>22.6</ele><time>2026-04-03T09:50:52Z</time></trkpt><trkpt lat="45.58793619283334" lon="11.956248260928605"><ele>22.799999999999997</ele><time>2026-04-03T09:50:54Z</time></trkpt><trkpt lat="45.58792721132534" lon="11.956345385657668"><ele>23.0</ele><time>2026-04-03T09:50:55Z</time></trkpt><trkpt lat="45.58791600182349" lon="11.95644449273386"><ele>23.0</ele><time>2026-04-03T09:50:56Z</time></trkpt><trkpt lat="45.587906890257045" lon="11.95654538849359"><ele>23.0</ele><time>2026-04-03T09:50:57Z</time></trkpt><trkpt lat="45.58789305636948" lon="11.956644101807559"><ele>23.0</ele><time>2026-04-03T09:50:58Z</time></trkpt><trkpt lat="45.5878790486269" lon="11.956739771245465"><ele>23.0</ele><time>2026-04-03T09:50:59Z</time></trkpt><trkpt lat="45.58786762081121" lon="11.956835619266505"><ele>23.0</ele><time>2026-04-03T09:51:00Z</time></trkpt><trkpt lat="45.587856219188446" lon="11.956929026354825"><ele>23.0</ele><time>2026-04-03T09:51:01Z</time></trkpt><trkpt lat="45.58784430185959" lon="11.95702998449486"><ele>23.0</ele><time>2026-04-03T09:51:02Z</time></trkpt><trkpt lat="45.58784594429926" lon="11.957136880302441"><ele>23.0</ele><time>2026-04-03T09:51:03Z</time></trkpt><trkpt lat="45.587835477019595" lon="11.957234940193029"><ele>23.0</ele><time>2026-04-03T09:51:04Z</time></trkpt><trkpt lat="45.58782467373235" lon="11.957330684163543"><ele>23.0</ele><time>2026-04-03T09:51:05Z</time></trkpt><trkpt lat="45.58781806644333" lon="11.957426519136325"><ele>23.0</ele><time>2026-04-03T09:51:06Z</time></trkpt><trkpt lat="45.58781154975175" lon="11.957524201313728"><ele>23.0</ele><time>2026-04-03T09:51:07Z</time></trkpt><trkpt lat="45.5878041163533" lon="11.957623152805736"><ele>23.0</ele><time>2026-04-03T09:51:08Z</time></trkpt><trkpt lat="45.58779535882638" lon="11.957717302848835"><ele>23.0</ele><time>2026-04-03T09:51:09Z</time></trkpt><trkpt lat="45.587784498018124" lon="11.957869752679391"><ele>22.833333333333336</ele><time>2026-04-03T09:51:11Z</time></trkpt><trkpt lat="45.587761869898955" lon="11.95795735450759"><ele>22.666666666666668</ele><time>2026-04-03T09:51:13Z</time></trkpt><trkpt lat="45.58777965690909" lon="11.958060759140816"><ele>22.5</ele><time>2026-04-03T09:51:23Z</time></trkpt><trkpt lat="45.587762237693035" lon="11.958178444937479"><ele>22.333333333333332</ele><time>2026-04-03T09:51:25Z</time></trkpt><trkpt lat="45.58785176637612" lon="11.958265739683604"><ele>22.166666666666664</ele><time>2026-04-03T09:51:26Z</time></trkpt><trkpt lat="45.58785332685253" lon="11.958418416246298"><ele>22.0</ele><time>2026-04-03T09:51:28Z</time></trkpt><trkpt lat="45.58786340388933" lon="11.958572859623263"><ele>21.8</ele><time>2026-04-03T09:51:30Z</time></trkpt><trkpt lat="45.58788289432625" lon="11.95873333731662"><ele>21.6</ele><time>2026-04-03T09:51:32Z</time></trkpt><trkpt lat="45.58791784135856" lon="11.958869499794172"><ele>21.400000000000002</ele><time>2026-04-03T09:51:34Z</time></trkpt><trkpt lat="45.58796689528548" lon="11.959022935911252"><ele>21.200000000000003</ele><time>2026-04-03T09:51:36Z</time></trkpt><trkpt lat="45.587992477800015" lon="11.959107108254097"><ele>21.0</ele><time>2026-04-03T09:51:37Z</time></trkpt><trkpt lat="45.58801220768209" lon="11.959196670032622"><ele>21.285714285714285</ele><time>2026-04-03T09:51:38Z</time></trkpt><trkpt lat="45.58804192563114" lon="11.959276474407819"><ele>21.57142857142857</ele><time>2026-04-03T09:51:39Z</time></trkpt><trkpt lat="45.5880712349066" lon="11.959359582714637"><ele>21.857142857142858</ele><time>2026-04-03T09:51:40Z</time></trkpt><trkpt lat="45.588100607857946" lon="11.959447130882783"><ele>22.142857142857142</ele><time>2026-04-03T09:51:41Z</time></trkpt><trkpt lat="45.58812968051966" lon="11.959543006488664"><ele>22.428571428571427</ele><time>2026-04-03T09:51:42Z</time></trkpt><trkpt lat="45.58815941290375" lon="11.959638927048754"><ele>22.714285714285715</ele><time>2026-04-03T09:51:43Z</time></trkpt><trkpt lat="45.588188878003734" lon="11.959737112895954"><ele>23.0</ele><time>2026-04-03T09:51:44Z</time></trkpt><trkpt lat="45.58821593347143" lon="11.959833225746838"><ele>23.0</ele><time>2026-04-03T09:51:45Z</time></trkpt><trkpt lat="45.588244462006124" lon="11.959927286908394"><ele>23.0</ele><time>2026-04-03T09:51:46Z</time></trkpt><trkpt lat="45.58827222929764" lon="11.960018897995322"><ele>23.0</ele><time>2026-04-03T09:51:47Z</time></trkpt><trkpt lat="45.58830057234364" lon="11.960109990086925"><ele>23.0</ele><time>2026-04-03T09:51:48Z</time></trkpt><trkpt lat="45.588330418977655" lon="11.960203582855717"><ele>23.0</ele><time>2026-04-03T09:51:49Z</time></trkpt><trkpt lat="45.58835672465374" lon="11.960295295532921"><ele>23.0</ele><time>2026-04-03T09:51:50Z</time></trkpt><trkpt lat="45.58838328879626" lon="11.960382792061635"><ele>23.0</ele><time>2026-04-03T09:51:51Z</time></trkpt><trkpt lat="45.5884122878025" lon="11.960467272228682"><ele>23.0</ele><time>2026-04-03T09:51:52Z</time></trkpt><trkpt lat="45.588442946429566" lon="11.960552338780332"><ele>23.0</ele><time>2026-04-03T09:51:53Z</time></trkpt><trkpt lat="45.588475637199906" lon="11.96064371913423"><ele>23.0</ele><time>2026-04-03T09:51:54Z</time></trkpt><trkpt lat="45.588516871689386" lon="11.960812210574103"><ele>23.0</ele><time>2026-04-03T09:51:56Z</time></trkpt><trkpt lat="45.58854202918606" lon="11.960895973634361"><ele>23.0</ele><time>2026-04-03T09:51:57Z</time></trkpt><trkpt lat="45.58859741468828" lon="11.961057871778502"><ele>23.0</ele><time>2026-04-03T09:51:59Z</time></trkpt><trkpt lat="45.588626421592366" lon="11.961137951926839"><ele>23.0</ele><time>2026-04-03T09:52:00Z</time></trkpt><trkpt lat="45.588650789559125" lon="11.961221000033563"><ele>23.0</ele><time>2026-04-03T09:52:01Z</time></trkpt><trkpt lat="45.58869315031251" lon="11.961387465049741"><ele>23.0</ele><time>2026-04-03T09:52:03Z</time></trkpt><trkpt lat="45.58874850865308" lon="11.96154524250262"><ele>23.0</ele><time>2026-04-03T09:52:05Z</time></trkpt><trkpt lat="45.58878163272482" lon="11.961623163533869"><ele>23.0</ele><time>2026-04-03T09:52:06Z</time></trkpt><trkpt lat="45.58881033959539" lon="11.961703755864345"><ele>23.571428571428573</ele><time>2026-04-03T09:52:07Z</time></trkpt><trkpt lat="45.588828156905535" lon="11.96179273212429"><ele>24.142857142857142</ele><time>2026-04-03T09:52:08Z</time></trkpt><trkpt lat="45.58884593190974" lon="11.961881974540391"><ele>24.714285714285715</ele><time>2026-04-03T09:52:09Z</time></trkpt><trkpt lat="45.58887294170618" lon="11.961969439202232"><ele>25.285714285714285</ele><time>2026-04-03T09:52:10Z</time></trkpt><trkpt lat="45.58889877883696" lon="11.962062602935722"><ele>25.857142857142854</ele><time>2026-04-03T09:52:11Z</time></trkpt><trkpt lat="45.58893373919686" lon="11.962150176243894"><ele>26.428571428571427</ele><time>2026-04-03T09:52:12Z</time></trkpt><trkpt lat="45.58896180020213" lon="11.962239332550176"><ele>27.0</ele><time>2026-04-03T09:52:13Z</time></trkpt><trkpt lat="45.58899360540339" lon="11.96233115971444"><ele>27.0</ele><time>2026-04-03T09:52:14Z</time></trkpt><trkpt lat="45.589021773113146" lon="11.96242272449715"><ele>27.0</ele><time>2026-04-03T09:52:15Z</time></trkpt><trkpt lat="45.58904874412893" lon="11.962514398391818"><ele>27.0</ele><time>2026-04-03T09:52:16Z</time></trkpt><trkpt lat="45.58907159895934" lon="11.962610784435816"><ele>27.0</ele><time>2026-04-03T09:52:17Z</time></trkpt><trkpt lat="45.589096809522204" lon="11.962703226933739"><ele>27.0</ele><time>2026-04-03T09:52:18Z</time></trkpt><trkpt lat="45.5891232494304" lon="11.962793873636842"><ele>27.0</ele><time>2026-04-03T09:52:19Z</time></trkpt><trkpt lat="45.58915182786691" lon="11.962880510146915"><ele>27.0</ele><time>2026-04-03T09:52:20Z</time></trkpt><trkpt lat="45.58919549338512" lon="11.96304377548008"><ele>26.666666666666668</ele><time>2026-04-03T09:52:22Z</time></trkpt><trkpt lat="45.58922411905719" lon="11.963125507701834"><ele>26.333333333333336</ele><time>2026-04-03T09:52:23Z</time></trkpt><trkpt lat="45.58925128851363" lon="11.96320708202"><ele>26.0</ele><time>2026-04-03T09:52:24Z</time></trkpt><trkpt lat="45.58928320094027" lon="11.963286947517576"><ele>25.666666666666668</ele><time>2026-04-03T09:52:25Z</time></trkpt><trkpt lat="45.589325810957206" lon="11.963454039088287"><ele>25.333333333333336</ele><time>2026-04-03T09:52:27Z</time></trkpt><trkpt lat="45.58934604486646" lon="11.96354272692356"><ele>25.0</ele><time>2026-04-03T09:52:28Z</time></trkpt><trkpt lat="45.58937241518222" lon="11.963632700718552"><ele>24.714285714285715</ele><time>2026-04-03T09:52:29Z</time></trkpt><trkpt lat="45.58939218823342" lon="11.963724510324639"><ele>24.42857142857143</ele><time>2026-04-03T09:52:30Z</time></trkpt><trkpt lat="45.58942399957113" lon="11.963806045443985"><ele>24.142857142857146</ele><time>2026-04-03T09:52:31Z</time></trkpt><trkpt lat="45.58945131980145" lon="11.963893694880953"><ele>23.857142857142858</ele><time>2026-04-03T09:52:32Z</time></trkpt><trkpt lat="45.589481916675055" lon="11.96397975974998"><ele>23.57142857142857</ele><time>2026-04-03T09:52:33Z</time></trkpt><trkpt lat="45.58950667031364" lon="11.96406724342909"><ele>23.28571428571429</ele><time>2026-04-03T09:52:34Z</time></trkpt><trkpt lat="45.58953173257797" lon="11.964153408808638"><ele>23.0</ele><time>2026-04-03T09:52:35Z</time></trkpt><trkpt lat="45.58955981684409" lon="11.964238288533826"><ele>23.0</ele><time>2026-04-03T09:52:36Z</time></trkpt><trkpt lat="45.58958580332838" lon="11.964323423513719"><ele>23.0</ele><time>2026-04-03T09:52:37Z</time></trkpt><trkpt lat="45.58960815489777" lon="11.964409301741627"><ele>23.0</ele><time>2026-04-03T09:52:38Z</time></trkpt><trkpt lat="45.58965867616391" lon="11.964560612673539"><ele>23.0</ele><time>2026-04-03T09:52:40Z</time></trkpt><trkpt lat="45.58971311121731" lon="11.96472112583265"><ele>23.0</ele><time>2026-04-03T09:52:42Z</time></trkpt><trkpt lat="45.58975538057262" lon="11.964881418374624"><ele>23.0</ele><time>2026-04-03T09:52:44Z</time></trkpt><trkpt lat="45.58978490357371" lon="11.964966599098506"><ele>23.0</ele><time>2026-04-03T09:52:45Z</time></trkpt><trkpt lat="45.589809285057996" lon="11.965055218505892"><ele>23.0</ele><time>2026-04-03T09:52:46Z</time></trkpt><trkpt lat="45.58984113010926" lon="11.965141177548652"><ele>23.0</ele><time>2026-04-03T09:52:47Z</time></trkpt><trkpt lat="45.589863717067" lon="11.965236698122292"><ele>23.0</ele><time>2026-04-03T09:52:48Z</time></trkpt><trkpt lat="45.5898910831827" lon="11.965324956735703"><ele>23.0</ele><time>2026-04-03T09:52:49Z</time></trkpt><trkpt lat="45.58991899964179" lon="11.965411949053122"><ele>23.0</ele><time>2026-04-03T09:52:50Z</time></trkpt><trkpt lat="45.58994769843404" lon="11.965499275614198"><ele>22.857142857142858</ele><time>2026-04-03T09:52:51Z</time></trkpt><trkpt lat="45.58997376651451" lon="11.965587633633897"><ele>22.71428571428571</ele><time>2026-04-03T09:52:52Z</time></trkpt><trkpt lat="45.5900000209036" lon="11.965675291961693"><ele>22.57142857142857</ele><time>2026-04-03T09:52:53Z</time></trkpt><trkpt lat="45.590024671186505" lon="11.965764114624049"><ele>22.42857142857143</ele><time>2026-04-03T09:52:54Z</time></trkpt><trkpt lat="45.59005034227601" lon="11.965850600371008"><ele>22.285714285714285</ele><time>2026-04-03T09:52:55Z</time></trkpt><trkpt lat="45.59007833178278" lon="11.965937252564904"><ele>22.142857142857142</ele><time>2026-04-03T09:52:56Z</time></trkpt><trkpt lat="45.59010789529184" lon="11.966023190966563"><ele>22.0</ele><time>2026-04-03T09:52:57Z</time></trkpt><trkpt lat="45.59013494452451" lon="11.966109540149915"><ele>22.0</ele><time>2026-04-03T09:52:58Z</time></trkpt><trkpt lat="45.59016119414388" lon="11.96619608076968"><ele>22.0</ele><time>2026-04-03T09:52:59Z</time></trkpt><trkpt lat="45.59018461778141" lon="11.966280236945984"><ele>22.0</ele><time>2026-04-03T09:53:00Z</time></trkpt><trkpt lat="45.59020674013049" lon="11.966366135238287"><ele>22.0</ele><time>2026-04-03T09:53:01Z</time></trkpt><trkpt lat="45.59023252456794" lon="11.966448596665064"><ele>22.0</ele><time>2026-04-03T09:53:02Z</time></trkpt><trkpt lat="45.590261035412254" lon="11.966531732687056"><ele>22.0</ele><time>2026-04-03T09:53:03Z</time></trkpt><trkpt lat="45.5902846603241" lon="11.966616091998993"><ele>22.0</ele><time>2026-04-03T09:53:04Z</time></trkpt><trkpt lat="45.59032894859356" lon="11.966781986866808"><ele>22.0</ele><time>2026-04-03T09:53:06Z</time></trkpt><trkpt lat="45.590379335136724" lon="11.966916060639397"><ele>22.0</ele><time>2026-04-03T09:53:08Z</time></trkpt><trkpt lat="45.59040584428904" lon="11.967026771663638"><ele>22.0</ele><time>2026-04-03T09:53:10Z</time></trkpt><trkpt lat="45.59045124978072" lon="11.967142514125499"><ele>22.0</ele><time>2026-04-03T09:53:12Z</time></trkpt><trkpt lat="45.59049541441089" lon="11.967279045943991"><ele>22.0</ele><time>2026-04-03T09:53:14Z</time></trkpt><trkpt lat="45.59043727052387" lon="11.967437097033086"><ele>22.0</ele><time>2026-04-03T09:53:16Z</time></trkpt><trkpt lat="45.59055602121793" lon="11.967515756958976"><ele>22.0</ele><time>2026-04-03T09:53:17Z</time></trkpt><trkpt lat="45.59060872529027" lon="11.967674702301316"><ele>22.0</ele><time>2026-04-03T09:53:19Z</time></trkpt><trkpt lat="45.5906529825452" lon="11.967837427916757"><ele>22.0</ele><time>2026-04-03T09:53:21Z</time></trkpt><trkpt lat="45.59070826311868" lon="11.967992088930279"><ele>22.200000000000003</ele><time>2026-04-03T09:53:23Z</time></trkpt><trkpt lat="45.5907595148469" lon="11.968140533089468"><ele>22.4</ele><time>2026-04-03T09:53:25Z</time></trkpt><trkpt lat="45.59080319110712" lon="11.968291044236711"><ele>22.6</ele><time>2026-04-03T09:53:27Z</time></trkpt><trkpt lat="45.59084865987811" lon="11.968442947498191"><ele>22.799999999999997</ele><time>2026-04-03T09:53:29Z</time></trkpt><trkpt lat="45.590872975861735" lon="11.96852636188661"><ele>23.0</ele><time>2026-04-03T09:53:30Z</time></trkpt><trkpt lat="45.59089702468043" lon="11.968611329681623"><ele>23.0</ele><time>2026-04-03T09:53:31Z</time></trkpt><trkpt lat="45.59091957426891" lon="11.968697747199478"><ele>23.0</ele><time>2026-04-03T09:53:32Z</time></trkpt><trkpt lat="45.59097193185992" lon="11.96886159190521"><ele>23.0</ele><time>2026-04-03T09:53:34Z</time></trkpt><trkpt lat="45.59100139534416" lon="11.968945680078878"><ele>23.0</ele><time>2026-04-03T09:53:35Z</time></trkpt><trkpt lat="45.59102489982409" lon="11.96902966962628"><ele>23.0</ele><time>2026-04-03T09:53:36Z</time></trkpt><trkpt lat="45.59107713116228" lon="11.969199889649214"><ele>23.0</ele><time>2026-04-03T09:53:38Z</time></trkpt><trkpt lat="45.591103984508436" lon="11.96928126198429"><ele>23.0</ele><time>2026-04-03T09:53:39Z</time></trkpt><trkpt lat="45.5911335067922" lon="11.96936238465915"><ele>23.0</ele><time>2026-04-03T09:53:40Z</time></trkpt><trkpt lat="45.59115716082914" lon="11.969447521730416"><ele>23.0</ele><time>2026-04-03T09:53:41Z</time></trkpt><trkpt lat="45.59118197794847" lon="11.969533669458748"><ele>23.0</ele><time>2026-04-03T09:53:42Z</time></trkpt><trkpt lat="45.59120542724405" lon="11.969619022310493"><ele>23.0</ele><time>2026-04-03T09:53:43Z</time></trkpt><trkpt lat="45.59123343291813" lon="11.969703960912724"><ele>23.0</ele><time>2026-04-03T09:53:44Z</time></trkpt><trkpt lat="45.59126070722954" lon="11.969786968578218"><ele>22.833333333333336</ele><time>2026-04-03T09:53:45Z</time></trkpt><trkpt lat="45.59128610657726" lon="11.969874787863763"><ele>22.666666666666668</ele><time>2026-04-03T09:53:46Z</time></trkpt><trkpt lat="45.59130749805053" lon="11.969960494904644"><ele>22.5</ele><time>2026-04-03T09:53:47Z</time></trkpt><trkpt lat="45.591332653095925" lon="11.97004361884575"><ele>22.333333333333332</ele><time>2026-04-03T09:53:48Z</time></trkpt><trkpt lat="45.59135580609677" lon="11.97013220969189"><ele>22.166666666666664</ele><time>2026-04-03T09:53:49Z</time></trkpt><trkpt lat="45.5914086917043" lon="11.970293946282684"><ele>22.0</ele><time>2026-04-03T09:53:51Z</time></trkpt><trkpt lat="45.591452920992744" lon="11.970459388278883"><ele>22.0</ele><time>2026-04-03T09:53:53Z</time></trkpt><trkpt lat="45.591502697812366" lon="11.970619698347432"><ele>22.0</ele><time>2026-04-03T09:53:55Z</time></trkpt><trkpt lat="45.5915535018271" lon="11.970760296591168"><ele>22.0</ele><time>2026-04-03T09:53:57Z</time></trkpt><trkpt lat="45.59159421258866" lon="11.970901776305327"><ele>22.0</ele><time>2026-04-03T09:53:59Z</time></trkpt><trkpt lat="45.591622611146505" lon="11.971012893834148"><ele>22.0</ele><time>2026-04-03T09:54:01Z</time></trkpt><trkpt lat="45.59164441955808" lon="11.971104276002384"><ele>22.0</ele><time>2026-04-03T09:54:03Z</time></trkpt><trkpt lat="45.591675168768134" lon="11.971204593564888"><ele>22.0</ele><time>2026-04-03T09:54:05Z</time></trkpt><trkpt lat="45.59171600428545" lon="11.971322936653813"><ele>22.0</ele><time>2026-04-03T09:54:07Z</time></trkpt><trkpt lat="45.59175813741187" lon="11.97144825980178"><ele>22.0</ele><time>2026-04-03T09:54:09Z</time></trkpt><trkpt lat="45.591797560517726" lon="11.971580886677334"><ele>22.0</ele><time>2026-04-03T09:54:11Z</time></trkpt><trkpt lat="45.59182991519396" lon="11.971711675184165"><ele>22.0</ele><time>2026-04-03T09:54:13Z</time></trkpt><trkpt lat="45.59187517463763" lon="11.971855427512038"><ele>22.0</ele><time>2026-04-03T09:54:15Z</time></trkpt><trkpt lat="45.59193099311681" lon="11.971999655269657"><ele>22.0</ele><time>2026-04-03T09:54:17Z</time></trkpt><trkpt lat="45.59197603710419" lon="11.972159598204984"><ele>22.0</ele><time>2026-04-03T09:54:19Z</time></trkpt><trkpt lat="45.59202064660553" lon="11.97231583103523"><ele>21.6</ele><time>2026-04-03T09:54:21Z</time></trkpt><trkpt lat="45.59206529082413" lon="11.97248005668981"><ele>21.200000000000003</ele><time>2026-04-03T09:54:23Z</time></trkpt><trkpt lat="45.59211275293401" lon="11.972640696457754"><ele>20.8</ele><time>2026-04-03T09:54:25Z</time></trkpt><trkpt lat="45.59214092631615" lon="11.972724548596904"><ele>20.4</ele><time>2026-04-03T09:54:26Z</time></trkpt><trkpt lat="45.592192311773594" lon="11.972887685817359"><ele>20.0</ele><time>2026-04-03T09:54:28Z</time></trkpt><trkpt lat="45.592215733062154" lon="11.972971274042905"><ele>20.0</ele><time>2026-04-03T09:54:29Z</time></trkpt><trkpt lat="45.59223736592647" lon="11.973055929738006"><ele>20.0</ele><time>2026-04-03T09:54:30Z</time></trkpt><trkpt lat="45.592265707969716" lon="11.973138216980036"><ele>20.0</ele><time>2026-04-03T09:54:31Z</time></trkpt><trkpt lat="45.592322816319175" lon="11.973294940749494"><ele>20.0</ele><time>2026-04-03T09:54:33Z</time></trkpt><trkpt lat="45.592348327937785" lon="11.9733790766878"><ele>20.0</ele><time>2026-04-03T09:54:34Z</time></trkpt><trkpt lat="45.592398402507115" lon="11.973545082514313"><ele>20.0</ele><time>2026-04-03T09:54:36Z</time></trkpt><trkpt lat="45.59244688830492" lon="11.973709656117071"><ele>20.285714285714285</ele><time>2026-04-03T09:54:38Z</time></trkpt><trkpt lat="45.592471415037544" lon="11.973798356219715"><ele>20.571428571428573</ele><time>2026-04-03T09:54:39Z</time></trkpt><trkpt lat="45.59249669426286" lon="11.973883886481437"><ele>20.857142857142858</ele><time>2026-04-03T09:54:40Z</time></trkpt><trkpt lat="45.59251796641511" lon="11.973968789927866"><ele>21.142857142857142</ele><time>2026-04-03T09:54:41Z</time></trkpt><trkpt lat="45.59254379434628" lon="11.974050929147618"><ele>21.428571428571427</ele><time>2026-04-03T09:54:42Z</time></trkpt><trkpt lat="45.592567750022994" lon="11.97413558381616"><ele>21.714285714285715</ele><time>2026-04-03T09:54:43Z</time></trkpt><trkpt lat="45.59259376060882" lon="11.974219477283317"><ele>22.0</ele><time>2026-04-03T09:54:44Z</time></trkpt><trkpt lat="45.59261952033479" lon="11.974304283659416"><ele>22.0</ele><time>2026-04-03T09:54:45Z</time></trkpt><trkpt lat="45.59266753357253" lon="11.974460924511796"><ele>22.0</ele><time>2026-04-03T09:54:47Z</time></trkpt><trkpt lat="45.59269042507243" lon="11.97454487543823"><ele>22.0</ele><time>2026-04-03T09:54:48Z</time></trkpt><trkpt lat="45.59271586717545" lon="11.974628266672301"><ele>22.0</ele><time>2026-04-03T09:54:49Z</time></trkpt><trkpt lat="45.592766183212184" lon="11.974792107282273"><ele>22.0</ele><time>2026-04-03T09:54:51Z</time></trkpt><trkpt lat="45.59281896385759" lon="11.97495375550696"><ele>22.200000000000003</ele><time>2026-04-03T09:54:53Z</time></trkpt><trkpt lat="45.592854203767374" lon="11.975032752449842"><ele>22.4</ele><time>2026-04-03T09:54:54Z</time></trkpt><trkpt lat="45.5928835970062" lon="11.975118638169004"><ele>22.6</ele><time>2026-04-03T09:54:55Z</time></trkpt><trkpt lat="45.59293228374452" lon="11.975279942320315"><ele>22.799999999999997</ele><time>2026-04-03T09:54:57Z</time></trkpt><trkpt lat="45.59297869945788" lon="11.975451670458174"><ele>23.0</ele><time>2026-04-03T09:54:59Z</time></trkpt><trkpt lat="45.59300076731007" lon="11.975542164071424"><ele>23.0</ele><time>2026-04-03T09:55:00Z</time></trkpt><trkpt lat="45.5930226172908" lon="11.975631493402942"><ele>23.0</ele><time>2026-04-03T09:55:01Z</time></trkpt><trkpt lat="45.59305351303855" lon="11.975717457900464"><ele>23.0</ele><time>2026-04-03T09:55:02Z</time></trkpt><trkpt lat="45.59308182364574" lon="11.97580120667635"><ele>23.0</ele><time>2026-04-03T09:55:03Z</time></trkpt><trkpt lat="45.593138876913734" lon="11.975963266637276"><ele>23.0</ele><time>2026-04-03T09:55:05Z</time></trkpt><trkpt lat="45.593163006895175" lon="11.97605312749239"><ele>23.0</ele><time>2026-04-03T09:55:06Z</time></trkpt><trkpt lat="45.5931874610545" lon="11.976145364388563"><ele>23.0</ele><time>2026-04-03T09:55:07Z</time></trkpt><trkpt lat="45.59321216392052" lon="11.97622875543847"><ele>23.0</ele><time>2026-04-03T09:55:08Z</time></trkpt><trkpt lat="45.593235238075614" lon="11.976315828235233"><ele>23.0</ele><time>2026-04-03T09:55:09Z</time></trkpt><trkpt lat="45.59326042404935" lon="11.97639890445484"><ele>23.0</ele><time>2026-04-03T09:55:10Z</time></trkpt><trkpt lat="45.59330768351763" lon="11.976559122369435"><ele>23.0</ele><time>2026-04-03T09:55:12Z</time></trkpt><trkpt lat="45.593355916380354" lon="11.976729607764492"><ele>23.0</ele><time>2026-04-03T09:55:14Z</time></trkpt><trkpt lat="45.593385057321576" lon="11.976809899108085"><ele>22.833333333333336</ele><time>2026-04-03T09:55:15Z</time></trkpt><trkpt lat="45.59343953540094" lon="11.976968024511962"><ele>22.666666666666668</ele><time>2026-04-03T09:55:17Z</time></trkpt><trkpt lat="45.593463006743484" lon="11.977058746175585"><ele>22.5</ele><time>2026-04-03T09:55:18Z</time></trkpt><trkpt lat="45.593487059699605" lon="11.97715339519457"><ele>22.333333333333332</ele><time>2026-04-03T09:55:19Z</time></trkpt><trkpt lat="45.593517297045445" lon="11.977238191091399"><ele>22.166666666666664</ele><time>2026-04-03T09:55:20Z</time></trkpt><trkpt lat="45.59354845148401" lon="11.977337655757458"><ele>22.0</ele><time>2026-04-03T09:55:21Z</time></trkpt><trkpt lat="45.5935989276498" lon="11.977486759460842"><ele>22.142857142857142</ele><time>2026-04-03T09:55:23Z</time></trkpt><trkpt lat="45.593641609654604" lon="11.977636603762926"><ele>22.285714285714285</ele><time>2026-04-03T09:55:25Z</time></trkpt><trkpt lat="45.5936690539735" lon="11.977723433681994"><ele>22.42857142857143</ele><time>2026-04-03T09:55:26Z</time></trkpt><trkpt lat="45.59369429441938" lon="11.977806856584905"><ele>22.57142857142857</ele><time>2026-04-03T09:55:27Z</time></trkpt><trkpt lat="45.59372223752645" lon="11.97788896947601"><ele>22.71428571428571</ele><time>2026-04-03T09:55:28Z</time></trkpt><trkpt lat="45.59374765815441" lon="11.97797327298574"><ele>22.857142857142858</ele><time>2026-04-03T09:55:29Z</time></trkpt><trkpt lat="45.59377248125024" lon="11.978057560692054"><ele>23.0</ele><time>2026-04-03T09:55:30Z</time></trkpt><trkpt lat="45.59379797950319" lon="11.978141221397214"><ele>23.0</ele><time>2026-04-03T09:55:31Z</time></trkpt><trkpt lat="45.59382314440661" lon="11.978226453941677"><ele>23.0</ele><time>2026-04-03T09:55:32Z</time></trkpt><trkpt lat="45.59372198713369" lon="11.978399347630676"><ele>23.0</ele><time>2026-04-03T09:55:33Z</time></trkpt><trkpt lat="45.59375040617826" lon="11.978483974923849"><ele>23.0</ele><time>2026-04-03T09:55:34Z</time></trkpt><trkpt lat="45.59377878174002" lon="11.978568472116303"><ele>23.0</ele><time>2026-04-03T09:55:35Z</time></trkpt><trkpt lat="45.59381971002213" lon="11.978710067451285"><ele>23.0</ele><time>2026-04-03T09:55:37Z</time></trkpt><trkpt lat="45.59384452577848" lon="11.97880434083219"><ele>23.0</ele><time>2026-04-03T09:55:38Z</time></trkpt><trkpt lat="45.59386757741903" lon="11.978889248352464"><ele>23.0</ele><time>2026-04-03T09:55:39Z</time></trkpt><trkpt lat="45.5939098645405" lon="11.979045006990491"><ele>23.0</ele><time>2026-04-03T09:55:41Z</time></trkpt><trkpt lat="45.59395291942675" lon="11.979203593647194"><ele>23.0</ele><time>2026-04-03T09:55:43Z</time></trkpt><trkpt lat="45.59399371203401" lon="11.979350727906699"><ele>23.0</ele><time>2026-04-03T09:55:45Z</time></trkpt><trkpt lat="45.59402672108445" lon="11.979434432285181"><ele>23.0</ele><time>2026-04-03T09:55:46Z</time></trkpt><trkpt lat="45.59408462614975" lon="11.979538094070158"><ele>23.0</ele><time>2026-04-03T09:55:49Z</time></trkpt><trkpt lat="45.59414935769778" lon="11.979651543382257"><ele>23.0</ele><time>2026-04-03T09:55:52Z</time></trkpt><trkpt lat="45.594083727803124" lon="11.979647271573358"><ele>23.0</ele><time>2026-04-03T09:55:54Z</time></trkpt><trkpt lat="45.59407103148152" lon="11.979766829650949"><ele>23.0</ele><time>2026-04-03T09:55:56Z</time></trkpt><trkpt lat="45.594059955682" lon="11.979871128900033"><ele>23.0</ele><time>2026-04-03T09:55:58Z</time></trkpt><trkpt lat="45.59404534161733" lon="11.980008747455209"><ele>23.0</ele><time>2026-04-03T09:56:01Z</time></trkpt><trkpt lat="45.59441426947205" lon="11.980153695088756"><ele>22.75</ele><time>2026-04-03T09:56:02Z</time></trkpt><trkpt lat="45.594458891163384" lon="11.980311455596393"><ele>22.5</ele><time>2026-04-03T09:56:04Z</time></trkpt><trkpt lat="45.5945019801943" lon="11.980465294804977"><ele>22.25</ele><time>2026-04-03T09:56:06Z</time></trkpt><trkpt lat="45.594556434314796" lon="11.980621843156829"><ele>22.0</ele><time>2026-04-03T09:56:08Z</time></trkpt><trkpt lat="45.59460371083844" lon="11.980773773816317"><ele>22.400000000000002</ele><time>2026-04-03T09:56:10Z</time></trkpt><trkpt lat="45.594647309270556" lon="11.980935303185559"><ele>22.8</ele><time>2026-04-03T09:56:12Z</time></trkpt><trkpt lat="45.59468729351307" lon="11.98106633157105"><ele>23.2</ele><time>2026-04-03T09:56:14Z</time></trkpt><trkpt lat="45.59473636440868" lon="11.981207665572851"><ele>23.6</ele><time>2026-04-03T09:56:16Z</time></trkpt><trkpt lat="45.59477541030001" lon="11.981311202568694"><ele>24.0</ele><time>2026-04-03T09:56:18Z</time></trkpt><trkpt lat="45.5948009203332" lon="11.981453571338882"><ele>24.0</ele><time>2026-04-03T09:56:20Z</time></trkpt><trkpt lat="45.59484998612551" lon="11.981621003376883"><ele>24.0</ele><time>2026-04-03T09:56:22Z</time></trkpt><trkpt lat="45.59487729398875" lon="11.981704624376174"><ele>24.0</ele><time>2026-04-03T09:56:23Z</time></trkpt><trkpt lat="45.59493183177943" lon="11.981871412763372"><ele>24.0</ele><time>2026-04-03T09:56:25Z</time></trkpt><trkpt lat="45.59505355889856" lon="11.981908047478973"><ele>24.0</ele><time>2026-04-03T09:56:26Z</time></trkpt><trkpt lat="45.595098253158284" lon="11.982063225551082"><ele>23.833333333333332</ele><time>2026-04-03T09:56:28Z</time></trkpt><trkpt lat="45.59515506446531" lon="11.982232978190511"><ele>23.666666666666668</ele><time>2026-04-03T09:56:30Z</time></trkpt><trkpt lat="45.59518186200127" lon="11.982316132069089"><ele>23.5</ele><time>2026-04-03T09:56:31Z</time></trkpt><trkpt lat="45.595209595015966" lon="11.982402268872345"><ele>23.333333333333336</ele><time>2026-04-03T09:56:32Z</time></trkpt><trkpt lat="45.59523753626351" lon="11.98249241587409"><ele>23.166666666666668</ele><time>2026-04-03T09:56:33Z</time></trkpt><trkpt lat="45.59526483999064" lon="11.98258050590596"><ele>23.0</ele><time>2026-04-03T09:56:34Z</time></trkpt><trkpt lat="45.59529110345846" lon="11.982665239890862"><ele>22.857142857142858</ele><time>2026-04-03T09:56:35Z</time></trkpt><trkpt lat="45.595317729425716" lon="11.982756156730366"><ele>22.71428571428571</ele><time>2026-04-03T09:56:36Z</time></trkpt><trkpt lat="45.595342706502265" lon="11.982841823904264"><ele>22.57142857142857</ele><time>2026-04-03T09:56:37Z</time></trkpt><trkpt lat="45.59536775500694" lon="11.98292773599417"><ele>22.42857142857143</ele><time>2026-04-03T09:56:38Z</time></trkpt><trkpt lat="45.59539303694291" lon="11.983014448800017"><ele>22.285714285714285</ele><time>2026-04-03T09:56:39Z</time></trkpt><trkpt lat="45.59541830829071" lon="11.983101125219768"><ele>22.142857142857142</ele><time>2026-04-03T09:56:40Z</time></trkpt><trkpt lat="45.595443944460015" lon="11.983186734943637"><ele>22.0</ele><time>2026-04-03T09:56:41Z</time></trkpt><trkpt lat="45.59547089344811" lon="11.983274939154152"><ele>21.8</ele><time>2026-04-03T09:56:42Z</time></trkpt><trkpt lat="45.595523366197064" lon="11.9834466831342"><ele>21.6</ele><time>2026-04-03T09:56:44Z</time></trkpt><trkpt lat="45.595549778409115" lon="11.983533130667459"><ele>21.400000000000002</ele><time>2026-04-03T09:56:45Z</time></trkpt><trkpt lat="45.59557511995698" lon="11.983616073831453"><ele>21.200000000000003</ele><time>2026-04-03T09:56:46Z</time></trkpt><trkpt lat="45.59562672799173" lon="11.983784987582922"><ele>21.0</ele><time>2026-04-03T09:56:48Z</time></trkpt><trkpt lat="45.595652016809446" lon="11.983867758158212"><ele>21.0</ele><time>2026-04-03T09:56:49Z</time></trkpt><trkpt lat="45.59569942489471" lon="11.984022925496653"><ele>21.0</ele><time>2026-04-03T09:56:51Z</time></trkpt><trkpt lat="45.595743031685274" lon="11.984165650907011"><ele>21.0</ele><time>2026-04-03T09:56:53Z</time></trkpt><trkpt lat="45.59578643790764" lon="11.98430861847351"><ele>21.0</ele><time>2026-04-03T09:56:55Z</time></trkpt><trkpt lat="45.59583273530408" lon="11.984468023896449"><ele>21.0</ele><time>2026-04-03T09:56:57Z</time></trkpt><trkpt lat="45.5958773089083" lon="11.984621494252664"><ele>21.0</ele><time>2026-04-03T09:56:59Z</time></trkpt><trkpt lat="45.595925665003065" lon="11.984789189212142"><ele>21.0</ele><time>2026-04-03T09:57:01Z</time></trkpt><trkpt lat="45.59594906374479" lon="11.984873864890833"><ele>21.0</ele><time>2026-04-03T09:57:02Z</time></trkpt><trkpt lat="45.59600075614113" lon="11.985034671895203"><ele>21.0</ele><time>2026-04-03T09:57:04Z</time></trkpt><trkpt lat="45.59607092967272" lon="11.98516269158352"><ele>20.8</ele><time>2026-04-03T09:57:06Z</time></trkpt><trkpt lat="45.59610764040534" lon="11.985238317226518"><ele>20.6</ele><time>2026-04-03T09:57:07Z</time></trkpt><trkpt lat="45.59604760384243" lon="11.98552975954352"><ele>20.4</ele><time>2026-04-03T09:57:09Z</time></trkpt><trkpt lat="45.596072603951896" lon="11.98561359273461"><ele>20.2</ele><time>2026-04-03T09:57:10Z</time></trkpt><trkpt lat="45.59609931546201" lon="11.985699256737352"><ele>20.0</ele><time>2026-04-03T09:57:11Z</time></trkpt><trkpt lat="45.59612532629395" lon="11.985785479124656"><ele>20.285714285714285</ele><time>2026-04-03T09:57:12Z</time></trkpt><trkpt lat="45.59615162509645" lon="11.985871205554568"><ele>20.571428571428573</ele><time>2026-04-03T09:57:13Z</time></trkpt><trkpt lat="45.596177253103434" lon="11.985956576940838"><ele>20.857142857142858</ele><time>2026-04-03T09:57:14Z</time></trkpt><trkpt lat="45.59620168950349" lon="11.986041907019137"><ele>21.142857142857142</ele><time>2026-04-03T09:57:15Z</time></trkpt><trkpt lat="45.59622648522633" lon="11.986128569948313"><ele>21.428571428571427</ele><time>2026-04-03T09:57:16Z</time></trkpt><trkpt lat="45.596253558574965" lon="11.986211150933876"><ele>21.714285714285715</ele><time>2026-04-03T09:57:17Z</time></trkpt><trkpt lat="45.59627657496065" lon="11.98629869406048"><ele>22.0</ele><time>2026-04-03T09:57:18Z</time></trkpt><trkpt lat="45.59632733382943" lon="11.986463311121474"><ele>22.0</ele><time>2026-04-03T09:57:20Z</time></trkpt><trkpt lat="45.596355136544574" lon="11.986546674336983"><ele>22.0</ele><time>2026-04-03T09:57:21Z</time></trkpt><trkpt lat="45.59640976237761" lon="11.986713523251506"><ele>22.0</ele><time>2026-04-03T09:57:23Z</time></trkpt><trkpt lat="45.59646320658541" lon="11.986881757422184"><ele>22.0</ele><time>2026-04-03T09:57:25Z</time></trkpt><trkpt lat="45.59648785772961" lon="11.986969310659415"><ele>22.0</ele><time>2026-04-03T09:57:26Z</time></trkpt><trkpt lat="45.59651252561098" lon="11.987057789413285"><ele>22.0</ele><time>2026-04-03T09:57:27Z</time></trkpt><trkpt lat="45.596536715989195" lon="11.987145201563454"><ele>22.0</ele><time>2026-04-03T09:57:28Z</time></trkpt><trkpt lat="45.59658107320168" lon="11.987312165277164"><ele>22.0</ele><time>2026-04-03T09:57:30Z</time></trkpt><trkpt lat="45.596636936069125" lon="11.987461382787783"><ele>22.0</ele><time>2026-04-03T09:57:32Z</time></trkpt><trkpt lat="45.596685018020764" lon="11.987619469236273"><ele>22.0</ele><time>2026-04-03T09:57:34Z</time></trkpt><trkpt lat="45.59671147643615" lon="11.987708199220101"><ele>22.0</ele><time>2026-04-03T09:57:35Z</time></trkpt><trkpt lat="45.59673597109624" lon="11.987791198786683"><ele>22.0</ele><time>2026-04-03T09:57:36Z</time></trkpt><trkpt lat="45.59675787682233" lon="11.987877599628813"><ele>22.0</ele><time>2026-04-03T09:57:37Z</time></trkpt><trkpt lat="45.59678316349629" lon="11.9879663462823"><ele>22.0</ele><time>2026-04-03T09:57:38Z</time></trkpt><trkpt lat="45.596807871085154" lon="11.988056204431784"><ele>22.0</ele><time>2026-04-03T09:57:39Z</time></trkpt><trkpt lat="45.59683468362877" lon="11.988142852480037"><ele>22.0</ele><time>2026-04-03T09:57:40Z</time></trkpt><trkpt lat="45.59686186720052" lon="11.988228242535003"><ele>22.0</ele><time>2026-04-03T09:57:41Z</time></trkpt><trkpt lat="45.59688719922299" lon="11.988313569608769"><ele>22.285714285714285</ele><time>2026-04-03T09:57:42Z</time></trkpt><trkpt lat="45.59691237143557" lon="11.988399896631138"><ele>22.57142857142857</ele><time>2026-04-03T09:57:43Z</time></trkpt><trkpt lat="45.59693782460376" lon="11.988489134430868"><ele>22.857142857142854</ele><time>2026-04-03T09:57:44Z</time></trkpt><trkpt lat="45.596967557404604" lon="11.988577186841122"><ele>23.142857142857142</ele><time>2026-04-03T09:57:45Z</time></trkpt><trkpt lat="45.59699242830248" lon="11.988663126469811"><ele>23.428571428571427</ele><time>2026-04-03T09:57:46Z</time></trkpt><trkpt lat="45.59701650302488" lon="11.988748291108383"><ele>23.71428571428571</ele><time>2026-04-03T09:57:47Z</time></trkpt><trkpt lat="45.597040204017425" lon="11.98883512030693"><ele>24.0</ele><time>2026-04-03T09:57:48Z</time></trkpt><trkpt lat="45.59708680471938" lon="11.988998433802998"><ele>24.0</ele><time>2026-04-03T09:57:50Z</time></trkpt><trkpt lat="45.59713548718191" lon="11.989156457565544"><ele>24.0</ele><time>2026-04-03T09:57:52Z</time></trkpt><trkpt lat="45.59718519790792" lon="11.989317102684034"><ele>24.0</ele><time>2026-04-03T09:57:54Z</time></trkpt><trkpt lat="45.597231114440255" lon="11.989483301036806"><ele>24.0</ele><time>2026-04-03T09:57:56Z</time></trkpt><trkpt lat="45.597278503302725" lon="11.989647837544217"><ele>24.0</ele><time>2026-04-03T09:57:58Z</time></trkpt><trkpt lat="45.597304789484475" lon="11.989730108271026"><ele>24.0</ele><time>2026-04-03T09:57:59Z</time></trkpt><trkpt lat="45.59735019323063" lon="11.9898949269659"><ele>24.0</ele><time>2026-04-03T09:58:01Z</time></trkpt><trkpt lat="45.59740075546325" lon="11.9900571420331"><ele>24.0</ele><time>2026-04-03T09:58:03Z</time></trkpt><trkpt lat="45.597455679473256" lon="11.990215284090436"><ele>24.0</ele><time>2026-04-03T09:58:05Z</time></trkpt><trkpt lat="45.59750777418419" lon="11.990374406873446"><ele>23.75</ele><time>2026-04-03T09:58:07Z</time></trkpt><trkpt lat="45.59756309255055" lon="11.990531247606668"><ele>23.5</ele><time>2026-04-03T09:58:09Z</time></trkpt><trkpt lat="45.597614858629974" lon="11.990692951037664"><ele>23.25</ele><time>2026-04-03T09:58:11Z</time></trkpt><trkpt lat="45.59766721877351" lon="11.990851375222098"><ele>23.0</ele><time>2026-04-03T09:58:13Z</time></trkpt><trkpt lat="45.597719399308154" lon="11.991012352642237"><ele>23.0</ele><time>2026-04-03T09:58:15Z</time></trkpt><trkpt lat="45.59776454684512" lon="11.991175285173352"><ele>23.0</ele><time>2026-04-03T09:58:17Z</time></trkpt><trkpt lat="45.59779148067895" lon="11.99125699850285"><ele>23.0</ele><time>2026-04-03T09:58:18Z</time></trkpt><trkpt lat="45.59781959340972" lon="11.991341721703694"><ele>23.0</ele><time>2026-04-03T09:58:19Z</time></trkpt><trkpt lat="45.59784893994944" lon="11.991422625653883"><ele>23.0</ele><time>2026-04-03T09:58:20Z</time></trkpt><trkpt lat="45.59790398725223" lon="11.991582576647515"><ele>23.0</ele><time>2026-04-03T09:58:22Z</time></trkpt><trkpt lat="45.59795332225175" lon="11.991747979960842"><ele>23.0</ele><time>2026-04-03T09:58:24Z</time></trkpt><trkpt lat="45.597979876461345" lon="11.99183227977313"><ele>23.0</ele><time>2026-04-03T09:58:25Z</time></trkpt><trkpt lat="45.59801010594644" lon="11.991913696570897"><ele>23.0</ele><time>2026-04-03T09:58:26Z</time></trkpt><trkpt lat="45.59804056238591" lon="11.991996200586959"><ele>23.0</ele><time>2026-04-03T09:58:27Z</time></trkpt><trkpt lat="45.598096027147456" lon="11.992151772640256"><ele>23.0</ele><time>2026-04-03T09:58:29Z</time></trkpt><trkpt lat="45.59812175626923" lon="11.992235120238332"><ele>23.0</ele><time>2026-04-03T09:58:30Z</time></trkpt><trkpt lat="45.598145933129295" lon="11.992318743128106"><ele>23.0</ele><time>2026-04-03T09:58:31Z</time></trkpt><trkpt lat="45.59817539043244" lon="11.992401846868276"><ele>23.0</ele><time>2026-04-03T09:58:32Z</time></trkpt><trkpt lat="45.59820303946896" lon="11.992485690441663"><ele>23.0</ele><time>2026-04-03T09:58:33Z</time></trkpt><trkpt lat="45.59822851165447" lon="11.99257006030552"><ele>23.0</ele><time>2026-04-03T09:58:34Z</time></trkpt><trkpt lat="45.598254785880684" lon="11.992655026197895"><ele>23.0</ele><time>2026-04-03T09:58:35Z</time></trkpt><trkpt lat="45.59828173961996" lon="11.992737651699036"><ele>23.0</ele><time>2026-04-03T09:58:36Z</time></trkpt><trkpt lat="45.59830685138186" lon="11.992822615651027"><ele>23.0</ele><time>2026-04-03T09:58:37Z</time></trkpt><trkpt lat="45.59833275363663" lon="11.992905348918203"><ele>23.0</ele><time>2026-04-03T09:58:38Z</time></trkpt><trkpt lat="45.59836006452873" lon="11.992986803471428"><ele>23.0</ele><time>2026-04-03T09:58:39Z</time></trkpt><trkpt lat="45.59838717259234" lon="11.993068154693724"><ele>23.2</ele><time>2026-04-03T09:58:40Z</time></trkpt><trkpt lat="45.5984343013446" lon="11.993234995882338"><ele>23.4</ele><time>2026-04-03T09:58:42Z</time></trkpt><trkpt lat="45.598479418253156" lon="11.993403721145533"><ele>23.599999999999998</ele><time>2026-04-03T09:58:44Z</time></trkpt><trkpt lat="45.598530469518835" lon="11.99356697817258"><ele>23.799999999999997</ele><time>2026-04-03T09:58:46Z</time></trkpt><trkpt lat="45.59855909571267" lon="11.993650497831167"><ele>24.0</ele><time>2026-04-03T09:58:47Z</time></trkpt><trkpt lat="45.598590862508665" lon="11.993736137422973"><ele>23.999999999999996</ele><time>2026-04-03T09:58:48Z</time></trkpt><trkpt lat="45.59862068767117" lon="11.993827234881628"><ele>24.0</ele><time>2026-04-03T09:58:49Z</time></trkpt><trkpt lat="45.59864967619136" lon="11.993917130319264"><ele>24.0</ele><time>2026-04-03T09:58:50Z</time></trkpt><trkpt lat="45.598675374064214" lon="11.99400562794617"><ele>24.0</ele><time>2026-04-03T09:58:51Z</time></trkpt><trkpt lat="45.598697969595506" lon="11.994093820047814"><ele>24.0</ele><time>2026-04-03T09:58:52Z</time></trkpt><trkpt lat="45.59872062187067" lon="11.994179333569484"><ele>23.999999999999996</ele><time>2026-04-03T09:58:53Z</time></trkpt><trkpt lat="45.59874757167471" lon="11.994266277983543"><ele>24.0</ele><time>2026-04-03T09:58:54Z</time></trkpt><trkpt lat="45.59877615881342" lon="11.99435545551185"><ele>23.57142857142857</ele><time>2026-04-03T09:58:55Z</time></trkpt><trkpt lat="45.59880293988028" lon="11.994442289733678"><ele>23.142857142857142</ele><time>2026-04-03T09:58:56Z</time></trkpt><trkpt lat="45.5988276861031" lon="11.994531372968481"><ele>22.714285714285715</ele><time>2026-04-03T09:58:57Z</time></trkpt><trkpt lat="45.5988533721778" lon="11.99461600652619"><ele>22.285714285714285</ele><time>2026-04-03T09:58:58Z</time></trkpt><trkpt lat="45.59887779093244" lon="11.994702950972083"><ele>21.857142857142858</ele><time>2026-04-03T09:58:59Z</time></trkpt><trkpt lat="45.59890406227535" lon="11.994789816902145"><ele>21.428571428571427</ele><time>2026-04-03T09:59:00Z</time></trkpt><trkpt lat="45.59892503714857" lon="11.994878019792516"><ele>21.0</ele><time>2026-04-03T09:59:01Z</time></trkpt><trkpt lat="45.59894788174258" lon="11.994967326808185"><ele>21.142857142857142</ele><time>2026-04-03T09:59:02Z</time></trkpt><trkpt lat="45.598970663830016" lon="11.995051592227883"><ele>21.285714285714285</ele><time>2026-04-03T09:59:03Z</time></trkpt><trkpt lat="45.59899513633701" lon="11.995141245848554"><ele>21.42857142857143</ele><time>2026-04-03T09:59:04Z</time></trkpt><trkpt lat="45.599019686156524" lon="11.995229299435472"><ele>21.57142857142857</ele><time>2026-04-03T09:59:05Z</time></trkpt><trkpt lat="45.59904730325223" lon="11.995315458546784"><ele>21.714285714285715</ele><time>2026-04-03T09:59:06Z</time></trkpt><trkpt lat="45.599074600523615" lon="11.995401144474855"><ele>21.857142857142858</ele><time>2026-04-03T09:59:07Z</time></trkpt><trkpt lat="45.59909782252856" lon="11.995489132806815"><ele>22.0</ele><time>2026-04-03T09:59:08Z</time></trkpt><trkpt lat="45.59912018048758" lon="11.995574831501632"><ele>22.0</ele><time>2026-04-03T09:59:09Z</time></trkpt><trkpt lat="45.59914563639824" lon="11.995663141654642"><ele>22.0</ele><time>2026-04-03T09:59:10Z</time></trkpt><trkpt lat="45.59917167423534" lon="11.995746821564515"><ele>22.0</ele><time>2026-04-03T09:59:11Z</time></trkpt><trkpt lat="45.59919900277323" lon="11.995829438032825"><ele>22.0</ele><time>2026-04-03T09:59:12Z</time></trkpt><trkpt lat="45.59922755380631" lon="11.995917593988498"><ele>22.0</ele><time>2026-04-03T09:59:13Z</time></trkpt><trkpt lat="45.599254420250276" lon="11.996006370067068"><ele>22.0</ele><time>2026-04-03T09:59:14Z</time></trkpt><trkpt lat="45.59928244626087" lon="11.99609485492893"><ele>22.0</ele><time>2026-04-03T09:59:15Z</time></trkpt><trkpt lat="45.59930691507747" lon="11.99618243951658"><ele>22.0</ele><time>2026-04-03T09:59:16Z</time></trkpt><trkpt lat="45.599334652049485" lon="11.996274274027341"><ele>22.0</ele><time>2026-04-03T09:59:17Z</time></trkpt><trkpt lat="45.59935942091553" lon="11.996363611418113"><ele>22.0</ele><time>2026-04-03T09:59:18Z</time></trkpt><trkpt lat="45.59938593401765" lon="11.996450264227239"><ele>22.0</ele><time>2026-04-03T09:59:19Z</time></trkpt><trkpt lat="45.599412775980625" lon="11.996541130765822"><ele>22.0</ele><time>2026-04-03T09:59:20Z</time></trkpt><trkpt lat="45.59944110674291" lon="11.996631900013865"><ele>22.0</ele><time>2026-04-03T09:59:21Z</time></trkpt><trkpt lat="45.5994673219593" lon="11.99671700237496"><ele>22.0</ele><time>2026-04-03T09:59:22Z</time></trkpt><trkpt lat="45.59949510032879" lon="11.996803809281122"><ele>22.0</ele><time>2026-04-03T09:59:23Z</time></trkpt><trkpt lat="45.59952133916082" lon="11.996886275741753"><ele>22.0</ele><time>2026-04-03T09:59:24Z</time></trkpt><trkpt lat="45.599543025530025" lon="11.99697208863199"><ele>22.0</ele><time>2026-04-03T09:59:25Z</time></trkpt><trkpt lat="45.599574273949614" lon="11.997062618773985"><ele>22.0</ele><time>2026-04-03T09:59:26Z</time></trkpt><trkpt lat="45.59961964007685" lon="11.9972257256616"><ele>22.0</ele><time>2026-04-03T09:59:28Z</time></trkpt><trkpt lat="45.59964346286912" lon="11.99731853209154"><ele>22.0</ele><time>2026-04-03T09:59:29Z</time></trkpt><trkpt lat="45.59966591294141" lon="11.997403068353394"><ele>22.0</ele><time>2026-04-03T09:59:30Z</time></trkpt><trkpt lat="45.59969354791529" lon="11.997488899847314"><ele>22.0</ele><time>2026-04-03T09:59:31Z</time></trkpt><trkpt lat="45.59975052120523" lon="11.997654678569527"><ele>22.0</ele><time>2026-04-03T09:59:33Z</time></trkpt><trkpt lat="45.599799245895014" lon="11.997825533777783"><ele>22.0</ele><time>2026-04-03T09:59:35Z</time></trkpt><trkpt lat="45.59982975483134" lon="11.997911152119045"><ele>22.0</ele><time>2026-04-03T09:59:36Z</time></trkpt><trkpt lat="45.59986061487336" lon="11.997994828644114"><ele>21.833333333333332</ele><time>2026-04-03T09:59:37Z</time></trkpt><trkpt lat="45.5998884820714" lon="11.998078520479403"><ele>21.666666666666664</ele><time>2026-04-03T09:59:38Z</time></trkpt><trkpt lat="45.599912125755885" lon="11.998167913629198"><ele>21.5</ele><time>2026-04-03T09:59:39Z</time></trkpt><trkpt lat="45.599939785209365" lon="11.998261230824985"><ele>21.333333333333332</ele><time>2026-04-03T09:59:40Z</time></trkpt><trkpt lat="45.59996239592333" lon="11.998351497527821"><ele>21.166666666666668</ele><time>2026-04-03T09:59:41Z</time></trkpt><trkpt lat="45.60001747743665" lon="11.998514883630357"><ele>21.0</ele><time>2026-04-03T09:59:43Z</time></trkpt><trkpt lat="45.60006845468736" lon="11.998677687323395"><ele>21.0</ele><time>2026-04-03T09:59:45Z</time></trkpt><trkpt lat="45.600096535299265" lon="11.99876566884333"><ele>21.0</ele><time>2026-04-03T09:59:46Z</time></trkpt><trkpt lat="45.600146162437014" lon="11.998925541742162"><ele>21.0</ele><time>2026-04-03T09:59:48Z</time></trkpt><trkpt lat="45.60017116272036" lon="11.999008435131698"><ele>21.0</ele><time>2026-04-03T09:59:49Z</time></trkpt><trkpt lat="45.60019378899924" lon="11.999092860285574"><ele>21.0</ele><time>2026-04-03T09:59:50Z</time></trkpt><trkpt lat="45.60024128098678" lon="11.999251810075139"><ele>21.0</ele><time>2026-04-03T09:59:52Z</time></trkpt><trkpt lat="45.60028737484054" lon="11.99940290707388"><ele>21.200000000000003</ele><time>2026-04-03T09:59:54Z</time></trkpt><trkpt lat="45.60033728124772" lon="11.999550044980362"><ele>21.400000000000002</ele><time>2026-04-03T09:59:56Z</time></trkpt><trkpt lat="45.600372142421136" lon="11.999693934020087"><ele>21.6</ele><time>2026-04-03T09:59:58Z</time></trkpt><trkpt lat="45.600412950065014" lon="11.999831702806665"><ele>21.8</ele><time>2026-04-03T10:00:00Z</time></trkpt><trkpt lat="45.600453478848465" lon="11.999931235402075"><ele>22.0</ele><time>2026-04-03T10:00:02Z</time></trkpt><trkpt lat="45.60048545653784" lon="12.000024009252726"><ele>22.0</ele><time>2026-04-03T10:00:05Z</time></trkpt><trkpt lat="45.60053558343785" lon="12.00011680744792"><ele>22.0</ele><time>2026-04-03T10:00:19Z</time></trkpt><trkpt lat="45.60054485590015" lon="12.000206951851702"><ele>22.0</ele><time>2026-04-03T10:00:22Z</time></trkpt><trkpt lat="45.600574412737835" lon="12.000331714406967"><ele>22.0</ele><time>2026-04-03T10:00:25Z</time></trkpt><trkpt lat="45.60060562079832" lon="12.00045046583402"><ele>22.0</ele><time>2026-04-03T10:00:27Z</time></trkpt><trkpt lat="45.600644538702305" lon="12.000585137143036"><ele>22.0</ele><time>2026-04-03T10:00:29Z</time></trkpt><trkpt lat="45.60068877391221" lon="12.000728840331316"><ele>22.200000000000003</ele><time>2026-04-03T10:00:31Z</time></trkpt><trkpt lat="45.60074548032082" lon="12.000873296739048"><ele>22.4</ele><time>2026-04-03T10:00:33Z</time></trkpt><trkpt lat="45.600770031938985" lon="12.000959570311744"><ele>22.6</ele><time>2026-04-03T10:00:34Z</time></trkpt><trkpt lat="45.600811512365766" lon="12.001121366578829"><ele>22.799999999999997</ele><time>2026-04-03T10:00:36Z</time></trkpt><trkpt lat="45.600861440275125" lon="12.001283029499664"><ele>23.0</ele><time>2026-04-03T10:00:38Z</time></trkpt><trkpt lat="45.6008866957913" lon="12.00136638340289"><ele>23.0</ele><time>2026-04-03T10:00:39Z</time></trkpt><trkpt lat="45.60091492493496" lon="12.001451473866524"><ele>23.0</ele><time>2026-04-03T10:00:40Z</time></trkpt><trkpt lat="45.600944426706405" lon="12.001536391078352"><ele>23.0</ele><time>2026-04-03T10:00:41Z</time></trkpt><trkpt lat="45.60097295412804" lon="12.001623446289733"><ele>23.0</ele><time>2026-04-03T10:00:42Z</time></trkpt><trkpt lat="45.601029403772586" lon="12.001791453190602"><ele>23.0</ele><time>2026-04-03T10:00:44Z</time></trkpt><trkpt lat="45.60105483484259" lon="12.001888168934272"><ele>23.0</ele><time>2026-04-03T10:00:45Z</time></trkpt><trkpt lat="45.60108339383666" lon="12.001987863601261"><ele>22.833333333333336</ele><time>2026-04-03T10:00:46Z</time></trkpt><trkpt lat="45.60111760866522" lon="12.002094979901933"><ele>22.666666666666668</ele><time>2026-04-03T10:00:47Z</time></trkpt><trkpt lat="45.60113774979484" lon="12.002199377477272"><ele>22.5</ele><time>2026-04-03T10:00:48Z</time></trkpt><trkpt lat="45.601163924610745" lon="12.00230781357144"><ele>22.333333333333332</ele><time>2026-04-03T10:00:49Z</time></trkpt><trkpt lat="45.601197608719126" lon="12.00240722656975"><ele>22.166666666666664</ele><time>2026-04-03T10:00:50Z</time></trkpt><trkpt lat="45.60123009652714" lon="12.002507056519407"><ele>22.0</ele><time>2026-04-03T10:00:51Z</time></trkpt><trkpt lat="45.601263423252625" lon="12.002606489129487"><ele>22.0</ele><time>2026-04-03T10:00:52Z</time></trkpt><trkpt lat="45.60129308850412" lon="12.002707979336535"><ele>22.0</ele><time>2026-04-03T10:00:53Z</time></trkpt><trkpt lat="45.60131934405068" lon="12.002809493122163"><ele>22.0</ele><time>2026-04-03T10:00:54Z</time></trkpt><trkpt lat="45.601345536367894" lon="12.002905813780668"><ele>22.0</ele><time>2026-04-03T10:00:55Z</time></trkpt><trkpt lat="45.60137558469121" lon="12.003000333295036"><ele>22.0</ele><time>2026-04-03T10:00:56Z</time></trkpt><trkpt lat="45.60140828051861" lon="12.003089828420405"><ele>22.0</ele><time>2026-04-03T10:00:57Z</time></trkpt><trkpt lat="45.60143443343226" lon="12.003181339172757"><ele>22.0</ele><time>2026-04-03T10:00:58Z</time></trkpt><trkpt lat="45.601460524313985" lon="12.003278763706032"><ele>22.142857142857142</ele><time>2026-04-03T10:00:59Z</time></trkpt><trkpt lat="45.60148998094361" lon="12.003366232134413"><ele>22.285714285714285</ele><time>2026-04-03T10:01:00Z</time></trkpt><trkpt lat="45.60152056612555" lon="12.003454397791026"><ele>22.42857142857143</ele><time>2026-04-03T10:01:01Z</time></trkpt><trkpt lat="45.601550070974604" lon="12.003549277531786"><ele>22.57142857142857</ele><time>2026-04-03T10:01:02Z</time></trkpt><trkpt lat="45.60157701882809" lon="12.003639721388758"><ele>22.71428571428571</ele><time>2026-04-03T10:01:03Z</time></trkpt><trkpt lat="45.601605003807" lon="12.00373063179701"><ele>22.857142857142858</ele><time>2026-04-03T10:01:04Z</time></trkpt><trkpt lat="45.601630916071905" lon="12.003815497661767"><ele>23.0</ele><time>2026-04-03T10:01:05Z</time></trkpt><trkpt lat="45.60165878901939" lon="12.003905595608483"><ele>23.0</ele><time>2026-04-03T10:01:06Z</time></trkpt><trkpt lat="45.60168400218893" lon="12.003995350910335"><ele>23.0</ele><time>2026-04-03T10:01:07Z</time></trkpt><trkpt lat="45.60170937036437" lon="12.004086083126447"><ele>23.0</ele><time>2026-04-03T10:01:08Z</time></trkpt><trkpt lat="45.60175858696181" lon="12.0042467378178"><ele>23.0</ele><time>2026-04-03T10:01:10Z</time></trkpt><trkpt lat="45.601782046094954" lon="12.004331873861997"><ele>23.0</ele><time>2026-04-03T10:01:11Z</time></trkpt><trkpt lat="45.60180603867138" lon="12.004417847460006"><ele>23.0</ele><time>2026-04-03T10:01:12Z</time></trkpt><trkpt lat="45.6018320513642" lon="12.00450250994352"><ele>23.166666666666668</ele><time>2026-04-03T10:01:13Z</time></trkpt><trkpt lat="45.601882918432246" lon="12.004655132063847"><ele>23.333333333333336</ele><time>2026-04-03T10:01:15Z</time></trkpt><trkpt lat="45.60191123775436" lon="12.004743361595887"><ele>23.5</ele><time>2026-04-03T10:01:17Z</time></trkpt><trkpt lat="45.60194083183073" lon="12.004836149134638"><ele>23.666666666666668</ele><time>2026-04-03T10:01:20Z</time></trkpt><trkpt lat="45.60195904454477" lon="12.004927606015867"><ele>23.833333333333332</ele><time>2026-04-03T10:01:22Z</time></trkpt><trkpt lat="45.60199490603698" lon="12.005047338311162"><ele>24.0</ele><time>2026-04-03T10:01:24Z</time></trkpt><trkpt lat="45.60203525605935" lon="12.005175427810629"><ele>23.6</ele><time>2026-04-03T10:01:26Z</time></trkpt><trkpt lat="45.6020767491361" lon="12.00530661050946"><ele>23.2</ele><time>2026-04-03T10:01:28Z</time></trkpt><trkpt lat="45.602125793996485" lon="12.00544653377394"><ele>22.8</ele><time>2026-04-03T10:01:30Z</time></trkpt><trkpt lat="45.60216582327534" lon="12.00559308278639"><ele>22.400000000000002</ele><time>2026-04-03T10:01:32Z</time></trkpt><trkpt lat="45.60220522230499" lon="12.005740259006624"><ele>22.0</ele><time>2026-04-03T10:01:34Z</time></trkpt><trkpt lat="45.60225117384398" lon="12.005890004087545"><ele>22.0</ele><time>2026-04-03T10:01:36Z</time></trkpt><trkpt lat="45.60229466639119" lon="12.00603651986398"><ele>22.0</ele><time>2026-04-03T10:01:38Z</time></trkpt><trkpt lat="45.60234133207083" lon="12.00618033555493"><ele>22.0</ele><time>2026-04-03T10:01:40Z</time></trkpt><trkpt lat="45.60238711019808" lon="12.006333538819396"><ele>22.0</ele><time>2026-04-03T10:01:42Z</time></trkpt><trkpt lat="45.602435188010375" lon="12.006493403568337"><ele>22.0</ele><time>2026-04-03T10:01:44Z</time></trkpt><trkpt lat="45.602487267309165" lon="12.006654897896777"><ele>22.0</ele><time>2026-04-03T10:01:46Z</time></trkpt><trkpt lat="45.602538638699365" lon="12.006818544348551"><ele>22.0</ele><time>2026-04-03T10:01:48Z</time></trkpt><trkpt lat="45.602563039264595" lon="12.00690283937542"><ele>22.0</ele><time>2026-04-03T10:01:49Z</time></trkpt><trkpt lat="45.60260798194038" lon="12.007067138599632"><ele>22.0</ele><time>2026-04-03T10:01:51Z</time></trkpt><trkpt lat="45.60265724436653" lon="12.007232968032149"><ele>22.200000000000003</ele><time>2026-04-03T10:01:53Z</time></trkpt><trkpt lat="45.602715514398334" lon="12.007390577581406"><ele>22.4</ele><time>2026-04-03T10:01:55Z</time></trkpt><trkpt lat="45.60273529825275" lon="12.007477154596522"><ele>22.6</ele><time>2026-04-03T10:01:56Z</time></trkpt><trkpt lat="45.602786980900305" lon="12.007628611639513"><ele>22.799999999999997</ele><time>2026-04-03T10:01:58Z</time></trkpt><trkpt lat="45.60282625976909" lon="12.00777366140661"><ele>23.0</ele><time>2026-04-03T10:02:00Z</time></trkpt><trkpt lat="45.60287780906477" lon="12.007924563647789"><ele>23.2</ele><time>2026-04-03T10:02:02Z</time></trkpt><trkpt lat="45.60291846947034" lon="12.008051138546938"><ele>23.4</ele><time>2026-04-03T10:02:04Z</time></trkpt><trkpt lat="45.6029564657792" lon="12.008198339815124"><ele>23.599999999999998</ele><time>2026-04-03T10:02:06Z</time></trkpt><trkpt lat="45.60299196174565" lon="12.008364619747748"><ele>23.799999999999997</ele><time>2026-04-03T10:02:08Z</time></trkpt><trkpt lat="45.60301291761704" lon="12.008450421909346"><ele>24.0</ele><time>2026-04-03T10:02:09Z</time></trkpt><trkpt lat="45.60306706226514" lon="12.008591391342206"><ele>23.799999999999997</ele><time>2026-04-03T10:02:11Z</time></trkpt><trkpt lat="45.60312308834919" lon="12.008700912700364"><ele>23.599999999999998</ele><time>2026-04-03T10:02:13Z</time></trkpt><trkpt lat="45.603154890900875" lon="12.008824772439"><ele>23.4</ele><time>2026-04-03T10:02:15Z</time></trkpt><trkpt lat="45.603197804860706" lon="12.008933848674642"><ele>23.2</ele><time>2026-04-03T10:02:17Z</time></trkpt><trkpt lat="45.60323322489083" lon="12.0090475622685"><ele>23.0</ele><time>2026-04-03T10:02:19Z</time></trkpt><trkpt lat="45.603253340309315" lon="12.00919636768694"><ele>23.0</ele><time>2026-04-03T10:02:21Z</time></trkpt><trkpt lat="45.603272823078704" lon="12.009290746451992"><ele>23.0</ele><time>2026-04-03T10:02:22Z</time></trkpt><trkpt lat="45.603292514361605" lon="12.009380900675598"><ele>23.0</ele><time>2026-04-03T10:02:23Z</time></trkpt><trkpt lat="45.6033228422357" lon="12.009472355809056"><ele>23.0</ele><time>2026-04-03T10:02:24Z</time></trkpt><trkpt lat="45.60336194384324" lon="12.009556969789061"><ele>23.0</ele><time>2026-04-03T10:02:25Z</time></trkpt><trkpt lat="45.603396404239945" lon="12.00965377861094"><ele>23.0</ele><time>2026-04-03T10:02:26Z</time></trkpt><trkpt lat="45.603427410264835" lon="12.009748489861543"><ele>23.0</ele><time>2026-04-03T10:02:27Z</time></trkpt><trkpt lat="45.60349115167426" lon="12.009894949089842"><ele>23.0</ele><time>2026-04-03T10:02:29Z</time></trkpt><trkpt lat="45.603542894808356" lon="12.010035690263194"><ele>23.0</ele><time>2026-04-03T10:02:31Z</time></trkpt><trkpt lat="45.60357340531022" lon="12.010181180739432"><ele>23.0</ele><time>2026-04-03T10:02:33Z</time></trkpt><trkpt lat="45.60363195174845" lon="12.010325007606905"><ele>23.0</ele><time>2026-04-03T10:02:35Z</time></trkpt><trkpt lat="45.60368157061605" lon="12.010486125739828"><ele>23.0</ele><time>2026-04-03T10:02:37Z</time></trkpt><trkpt lat="45.60371030798608" lon="12.01056662838921"><ele>23.0</ele><time>2026-04-03T10:02:38Z</time></trkpt><trkpt lat="45.603738995684786" lon="12.01065093393574"><ele>23.0</ele><time>2026-04-03T10:02:39Z</time></trkpt><trkpt lat="45.603764841111406" lon="12.010740224216372"><ele>23.0</ele><time>2026-04-03T10:02:40Z</time></trkpt><trkpt lat="45.60379889275175" lon="12.010825927737345"><ele>23.0</ele><time>2026-04-03T10:02:41Z</time></trkpt><trkpt lat="45.603828876119266" lon="12.010914888330195"><ele>23.0</ele><time>2026-04-03T10:02:42Z</time></trkpt><trkpt lat="45.60385532716181" lon="12.011003795155156"><ele>23.0</ele><time>2026-04-03T10:02:43Z</time></trkpt><trkpt lat="45.60388248679002" lon="12.011095560251043"><ele>23.0</ele><time>2026-04-03T10:02:44Z</time></trkpt><trkpt lat="45.603916429019165" lon="12.011176097644361"><ele>23.0</ele><time>2026-04-03T10:02:45Z</time></trkpt><trkpt lat="45.60394419314889" lon="12.011261059726115"><ele>23.0</ele><time>2026-04-03T10:02:46Z</time></trkpt><trkpt lat="45.603969549325356" lon="12.01134502198212"><ele>23.0</ele><time>2026-04-03T10:02:47Z</time></trkpt><trkpt lat="45.60400125330269" lon="12.01142883887545"><ele>23.0</ele><time>2026-04-03T10:02:48Z</time></trkpt><trkpt lat="45.604056601118" lon="12.011594501085279"><ele>23.0</ele><time>2026-04-03T10:02:50Z</time></trkpt><trkpt lat="45.60407994628809" lon="12.011681000852136"><ele>23.0</ele><time>2026-04-03T10:02:51Z</time></trkpt><trkpt lat="45.604106753010996" lon="12.011765497365914"><ele>23.0</ele><time>2026-04-03T10:02:52Z</time></trkpt><trkpt lat="45.60413231430605" lon="12.011848959254024"><ele>23.0</ele><time>2026-04-03T10:02:53Z</time></trkpt><trkpt lat="45.604163289688735" lon="12.01192860933561"><ele>23.0</ele><time>2026-04-03T10:02:54Z</time></trkpt><trkpt lat="45.6041924528975" lon="12.012008640285988"><ele>23.0</ele><time>2026-04-03T10:02:55Z</time></trkpt><trkpt lat="45.604215388896556" lon="12.012092460115317"><ele>23.0</ele><time>2026-04-03T10:02:56Z</time></trkpt><trkpt lat="45.6042434860693" lon="12.0121745155832"><ele>23.0</ele><time>2026-04-03T10:02:57Z</time></trkpt><trkpt lat="45.60430018695424" lon="12.012332005122442"><ele>23.0</ele><time>2026-04-03T10:02:59Z</time></trkpt><trkpt lat="45.604351157474454" lon="12.012488093620005"><ele>23.0</ele><time>2026-04-03T10:03:01Z</time></trkpt><trkpt lat="45.60440520855333" lon="12.012648137277578"><ele>23.0</ele><time>2026-04-03T10:03:03Z</time></trkpt><trkpt lat="45.604459674116065" lon="12.012796201369808"><ele>23.0</ele><time>2026-04-03T10:03:05Z</time></trkpt><trkpt lat="45.604515761146985" lon="12.012952729989752"><ele>23.0</ele><time>2026-04-03T10:03:07Z</time></trkpt><trkpt lat="45.60457169927236" lon="12.013113682709118"><ele>23.0</ele><time>2026-04-03T10:03:09Z</time></trkpt><trkpt lat="45.60459732903381" lon="12.013197575170313"><ele>23.0</ele><time>2026-04-03T10:03:10Z</time></trkpt><trkpt lat="45.60462519570749" lon="12.013278958965545"><ele>23.0</ele><time>2026-04-03T10:03:11Z</time></trkpt><trkpt lat="45.60465277633242" lon="12.013362910286968"><ele>23.0</ele><time>2026-04-03T10:03:12Z</time></trkpt><trkpt lat="45.604705002105554" lon="12.013501694037176"><ele>23.0</ele><time>2026-04-03T10:03:14Z</time></trkpt><trkpt lat="45.60475067351255" lon="12.013627789378274"><ele>23.0</ele><time>2026-04-03T10:03:16Z</time></trkpt><trkpt lat="45.60479094604417" lon="12.013750592427318"><ele>23.0</ele><time>2026-04-03T10:03:18Z</time></trkpt><trkpt lat="45.604836220236585" lon="12.013875002894972"><ele>23.0</ele><time>2026-04-03T10:03:20Z</time></trkpt><trkpt lat="45.60488992412813" lon="12.014010958885375"><ele>23.0</ele><time>2026-04-03T10:03:22Z</time></trkpt><trkpt lat="45.604927643268084" lon="12.014149661249423"><ele>23.0</ele><time>2026-04-03T10:03:24Z</time></trkpt><trkpt lat="45.6049718538024" lon="12.014298780076707"><ele>23.0</ele><time>2026-04-03T10:03:26Z</time></trkpt><trkpt lat="45.60502717716994" lon="12.014435220675619"><ele>23.0</ele><time>2026-04-03T10:03:28Z</time></trkpt><trkpt lat="45.605068059391684" lon="12.01457594859027"><ele>23.0</ele><time>2026-04-03T10:03:30Z</time></trkpt><trkpt lat="45.60511334760339" lon="12.01472249158537"><ele>23.0</ele><time>2026-04-03T10:03:32Z</time></trkpt><trkpt lat="45.60516837768092" lon="12.014867517353325"><ele>23.0</ele><time>2026-04-03T10:03:34Z</time></trkpt><trkpt lat="45.605217911817455" lon="12.015021024764462"><ele>23.25</ele><time>2026-04-03T10:03:36Z</time></trkpt><trkpt lat="45.60527063800787" lon="12.015168941071654"><ele>23.5</ele><time>2026-04-03T10:03:38Z</time></trkpt><trkpt lat="45.60531459778942" lon="12.015317359047835"><ele>23.75</ele><time>2026-04-03T10:03:40Z</time></trkpt><trkpt lat="45.60537019633794" lon="12.015475848874615"><ele>24.0</ele><time>2026-04-03T10:03:42Z</time></trkpt><trkpt lat="45.60542044527426" lon="12.015631576800722"><ele>23.5</ele><time>2026-04-03T10:03:44Z</time></trkpt><trkpt lat="45.605481047902906" lon="12.015780202552198"><ele>23.0</ele><time>2026-04-03T10:03:46Z</time></trkpt><trkpt lat="45.60552955259088" lon="12.01593543628486"><ele>22.5</ele><time>2026-04-03T10:03:48Z</time></trkpt><trkpt lat="45.60557976376981" lon="12.016096826209953"><ele>22.0</ele><time>2026-04-03T10:03:50Z</time></trkpt><trkpt lat="45.60563057502259" lon="12.016246304567735"><ele>22.0</ele><time>2026-04-03T10:03:52Z</time></trkpt><trkpt lat="45.6056800418048" lon="12.016374251649466"><ele>22.0</ele><time>2026-04-03T10:03:54Z</time></trkpt><trkpt lat="45.60571852843803" lon="12.016511102759734"><ele>22.0</ele><time>2026-04-03T10:03:56Z</time></trkpt><trkpt lat="45.60577313140385" lon="12.016640140648017"><ele>22.0</ele><time>2026-04-03T10:03:58Z</time></trkpt><trkpt lat="45.60582634503491" lon="12.016766828715465"><ele>22.0</ele><time>2026-04-03T10:04:00Z</time></trkpt><trkpt lat="45.605864726956845" lon="12.016917068896745"><ele>22.166666666666664</ele><time>2026-04-03T10:04:02Z</time></trkpt><trkpt lat="45.6059087803505" lon="12.017083271806746"><ele>22.333333333333332</ele><time>2026-04-03T10:04:04Z</time></trkpt><trkpt lat="45.60594474577296" lon="12.017161135203882"><ele>22.5</ele><time>2026-04-03T10:04:05Z</time></trkpt><trkpt lat="45.60599909803494" lon="12.017324338227372"><ele>22.666666666666668</ele><time>2026-04-03T10:04:07Z</time></trkpt><trkpt lat="45.60602722729642" lon="12.017406448767538"><ele>22.833333333333336</ele><time>2026-04-03T10:04:08Z</time></trkpt><trkpt lat="45.60605331734452" lon="12.017489249846873"><ele>23.0</ele><time>2026-04-03T10:04:09Z</time></trkpt><trkpt lat="45.6060805392198" lon="12.017572524351369"><ele>23.0</ele><time>2026-04-03T10:04:10Z</time></trkpt><trkpt lat="45.606135110808104" lon="12.017730261253465"><ele>23.0</ele><time>2026-04-03T10:04:12Z</time></trkpt><trkpt lat="45.60616800546443" lon="12.017807820957968"><ele>23.0</ele><time>2026-04-03T10:04:13Z</time></trkpt><trkpt lat="45.6062236408361" lon="12.017969583332087"><ele>23.0</ele><time>2026-04-03T10:04:15Z</time></trkpt><trkpt lat="45.606249394804514" lon="12.01805287472669"><ele>23.0</ele><time>2026-04-03T10:04:16Z</time></trkpt><trkpt lat="45.60630173972095" lon="12.018209299420516"><ele>23.0</ele><time>2026-04-03T10:04:18Z</time></trkpt><trkpt lat="45.606331707112865" lon="12.01829507303566"><ele>23.0</ele><time>2026-04-03T10:04:19Z</time></trkpt><trkpt lat="45.60638864350809" lon="12.018447302797897"><ele>23.0</ele><time>2026-04-03T10:04:21Z</time></trkpt><trkpt lat="45.60643921626481" lon="12.018601518065765"><ele>23.0</ele><time>2026-04-03T10:04:23Z</time></trkpt><trkpt lat="45.60649214278613" lon="12.01875660631558"><ele>23.0</ele><time>2026-04-03T10:04:25Z</time></trkpt><trkpt lat="45.606542997448535" lon="12.01891719621128"><ele>23.0</ele><time>2026-04-03T10:04:27Z</time></trkpt><trkpt lat="45.60660795749411" lon="12.019069992506136"><ele>23.0</ele><time>2026-04-03T10:04:29Z</time></trkpt><trkpt lat="45.60664852392404" lon="12.019235031674059"><ele>23.0</ele><time>2026-04-03T10:04:31Z</time></trkpt><trkpt lat="45.606678430238965" lon="12.01931947510205"><ele>23.0</ele><time>2026-04-03T10:04:32Z</time></trkpt><trkpt lat="45.606713441471996" lon="12.019403468964857"><ele>23.0</ele><time>2026-04-03T10:04:33Z</time></trkpt><trkpt lat="45.60674151421326" lon="12.019485939029877"><ele>23.0</ele><time>2026-04-03T10:04:34Z</time></trkpt><trkpt lat="45.6067720895667" lon="12.01956997214153"><ele>23.0</ele><time>2026-04-03T10:04:35Z</time></trkpt><trkpt lat="45.60682567264245" lon="12.019729624014582"><ele>23.0</ele><time>2026-04-03T10:04:37Z</time></trkpt><trkpt lat="45.60688908883748" lon="12.019874674638327"><ele>23.0</ele><time>2026-04-03T10:04:39Z</time></trkpt><trkpt lat="45.606931072716904" lon="12.020034372276577"><ele>23.0</ele><time>2026-04-03T10:04:41Z</time></trkpt><trkpt lat="45.60697045005834" lon="12.020162103515545"><ele>23.0</ele><time>2026-04-03T10:04:43Z</time></trkpt><trkpt lat="45.607017647255496" lon="12.020290884896136"><ele>23.0</ele><time>2026-04-03T10:04:45Z</time></trkpt><trkpt lat="45.60715494421845" lon="12.020319265201806"><ele>23.0</ele><time>2026-04-03T10:04:46Z</time></trkpt><trkpt lat="45.607165891288865" lon="12.020413051645832"><ele>23.0</ele><time>2026-04-03T10:04:48Z</time></trkpt><trkpt lat="45.60718567859674" lon="12.020519832703107"><ele>23.0</ele><time>2026-04-03T10:04:51Z</time></trkpt><trkpt lat="45.60683837334521" lon="12.019755511776552"><ele>23.0</ele><time>2026-04-03T10:07:48Z</time></trkpt><trkpt lat="45.6068075847454" lon="12.01967041607956"><ele>23.0</ele><time>2026-04-03T10:07:50Z</time></trkpt><trkpt lat="45.606775305748535" lon="12.019559170177764"><ele>23.0</ele><time>2026-04-03T10:07:52Z</time></trkpt><trkpt lat="45.60672542561713" lon="12.019448131592501"><ele>23.0</ele><time>2026-04-03T10:07:54Z</time></trkpt><trkpt lat="45.60669787840271" lon="12.019323651561686"><ele>23.0</ele><time>2026-04-03T10:07:56Z</time></trkpt><trkpt lat="45.606655277653914" lon="12.019194776571437"><ele>23.0</ele><time>2026-04-03T10:07:58Z</time></trkpt><trkpt lat="45.60661658251921" lon="12.01905873562715"><ele>23.0</ele><time>2026-04-03T10:08:00Z</time></trkpt><trkpt lat="45.60656582459285" lon="12.018922923132001"><ele>23.0</ele><time>2026-04-03T10:08:02Z</time></trkpt><trkpt lat="45.606514313466576" lon="12.018781654830812"><ele>23.0</ele><time>2026-04-03T10:08:04Z</time></trkpt><trkpt lat="45.60645972132012" lon="12.018642167632432"><ele>23.0</ele><time>2026-04-03T10:08:06Z</time></trkpt><trkpt lat="45.60641297137404" lon="12.018498369914104"><ele>23.0</ele><time>2026-04-03T10:08:08Z</time></trkpt><trkpt lat="45.606370555565235" lon="12.018347704491651"><ele>23.0</ele><time>2026-04-03T10:08:10Z</time></trkpt><trkpt lat="45.60631474710636" lon="12.01820721938916"><ele>23.0</ele><time>2026-04-03T10:08:12Z</time></trkpt><trkpt lat="45.60627305754389" lon="12.018063171817616"><ele>23.0</ele><time>2026-04-03T10:08:14Z</time></trkpt><trkpt lat="45.60621472975272" lon="12.017922269860735"><ele>23.0</ele><time>2026-04-03T10:08:16Z</time></trkpt><trkpt lat="45.60616187089934" lon="12.017781306353108"><ele>23.0</ele><time>2026-04-03T10:08:18Z</time></trkpt><trkpt lat="45.606119439014186" lon="12.017634701076256"><ele>23.0</ele><time>2026-04-03T10:08:20Z</time></trkpt><trkpt lat="45.606069281414165" lon="12.017495103711774"><ele>23.0</ele><time>2026-04-03T10:08:22Z</time></trkpt><trkpt lat="45.60601590801513" lon="12.017355506039788"><ele>23.0</ele><time>2026-04-03T10:08:24Z</time></trkpt><trkpt lat="45.605978640951086" lon="12.017220084343881"><ele>23.0</ele><time>2026-04-03T10:08:26Z</time></trkpt><trkpt lat="45.60592868203271" lon="12.017076266246622"><ele>23.0</ele><time>2026-04-03T10:08:28Z</time></trkpt><trkpt lat="45.6058726205467" lon="12.016931380985072"><ele>23.0</ele><time>2026-04-03T10:08:30Z</time></trkpt><trkpt lat="45.60583182597671" lon="12.016782991899788"><ele>23.0</ele><time>2026-04-03T10:08:32Z</time></trkpt><trkpt lat="45.60577935028257" lon="12.016638107350559"><ele>23.0</ele><time>2026-04-03T10:08:34Z</time></trkpt><trkpt lat="45.6057167618914" lon="12.016495577667394"><ele>23.0</ele><time>2026-04-03T10:08:36Z</time></trkpt><trkpt lat="45.60567226909547" lon="12.016374040521342"><ele>23.0</ele><time>2026-04-03T10:08:38Z</time></trkpt><trkpt lat="45.605641564630965" lon="12.016295453967004"><ele>22.833333333333336</ele><time>2026-04-03T10:08:41Z</time></trkpt><trkpt lat="45.60560586534372" lon="12.016199952112327"><ele>22.666666666666668</ele><time>2026-04-03T10:10:40Z</time></trkpt><trkpt lat="45.6055755933671" lon="12.016085475422658"><ele>22.5</ele><time>2026-04-03T10:10:43Z</time></trkpt><trkpt lat="45.60553032476097" lon="12.015969106761133"><ele>22.333333333333332</ele><time>2026-04-03T10:10:46Z</time></trkpt><trkpt lat="45.60549741932535" lon="12.015872864565361"><ele>22.166666666666664</ele><time>2026-04-03T10:10:48Z</time></trkpt><trkpt lat="45.60546957831551" lon="12.015749937326738"><ele>22.0</ele><time>2026-04-03T10:10:50Z</time></trkpt><trkpt lat="45.60542346455713" lon="12.015624608305439"><ele>22.0</ele><time>2026-04-03T10:10:52Z</time></trkpt><trkpt lat="45.60537533129894" lon="12.015495443697173"><ele>22.0</ele><time>2026-04-03T10:10:54Z</time></trkpt><trkpt lat="45.60532970890752" lon="12.015366808006007"><ele>22.0</ele><time>2026-04-03T10:10:56Z</time></trkpt><trkpt lat="45.6052881643572" lon="12.015234736189107"><ele>22.0</ele><time>2026-04-03T10:10:58Z</time></trkpt><trkpt lat="45.605237919304855" lon="12.015103558950367"><ele>22.0</ele><time>2026-04-03T10:11:00Z</time></trkpt><trkpt lat="45.6051935156675" lon="12.014966486581542"><ele>22.166666666666664</ele><time>2026-04-03T10:11:02Z</time></trkpt><trkpt lat="45.60515170655133" lon="12.014834773867886"><ele>22.333333333333332</ele><time>2026-04-03T10:11:04Z</time></trkpt><trkpt lat="45.605111670314216" lon="12.014714716027765"><ele>22.5</ele><time>2026-04-03T10:11:06Z</time></trkpt><trkpt lat="45.60507642029446" lon="12.014606647501681"><ele>22.666666666666668</ele><time>2026-04-03T10:11:08Z</time></trkpt><trkpt lat="45.605044933912396" lon="12.014490500394011"><ele>22.833333333333336</ele><time>2026-04-03T10:11:10Z</time></trkpt><trkpt lat="45.60500718338495" lon="12.014383423556193"><ele>23.0</ele><time>2026-04-03T10:11:12Z</time></trkpt><trkpt lat="45.60496525105805" lon="12.01426426207431"><ele>23.0</ele><time>2026-04-03T10:11:14Z</time></trkpt><trkpt lat="45.60492163563677" lon="12.014136719006446"><ele>23.0</ele><time>2026-04-03T10:11:16Z</time></trkpt><trkpt lat="45.604877794680995" lon="12.014005748289447"><ele>23.0</ele><time>2026-04-03T10:11:18Z</time></trkpt><trkpt lat="45.60483342364245" lon="12.013868954988258"><ele>23.0</ele><time>2026-04-03T10:11:20Z</time></trkpt><trkpt lat="45.60477508290388" lon="12.013715100531869"><ele>23.0</ele><time>2026-04-03T10:11:22Z</time></trkpt><trkpt lat="45.604745007847704" lon="12.013634719898256"><ele>23.0</ele><time>2026-04-03T10:11:23Z</time></trkpt><trkpt lat="45.60471405347251" lon="12.013555785737173"><ele>23.0</ele><time>2026-04-03T10:11:24Z</time></trkpt><trkpt lat="45.60467052766078" lon="12.013441389829072"><ele>23.0</ele><time>2026-04-03T10:11:26Z</time></trkpt><trkpt lat="45.60463266687565" lon="12.01331153012951"><ele>23.0</ele><time>2026-04-03T10:11:28Z</time></trkpt><trkpt lat="45.604582475176684" lon="12.013179550936922"><ele>23.0</ele><time>2026-04-03T10:11:30Z</time></trkpt><trkpt lat="45.60453736638935" lon="12.013044343841718"><ele>23.0</ele><time>2026-04-03T10:11:32Z</time></trkpt><trkpt lat="45.60448652051119" lon="12.012906100161787"><ele>23.0</ele><time>2026-04-03T10:11:34Z</time></trkpt><trkpt lat="45.60443753400701" lon="12.0127621653177"><ele>23.0</ele><time>2026-04-03T10:11:36Z</time></trkpt><trkpt lat="45.60438801249215" lon="12.0126117754243"><ele>23.0</ele><time>2026-04-03T10:11:38Z</time></trkpt><trkpt lat="45.604342032260554" lon="12.01245207092456"><ele>23.0</ele><time>2026-04-03T10:11:40Z</time></trkpt><trkpt lat="45.60428217580277" lon="12.012293279635635"><ele>23.0</ele><time>2026-04-03T10:11:42Z</time></trkpt><trkpt lat="45.60423271391345" lon="12.012125621918228"><ele>23.0</ele><time>2026-04-03T10:11:44Z</time></trkpt><trkpt lat="45.60420702811895" lon="12.012042493277338"><ele>23.0</ele><time>2026-04-03T10:11:45Z</time></trkpt><trkpt lat="45.60418076306377" lon="12.011957272633069"><ele>23.0</ele><time>2026-04-03T10:11:46Z</time></trkpt><trkpt lat="45.60412462871726" lon="12.011794035548167"><ele>23.0</ele><time>2026-04-03T10:11:48Z</time></trkpt><trkpt lat="45.60409739076668" lon="12.01170967241892"><ele>23.0</ele><time>2026-04-03T10:11:49Z</time></trkpt><trkpt lat="45.604071138219446" lon="12.011625767724157"><ele>23.0</ele><time>2026-04-03T10:11:50Z</time></trkpt><trkpt lat="45.60405502386039" lon="12.011532403804884"><ele>23.0</ele><time>2026-04-03T10:11:51Z</time></trkpt><trkpt lat="45.60401874469051" lon="12.011456502580334"><ele>23.0</ele><time>2026-04-03T10:11:52Z</time></trkpt><trkpt lat="45.60395675131115" lon="12.011299149807034"><ele>23.0</ele><time>2026-04-03T10:11:54Z</time></trkpt><trkpt lat="45.60393068978911" lon="12.01121682138093"><ele>23.0</ele><time>2026-04-03T10:11:55Z</time></trkpt><trkpt lat="45.60387604102973" lon="12.0110564593446"><ele>23.0</ele><time>2026-04-03T10:11:57Z</time></trkpt><trkpt lat="45.60382481807793" lon="12.01088954041141"><ele>23.0</ele><time>2026-04-03T10:11:59Z</time></trkpt><trkpt lat="45.60379664594678" lon="12.010808309447935"><ele>23.0</ele><time>2026-04-03T10:12:00Z</time></trkpt><trkpt lat="45.60374014375318" lon="12.010646830102985"><ele>23.0</ele><time>2026-04-03T10:12:02Z</time></trkpt><trkpt lat="45.60370907785417" lon="12.010567054140534"><ele>23.0</ele><time>2026-04-03T10:12:03Z</time></trkpt><trkpt lat="45.60364877267852" lon="12.010419126383908"><ele>23.0</ele><time>2026-04-03T10:12:05Z</time></trkpt><trkpt lat="45.60359698787529" lon="12.010259943256855"><ele>23.0</ele><time>2026-04-03T10:12:07Z</time></trkpt><trkpt lat="45.603556017647485" lon="12.010108380833275"><ele>23.0</ele><time>2026-04-03T10:12:09Z</time></trkpt><trkpt lat="45.60349944755437" lon="12.009962119318509"><ele>23.0</ele><time>2026-04-03T10:12:11Z</time></trkpt><trkpt lat="45.60344183521564" lon="12.009832972290843"><ele>23.0</ele><time>2026-04-03T10:12:13Z</time></trkpt><trkpt lat="45.6033819712446" lon="12.009661686448807"><ele>23.0</ele><time>2026-04-03T10:12:15Z</time></trkpt><trkpt lat="45.603352269174415" lon="12.009563082751272"><ele>23.0</ele><time>2026-04-03T10:12:16Z</time></trkpt><trkpt lat="45.60331525322339" lon="12.009488370033766"><ele>23.0</ele><time>2026-04-03T10:12:17Z</time></trkpt><trkpt lat="45.60329776292511" lon="12.009401818431185"><ele>23.0</ele><time>2026-04-03T10:12:18Z</time></trkpt><trkpt lat="45.603259515733356" lon="12.009253047473754"><ele>22.799999999999997</ele><time>2026-04-03T10:12:20Z</time></trkpt><trkpt lat="45.60323380129397" lon="12.009125260792391"><ele>22.6</ele><time>2026-04-03T10:12:22Z</time></trkpt><trkpt lat="45.60320836901969" lon="12.008992535269531"><ele>22.4</ele><time>2026-04-03T10:12:24Z</time></trkpt><trkpt lat="45.60317366567337" lon="12.008857756107545"><ele>22.200000000000003</ele><time>2026-04-03T10:12:26Z</time></trkpt><trkpt lat="45.603110886579174" lon="12.00870115821017"><ele>22.0</ele><time>2026-04-03T10:12:28Z</time></trkpt><trkpt lat="45.6030773951045" lon="12.008611659008114"><ele>22.0</ele><time>2026-04-03T10:12:29Z</time></trkpt><trkpt lat="45.60304604200246" lon="12.00851689356673"><ele>22.0</ele><time>2026-04-03T10:12:30Z</time></trkpt><trkpt lat="45.603012405498" lon="12.008422785483395"><ele>22.0</ele><time>2026-04-03T10:12:31Z</time></trkpt><trkpt lat="45.60298168201342" lon="12.008319969869952"><ele>22.0</ele><time>2026-04-03T10:12:32Z</time></trkpt><trkpt lat="45.602945169463545" lon="12.008218376372263"><ele>22.0</ele><time>2026-04-03T10:12:33Z</time></trkpt><trkpt lat="45.60292536549045" lon="12.008121900250918"><ele>22.0</ele><time>2026-04-03T10:12:34Z</time></trkpt><trkpt lat="45.60290958008144" lon="12.008026948907771"><ele>22.0</ele><time>2026-04-03T10:12:35Z</time></trkpt><trkpt lat="45.60286465811934" lon="12.007868353863058"><ele>22.166666666666664</ele><time>2026-04-03T10:12:37Z</time></trkpt><trkpt lat="45.6028352519358" lon="12.007781650283809"><ele>22.333333333333332</ele><time>2026-04-03T10:12:38Z</time></trkpt><trkpt lat="45.60280910485783" lon="12.00769313542703"><ele>22.5</ele><time>2026-04-03T10:12:39Z</time></trkpt><trkpt lat="45.602756811093066" lon="12.007525380860598"><ele>22.666666666666668</ele><time>2026-04-03T10:12:41Z</time></trkpt><trkpt lat="45.602730807981175" lon="12.007438198561779"><ele>22.833333333333336</ele><time>2026-04-03T10:12:42Z</time></trkpt><trkpt lat="45.60270452024685" lon="12.007350744624707"><ele>23.0</ele><time>2026-04-03T10:12:43Z</time></trkpt><trkpt lat="45.60267621976027" lon="12.007263858476554"><ele>23.0</ele><time>2026-04-03T10:12:44Z</time></trkpt><trkpt lat="45.60264932962597" lon="12.007175266524111"><ele>23.0</ele><time>2026-04-03T10:12:45Z</time></trkpt><trkpt lat="45.60262112336662" lon="12.007090930076082"><ele>23.0</ele><time>2026-04-03T10:12:46Z</time></trkpt><trkpt lat="45.60259770024797" lon="12.007003885966183"><ele>23.0</ele><time>2026-04-03T10:12:47Z</time></trkpt><trkpt lat="45.60256995987583" lon="12.006917543531802"><ele>23.0</ele><time>2026-04-03T10:12:48Z</time></trkpt><trkpt lat="45.60254527749459" lon="12.006827813251927"><ele>23.0</ele><time>2026-04-03T10:12:49Z</time></trkpt><trkpt lat="45.60251555384348" lon="12.006736543313258"><ele>23.0</ele><time>2026-04-03T10:12:50Z</time></trkpt><trkpt lat="45.60248631106458" lon="12.006648111022479"><ele>22.857142857142858</ele><time>2026-04-03T10:12:51Z</time></trkpt><trkpt lat="45.60245944635255" lon="12.006557287129713"><ele>22.71428571428571</ele><time>2026-04-03T10:12:52Z</time></trkpt><trkpt lat="45.602430590893505" lon="12.006468273761074"><ele>22.57142857142857</ele><time>2026-04-03T10:12:53Z</time></trkpt><trkpt lat="45.6024026202668" lon="12.006380442503353"><ele>22.42857142857143</ele><time>2026-04-03T10:12:54Z</time></trkpt><trkpt lat="45.60237253633778" lon="12.006293928514799"><ele>22.285714285714285</ele><time>2026-04-03T10:12:55Z</time></trkpt><trkpt lat="45.602347045730504" lon="12.006206709230229"><ele>22.142857142857142</ele><time>2026-04-03T10:12:56Z</time></trkpt><trkpt lat="45.60232226181032" lon="12.006118238256867"><ele>22.0</ele><time>2026-04-03T10:12:57Z</time></trkpt><trkpt lat="45.60229425381371" lon="12.006029707039568"><ele>22.0</ele><time>2026-04-03T10:12:58Z</time></trkpt><trkpt lat="45.602266074994645" lon="12.005942692262327"><ele>22.0</ele><time>2026-04-03T10:12:59Z</time></trkpt><trkpt lat="45.60224189939794" lon="12.005854816104598"><ele>22.0</ele><time>2026-04-03T10:13:00Z</time></trkpt><trkpt lat="45.60221396732035" lon="12.005770718417084"><ele>22.0</ele><time>2026-04-03T10:13:01Z</time></trkpt><trkpt lat="45.60218632982869" lon="12.005684161259094"><ele>22.0</ele><time>2026-04-03T10:13:02Z</time></trkpt><trkpt lat="45.602162824391094" lon="12.005596980118469"><ele>22.0</ele><time>2026-04-03T10:13:03Z</time></trkpt><trkpt lat="45.602135292594475" lon="12.005513585233007"><ele>22.0</ele><time>2026-04-03T10:13:04Z</time></trkpt><trkpt lat="45.602110843301105" lon="12.005430095818921"><ele>22.333333333333332</ele><time>2026-04-03T10:13:05Z</time></trkpt><trkpt lat="45.60208512530596" lon="12.005343257347848"><ele>22.666666666666664</ele><time>2026-04-03T10:13:06Z</time></trkpt><trkpt lat="45.60205747720018" lon="12.005256275369014"><ele>23.0</ele><time>2026-04-03T10:13:07Z</time></trkpt><trkpt lat="45.60202888869556" lon="12.00517209540711"><ele>23.333333333333332</ele><time>2026-04-03T10:13:08Z</time></trkpt><trkpt lat="45.60200341303755" lon="12.00508891529183"><ele>23.666666666666668</ele><time>2026-04-03T10:13:09Z</time></trkpt><trkpt lat="45.60195587867359" lon="12.00494381436687"><ele>24.0</ele><time>2026-04-03T10:13:11Z</time></trkpt><trkpt lat="45.60191386567678" lon="12.004812700539416"><ele>24.0</ele><time>2026-04-03T10:13:13Z</time></trkpt><trkpt lat="45.60188375414832" lon="12.004686092419062"><ele>24.0</ele><time>2026-04-03T10:13:15Z</time></trkpt><trkpt lat="45.60185227592257" lon="12.004578614375768"><ele>24.0</ele><time>2026-04-03T10:13:17Z</time></trkpt><trkpt lat="45.60181390974455" lon="12.004441765101749"><ele>24.0</ele><time>2026-04-03T10:13:19Z</time></trkpt><trkpt lat="45.601771830824006" lon="12.004291621494433"><ele>24.0</ele><time>2026-04-03T10:13:21Z</time></trkpt><trkpt lat="45.60172557331493" lon="12.004141889239865"><ele>23.799999999999997</ele><time>2026-04-03T10:13:23Z</time></trkpt><trkpt lat="45.60167848438046" lon="12.003980786014877"><ele>23.599999999999998</ele><time>2026-04-03T10:13:25Z</time></trkpt><trkpt lat="45.601646708714156" lon="12.003899122246072"><ele>23.4</ele><time>2026-04-03T10:13:26Z</time></trkpt><trkpt lat="45.60159437468565" lon="12.003739744071098"><ele>23.2</ele><time>2026-04-03T10:13:28Z</time></trkpt><trkpt lat="45.601545948570056" lon="12.003574171035433"><ele>23.0</ele><time>2026-04-03T10:13:30Z</time></trkpt><trkpt lat="45.6014940139061" lon="12.003411277775779"><ele>22.799999999999997</ele><time>2026-04-03T10:13:32Z</time></trkpt><trkpt lat="45.60147095476632" lon="12.00332609583315"><ele>22.6</ele><time>2026-04-03T10:13:33Z</time></trkpt><trkpt lat="45.6014230763312" lon="12.003163326406597"><ele>22.4</ele><time>2026-04-03T10:13:35Z</time></trkpt><trkpt lat="45.60137545764249" lon="12.003001673829475"><ele>22.200000000000003</ele><time>2026-04-03T10:13:37Z</time></trkpt><trkpt lat="45.60135041006396" lon="12.002915642118264"><ele>22.0</ele><time>2026-04-03T10:13:38Z</time></trkpt><trkpt lat="45.60130385015078" lon="12.00275064468888"><ele>22.0</ele><time>2026-04-03T10:13:40Z</time></trkpt><trkpt lat="45.60124983587621" lon="12.002593259917377"><ele>22.0</ele><time>2026-04-03T10:13:42Z</time></trkpt><trkpt lat="45.60121884895196" lon="12.002512912622269"><ele>22.0</ele><time>2026-04-03T10:13:43Z</time></trkpt><trkpt lat="45.60117626772686" lon="12.002348470891643"><ele>22.0</ele><time>2026-04-03T10:13:45Z</time></trkpt><trkpt lat="45.60113445457779" lon="12.002188307371116"><ele>22.0</ele><time>2026-04-03T10:13:47Z</time></trkpt><trkpt lat="45.601079540121965" lon="12.002027381331107"><ele>22.0</ele><time>2026-04-03T10:13:49Z</time></trkpt><trkpt lat="45.6010293235952" lon="12.001862791231442"><ele>22.0</ele><time>2026-04-03T10:13:51Z</time></trkpt><trkpt lat="45.601007265433886" lon="12.00177782087529"><ele>22.0</ele><time>2026-04-03T10:13:52Z</time></trkpt><trkpt lat="45.6009621496975" lon="12.001615627394704"><ele>22.0</ele><time>2026-04-03T10:13:54Z</time></trkpt><trkpt lat="45.60094075590759" lon="12.001523371878953"><ele>22.0</ele><time>2026-04-03T10:13:55Z</time></trkpt><trkpt lat="45.600886164163434" lon="12.001366341101754"><ele>22.0</ele><time>2026-04-03T10:13:57Z</time></trkpt><trkpt lat="45.60083875775377" lon="12.00119891336361"><ele>22.0</ele><time>2026-04-03T10:13:59Z</time></trkpt><trkpt lat="45.600806760133814" lon="12.00111394656008"><ele>22.0</ele><time>2026-04-03T10:14:00Z</time></trkpt><trkpt lat="45.6007567081092" lon="12.000954808387938"><ele>22.0</ele><time>2026-04-03T10:14:02Z</time></trkpt><trkpt lat="45.600706564551786" lon="12.000803198129036"><ele>22.0</ele><time>2026-04-03T10:14:04Z</time></trkpt><trkpt lat="45.600658781603464" lon="12.000661015299437"><ele>22.0</ele><time>2026-04-03T10:14:06Z</time></trkpt><trkpt lat="45.600611772324015" lon="12.000521458997158"><ele>22.0</ele><time>2026-04-03T10:14:08Z</time></trkpt><trkpt lat="45.60057700970742" lon="12.000380256596513"><ele>22.0</ele><time>2026-04-03T10:14:10Z</time></trkpt><trkpt lat="45.60054037195962" lon="12.000261555630132"><ele>22.0</ele><time>2026-04-03T10:14:12Z</time></trkpt><trkpt lat="45.60052061271804" lon="12.000168950615443"><ele>22.0</ele><time>2026-04-03T10:14:14Z</time></trkpt><trkpt lat="45.600493734236125" lon="12.000032226520618"><ele>22.0</ele><time>2026-04-03T10:14:17Z</time></trkpt><trkpt lat="45.60042242037777" lon="11.99992052231313"><ele>22.0</ele><time>2026-04-03T10:14:19Z</time></trkpt><trkpt lat="45.60037861729593" lon="11.999767495546278"><ele>22.0</ele><time>2026-04-03T10:14:21Z</time></trkpt><trkpt lat="45.6003376056183" lon="11.999610257956418"><ele>22.0</ele><time>2026-04-03T10:14:23Z</time></trkpt><trkpt lat="45.60029067996881" lon="11.999456454626518"><ele>21.8</ele><time>2026-04-03T10:14:25Z</time></trkpt><trkpt lat="45.600264786116256" lon="11.999372925130384"><ele>21.6</ele><time>2026-04-03T10:14:26Z</time></trkpt><trkpt lat="45.600223187986266" lon="11.999223360018858"><ele>21.400000000000002</ele><time>2026-04-03T10:14:28Z</time></trkpt><trkpt lat="45.60019103235951" lon="11.999141304148631"><ele>21.200000000000003</ele><time>2026-04-03T10:14:29Z</time></trkpt><trkpt lat="45.60014877315529" lon="11.998982680243955"><ele>21.0</ele><time>2026-04-03T10:14:31Z</time></trkpt><trkpt lat="45.600102029322805" lon="11.998828908598297"><ele>21.0</ele><time>2026-04-03T10:14:33Z</time></trkpt><trkpt lat="45.6000515536935" lon="11.998673159212135"><ele>21.0</ele><time>2026-04-03T10:14:35Z</time></trkpt><trkpt lat="45.60001032457602" lon="11.998526078881227"><ele>21.0</ele><time>2026-04-03T10:14:37Z</time></trkpt><trkpt lat="45.59996022566801" lon="11.998365715544061"><ele>21.0</ele><time>2026-04-03T10:14:39Z</time></trkpt><trkpt lat="45.599919665637636" lon="11.99821966930273"><ele>21.6</ele><time>2026-04-03T10:14:41Z</time></trkpt><trkpt lat="45.599892920186" lon="11.998133474778127"><ele>22.200000000000003</ele><time>2026-04-03T10:14:42Z</time></trkpt><trkpt lat="45.599846838172645" lon="11.99798287341229"><ele>22.799999999999997</ele><time>2026-04-03T10:14:44Z</time></trkpt><trkpt lat="45.59979687918449" lon="11.99783871717308"><ele>23.4</ele><time>2026-04-03T10:14:46Z</time></trkpt><trkpt lat="45.599751000774994" lon="11.997698215981194"><ele>24.0</ele><time>2026-04-03T10:14:48Z</time></trkpt><trkpt lat="45.59971479997362" lon="11.997555306742314"><ele>23.5</ele><time>2026-04-03T10:14:50Z</time></trkpt><trkpt lat="45.599675968959076" lon="11.997412924100477"><ele>23.0</ele><time>2026-04-03T10:14:52Z</time></trkpt><trkpt lat="45.599623089839575" lon="11.997258064573987"><ele>22.5</ele><time>2026-04-03T10:14:54Z</time></trkpt><trkpt lat="45.59957780192103" lon="11.997096948655026"><ele>22.0</ele><time>2026-04-03T10:14:56Z</time></trkpt><trkpt lat="45.59952656183958" lon="11.996937989425257"><ele>22.0</ele><time>2026-04-03T10:14:58Z</time></trkpt><trkpt lat="45.599474421281684" lon="11.996785998712694"><ele>22.0</ele><time>2026-04-03T10:15:00Z</time></trkpt><trkpt lat="45.5994275032538" lon="11.996625843545946"><ele>22.0</ele><time>2026-04-03T10:15:02Z</time></trkpt><trkpt lat="45.59937923711362" lon="11.996472439406258"><ele>22.0</ele><time>2026-04-03T10:15:04Z</time></trkpt><trkpt lat="45.59933156898212" lon="11.996315711593063"><ele>22.0</ele><time>2026-04-03T10:15:06Z</time></trkpt><trkpt lat="45.59929001604318" lon="11.996161664850241"><ele>22.0</ele><time>2026-04-03T10:15:08Z</time></trkpt><trkpt lat="45.59926179339573" lon="11.996080815278058"><ele>22.0</ele><time>2026-04-03T10:15:09Z</time></trkpt><trkpt lat="45.599213715207384" lon="11.995919670004554"><ele>22.0</ele><time>2026-04-03T10:15:11Z</time></trkpt><trkpt lat="45.599189307337575" lon="11.995836526611395"><ele>22.0</ele><time>2026-04-03T10:15:12Z</time></trkpt><trkpt lat="45.59913988521933" lon="11.995675065530154"><ele>22.0</ele><time>2026-04-03T10:15:14Z</time></trkpt><trkpt lat="45.5990956073133" lon="11.995512806302626"><ele>22.0</ele><time>2026-04-03T10:15:16Z</time></trkpt><trkpt lat="45.59904854674356" lon="11.995357073278885"><ele>22.0</ele><time>2026-04-03T10:15:18Z</time></trkpt><trkpt lat="45.599008068058126" lon="11.995216030303952"><ele>22.0</ele><time>2026-04-03T10:15:20Z</time></trkpt><trkpt lat="45.598958488452" lon="11.995081927666913"><ele>21.8</ele><time>2026-04-03T10:15:22Z</time></trkpt><trkpt lat="45.59892207699543" lon="11.994947341679433"><ele>21.6</ele><time>2026-04-03T10:15:24Z</time></trkpt><trkpt lat="45.598890234899855" lon="11.994829532238406"><ele>21.400000000000002</ele><time>2026-04-03T10:15:26Z</time></trkpt><trkpt lat="45.59885035414497" lon="11.994719710365946"><ele>21.200000000000003</ele><time>2026-04-03T10:15:28Z</time></trkpt><trkpt lat="45.59882236179553" lon="11.994606512469081"><ele>21.0</ele><time>2026-04-03T10:15:30Z</time></trkpt><trkpt lat="45.59879187269678" lon="11.994480352347134"><ele>21.0</ele><time>2026-04-03T10:15:32Z</time></trkpt><trkpt lat="45.59874603800555" lon="11.994341575558742"><ele>21.0</ele><time>2026-04-03T10:15:34Z</time></trkpt><trkpt lat="45.59869960098275" lon="11.994183091137648"><ele>21.0</ele><time>2026-04-03T10:15:36Z</time></trkpt><trkpt lat="45.59865102905073" lon="11.994030239617345"><ele>21.0</ele><time>2026-04-03T10:15:38Z</time></trkpt><trkpt lat="45.59860883116988" lon="11.993879529031767"><ele>21.75</ele><time>2026-04-03T10:15:40Z</time></trkpt><trkpt lat="45.59855900925213" lon="11.993717911430585"><ele>22.5</ele><time>2026-04-03T10:15:42Z</time></trkpt><trkpt lat="45.598506919026306" lon="11.993562185574032"><ele>23.25</ele><time>2026-04-03T10:15:44Z</time></trkpt><trkpt lat="45.59846823673863" lon="11.993409396212208"><ele>24.0</ele><time>2026-04-03T10:15:46Z</time></trkpt><trkpt lat="45.59842637065858" lon="11.993261484911462"><ele>24.0</ele><time>2026-04-03T10:15:48Z</time></trkpt><trkpt lat="45.59837742323079" lon="11.993117199882882"><ele>24.0</ele><time>2026-04-03T10:15:50Z</time></trkpt><trkpt lat="45.59834022415435" lon="11.992963426232993"><ele>24.0</ele><time>2026-04-03T10:15:52Z</time></trkpt><trkpt lat="45.59828340371474" lon="11.992817836414444"><ele>24.0</ele><time>2026-04-03T10:15:54Z</time></trkpt><trkpt lat="45.59823900995064" lon="11.99265918957671"><ele>23.75</ele><time>2026-04-03T10:15:56Z</time></trkpt><trkpt lat="45.59819597744449" lon="11.992501345777397"><ele>23.5</ele><time>2026-04-03T10:15:58Z</time></trkpt><trkpt lat="45.59814450404054" lon="11.992350189829002"><ele>23.25</ele><time>2026-04-03T10:16:00Z</time></trkpt><trkpt lat="45.59809677940953" lon="11.99219856052914"><ele>23.0</ele><time>2026-04-03T10:16:02Z</time></trkpt><trkpt lat="45.5980489212303" lon="11.9920496749226"><ele>23.0</ele><time>2026-04-03T10:16:04Z</time></trkpt><trkpt lat="45.59800889390787" lon="11.991903932789787"><ele>23.0</ele><time>2026-04-03T10:16:06Z</time></trkpt><trkpt lat="45.59795014260878" lon="11.99175166007592"><ele>23.0</ele><time>2026-04-03T10:16:08Z</time></trkpt><trkpt lat="45.597892010453464" lon="11.991586112185237"><ele>23.0</ele><time>2026-04-03T10:16:10Z</time></trkpt><trkpt lat="45.59784570199291" lon="11.991423377209024"><ele>23.0</ele><time>2026-04-03T10:16:12Z</time></trkpt><trkpt lat="45.59779578371034" lon="11.99126143418719"><ele>23.0</ele><time>2026-04-03T10:16:14Z</time></trkpt><trkpt lat="45.59776893100967" lon="11.991179374186027"><ele>23.0</ele><time>2026-04-03T10:16:15Z</time></trkpt><trkpt lat="45.59771521377928" lon="11.991016760653634"><ele>23.0</ele><time>2026-04-03T10:16:17Z</time></trkpt><trkpt lat="45.59764009755871" lon="11.9907777877879"><ele>23.0</ele><time>2026-04-03T10:16:20Z</time></trkpt><trkpt lat="45.59759802982274" lon="11.990613153577128"><ele>23.0</ele><time>2026-04-03T10:16:22Z</time></trkpt><trkpt lat="45.597534821125954" lon="11.990459948140613"><ele>23.0</ele><time>2026-04-03T10:16:24Z</time></trkpt><trkpt lat="45.59748728235642" lon="11.990299989230966"><ele>23.0</ele><time>2026-04-03T10:16:26Z</time></trkpt><trkpt lat="45.5974618203615" lon="11.990210187001134"><ele>23.0</ele><time>2026-04-03T10:16:27Z</time></trkpt><trkpt lat="45.59740558407331" lon="11.990045995432132"><ele>23.25</ele><time>2026-04-03T10:16:29Z</time></trkpt><trkpt lat="45.59735193409807" lon="11.98988527897088"><ele>23.5</ele><time>2026-04-03T10:16:31Z</time></trkpt><trkpt lat="45.597311280730814" lon="11.989733387356413"><ele>23.75</ele><time>2026-04-03T10:16:33Z</time></trkpt><trkpt lat="45.59725301816407" lon="11.989582877276755"><ele>24.0</ele><time>2026-04-03T10:16:35Z</time></trkpt><trkpt lat="45.597212046838436" lon="11.989424420637928"><ele>24.0</ele><time>2026-04-03T10:16:37Z</time></trkpt><trkpt lat="45.597166424054585" lon="11.989267279232374"><ele>24.0</ele><time>2026-04-03T10:16:39Z</time></trkpt><trkpt lat="45.59712465604181" lon="11.989120759899219"><ele>24.0</ele><time>2026-04-03T10:16:41Z</time></trkpt><trkpt lat="45.59707845092795" lon="11.988981672925147"><ele>24.0</ele><time>2026-04-03T10:16:43Z</time></trkpt><trkpt lat="45.59703765882888" lon="11.988825170046614"><ele>24.25</ele><time>2026-04-03T10:16:45Z</time></trkpt><trkpt lat="45.596991217878355" lon="11.988675564120696"><ele>24.5</ele><time>2026-04-03T10:16:47Z</time></trkpt><trkpt lat="45.596940361906" lon="11.988517956323562"><ele>24.75</ele><time>2026-04-03T10:16:49Z</time></trkpt><trkpt lat="45.59690049794904" lon="11.988354967548771"><ele>25.0</ele><time>2026-04-03T10:16:51Z</time></trkpt><trkpt lat="45.596853938129506" lon="11.988199167420877"><ele>24.4</ele><time>2026-04-03T10:16:53Z</time></trkpt><trkpt lat="45.59680894637898" lon="11.98804188765275"><ele>23.8</ele><time>2026-04-03T10:16:55Z</time></trkpt><trkpt lat="45.59677880574086" lon="11.98796142648057"><ele>23.200000000000003</ele><time>2026-04-03T10:16:56Z</time></trkpt><trkpt lat="45.596754564134486" lon="11.98787835024932"><ele>22.6</ele><time>2026-04-03T10:16:57Z</time></trkpt><trkpt lat="45.59670617026209" lon="11.987716398612722"><ele>22.0</ele><time>2026-04-03T10:16:59Z</time></trkpt><trkpt lat="45.59666316256175" lon="11.987554830284248"><ele>22.0</ele><time>2026-04-03T10:17:01Z</time></trkpt><trkpt lat="45.59661155906687" lon="11.987390749404952"><ele>22.0</ele><time>2026-04-03T10:17:03Z</time></trkpt><trkpt lat="45.596584812131724" lon="11.98730539798028"><ele>22.0</ele><time>2026-04-03T10:17:04Z</time></trkpt><trkpt lat="45.596556615978315" lon="11.987214252482575"><ele>22.0</ele><time>2026-04-03T10:17:05Z</time></trkpt><trkpt lat="45.596534139632084" lon="11.987129725956143"><ele>22.0</ele><time>2026-04-03T10:17:06Z</time></trkpt><trkpt lat="45.59648405073492" lon="11.98697147909948"><ele>22.0</ele><time>2026-04-03T10:17:08Z</time></trkpt><trkpt lat="45.59645880119686" lon="11.986886821088182"><ele>22.0</ele><time>2026-04-03T10:17:09Z</time></trkpt><trkpt lat="45.59643226216183" lon="11.986800436782593"><ele>22.0</ele><time>2026-04-03T10:17:10Z</time></trkpt><trkpt lat="45.59638173838979" lon="11.986636661613225"><ele>22.0</ele><time>2026-04-03T10:17:12Z</time></trkpt><trkpt lat="45.59633792558372" lon="11.986477577635881"><ele>22.0</ele><time>2026-04-03T10:17:14Z</time></trkpt><trkpt lat="45.59631070948776" lon="11.986393428988997"><ele>22.0</ele><time>2026-04-03T10:17:15Z</time></trkpt><trkpt lat="45.596262890205516" lon="11.986235928547355"><ele>22.200000000000003</ele><time>2026-04-03T10:17:17Z</time></trkpt><trkpt lat="45.596234367207174" lon="11.986153722840028"><ele>22.4</ele><time>2026-04-03T10:17:18Z</time></trkpt><trkpt lat="45.59618936159645" lon="11.98599181379611"><ele>22.6</ele><time>2026-04-03T10:17:20Z</time></trkpt><trkpt lat="45.59614211238448" lon="11.985829579065355"><ele>22.799999999999997</ele><time>2026-04-03T10:17:22Z</time></trkpt><trkpt lat="45.596087091494255" lon="11.985676192800078"><ele>23.0</ele><time>2026-04-03T10:17:24Z</time></trkpt><trkpt lat="45.59604155909812" lon="11.985524468875868"><ele>22.666666666666668</ele><time>2026-04-03T10:17:26Z</time></trkpt><trkpt lat="45.59599800025239" lon="11.985362831685972"><ele>22.333333333333336</ele><time>2026-04-03T10:17:28Z</time></trkpt><trkpt lat="45.595954125888596" lon="11.985214922499793"><ele>22.0</ele><time>2026-04-03T10:17:30Z</time></trkpt><trkpt lat="45.595932083183435" lon="11.985130575837177"><ele>21.666666666666668</ele><time>2026-04-03T10:17:31Z</time></trkpt><trkpt lat="45.595906445028724" lon="11.985046294881771"><ele>21.333333333333332</ele><time>2026-04-03T10:17:32Z</time></trkpt><trkpt lat="45.59587930322522" lon="11.98495808772587"><ele>21.0</ele><time>2026-04-03T10:17:33Z</time></trkpt><trkpt lat="45.59582786336854" lon="11.984799676179241"><ele>21.0</ele><time>2026-04-03T10:17:35Z</time></trkpt><trkpt lat="45.595776838673146" lon="11.984639444708966"><ele>21.0</ele><time>2026-04-03T10:17:37Z</time></trkpt><trkpt lat="45.5957244441981" lon="11.98448003370888"><ele>21.0</ele><time>2026-04-03T10:17:39Z</time></trkpt><trkpt lat="45.59567972499617" lon="11.984318895751686"><ele>21.0</ele><time>2026-04-03T10:17:41Z</time></trkpt><trkpt lat="45.59563152751495" lon="11.984154936902026"><ele>21.0</ele><time>2026-04-03T10:17:43Z</time></trkpt><trkpt lat="45.5955815234154" lon="11.98399634981679"><ele>21.0</ele><time>2026-04-03T10:17:45Z</time></trkpt><trkpt lat="45.59553380167996" lon="11.983841636114185"><ele>21.0</ele><time>2026-04-03T10:17:47Z</time></trkpt><trkpt lat="45.59549414163704" lon="11.98369050147752"><ele>21.0</ele><time>2026-04-03T10:17:49Z</time></trkpt><trkpt lat="45.59545423178013" lon="11.983560043474968"><ele>21.0</ele><time>2026-04-03T10:17:51Z</time></trkpt><trkpt lat="45.59541187445791" lon="11.983421416506568"><ele>21.0</ele><time>2026-04-03T10:17:53Z</time></trkpt><trkpt lat="45.595366008093166" lon="11.98327543228045"><ele>21.0</ele><time>2026-04-03T10:17:55Z</time></trkpt><trkpt lat="45.595309917137065" lon="11.983123800403044"><ele>21.0</ele><time>2026-04-03T10:17:57Z</time></trkpt><trkpt lat="45.595280506108935" lon="11.982956768205767"><ele>21.166666666666668</ele><time>2026-04-03T10:17:59Z</time></trkpt><trkpt lat="45.595234895620735" lon="11.982803811615858"><ele>21.333333333333332</ele><time>2026-04-03T10:18:01Z</time></trkpt><trkpt lat="45.59520647958368" lon="11.982720645925811"><ele>21.5</ele><time>2026-04-03T10:18:02Z</time></trkpt><trkpt lat="45.59518180381684" lon="11.982635392404308"><ele>21.666666666666664</ele><time>2026-04-03T10:18:03Z</time></trkpt><trkpt lat="45.59512624989185" lon="11.98247383660163"><ele>21.833333333333332</ele><time>2026-04-03T10:18:05Z</time></trkpt><trkpt lat="45.59510113020083" lon="11.982386601468098"><ele>22.0</ele><time>2026-04-03T10:18:06Z</time></trkpt><trkpt lat="45.595051837166615" lon="11.982227262162871"><ele>22.200000000000003</ele><time>2026-04-03T10:18:08Z</time></trkpt><trkpt lat="45.59498555392072" lon="11.982074438441298"><ele>22.4</ele><time>2026-04-03T10:18:10Z</time></trkpt><trkpt lat="45.59493944901896" lon="11.981914911697567"><ele>22.6</ele><time>2026-04-03T10:18:12Z</time></trkpt><trkpt lat="45.59491490336508" lon="11.981830918690372"><ele>22.799999999999997</ele><time>2026-04-03T10:18:13Z</time></trkpt><trkpt lat="45.59486354449747" lon="11.981680462050827"><ele>23.0</ele><time>2026-04-03T10:18:15Z</time></trkpt><trkpt lat="45.59482454814645" lon="11.981539324880924"><ele>23.166666666666668</ele><time>2026-04-03T10:18:17Z</time></trkpt><trkpt lat="45.594802111091255" lon="11.981415909586477"><ele>23.333333333333336</ele><time>2026-04-03T10:18:19Z</time></trkpt><trkpt lat="45.59476648146841" lon="11.981331861805726"><ele>23.5</ele><time>2026-04-03T10:18:22Z</time></trkpt><trkpt lat="45.59474623178112" lon="11.981233014590536"><ele>23.666666666666668</ele><time>2026-04-03T10:18:28Z</time></trkpt><trkpt lat="45.59470016571774" lon="11.981109865295764"><ele>23.833333333333332</ele><time>2026-04-03T10:18:31Z</time></trkpt><trkpt lat="45.59465706597852" lon="11.981009795307118"><ele>24.0</ele><time>2026-04-03T10:18:33Z</time></trkpt><trkpt lat="45.59462766398516" lon="11.980894657028244"><ele>24.0</ele><time>2026-04-03T10:18:35Z</time></trkpt><trkpt lat="45.59459395267983" lon="11.980786713675823"><ele>24.0</ele><time>2026-04-03T10:18:37Z</time></trkpt><trkpt lat="45.594564902277526" lon="11.980669624400042"><ele>24.0</ele><time>2026-04-03T10:18:39Z</time></trkpt><trkpt lat="45.594526141779745" lon="11.980541658899979"><ele>24.0</ele><time>2026-04-03T10:18:41Z</time></trkpt><trkpt lat="45.59448195553837" lon="11.980418830809535"><ele>24.0</ele><time>2026-04-03T10:18:43Z</time></trkpt><trkpt lat="45.594453126530645" lon="11.980278742410436"><ele>23.799999999999997</ele><time>2026-04-03T10:18:45Z</time></trkpt><trkpt lat="45.59441397195114" lon="11.98014534610129"><ele>23.599999999999998</ele><time>2026-04-03T10:18:47Z</time></trkpt><trkpt lat="45.594366405998485" lon="11.980023469034597"><ele>23.4</ele><time>2026-04-03T10:18:49Z</time></trkpt><trkpt lat="45.59432596128226" lon="11.979904248992112"><ele>23.2</ele><time>2026-04-03T10:18:51Z</time></trkpt><trkpt lat="45.59429089757798" lon="11.979782409373874"><ele>23.0</ele><time>2026-04-03T10:18:53Z</time></trkpt><trkpt lat="45.594250024100866" lon="11.97966433668092"><ele>23.0</ele><time>2026-04-03T10:18:55Z</time></trkpt><trkpt lat="45.59421941166902" lon="11.979559788706949"><ele>23.0</ele><time>2026-04-03T10:18:57Z</time></trkpt><trkpt lat="45.59419661802404" lon="11.979475092838193"><ele>23.0</ele><time>2026-04-03T10:19:00Z</time></trkpt><trkpt lat="45.59416483699986" lon="11.979386754512767"><ele>23.0</ele><time>2026-04-03T10:19:11Z</time></trkpt><trkpt lat="45.594056812574365" lon="11.979366712855324"><ele>23.0</ele><time>2026-04-03T10:19:13Z</time></trkpt><trkpt lat="45.59401317525954" lon="11.979228333408038"><ele>23.0</ele><time>2026-04-03T10:19:15Z</time></trkpt><trkpt lat="45.593979266526745" lon="11.979103435279006"><ele>23.0</ele><time>2026-04-03T10:19:17Z</time></trkpt><trkpt lat="45.59394905967129" lon="11.978992172538323"><ele>23.0</ele><time>2026-04-03T10:19:19Z</time></trkpt><trkpt lat="45.5939203380372" lon="11.978886380442901"><ele>23.0</ele><time>2026-04-03T10:19:21Z</time></trkpt><trkpt lat="45.59389027531483" lon="11.978775821571583"><ele>23.0</ele><time>2026-04-03T10:19:23Z</time></trkpt><trkpt lat="45.59386802600809" lon="11.978691037151961"><ele>23.0</ele><time>2026-04-03T10:19:25Z</time></trkpt><trkpt lat="45.593833365928354" lon="11.97856728015259"><ele>23.0</ele><time>2026-04-03T10:19:28Z</time></trkpt><trkpt lat="45.59380068517139" lon="11.97847276041876"><ele>23.0</ele><time>2026-04-03T10:19:30Z</time></trkpt><trkpt lat="45.59374869601651" lon="11.978348206941376"><ele>23.0</ele><time>2026-04-03T10:19:32Z</time></trkpt><trkpt lat="45.593689408776676" lon="11.97824699903728"><ele>23.0</ele><time>2026-04-03T10:19:34Z</time></trkpt><trkpt lat="45.593624879060684" lon="11.97818220320705"><ele>23.0</ele><time>2026-04-03T10:19:36Z</time></trkpt><trkpt lat="45.59356222661737" lon="11.978161638970278"><ele>23.0</ele><time>2026-04-03T10:19:38Z</time></trkpt><trkpt lat="45.59348947320474" lon="11.97810173296436"><ele>23.0</ele><time>2026-04-03T10:19:40Z</time></trkpt><trkpt lat="45.59364933624132" lon="11.977627233858593"><ele>22.799999999999997</ele><time>2026-04-03T10:19:41Z</time></trkpt><trkpt lat="45.593609549645834" lon="11.977477432301523"><ele>22.6</ele><time>2026-04-03T10:19:43Z</time></trkpt><trkpt lat="45.59355829893711" lon="11.977325383460471"><ele>22.4</ele><time>2026-04-03T10:19:45Z</time></trkpt><trkpt lat="45.59351029254636" lon="11.97716414798718"><ele>22.200000000000003</ele><time>2026-04-03T10:19:47Z</time></trkpt><trkpt lat="45.59348495465845" lon="11.977077965104566"><ele>22.0</ele><time>2026-04-03T10:19:48Z</time></trkpt><trkpt lat="45.59343072138031" lon="11.976934097169883"><ele>22.0</ele><time>2026-04-03T10:19:50Z</time></trkpt><trkpt lat="45.59338899490763" lon="11.976786652613864"><ele>22.0</ele><time>2026-04-03T10:19:52Z</time></trkpt><trkpt lat="45.59334037805614" lon="11.976640565553106"><ele>22.0</ele><time>2026-04-03T10:19:54Z</time></trkpt><trkpt lat="45.59329589596069" lon="11.976490781141809"><ele>22.0</ele><time>2026-04-03T10:19:56Z</time></trkpt><trkpt lat="45.59324305282921" lon="11.976340870800296"><ele>22.25</ele><time>2026-04-03T10:19:58Z</time></trkpt><trkpt lat="45.59319750542775" lon="11.976193362983105"><ele>22.5</ele><time>2026-04-03T10:20:00Z</time></trkpt><trkpt lat="45.59314923936751" lon="11.976039780468229"><ele>22.75</ele><time>2026-04-03T10:20:02Z</time></trkpt><trkpt lat="45.59310418655079" lon="11.975878626652253"><ele>23.0</ele><time>2026-04-03T10:20:04Z</time></trkpt><trkpt lat="45.59305822526221" lon="11.975715921415754"><ele>23.0</ele><time>2026-04-03T10:20:06Z</time></trkpt><trkpt lat="45.59300689367699" lon="11.975566607076455"><ele>23.0</ele><time>2026-04-03T10:20:08Z</time></trkpt><trkpt lat="45.59296413966232" lon="11.975410945468175"><ele>23.0</ele><time>2026-04-03T10:20:10Z</time></trkpt><trkpt lat="45.592919156720804" lon="11.975257875836945"><ele>23.0</ele><time>2026-04-03T10:20:12Z</time></trkpt><trkpt lat="45.59288833522548" lon="11.975178554106254"><ele>23.0</ele><time>2026-04-03T10:20:13Z</time></trkpt><trkpt lat="45.592842172919546" lon="11.975018731943564"><ele>22.799999999999997</ele><time>2026-04-03T10:20:15Z</time></trkpt><trkpt lat="45.59281478105313" lon="11.974928693982829"><ele>22.6</ele><time>2026-04-03T10:20:16Z</time></trkpt><trkpt lat="45.59276978683693" lon="11.974769391572739"><ele>22.4</ele><time>2026-04-03T10:20:18Z</time></trkpt><trkpt lat="45.59271497692095" lon="11.974605274130294"><ele>22.200000000000003</ele><time>2026-04-03T10:20:20Z</time></trkpt><trkpt lat="45.59267011192325" lon="11.97444078447359"><ele>22.0</ele><time>2026-04-03T10:20:22Z</time></trkpt><trkpt lat="45.59261265654356" lon="11.974278651927053"><ele>22.0</ele><time>2026-04-03T10:20:24Z</time></trkpt><trkpt lat="45.59256407802355" lon="11.974109490803345"><ele>22.0</ele><time>2026-04-03T10:20:26Z</time></trkpt><trkpt lat="45.592535226745824" lon="11.974026921973072"><ele>22.0</ele><time>2026-04-03T10:20:27Z</time></trkpt><trkpt lat="45.5925042693605" lon="11.973943689103281"><ele>22.0</ele><time>2026-04-03T10:20:28Z</time></trkpt><trkpt lat="45.592462128777136" lon="11.973775181561006"><ele>22.0</ele><time>2026-04-03T10:20:30Z</time></trkpt><trkpt lat="45.59243824315237" lon="11.973690950550397"><ele>22.0</ele><time>2026-04-03T10:20:31Z</time></trkpt><trkpt lat="45.59241388854354" lon="11.973604239283544"><ele>22.0</ele><time>2026-04-03T10:20:32Z</time></trkpt><trkpt lat="45.59235945951816" lon="11.973448762080892"><ele>22.0</ele><time>2026-04-03T10:20:34Z</time></trkpt><trkpt lat="45.59231169915849" lon="11.97329053521734"><ele>22.0</ele><time>2026-04-03T10:20:36Z</time></trkpt><trkpt lat="45.59228780497877" lon="11.973203941076813"><ele>22.0</ele><time>2026-04-03T10:20:37Z</time></trkpt><trkpt lat="45.592237060662185" lon="11.973037785057745"><ele>22.0</ele><time>2026-04-03T10:20:39Z</time></trkpt><trkpt lat="45.59218774673874" lon="11.972868307876817"><ele>22.0</ele><time>2026-04-03T10:20:41Z</time></trkpt><trkpt lat="45.592141635980795" lon="11.972706403157908"><ele>22.0</ele><time>2026-04-03T10:20:43Z</time></trkpt><trkpt lat="45.592117041759806" lon="11.97262147093863"><ele>22.0</ele><time>2026-04-03T10:20:44Z</time></trkpt><trkpt lat="45.592057123563265" lon="11.972465348787145"><ele>22.0</ele><time>2026-04-03T10:20:46Z</time></trkpt><trkpt lat="45.592031850262856" lon="11.97238159918686"><ele>22.0</ele><time>2026-04-03T10:20:47Z</time></trkpt><trkpt lat="45.59198342044377" lon="11.972231821676711"><ele>22.0</ele><time>2026-04-03T10:20:49Z</time></trkpt><trkpt lat="45.59194018370831" lon="11.972089788574483"><ele>22.0</ele><time>2026-04-03T10:20:51Z</time></trkpt><trkpt lat="45.59189586852031" lon="11.971961244666993"><ele>22.0</ele><time>2026-04-03T10:20:53Z</time></trkpt><trkpt lat="45.59186084520394" lon="11.97183896141065"><ele>22.0</ele><time>2026-04-03T10:20:55Z</time></trkpt><trkpt lat="45.59183458437147" lon="11.971721220608472"><ele>22.0</ele><time>2026-04-03T10:20:57Z</time></trkpt><trkpt lat="45.59179637997347" lon="11.971596856061522"><ele>22.333333333333332</ele><time>2026-04-03T10:20:59Z</time></trkpt><trkpt lat="45.59174953396557" lon="11.97146768903255"><ele>22.666666666666664</ele><time>2026-04-03T10:21:01Z</time></trkpt><trkpt lat="45.59171181673767" lon="11.971332840743518"><ele>23.0</ele><time>2026-04-03T10:21:03Z</time></trkpt><trkpt lat="45.591679289755646" lon="11.971235246819042"><ele>23.333333333333332</ele><time>2026-04-03T10:21:05Z</time></trkpt><trkpt lat="45.591649966541766" lon="11.971143384803918"><ele>23.666666666666668</ele><time>2026-04-03T10:21:07Z</time></trkpt><trkpt lat="45.59161407676755" lon="11.971039698329916"><ele>24.0</ele><time>2026-04-03T10:21:09Z</time></trkpt><trkpt lat="45.59158353377834" lon="11.970915838592743"><ele>23.6</ele><time>2026-04-03T10:21:11Z</time></trkpt><trkpt lat="45.59155436287096" lon="11.970800085998569"><ele>23.2</ele><time>2026-04-03T10:21:13Z</time></trkpt><trkpt lat="45.591510503323754" lon="11.970655247139964"><ele>22.8</ele><time>2026-04-03T10:21:15Z</time></trkpt><trkpt lat="45.59147011567915" lon="11.970517909437461"><ele>22.400000000000002</ele><time>2026-04-03T10:21:17Z</time></trkpt><trkpt lat="45.591423078625354" lon="11.97037643269413"><ele>22.0</ele><time>2026-04-03T10:21:19Z</time></trkpt><trkpt lat="45.59138512088973" lon="11.970235584441676"><ele>22.0</ele><time>2026-04-03T10:21:21Z</time></trkpt><trkpt lat="45.59133614763982" lon="11.970078099078105"><ele>22.0</ele><time>2026-04-03T10:21:23Z</time></trkpt><trkpt lat="45.5912891870066" lon="11.96992499956866"><ele>22.0</ele><time>2026-04-03T10:21:25Z</time></trkpt><trkpt lat="45.59123400359696" lon="11.969765250069877"><ele>22.0</ele><time>2026-04-03T10:21:27Z</time></trkpt><trkpt lat="45.59117934028799" lon="11.969610458692975"><ele>22.25</ele><time>2026-04-03T10:21:29Z</time></trkpt><trkpt lat="45.59113839108841" lon="11.96944882188916"><ele>22.5</ele><time>2026-04-03T10:21:31Z</time></trkpt><trkpt lat="45.59109439110404" lon="11.969290914954579"><ele>22.75</ele><time>2026-04-03T10:21:33Z</time></trkpt><trkpt lat="45.59104170873911" lon="11.969137097594182"><ele>23.0</ele><time>2026-04-03T10:21:35Z</time></trkpt><trkpt lat="45.590993691323966" lon="11.968978638385089"><ele>23.0</ele><time>2026-04-03T10:21:37Z</time></trkpt><trkpt lat="45.59095164561116" lon="11.968825389346703"><ele>23.0</ele><time>2026-04-03T10:21:39Z</time></trkpt><trkpt lat="45.59089988700891" lon="11.968677383509718"><ele>23.0</ele><time>2026-04-03T10:21:41Z</time></trkpt><trkpt lat="45.59086135513643" lon="11.96852706121811"><ele>23.0</ele><time>2026-04-03T10:21:43Z</time></trkpt><trkpt lat="45.59081859059168" lon="11.968385524208498"><ele>23.0</ele><time>2026-04-03T10:21:45Z</time></trkpt><trkpt lat="45.590769459751286" lon="11.968249611238868"><ele>23.0</ele><time>2026-04-03T10:21:47Z</time></trkpt><trkpt lat="45.590731273907245" lon="11.96811232395115"><ele>23.0</ele><time>2026-04-03T10:21:49Z</time></trkpt><trkpt lat="45.590685018344374" lon="11.967977683815764"><ele>23.0</ele><time>2026-04-03T10:21:51Z</time></trkpt><trkpt lat="45.590636237040776" lon="11.967820867576647"><ele>23.0</ele><time>2026-04-03T10:21:53Z</time></trkpt><trkpt lat="45.59058445263355" lon="11.967668483128529"><ele>22.799999999999997</ele><time>2026-04-03T10:21:55Z</time></trkpt><trkpt lat="45.590538927822884" lon="11.96751006773756"><ele>22.6</ele><time>2026-04-03T10:21:57Z</time></trkpt><trkpt lat="45.59048734027819" lon="11.967371288168362"><ele>22.4</ele><time>2026-04-03T10:21:59Z</time></trkpt><trkpt lat="45.59046591574863" lon="11.96725391344093"><ele>22.200000000000003</ele><time>2026-04-03T10:22:01Z</time></trkpt><trkpt lat="45.59047158606107" lon="11.96711621435177"><ele>22.0</ele><time>2026-04-03T10:22:03Z</time></trkpt><trkpt lat="45.59047340455529" lon="11.96697352056527"><ele>22.0</ele><time>2026-04-03T10:22:05Z</time></trkpt><trkpt lat="45.59047518531369" lon="11.966833787838231"><ele>22.0</ele><time>2026-04-03T10:22:07Z</time></trkpt><trkpt lat="45.59047775236177" lon="11.966719167343657"><ele>22.0</ele><time>2026-04-03T10:22:09Z</time></trkpt><trkpt lat="45.590481994028124" lon="11.966589370015962"><ele>22.0</ele><time>2026-04-03T10:22:11Z</time></trkpt><trkpt lat="45.59048705011939" lon="11.966458573663346"><ele>22.0</ele><time>2026-04-03T10:22:13Z</time></trkpt><trkpt lat="45.59049183693521" lon="11.96634870876928"><ele>22.0</ele><time>2026-04-03T10:22:15Z</time></trkpt><trkpt lat="45.59049801393048" lon="11.966218431342748"><ele>22.0</ele><time>2026-04-03T10:22:17Z</time></trkpt><trkpt lat="45.590504359552085" lon="11.966084597399739"><ele>22.0</ele><time>2026-04-03T10:22:19Z</time></trkpt><trkpt lat="45.59051118525057" lon="11.965940638249167"><ele>22.0</ele><time>2026-04-03T10:22:21Z</time></trkpt><trkpt lat="45.59051798549616" lon="11.965797216063104"><ele>22.0</ele><time>2026-04-03T10:22:23Z</time></trkpt><trkpt lat="45.590510997899514" lon="11.965651711826851"><ele>22.0</ele><time>2026-04-03T10:22:25Z</time></trkpt><trkpt lat="45.590486629842296" lon="11.965500129215366"><ele>21.0</ele><time>2026-04-03T10:22:27Z</time></trkpt><trkpt lat="45.589908806097135" lon="11.965371350598398"><ele>21.0</ele><time>2026-04-03T10:22:28Z</time></trkpt><trkpt lat="45.589858648914685" lon="11.965221504036494"><ele>21.0</ele><time>2026-04-03T10:22:30Z</time></trkpt><trkpt lat="45.58980800384006" lon="11.965073196767005"><ele>21.0</ele><time>2026-04-03T10:22:32Z</time></trkpt><trkpt lat="45.589763468554935" lon="11.964922377914037"><ele>21.0</ele><time>2026-04-03T10:22:34Z</time></trkpt><trkpt lat="45.58971296935908" lon="11.964774114995107"><ele>21.5</ele><time>2026-04-03T10:22:36Z</time></trkpt><trkpt lat="45.58966887469927" lon="11.96461863736286"><ele>22.0</ele><time>2026-04-03T10:22:38Z</time></trkpt><trkpt lat="45.5896227673682" lon="11.96446610198701"><ele>22.5</ele><time>2026-04-03T10:22:40Z</time></trkpt><trkpt lat="45.58957959448385" lon="11.96431141582785"><ele>23.0</ele><time>2026-04-03T10:22:42Z</time></trkpt><trkpt lat="45.58952453371758" lon="11.964159820811442"><ele>22.5</ele><time>2026-04-03T10:22:44Z</time></trkpt><trkpt lat="45.589476702758674" lon="11.964007198179992"><ele>22.0</ele><time>2026-04-03T10:22:46Z</time></trkpt><trkpt lat="45.589431904920446" lon="11.963848823028664"><ele>21.5</ele><time>2026-04-03T10:22:48Z</time></trkpt><trkpt lat="45.58937926227584" lon="11.963701520862662"><ele>21.0</ele><time>2026-04-03T10:22:50Z</time></trkpt><trkpt lat="45.58932628403497" lon="11.963556981982459"><ele>21.0</ele><time>2026-04-03T10:22:52Z</time></trkpt><trkpt lat="45.58928691127159" lon="11.963401515114812"><ele>21.0</ele><time>2026-04-03T10:22:54Z</time></trkpt><trkpt lat="45.58924803962719" lon="11.963255329587616"><ele>21.0</ele><time>2026-04-03T10:22:56Z</time></trkpt><trkpt lat="45.5892051628528" lon="11.963109046099001"><ele>21.0</ele><time>2026-04-03T10:22:58Z</time></trkpt><trkpt lat="45.58915862409647" lon="11.962959433998355"><ele>22.0</ele><time>2026-04-03T10:23:00Z</time></trkpt><trkpt lat="45.5891114086811" lon="11.962802497982949"><ele>23.0</ele><time>2026-04-03T10:23:02Z</time></trkpt><trkpt lat="45.58906494947054" lon="11.962641885749619"><ele>24.0</ele><time>2026-04-03T10:23:04Z</time></trkpt><trkpt lat="45.589025896299596" lon="11.96248641847436"><ele>25.0</ele><time>2026-04-03T10:23:06Z</time></trkpt><trkpt lat="45.588979630666074" lon="11.962343235015737"><ele>25.4</ele><time>2026-04-03T10:23:08Z</time></trkpt><trkpt lat="45.58892984761123" lon="11.962197617842447"><ele>25.8</ele><time>2026-04-03T10:23:10Z</time></trkpt><trkpt lat="45.58889288470442" lon="11.96205203772444"><ele>26.200000000000003</ele><time>2026-04-03T10:23:12Z</time></trkpt><trkpt lat="45.58885520982649" lon="11.961906684405731"><ele>26.6</ele><time>2026-04-03T10:23:14Z</time></trkpt><trkpt lat="45.58880862297895" lon="11.961760922895678"><ele>27.0</ele><time>2026-04-03T10:23:16Z</time></trkpt><trkpt lat="45.5887656099309" lon="11.961613885970932"><ele>27.400000000000002</ele><time>2026-04-03T10:23:18Z</time></trkpt><trkpt lat="45.58871922014566" lon="11.961468963886741"><ele>27.800000000000004</ele><time>2026-04-03T10:23:20Z</time></trkpt><trkpt lat="45.5886688317717" lon="11.961320920346417"><ele>28.2</ele><time>2026-04-03T10:23:22Z</time></trkpt><trkpt lat="45.58862979903217" lon="11.96117047481932"><ele>28.6</ele><time>2026-04-03T10:23:24Z</time></trkpt><trkpt lat="45.588582693845325" lon="11.961027667142849"><ele>29.0</ele><time>2026-04-03T10:23:26Z</time></trkpt><trkpt lat="45.588539440720524" lon="11.960896309167186"><ele>28.2</ele><time>2026-04-03T10:23:28Z</time></trkpt><trkpt lat="45.5884924668664" lon="11.960758561756952"><ele>27.4</ele><time>2026-04-03T10:23:30Z</time></trkpt><trkpt lat="45.58845053940093" lon="11.960612392193365"><ele>26.6</ele><time>2026-04-03T10:23:32Z</time></trkpt><trkpt lat="45.588409993829856" lon="11.960461317758938"><ele>25.8</ele><time>2026-04-03T10:23:34Z</time></trkpt><trkpt lat="45.588360019049375" lon="11.960316307872684"><ele>25.0</ele><time>2026-04-03T10:23:36Z</time></trkpt><trkpt lat="45.5883237513819" lon="11.960171764190893"><ele>24.6</ele><time>2026-04-03T10:23:38Z</time></trkpt><trkpt lat="45.588278258878525" lon="11.96002595813867"><ele>24.2</ele><time>2026-04-03T10:23:40Z</time></trkpt><trkpt lat="45.58822943974683" lon="11.959888256569904"><ele>23.799999999999997</ele><time>2026-04-03T10:23:42Z</time></trkpt><trkpt lat="45.58818648022815" lon="11.959742626735"><ele>23.4</ele><time>2026-04-03T10:23:44Z</time></trkpt><trkpt lat="45.588143362387584" lon="11.959600014088203"><ele>23.0</ele><time>2026-04-03T10:23:46Z</time></trkpt><trkpt lat="45.58809854838499" lon="11.959461662355586"><ele>23.0</ele><time>2026-04-03T10:23:48Z</time></trkpt><trkpt lat="45.58805233173143" lon="11.959338113686261"><ele>23.0</ele><time>2026-04-03T10:23:50Z</time></trkpt><trkpt lat="45.58801344910875" lon="11.95919468334731"><ele>23.0</ele><time>2026-04-03T10:23:52Z</time></trkpt><trkpt lat="45.58797979297541" lon="11.959051652693994"><ele>23.0</ele><time>2026-04-03T10:23:54Z</time></trkpt><trkpt lat="45.587935783313135" lon="11.958918930839696"><ele>23.0</ele><time>2026-04-03T10:23:56Z</time></trkpt><trkpt lat="45.587897936072075" lon="11.958822923431129"><ele>22.799999999999997</ele><time>2026-04-03T10:23:58Z</time></trkpt><trkpt lat="45.587871071429454" lon="11.958711398069415"><ele>22.6</ele><time>2026-04-03T10:24:00Z</time></trkpt><trkpt lat="45.58785155162912" lon="11.958562539112304"><ele>22.4</ele><time>2026-04-03T10:24:02Z</time></trkpt><trkpt lat="45.587843666459484" lon="11.958395706655327"><ele>22.200000000000003</ele><time>2026-04-03T10:24:04Z</time></trkpt><trkpt lat="45.58783490256058" lon="11.958234152776576"><ele>22.0</ele><time>2026-04-03T10:24:06Z</time></trkpt><trkpt lat="45.58783364356108" lon="11.95807363962897"><ele>22.0</ele><time>2026-04-03T10:24:08Z</time></trkpt><trkpt lat="45.58783831861695" lon="11.95793064223541"><ele>22.0</ele><time>2026-04-03T10:24:10Z</time></trkpt><trkpt lat="45.58785755942319" lon="11.95779440921768"><ele>22.0</ele><time>2026-04-03T10:24:12Z</time></trkpt><trkpt lat="45.58787825847835" lon="11.957649504837743"><ele>22.0</ele><time>2026-04-03T10:24:14Z</time></trkpt><trkpt lat="45.58789315680586" lon="11.957500525668276"><ele>22.0</ele><time>2026-04-03T10:24:16Z</time></trkpt><trkpt lat="45.58790586991086" lon="11.957365004362854"><ele>22.200000000000003</ele><time>2026-04-03T10:24:18Z</time></trkpt><trkpt lat="45.58789738514583" lon="11.957233185014479"><ele>22.4</ele><time>2026-04-03T10:24:20Z</time></trkpt><trkpt lat="45.58791394091248" lon="11.957103268321625"><ele>22.6</ele><time>2026-04-03T10:24:22Z</time></trkpt><trkpt lat="45.58793401784058" lon="11.956955702623766"><ele>22.799999999999997</ele><time>2026-04-03T10:24:24Z</time></trkpt><trkpt lat="45.5879454716273" lon="11.956799539817418"><ele>23.0</ele><time>2026-04-03T10:24:26Z</time></trkpt><trkpt lat="45.587947440707794" lon="11.9566228855095"><ele>23.0</ele><time>2026-04-03T10:24:28Z</time></trkpt><trkpt lat="45.58796064326774" lon="11.956444413429189"><ele>23.0</ele><time>2026-04-03T10:24:30Z</time></trkpt><trkpt lat="45.587979227612735" lon="11.956291565989995"><ele>23.0</ele><time>2026-04-03T10:24:32Z</time></trkpt><trkpt lat="45.588001736676475" lon="11.956147824045553"><ele>23.0</ele><time>2026-04-03T10:24:34Z</time></trkpt><trkpt lat="45.58801270534557" lon="11.956042857261183"><ele>23.0</ele><time>2026-04-03T10:24:36Z</time></trkpt><trkpt lat="45.58802574187563" lon="11.955929886846626"><ele>23.0</ele><time>2026-04-03T10:24:38Z</time></trkpt><trkpt lat="45.588032856216735" lon="11.95583160947568"><ele>23.0</ele><time>2026-04-03T10:24:56Z</time></trkpt><trkpt lat="45.58802064724899" lon="11.955928290688105"><ele>23.0</ele><time>2026-04-03T10:25:03Z</time></trkpt><trkpt lat="45.58800781448611" lon="11.95602608727769"><ele>23.0</ele><time>2026-04-03T10:25:05Z</time></trkpt><trkpt lat="45.58799330779198" lon="11.956155604945963"><ele>23.0</ele><time>2026-04-03T10:25:07Z</time></trkpt><trkpt lat="45.58797974850843" lon="11.956276663984523"><ele>23.0</ele><time>2026-04-03T10:25:09Z</time></trkpt><trkpt lat="45.58796993365044" lon="11.956369336875333"><ele>23.0</ele><time>2026-04-03T10:25:11Z</time></trkpt><trkpt lat="45.587959660562944" lon="11.956464398585801"><ele>23.0</ele><time>2026-04-03T10:25:17Z</time></trkpt><trkpt lat="45.587893127602875" lon="11.956533256708493"><ele>23.0</ele><time>2026-04-03T10:25:24Z</time></trkpt><trkpt lat="45.58713570210662" lon="11.956358048916702"><ele>23.0</ele><time>2026-04-03T10:25:25Z</time></trkpt><trkpt lat="45.587103601343664" lon="11.95624979804729"><ele>23.0</ele><time>2026-04-03T10:25:27Z</time></trkpt><trkpt lat="45.587083524856006" lon="11.95615110035083"><ele>23.0</ele><time>2026-04-03T10:25:29Z</time></trkpt><trkpt lat="45.58706294968639" lon="11.956060957169194"><ele>23.0</ele><time>2026-04-03T10:25:31Z</time></trkpt><trkpt lat="45.58703502757377" lon="11.955974197031814"><ele>23.0</ele><time>2026-04-03T10:25:33Z</time></trkpt><trkpt lat="45.58700070967113" lon="11.955870923328984"><ele>23.0</ele><time>2026-04-03T10:25:35Z</time></trkpt><trkpt lat="45.5869638604665" lon="11.955741662323927"><ele>23.0</ele><time>2026-04-03T10:25:37Z</time></trkpt><trkpt lat="45.58691753400022" lon="11.955612193280505"><ele>23.0</ele><time>2026-04-03T10:25:39Z</time></trkpt><trkpt lat="45.58687657538948" lon="11.955479539696618"><ele>23.0</ele><time>2026-04-03T10:25:41Z</time></trkpt><trkpt lat="45.586838577175804" lon="11.95534213411046"><ele>23.0</ele><time>2026-04-03T10:25:43Z</time></trkpt><trkpt lat="45.58679478644325" lon="11.955207526373274"><ele>23.0</ele><time>2026-04-03T10:25:45Z</time></trkpt><trkpt lat="45.58674515388268" lon="11.9550609279976"><ele>23.0</ele><time>2026-04-03T10:25:47Z</time></trkpt><trkpt lat="45.58670292451718" lon="11.954910508513807"><ele>23.0</ele><time>2026-04-03T10:25:49Z</time></trkpt><trkpt lat="45.58666372941958" lon="11.954766118525832"><ele>23.0</ele><time>2026-04-03T10:25:51Z</time></trkpt><trkpt lat="45.58660891357092" lon="11.954619601724868"><ele>23.0</ele><time>2026-04-03T10:25:53Z</time></trkpt><trkpt lat="45.58656257218993" lon="11.954472269879801"><ele>23.0</ele><time>2026-04-03T10:25:55Z</time></trkpt><trkpt lat="45.586523048548116" lon="11.954314297632953"><ele>23.0</ele><time>2026-04-03T10:25:57Z</time></trkpt><trkpt lat="45.58647280196995" lon="11.95415943025591"><ele>23.0</ele><time>2026-04-03T10:25:59Z</time></trkpt><trkpt lat="45.58645560299773" lon="11.954072354473753"><ele>23.0</ele><time>2026-04-03T10:26:00Z</time></trkpt><trkpt lat="45.58643573104957" lon="11.953984499109906"><ele>23.0</ele><time>2026-04-03T10:26:01Z</time></trkpt><trkpt lat="45.58637923107219" lon="11.95384685243977"><ele>23.0</ele><time>2026-04-03T10:26:03Z</time></trkpt><trkpt lat="45.58633669885724" lon="11.953687867303081"><ele>23.0</ele><time>2026-04-03T10:26:05Z</time></trkpt><trkpt lat="45.58631308340771" lon="11.953602911446538"><ele>23.0</ele><time>2026-04-03T10:26:06Z</time></trkpt><trkpt lat="45.58626158437521" lon="11.953456729002259"><ele>23.0</ele><time>2026-04-03T10:26:08Z</time></trkpt><trkpt lat="45.58621609646649" lon="11.953310577750662"><ele>23.0</ele><time>2026-04-03T10:26:10Z</time></trkpt><trkpt lat="45.586175036998" lon="11.953156907543331"><ele>22.799999999999997</ele><time>2026-04-03T10:26:12Z</time></trkpt><trkpt lat="45.5861319958967" lon="11.953017417592495"><ele>22.6</ele><time>2026-04-03T10:26:14Z</time></trkpt><trkpt lat="45.58609370470917" lon="11.952881977116093"><ele>22.4</ele><time>2026-04-03T10:26:16Z</time></trkpt><trkpt lat="45.58605540348119" lon="11.95273609898263"><ele>22.200000000000003</ele><time>2026-04-03T10:26:18Z</time></trkpt><trkpt lat="45.58600507723641" lon="11.952595498489009"><ele>22.0</ele><time>2026-04-03T10:26:20Z</time></trkpt><trkpt lat="45.58596132757265" lon="11.952448187509544"><ele>22.0</ele><time>2026-04-03T10:26:22Z</time></trkpt><trkpt lat="45.5859262573298" lon="11.952303766271452"><ele>22.0</ele><time>2026-04-03T10:26:24Z</time></trkpt><trkpt lat="45.5858861978267" lon="11.95215643250539"><ele>22.0</ele><time>2026-04-03T10:26:26Z</time></trkpt><trkpt lat="45.58583502381187" lon="11.952010327208358"><ele>22.0</ele><time>2026-04-03T10:26:28Z</time></trkpt><trkpt lat="45.58579241993854" lon="11.951865056542147"><ele>22.0</ele><time>2026-04-03T10:26:30Z</time></trkpt><trkpt lat="45.58574307455823" lon="11.951718565187853"><ele>22.0</ele><time>2026-04-03T10:26:32Z</time></trkpt><trkpt lat="45.585703973451416" lon="11.951569866021433"><ele>22.0</ele><time>2026-04-03T10:26:34Z</time></trkpt><trkpt lat="45.585658662031335" lon="11.951426634667946"><ele>22.0</ele><time>2026-04-03T10:26:36Z</time></trkpt><trkpt lat="45.58560866466355" lon="11.951276437688025"><ele>22.0</ele><time>2026-04-03T10:26:38Z</time></trkpt><trkpt lat="45.58555815297845" lon="11.951129703087775"><ele>22.0</ele><time>2026-04-03T10:26:40Z</time></trkpt><trkpt lat="45.5855153932993" lon="11.950976289517255"><ele>22.0</ele><time>2026-04-03T10:26:42Z</time></trkpt><trkpt lat="45.58547118648346" lon="11.950822588745446"><ele>22.0</ele><time>2026-04-03T10:26:44Z</time></trkpt><trkpt lat="45.58542038591583" lon="11.950677262512846"><ele>22.0</ele><time>2026-04-03T10:26:46Z</time></trkpt><trkpt lat="45.58537861834428" lon="11.95053106920765"><ele>21.8</ele><time>2026-04-03T10:26:48Z</time></trkpt><trkpt lat="45.58532877064549" lon="11.950379279598993"><ele>21.6</ele><time>2026-04-03T10:26:50Z</time></trkpt><trkpt lat="45.58528237416278" lon="11.950228111582419"><ele>21.400000000000002</ele><time>2026-04-03T10:26:52Z</time></trkpt><trkpt lat="45.58523765756801" lon="11.950092035153832"><ele>21.200000000000003</ele><time>2026-04-03T10:26:54Z</time></trkpt><trkpt lat="45.5851908896168" lon="11.949957256127144"><ele>21.0</ele><time>2026-04-03T10:26:56Z</time></trkpt><trkpt lat="45.58515277083225" lon="11.949825084691492"><ele>21.0</ele><time>2026-04-03T10:26:58Z</time></trkpt><trkpt lat="45.585103824196544" lon="11.949710864935609"><ele>21.0</ele><time>2026-04-03T10:27:00Z</time></trkpt><trkpt lat="45.58506331673089" lon="11.949571380619952"><ele>21.0</ele><time>2026-04-03T10:27:02Z</time></trkpt><trkpt lat="45.58503478865095" lon="11.949423864562348"><ele>21.0</ele><time>2026-04-03T10:27:04Z</time></trkpt><trkpt lat="45.58499413165139" lon="11.94930870518418"><ele>21.0</ele><time>2026-04-03T10:27:06Z</time></trkpt><trkpt lat="45.58496758794116" lon="11.949219469913833"><ele>21.166666666666668</ele><time>2026-04-03T10:27:08Z</time></trkpt><trkpt lat="45.58492547042332" lon="11.94914521069052"><ele>21.333333333333332</ele><time>2026-04-03T10:27:10Z</time></trkpt><trkpt lat="45.58490692144741" lon="11.949023814420212"><ele>21.5</ele><time>2026-04-03T10:27:12Z</time></trkpt><trkpt lat="45.58486211644697" lon="11.94890873236663"><ele>21.666666666666664</ele><time>2026-04-03T10:27:14Z</time></trkpt><trkpt lat="45.5848234845166" lon="11.94877919291162"><ele>21.833333333333332</ele><time>2026-04-03T10:27:16Z</time></trkpt><trkpt lat="45.58478314376098" lon="11.948646103441442"><ele>22.0</ele><time>2026-04-03T10:27:18Z</time></trkpt><trkpt lat="45.58475056827671" lon="11.948509746605337"><ele>22.0</ele><time>2026-04-03T10:27:20Z</time></trkpt><trkpt lat="45.584720190418174" lon="11.948393235470196"><ele>22.0</ele><time>2026-04-03T10:27:22Z</time></trkpt><trkpt lat="45.58464826800068" lon="11.94836433226294"><ele>22.0</ele><time>2026-04-03T10:27:23Z</time></trkpt><trkpt lat="45.58460773597047" lon="11.948230714049137"><ele>22.0</ele><time>2026-04-03T10:27:25Z</time></trkpt><trkpt lat="45.5845666237411" lon="11.948096649840922"><ele>22.0</ele><time>2026-04-03T10:27:27Z</time></trkpt><trkpt lat="45.5845241804278" lon="11.947959163323775"><ele>22.0</ele><time>2026-04-03T10:27:29Z</time></trkpt><trkpt lat="45.58448187082633" lon="11.947824684071792"><ele>22.0</ele><time>2026-04-03T10:27:31Z</time></trkpt><trkpt lat="45.58443383201313" lon="11.947678612706314"><ele>22.0</ele><time>2026-04-03T10:27:33Z</time></trkpt><trkpt lat="45.584378731065776" lon="11.947556293324876"><ele>22.0</ele><time>2026-04-03T10:27:35Z</time></trkpt><trkpt lat="45.5843115598521" lon="11.947470540237003"><ele>22.0</ele><time>2026-04-03T10:27:37Z</time></trkpt><trkpt lat="45.58424942047398" lon="11.94744899387076"><ele>22.0</ele><time>2026-04-03T10:27:39Z</time></trkpt><trkpt lat="45.58418585592425" lon="11.9473863686674"><ele>22.0</ele><time>2026-04-03T10:27:42Z</time></trkpt><trkpt lat="45.583876820668074" lon="11.946733755385301"><ele>22.166666666666664</ele><time>2026-04-03T10:27:44Z</time></trkpt><trkpt lat="45.5838644053344" lon="11.946620663191126"><ele>22.333333333333332</ele><time>2026-04-03T10:27:46Z</time></trkpt><trkpt lat="45.58387769405596" lon="11.946507117299761"><ele>22.5</ele><time>2026-04-03T10:27:48Z</time></trkpt><trkpt lat="45.583889571383644" lon="11.946364721301581"><ele>22.666666666666668</ele><time>2026-04-03T10:27:51Z</time></trkpt><trkpt lat="45.58387212565397" lon="11.946242021515516"><ele>22.833333333333336</ele><time>2026-04-03T10:27:53Z</time></trkpt><trkpt lat="45.58383844834231" lon="11.946112470816207"><ele>23.0</ele><time>2026-04-03T10:27:55Z</time></trkpt><trkpt lat="45.583797750846834" lon="11.945974353317762"><ele>23.0</ele><time>2026-04-03T10:27:57Z</time></trkpt><trkpt lat="45.58377208630695" lon="11.94588374635339"><ele>23.0</ele><time>2026-04-03T10:27:58Z</time></trkpt><trkpt lat="45.583751769167066" lon="11.945764319345642"><ele>23.0</ele><time>2026-04-03T10:27:59Z</time></trkpt><trkpt lat="45.58374761976984" lon="11.94564810564043"><ele>23.0</ele><time>2026-04-03T10:28:00Z</time></trkpt><trkpt lat="45.58374202189342" lon="11.94550196303411"><ele>23.0</ele><time>2026-04-03T10:28:02Z</time></trkpt><trkpt lat="45.58373662341822" lon="11.945361024948172"><ele>23.0</ele><time>2026-04-03T10:28:04Z</time></trkpt><trkpt lat="45.58373081635101" lon="11.945209419622573"><ele>22.799999999999997</ele><time>2026-04-03T10:28:06Z</time></trkpt><trkpt lat="45.58370211286257" lon="11.945065532512032"><ele>22.6</ele><time>2026-04-03T10:28:08Z</time></trkpt><trkpt lat="45.5836602743146" lon="11.944924630723762"><ele>22.4</ele><time>2026-04-03T10:28:10Z</time></trkpt><trkpt lat="45.583613410681046" lon="11.944776358214765"><ele>22.200000000000003</ele><time>2026-04-03T10:28:12Z</time></trkpt><trkpt lat="45.58357506307892" lon="11.94463849085593"><ele>22.0</ele><time>2026-04-03T10:28:14Z</time></trkpt><trkpt lat="45.58353272204802" lon="11.944498638350254"><ele>22.0</ele><time>2026-04-03T10:28:16Z</time></trkpt><trkpt lat="45.58349326124363" lon="11.94435878940938"><ele>22.0</ele><time>2026-04-03T10:28:18Z</time></trkpt><trkpt lat="45.583457542874086" lon="11.94421563204982"><ele>22.0</ele><time>2026-04-03T10:28:20Z</time></trkpt><trkpt lat="45.583410165454715" lon="11.944068022675557"><ele>22.0</ele><time>2026-04-03T10:28:22Z</time></trkpt><trkpt lat="45.58336967483852" lon="11.94392210427168"><ele>22.0</ele><time>2026-04-03T10:28:24Z</time></trkpt><trkpt lat="45.58332867897584" lon="11.943777125872636"><ele>22.0</ele><time>2026-04-03T10:28:26Z</time></trkpt><trkpt lat="45.58327596300699" lon="11.943629748184582"><ele>22.0</ele><time>2026-04-03T10:28:28Z</time></trkpt><trkpt lat="45.583228284242665" lon="11.94349071764448"><ele>22.0</ele><time>2026-04-03T10:28:30Z</time></trkpt><trkpt lat="45.58319358712587" lon="11.94334960376333"><ele>22.0</ele><time>2026-04-03T10:28:32Z</time></trkpt><trkpt lat="45.58315559120559" lon="11.943210237849893"><ele>22.0</ele><time>2026-04-03T10:28:34Z</time></trkpt><trkpt lat="45.583106209144965" lon="11.943074336725601"><ele>22.200000000000003</ele><time>2026-04-03T10:28:36Z</time></trkpt><trkpt lat="45.58305886848144" lon="11.94294494514138"><ele>22.4</ele><time>2026-04-03T10:28:38Z</time></trkpt><trkpt lat="45.58301662846492" lon="11.942802023252902"><ele>22.6</ele><time>2026-04-03T10:28:40Z</time></trkpt><trkpt lat="45.58297662845273" lon="11.942655055001913"><ele>22.799999999999997</ele><time>2026-04-03T10:28:42Z</time></trkpt><trkpt lat="45.582931512353206" lon="11.942521817914463"><ele>23.0</ele><time>2026-04-03T10:28:44Z</time></trkpt><trkpt lat="45.58288012814026" lon="11.942381161667962"><ele>23.0</ele><time>2026-04-03T10:28:46Z</time></trkpt><trkpt lat="45.58284584584637" lon="11.942233037058614"><ele>23.0</ele><time>2026-04-03T10:28:48Z</time></trkpt><trkpt lat="45.58280429844627" lon="11.942087498767151"><ele>23.0</ele><time>2026-04-03T10:28:50Z</time></trkpt><trkpt lat="45.58275687762137" lon="11.941940990358628"><ele>23.0</ele><time>2026-04-03T10:28:52Z</time></trkpt><trkpt lat="45.58271320704525" lon="11.941800149301487"><ele>23.0</ele><time>2026-04-03T10:28:54Z</time></trkpt><trkpt lat="45.582669610051404" lon="11.941656022009324"><ele>23.0</ele><time>2026-04-03T10:28:56Z</time></trkpt><trkpt lat="45.5826237147981" lon="11.941509711391546"><ele>23.0</ele><time>2026-04-03T10:28:58Z</time></trkpt><trkpt lat="45.58258340353571" lon="11.941362292563012"><ele>23.0</ele><time>2026-04-03T10:29:00Z</time></trkpt><trkpt lat="45.58253278565003" lon="11.941221164521297"><ele>23.0</ele><time>2026-04-03T10:29:02Z</time></trkpt><trkpt lat="45.582490987211855" lon="11.941072021854533"><ele>23.0</ele><time>2026-04-03T10:29:04Z</time></trkpt><trkpt lat="45.582443038629066" lon="11.9409193378123"><ele>23.0</ele><time>2026-04-03T10:29:06Z</time></trkpt><trkpt lat="45.58239875443534" lon="11.940775351025076"><ele>23.0</ele><time>2026-04-03T10:29:08Z</time></trkpt><trkpt lat="45.58236284399602" lon="11.940646506372142"><ele>23.0</ele><time>2026-04-03T10:29:10Z</time></trkpt><trkpt lat="45.58233307568005" lon="11.940541420118786"><ele>23.0</ele><time>2026-04-03T10:29:12Z</time></trkpt><trkpt lat="45.582299905624026" lon="11.940451491282289"><ele>23.0</ele><time>2026-04-03T10:29:15Z</time></trkpt><trkpt lat="45.582274187425234" lon="11.940352099578943"><ele>23.0</ele><time>2026-04-03T10:29:17Z</time></trkpt><trkpt lat="45.58223857654299" lon="11.940241728102691"><ele>23.0</ele><time>2026-04-03T10:29:19Z</time></trkpt><trkpt lat="45.582210550555395" lon="11.940116491141024"><ele>23.0</ele><time>2026-04-03T10:29:21Z</time></trkpt><trkpt lat="45.58217590682961" lon="11.939993781730042"><ele>23.0</ele><time>2026-04-03T10:29:25Z</time></trkpt><trkpt lat="45.58215119698818" lon="11.939876107641851"><ele>23.0</ele><time>2026-04-03T10:29:27Z</time></trkpt><trkpt lat="45.58210369917388" lon="11.939733201617399"><ele>23.0</ele><time>2026-04-03T10:29:29Z</time></trkpt><trkpt lat="45.582055678253305" lon="11.939590291338588"><ele>23.2</ele><time>2026-04-03T10:29:31Z</time></trkpt><trkpt lat="45.58200558574175" lon="11.939436357797945"><ele>23.4</ele><time>2026-04-03T10:29:33Z</time></trkpt><trkpt lat="45.581961548184566" lon="11.939294907454425"><ele>23.599999999999998</ele><time>2026-04-03T10:29:35Z</time></trkpt><trkpt lat="45.58192561133823" lon="11.939193144889272"><ele>23.799999999999997</ele><time>2026-04-03T10:29:37Z</time></trkpt><trkpt lat="45.58189477728973" lon="11.939089779568224"><ele>24.0</ele><time>2026-04-03T10:29:39Z</time></trkpt><trkpt lat="45.58186505252861" lon="11.938982578336681"><ele>24.0</ele><time>2026-04-03T10:29:41Z</time></trkpt><trkpt lat="45.58184031156742" lon="11.938879177831224"><ele>24.0</ele><time>2026-04-03T10:29:43Z</time></trkpt><trkpt lat="45.58178154273101" lon="11.938810987345219"><ele>24.0</ele><time>2026-04-03T10:29:47Z</time></trkpt><trkpt lat="45.581700896028224" lon="11.93881040481607"><ele>24.0</ele><time>2026-04-03T10:29:50Z</time></trkpt><trkpt lat="45.58163887520455" lon="11.938833375019914"><ele>24.0</ele><time>2026-04-03T10:29:52Z</time></trkpt><trkpt lat="45.581630556025154" lon="11.938731002890068"><ele>24.0</ele><time>2026-04-03T10:29:54Z</time></trkpt><trkpt lat="45.58171136231165" lon="11.938675766936317"><ele>24.0</ele><time>2026-04-03T10:29:56Z</time></trkpt><trkpt lat="45.581776368306635" lon="11.938661353772012"><ele>24.0</ele><time>2026-04-03T10:29:58Z</time></trkpt><trkpt lat="45.58185800410089" lon="11.938592695121814"><ele>24.0</ele><time>2026-04-03T10:30:01Z</time></trkpt><trkpt lat="45.58188458036893" lon="11.938477840461308"><ele>24.0</ele><time>2026-04-03T10:30:04Z</time></trkpt><trkpt lat="45.581833602850104" lon="11.93837800392623"><ele>24.0</ele><time>2026-04-03T10:30:06Z</time></trkpt><trkpt lat="45.58179399714684" lon="11.938255119363752"><ele>24.0</ele><time>2026-04-03T10:30:08Z</time></trkpt><trkpt lat="45.581745466679344" lon="11.938125367656056"><ele>23.799999999999997</ele><time>2026-04-03T10:30:10Z</time></trkpt><trkpt lat="45.581696255284726" lon="11.937990349557785"><ele>23.599999999999998</ele><time>2026-04-03T10:30:12Z</time></trkpt><trkpt lat="45.5816431351339" lon="11.93785744766737"><ele>23.4</ele><time>2026-04-03T10:30:14Z</time></trkpt><trkpt lat="45.581593411962466" lon="11.937715733944204"><ele>23.2</ele><time>2026-04-03T10:30:16Z</time></trkpt><trkpt lat="45.58154566238346" lon="11.937608262733836"><ele>23.0</ele><time>2026-04-03T10:30:18Z</time></trkpt><trkpt lat="45.58151202178461" lon="11.937501285190727"><ele>22.599999999999998</ele><time>2026-04-03T10:30:21Z</time></trkpt><trkpt lat="45.58145663672828" lon="11.937392104975483"><ele>22.2</ele><time>2026-04-03T10:30:24Z</time></trkpt><trkpt lat="45.58140147560158" lon="11.93729928037584"><ele>21.8</ele><time>2026-04-03T10:30:26Z</time></trkpt><trkpt lat="45.58136292664529" lon="11.937172521498828"><ele>21.4</ele><time>2026-04-03T10:30:28Z</time></trkpt><trkpt lat="45.58131222844049" lon="11.937045782156016"><ele>21.0</ele><time>2026-04-03T10:30:30Z</time></trkpt><trkpt lat="45.58124844273785" lon="11.936918045489698"><ele>21.0</ele><time>2026-04-03T10:30:32Z</time></trkpt><trkpt lat="45.58118799029987" lon="11.936787296170273"><ele>21.0</ele><time>2026-04-03T10:30:34Z</time></trkpt><trkpt lat="45.5811259215708" lon="11.936643354546709"><ele>21.0</ele><time>2026-04-03T10:30:36Z</time></trkpt><trkpt lat="45.58104658029023" lon="11.936514012141876"><ele>21.0</ele><time>2026-04-03T10:30:38Z</time></trkpt><trkpt lat="45.58095944609087" lon="11.936402608799051"><ele>21.166666666666668</ele><time>2026-04-03T10:30:40Z</time></trkpt><trkpt lat="45.580883921919764" lon="11.936315273632914"><ele>21.333333333333332</ele><time>2026-04-03T10:30:42Z</time></trkpt><trkpt lat="45.580811335309846" lon="11.936235663772806"><ele>21.5</ele><time>2026-04-03T10:30:44Z</time></trkpt><trkpt lat="45.58074053044107" lon="11.93614985118321"><ele>21.666666666666664</ele><time>2026-04-03T10:30:46Z</time></trkpt><trkpt lat="45.5806848793733" lon="11.936065500749583"><ele>21.833333333333332</ele><time>2026-04-03T10:30:48Z</time></trkpt><trkpt lat="45.58063680879128" lon="11.935962849902186"><ele>22.0</ele><time>2026-04-03T10:30:50Z</time></trkpt><trkpt lat="45.58057779895679" lon="11.935847985138846"><ele>22.0</ele><time>2026-04-03T10:30:52Z</time></trkpt><trkpt lat="45.58051512529525" lon="11.93572698157019"><ele>22.0</ele><time>2026-04-03T10:30:54Z</time></trkpt><trkpt lat="45.58044028706335" lon="11.935597844908907"><ele>22.0</ele><time>2026-04-03T10:30:56Z</time></trkpt><trkpt lat="45.580361907769664" lon="11.93546951865772"><ele>22.0</ele><time>2026-04-03T10:30:58Z</time></trkpt><trkpt lat="45.58028550976354" lon="11.935348802814527"><ele>22.0</ele><time>2026-04-03T10:31:00Z</time></trkpt><trkpt lat="45.58021383756807" lon="11.935238853920993"><ele>22.0</ele><time>2026-04-03T10:31:02Z</time></trkpt><trkpt lat="45.58014536621491" lon="11.93512710754238"><ele>22.0</ele><time>2026-04-03T10:31:04Z</time></trkpt><trkpt lat="45.58007674261922" lon="11.935026548738827"><ele>22.0</ele><time>2026-04-03T10:31:06Z</time></trkpt><trkpt lat="45.58001919680422" lon="11.934930094275096"><ele>22.0</ele><time>2026-04-03T10:31:08Z</time></trkpt><trkpt lat="45.57995538488256" lon="11.934833514649196"><ele>22.0</ele><time>2026-04-03T10:31:10Z</time></trkpt><trkpt lat="45.579873753005685" lon="11.934728245650762"><ele>22.0</ele><time>2026-04-03T10:31:12Z</time></trkpt><trkpt lat="45.579787220684615" lon="11.93462143951778"><ele>22.0</ele><time>2026-04-03T10:31:14Z</time></trkpt><trkpt lat="45.57970231708168" lon="11.934503562838605"><ele>22.0</ele><time>2026-04-03T10:31:16Z</time></trkpt><trkpt lat="45.579610375787496" lon="11.934388753090944"><ele>22.0</ele><time>2026-04-03T10:31:18Z</time></trkpt><trkpt lat="45.57951903588262" lon="11.934272121964282"><ele>22.0</ele><time>2026-04-03T10:31:20Z</time></trkpt><trkpt lat="45.57942671241411" lon="11.934152106561122"><ele>22.0</ele><time>2026-04-03T10:31:22Z</time></trkpt><trkpt lat="45.5793743584858" lon="11.93409977315995"><ele>22.0</ele><time>2026-04-03T10:31:23Z</time></trkpt><trkpt lat="45.57928762621351" lon="11.933999161641461"><ele>22.0</ele><time>2026-04-03T10:31:25Z</time></trkpt><trkpt lat="45.5791962565381" lon="11.933901323103884"><ele>21.5</ele><time>2026-04-03T10:31:27Z</time></trkpt><trkpt lat="45.57910901059768" lon="11.93379658150955"><ele>21.0</ele><time>2026-04-03T10:31:29Z</time></trkpt><trkpt lat="45.579016989412025" lon="11.9337034080938"><ele>20.5</ele><time>2026-04-03T10:31:31Z</time></trkpt><trkpt lat="45.57892878787187" lon="11.933595890973995"><ele>20.0</ele><time>2026-04-03T10:31:33Z</time></trkpt><trkpt lat="45.578837072104825" lon="11.933482431107493"><ele>20.0</ele><time>2026-04-03T10:31:35Z</time></trkpt><trkpt lat="45.57873899219047" lon="11.933395800239017"><ele>20.0</ele><time>2026-04-03T10:31:37Z</time></trkpt><trkpt lat="45.57864790010856" lon="11.93330188759214"><ele>20.0</ele><time>2026-04-03T10:31:39Z</time></trkpt><trkpt lat="45.578557466486984" lon="11.933209931428948"><ele>20.0</ele><time>2026-04-03T10:31:41Z</time></trkpt><trkpt lat="45.57845773302705" lon="11.93312512512719"><ele>20.5</ele><time>2026-04-03T10:31:43Z</time></trkpt><trkpt lat="45.57836024665637" lon="11.933038334473643"><ele>21.0</ele><time>2026-04-03T10:31:45Z</time></trkpt><trkpt lat="45.57826462077248" lon="11.932948638628881"><ele>21.5</ele><time>2026-04-03T10:31:47Z</time></trkpt><trkpt lat="45.578164263679604" lon="11.932863386805288"><ele>22.0</ele><time>2026-04-03T10:31:49Z</time></trkpt><trkpt lat="45.57805497880479" lon="11.932784716465656"><ele>22.0</ele><time>2026-04-03T10:31:51Z</time></trkpt><trkpt lat="45.577957356183454" lon="11.932686430046799"><ele>22.0</ele><time>2026-04-03T10:31:53Z</time></trkpt><trkpt lat="45.57784929242546" lon="11.932621187830792"><ele>22.0</ele><time>2026-04-03T10:31:55Z</time></trkpt><trkpt lat="45.57774893254752" lon="11.932525601843453"><ele>22.0</ele><time>2026-04-03T10:31:57Z</time></trkpt><trkpt lat="45.57765829629173" lon="11.932447109846686"><ele>21.833333333333332</ele><time>2026-04-03T10:31:59Z</time></trkpt><trkpt lat="45.577583901668795" lon="11.9323543869915"><ele>21.666666666666664</ele><time>2026-04-03T10:32:01Z</time></trkpt><trkpt lat="45.57756165352709" lon="11.932254302317006"><ele>21.5</ele><time>2026-04-03T10:32:03Z</time></trkpt><trkpt lat="45.577490554800335" lon="11.932170032206216"><ele>21.333333333333332</ele><time>2026-04-03T10:32:07Z</time></trkpt><trkpt lat="45.57741576896273" lon="11.932169948283388"><ele>21.166666666666668</ele><time>2026-04-03T10:32:09Z</time></trkpt><trkpt lat="45.57732625616002" lon="11.932150557670466"><ele>21.0</ele><time>2026-04-03T10:32:11Z</time></trkpt><trkpt lat="45.57724147190008" lon="11.93209775271848"><ele>21.0</ele><time>2026-04-03T10:32:13Z</time></trkpt><trkpt lat="45.57714986765624" lon="11.932057220669087"><ele>21.0</ele><time>2026-04-03T10:32:15Z</time></trkpt><trkpt lat="45.57705829105175" lon="11.932013879607654"><ele>21.0</ele><time>2026-04-03T10:32:17Z</time></trkpt><trkpt lat="45.57688200478811" lon="11.932097760845926"><ele>21.0</ele><time>2026-04-03T10:32:19Z</time></trkpt><trkpt lat="45.57680517713434" lon="11.932007764356392"><ele>21.25</ele><time>2026-04-03T10:32:21Z</time></trkpt><trkpt lat="45.57671578788071" lon="11.931917733560258"><ele>21.5</ele><time>2026-04-03T10:32:23Z</time></trkpt><trkpt lat="45.57662090889011" lon="11.93182960625518"><ele>21.75</ele><time>2026-04-03T10:32:25Z</time></trkpt><trkpt lat="45.57650888309182" lon="11.931769342665072"><ele>22.0</ele><time>2026-04-03T10:32:27Z</time></trkpt><trkpt lat="45.5763993992885" lon="11.931723846859594"><ele>22.0</ele><time>2026-04-03T10:32:29Z</time></trkpt><trkpt lat="45.57629062690755" lon="11.931677379036918"><ele>22.0</ele><time>2026-04-03T10:32:31Z</time></trkpt><trkpt lat="45.576179596274024" lon="11.931625541695277"><ele>22.0</ele><time>2026-04-03T10:32:33Z</time></trkpt><trkpt lat="45.57606480758465" lon="11.93158625087726"><ele>22.0</ele><time>2026-04-03T10:32:35Z</time></trkpt><trkpt lat="45.575949979441525" lon="11.93153230428869"><ele>22.0</ele><time>2026-04-03T10:32:37Z</time></trkpt><trkpt lat="45.57583569918959" lon="11.931484696384457"><ele>22.0</ele><time>2026-04-03T10:32:39Z</time></trkpt><trkpt lat="45.57571666057784" lon="11.931437681735872"><ele>22.0</ele><time>2026-04-03T10:32:41Z</time></trkpt><trkpt lat="45.57561009141022" lon="11.931384942654981"><ele>22.0</ele><time>2026-04-03T10:32:43Z</time></trkpt><trkpt lat="45.57554988527247" lon="11.93135791235806"><ele>22.0</ele><time>2026-04-03T10:32:44Z</time></trkpt><trkpt lat="45.57543699802939" lon="11.931311325050947"><ele>22.0</ele><time>2026-04-03T10:32:46Z</time></trkpt><trkpt lat="45.57532016307609" lon="11.931261999495007"><ele>22.0</ele><time>2026-04-03T10:32:48Z</time></trkpt><trkpt lat="45.57519677273915" lon="11.931218479496737"><ele>22.0</ele><time>2026-04-03T10:32:50Z</time></trkpt><trkpt lat="45.575137779222366" lon="11.93118378228646"><ele>22.0</ele><time>2026-04-03T10:32:51Z</time></trkpt><trkpt lat="45.57502330829809" lon="11.931134970926717"><ele>22.0</ele><time>2026-04-03T10:32:53Z</time></trkpt><trkpt lat="45.57496268042489" lon="11.931107832488038"><ele>22.0</ele><time>2026-04-03T10:32:54Z</time></trkpt><trkpt lat="45.574849168110745" lon="11.931056325918812"><ele>22.0</ele><time>2026-04-03T10:32:56Z</time></trkpt><trkpt lat="45.5747372989535" lon="11.93101249062257"><ele>22.0</ele><time>2026-04-03T10:32:58Z</time></trkpt><trkpt lat="45.57462715448453" lon="11.930962832089469"><ele>22.0</ele><time>2026-04-03T10:33:00Z</time></trkpt><trkpt lat="45.57451986859443" lon="11.93091990861842"><ele>22.200000000000003</ele><time>2026-04-03T10:33:02Z</time></trkpt><trkpt lat="45.57441558519992" lon="11.930873990287967"><ele>22.4</ele><time>2026-04-03T10:33:04Z</time></trkpt><trkpt lat="45.57430823925341" lon="11.930817019459736"><ele>22.6</ele><time>2026-04-03T10:33:06Z</time></trkpt><trkpt lat="45.574201212937496" lon="11.930772533849467"><ele>22.799999999999997</ele><time>2026-04-03T10:33:08Z</time></trkpt><trkpt lat="45.57410169708269" lon="11.930731929318238"><ele>23.0</ele><time>2026-04-03T10:33:10Z</time></trkpt><trkpt lat="45.57401753961225" lon="11.930672009069594"><ele>23.0</ele><time>2026-04-03T10:33:12Z</time></trkpt><trkpt lat="45.573935239126385" lon="11.930659522337214"><ele>23.0</ele><time>2026-04-03T10:33:14Z</time></trkpt><trkpt lat="45.57386304537337" lon="11.930623441922235"><ele>23.0</ele><time>2026-04-03T10:33:16Z</time></trkpt><trkpt lat="45.57379383739613" lon="11.93060451718837"><ele>23.0</ele><time>2026-04-03T10:33:18Z</time></trkpt><trkpt lat="45.57378335558427" lon="11.930759390965893"><ele>23.0</ele><time>2026-04-03T10:33:35Z</time></trkpt><trkpt lat="45.57389141803296" lon="11.930794922915661"><ele>23.0</ele><time>2026-04-03T10:33:38Z</time></trkpt><trkpt lat="45.57398330940583" lon="11.930845733647296"><ele>23.0</ele><time>2026-04-03T10:33:40Z</time></trkpt><trkpt lat="45.57405916837341" lon="11.930882365021985"><ele>23.0</ele><time>2026-04-03T10:33:43Z</time></trkpt><trkpt lat="45.57398231219765" lon="11.9308084027745"><ele>23.0</ele><time>2026-04-03T10:33:50Z</time></trkpt><trkpt lat="45.573889623609176" lon="11.930777176320802"><ele>23.0</ele><time>2026-04-03T10:33:53Z</time></trkpt><trkpt lat="45.57381755093225" lon="11.930750570017086"><ele>23.0</ele><time>2026-04-03T10:33:59.019Z</time></trkpt><trkpt lat="45.57374986333061" lon="11.930730020206889"><ele>23.0</ele><time>2026-04-03T10:34:04.023Z</time></trkpt><trkpt lat="45.573859029111496" lon="11.930400504809754"><ele>23.0</ele><time>2026-04-03T10:34:06Z</time></trkpt><trkpt lat="45.57394612311314" lon="11.930267527070844"><ele>23.0</ele><time>2026-04-03T10:34:07Z</time></trkpt><trkpt lat="45.57396424482055" lon="11.930149129215362"><ele>23.0</ele><time>2026-04-03T10:34:09Z</time></trkpt><trkpt lat="45.57397617625894" lon="11.930059578457206"><ele>23.0</ele><time>2026-04-03T10:34:11Z</time></trkpt><trkpt lat="45.57397813602642" lon="11.92996909709656"><ele>23.0</ele><time>2026-04-03T10:34:14Z</time></trkpt><trkpt lat="45.57404508609598" lon="11.929964040992635"><ele>23.0</ele><time>2026-04-03T10:34:28Z</time></trkpt><trkpt lat="45.574113358456664" lon="11.929963658666239"><ele>23.0</ele><time>2026-04-03T10:34:33Z</time></trkpt><trkpt lat="45.574175325776686" lon="11.929945453361853"><ele>23.0</ele><time>2026-04-03T10:34:38Z</time></trkpt><trkpt lat="45.57410606274273" lon="11.929909314768969"><ele>23.0</ele><time>2026-04-03T10:34:47Z</time></trkpt><trkpt lat="45.57402925350108" lon="11.929912519927997"><ele>23.0</ele><time>2026-04-03T10:34:52Z</time></trkpt><trkpt lat="45.57395804843554" lon="11.929910344953454"><ele>23.0</ele><time>2026-04-03T10:34:57Z</time></trkpt><trkpt lat="45.57388925317594" lon="11.92991328808754"><ele>23.0</ele><time>2026-04-03T10:35:03Z</time></trkpt><trkpt lat="45.57388251535303" lon="11.92981318002367"><ele>23.0</ele><time>2026-04-03T10:35:15Z</time></trkpt><trkpt lat="45.573873721469994" lon="11.929687172178713"><ele>23.0</ele><time>2026-04-03T10:35:19Z</time></trkpt><trkpt lat="45.57383686037409" lon="11.92957504986126"><ele>23.0</ele><time>2026-04-03T10:35:22Z</time></trkpt><trkpt lat="45.57378928739238" lon="11.929476098370067"><ele>23.0</ele><time>2026-04-03T10:35:25Z</time></trkpt><trkpt lat="45.573707924532954" lon="11.92941537007707"><ele>23.0</ele><time>2026-04-03T10:35:29Z</time></trkpt><trkpt lat="45.57365201734744" lon="11.929341319042242"><ele>23.0</ele><time>2026-04-03T10:35:31Z</time></trkpt><trkpt lat="45.57356223810026" lon="11.929328070620267"><ele>23.0</ele><time>2026-04-03T10:35:33Z</time></trkpt><trkpt lat="45.573466601772296" lon="11.929338730672956"><ele>22.599999999999998</ele><time>2026-04-03T10:35:35Z</time></trkpt><trkpt lat="45.57336698979487" lon="11.929346771112655"><ele>22.2</ele><time>2026-04-03T10:35:37Z</time></trkpt><trkpt lat="45.57326301497609" lon="11.929378179295618"><ele>21.8</ele><time>2026-04-03T10:35:39Z</time></trkpt><trkpt lat="45.57316567633719" lon="11.92940688729195"><ele>21.4</ele><time>2026-04-03T10:35:41Z</time></trkpt><trkpt lat="45.573081001599434" lon="11.929427561157642"><ele>21.0</ele><time>2026-04-03T10:35:43Z</time></trkpt><trkpt lat="45.57301279090779" lon="11.929498788338815"><ele>21.0</ele><time>2026-04-03T10:35:45Z</time></trkpt><trkpt lat="45.57291282511252" lon="11.929516142435437"><ele>21.0</ele><time>2026-04-03T10:35:47Z</time></trkpt><trkpt lat="45.57281332364572" lon="11.929531845051033"><ele>21.0</ele><time>2026-04-03T10:35:49Z</time></trkpt><trkpt lat="45.572706635328316" lon="11.929540208019304"><ele>21.0</ele><time>2026-04-03T10:35:51Z</time></trkpt><trkpt lat="45.57259820652812" lon="11.92950990575088"><ele>21.0</ele><time>2026-04-03T10:35:53Z</time></trkpt><trkpt lat="45.57250659139224" lon="11.929484448022803"><ele>21.333333333333332</ele><time>2026-04-03T10:35:55Z</time></trkpt><trkpt lat="45.57243285412048" lon="11.92942438223309"><ele>21.666666666666668</ele><time>2026-04-03T10:35:57Z</time></trkpt><trkpt lat="45.572350624304136" lon="11.929366814420092"><ele>22.0</ele><time>2026-04-03T10:35:59Z</time></trkpt><trkpt lat="45.572272538398956" lon="11.929379596466317"><ele>22.333333333333336</ele><time>2026-04-03T10:36:01Z</time></trkpt><trkpt lat="45.57220460508017" lon="11.929346948666856"><ele>22.666666666666668</ele><time>2026-04-03T10:36:03Z</time></trkpt><trkpt lat="45.57210963052387" lon="11.929309773768846"><ele>23.0</ele><time>2026-04-03T10:36:05Z</time></trkpt><trkpt lat="45.572010841771615" lon="11.929297826812691"><ele>23.0</ele><time>2026-04-03T10:36:07Z</time></trkpt><trkpt lat="45.57190243503344" lon="11.929231845023905"><ele>23.0</ele><time>2026-04-03T10:36:09Z</time></trkpt><trkpt lat="45.57179604261669" lon="11.929182403691758"><ele>23.0</ele><time>2026-04-03T10:36:11Z</time></trkpt><trkpt lat="45.57169922352283" lon="11.929131440587177"><ele>23.0</ele><time>2026-04-03T10:36:13Z</time></trkpt><trkpt lat="45.57169069818988" lon="11.928908671433222"><ele>22.599999999999998</ele><time>2026-04-03T10:36:14Z</time></trkpt><trkpt lat="45.571613951412004" lon="11.928842436067788"><ele>22.2</ele><time>2026-04-03T10:36:16Z</time></trkpt><trkpt lat="45.571508697073504" lon="11.928766693090433"><ele>21.8</ele><time>2026-04-03T10:36:18Z</time></trkpt><trkpt lat="45.57140468809352" lon="11.928698631924304"><ele>21.4</ele><time>2026-04-03T10:36:20Z</time></trkpt><trkpt lat="45.57131025801165" lon="11.928629573040643"><ele>21.0</ele><time>2026-04-03T10:36:22Z</time></trkpt><trkpt lat="45.571230293501515" lon="11.928549735957727"><ele>21.0</ele><time>2026-04-03T10:36:24Z</time></trkpt><trkpt lat="45.57113570357342" lon="11.92845515114197"><ele>21.0</ele><time>2026-04-03T10:36:26Z</time></trkpt><trkpt lat="45.57107021999702" lon="11.928151777502157"><ele>21.0</ele><time>2026-04-03T10:36:27Z</time></trkpt><trkpt lat="45.57096725545647" lon="11.928112094692743"><ele>21.0</ele><time>2026-04-03T10:36:29Z</time></trkpt><trkpt lat="45.57085624937082" lon="11.92806656017169"><ele>21.0</ele><time>2026-04-03T10:36:31Z</time></trkpt><trkpt lat="45.57077599756281" lon="11.928030546392314"><ele>21.0</ele><time>2026-04-03T10:36:33Z</time></trkpt><trkpt lat="45.57066875089989" lon="11.927972869287494"><ele>21.0</ele><time>2026-04-03T10:36:35Z</time></trkpt><trkpt lat="45.57055273521938" lon="11.927934888489046"><ele>21.0</ele><time>2026-04-03T10:36:37Z</time></trkpt><trkpt lat="45.57048456737138" lon="11.927897910524292"><ele>21.0</ele><time>2026-04-03T10:36:38Z</time></trkpt><trkpt lat="45.570395714880526" lon="11.927855049415534"><ele>21.0</ele><time>2026-04-03T10:36:40Z</time></trkpt><trkpt lat="45.57029571282528" lon="11.927803104571709"><ele>21.0</ele><time>2026-04-03T10:36:42Z</time></trkpt><trkpt lat="45.57020075037154" lon="11.927753777523261"><ele>21.0</ele><time>2026-04-03T10:36:44Z</time></trkpt><trkpt lat="45.569926426563796" lon="11.928177318390174"><ele>21.0</ele><time>2026-04-03T10:36:47Z</time></trkpt><trkpt lat="45.56982048016904" lon="11.928137476843803"><ele>21.0</ele><time>2026-04-03T10:36:49Z</time></trkpt><trkpt lat="45.569722312984" lon="11.928089530890768"><ele>21.0</ele><time>2026-04-03T10:36:51Z</time></trkpt><trkpt lat="45.569620893232894" lon="11.928049354275656"><ele>21.0</ele><time>2026-04-03T10:36:53Z</time></trkpt><trkpt lat="45.56952112859657" lon="11.927999572050465"><ele>21.0</ele><time>2026-04-03T10:36:55Z</time></trkpt><trkpt lat="45.56941847928304" lon="11.927961751458776"><ele>21.200000000000003</ele><time>2026-04-03T10:36:57Z</time></trkpt><trkpt lat="45.56931280868387" lon="11.927921850724825"><ele>21.400000000000002</ele><time>2026-04-03T10:36:59Z</time></trkpt><trkpt lat="45.56921097915945" lon="11.92787623189631"><ele>21.6</ele><time>2026-04-03T10:37:01Z</time></trkpt><trkpt lat="45.56910477805648" lon="11.927834026003158"><ele>21.8</ele><time>2026-04-03T10:37:03Z</time></trkpt><trkpt lat="45.56900343544987" lon="11.927789805989867"><ele>22.0</ele><time>2026-04-03T10:37:05Z</time></trkpt><trkpt lat="45.568902370168516" lon="11.927749537289378"><ele>22.0</ele><time>2026-04-03T10:37:07Z</time></trkpt><trkpt lat="45.56880288630331" lon="11.927699582383212"><ele>22.0</ele><time>2026-04-03T10:37:09Z</time></trkpt><trkpt lat="45.56870615368368" lon="11.927660019752551"><ele>22.0</ele><time>2026-04-03T10:37:11Z</time></trkpt><trkpt lat="45.56861607911449" lon="11.927628509595495"><ele>22.0</ele><time>2026-04-03T10:37:13Z</time></trkpt><trkpt lat="45.56852403191483" lon="11.927580122093747"><ele>22.0</ele><time>2026-04-03T10:37:15Z</time></trkpt><trkpt lat="45.56842072415401" lon="11.927543204129329"><ele>22.0</ele><time>2026-04-03T10:37:17Z</time></trkpt><trkpt lat="45.56832136620226" lon="11.927499600933118"><ele>22.0</ele><time>2026-04-03T10:37:19Z</time></trkpt><trkpt lat="45.56822381539989" lon="11.927455338476898"><ele>22.0</ele><time>2026-04-03T10:37:21Z</time></trkpt><trkpt lat="45.56812155939485" lon="11.927415808115635"><ele>22.0</ele><time>2026-04-03T10:37:23Z</time></trkpt><trkpt lat="45.56802192935196" lon="11.927375224437395"><ele>22.0</ele><time>2026-04-03T10:37:25Z</time></trkpt><trkpt lat="45.56792146390168" lon="11.927334919522584"><ele>22.0</ele><time>2026-04-03T10:37:27Z</time></trkpt><trkpt lat="45.56781925333393" lon="11.927292425583195"><ele>22.0</ele><time>2026-04-03T10:37:29Z</time></trkpt><trkpt lat="45.567714536861324" lon="11.927249223569984"><ele>22.0</ele><time>2026-04-03T10:37:31Z</time></trkpt><trkpt lat="45.56760614644794" lon="11.92720242199874"><ele>22.0</ele><time>2026-04-03T10:37:33Z</time></trkpt><trkpt lat="45.56749759171585" lon="11.92715742162597"><ele>22.0</ele><time>2026-04-03T10:37:35Z</time></trkpt><trkpt lat="45.56738879072573" lon="11.927113439920717"><ele>22.0</ele><time>2026-04-03T10:37:37Z</time></trkpt><trkpt lat="45.56727907233445" lon="11.92707421775192"><ele>22.0</ele><time>2026-04-03T10:37:39Z</time></trkpt><trkpt lat="45.567170712322174" lon="11.927034633820035"><ele>22.0</ele><time>2026-04-03T10:37:41Z</time></trkpt><trkpt lat="45.56706211775442" lon="11.926994472089383"><ele>22.0</ele><time>2026-04-03T10:37:43Z</time></trkpt><trkpt lat="45.56695323785718" lon="11.92695344712977"><ele>21.8</ele><time>2026-04-03T10:37:45Z</time></trkpt><trkpt lat="45.56684558609964" lon="11.926911164899634"><ele>21.6</ele><time>2026-04-03T10:37:47Z</time></trkpt><trkpt lat="45.5667349439245" lon="11.926871395927307"><ele>21.400000000000002</ele><time>2026-04-03T10:37:49Z</time></trkpt><trkpt lat="45.566625549748984" lon="11.926837199668917"><ele>21.200000000000003</ele><time>2026-04-03T10:37:51Z</time></trkpt><trkpt lat="45.566519545114915" lon="11.926792994637012"><ele>21.0</ele><time>2026-04-03T10:37:53Z</time></trkpt><trkpt lat="45.566408405963685" lon="11.926754990129634"><ele>21.0</ele><time>2026-04-03T10:37:55Z</time></trkpt><trkpt lat="45.56629925325055" lon="11.92671997343713"><ele>21.0</ele><time>2026-04-03T10:37:57Z</time></trkpt><trkpt lat="45.56619052587799" lon="11.9266782009895"><ele>21.0</ele><time>2026-04-03T10:37:59Z</time></trkpt><trkpt lat="45.56608354912324" lon="11.926629382745073"><ele>21.0</ele><time>2026-04-03T10:38:01Z</time></trkpt><trkpt lat="45.56597445903165" lon="11.926594866512074"><ele>21.0</ele><time>2026-04-03T10:38:03Z</time></trkpt><trkpt lat="45.565865187703096" lon="11.926560642883762"><ele>21.0</ele><time>2026-04-03T10:38:05Z</time></trkpt><trkpt lat="45.56575603355877" lon="11.926523238471226"><ele>21.0</ele><time>2026-04-03T10:38:07Z</time></trkpt><trkpt lat="45.56564526074282" lon="11.926501836229303"><ele>21.0</ele><time>2026-04-03T10:38:09Z</time></trkpt><trkpt lat="45.565533462095765" lon="11.926469251386205"><ele>21.0</ele><time>2026-04-03T10:38:11Z</time></trkpt><trkpt lat="45.56542089688229" lon="11.926443327047316"><ele>21.0</ele><time>2026-04-03T10:38:13Z</time></trkpt><trkpt lat="45.56530774918883" lon="11.926421929285905"><ele>21.0</ele><time>2026-04-03T10:38:15Z</time></trkpt><trkpt lat="45.56519715377462" lon="11.926388665060715"><ele>21.0</ele><time>2026-04-03T10:38:17Z</time></trkpt><trkpt lat="45.5650960576667" lon="11.92635272924109"><ele>21.0</ele><time>2026-04-03T10:38:19Z</time></trkpt><trkpt lat="45.56499165873918" lon="11.926306279315948"><ele>21.0</ele><time>2026-04-03T10:38:21Z</time></trkpt><trkpt lat="45.5648832140022" lon="11.926270738463018"><ele>21.0</ele><time>2026-04-03T10:38:23Z</time></trkpt><trkpt lat="45.564781046494765" lon="11.926268857459032"><ele>21.0</ele><time>2026-04-03T10:38:25Z</time></trkpt><trkpt lat="45.56466721580194" lon="11.92621444620788"><ele>21.0</ele><time>2026-04-03T10:38:27Z</time></trkpt><trkpt lat="45.564561102010344" lon="11.926162057155683"><ele>21.0</ele><time>2026-04-03T10:38:29Z</time></trkpt><trkpt lat="45.5644540064732" lon="11.926109825483735"><ele>21.0</ele><time>2026-04-03T10:38:31Z</time></trkpt><trkpt lat="45.56434472276619" lon="11.926060360587933"><ele>21.0</ele><time>2026-04-03T10:38:33Z</time></trkpt><trkpt lat="45.564244448562754" lon="11.92602029845638"><ele>21.0</ele><time>2026-04-03T10:38:35Z</time></trkpt><trkpt lat="45.564129038426614" lon="11.925980688530107"><ele>21.0</ele><time>2026-04-03T10:38:37Z</time></trkpt><trkpt lat="45.564022151365705" lon="11.925936337889379"><ele>21.0</ele><time>2026-04-03T10:38:39Z</time></trkpt><trkpt lat="45.56391380938679" lon="11.925898313805545"><ele>21.0</ele><time>2026-04-03T10:38:41Z</time></trkpt><trkpt lat="45.56380819182346" lon="11.925858661542408"><ele>21.200000000000003</ele><time>2026-04-03T10:38:43Z</time></trkpt><trkpt lat="45.563701941374454" lon="11.925812138641579"><ele>21.400000000000002</ele><time>2026-04-03T10:38:45Z</time></trkpt><trkpt lat="45.56359759439024" lon="11.925766239367412"><ele>21.6</ele><time>2026-04-03T10:38:47Z</time></trkpt><trkpt lat="45.56349141849604" lon="11.925716591601553"><ele>21.8</ele><time>2026-04-03T10:38:49Z</time></trkpt><trkpt lat="45.563393694173655" lon="11.925659447035075"><ele>22.0</ele><time>2026-04-03T10:38:51Z</time></trkpt><trkpt lat="45.56330052434695" lon="11.925617757344725"><ele>22.0</ele><time>2026-04-03T10:38:53Z</time></trkpt><trkpt lat="45.563215719632325" lon="11.925561537426454"><ele>22.0</ele><time>2026-04-03T10:38:55Z</time></trkpt><trkpt lat="45.56313197794075" lon="11.925492326685484"><ele>22.0</ele><time>2026-04-03T10:38:57Z</time></trkpt><trkpt lat="45.563054305378536" lon="11.925394924229884"><ele>22.0</ele><time>2026-04-03T10:38:59Z</time></trkpt><trkpt lat="45.562967911162765" lon="11.92530095346953"><ele>22.0</ele><time>2026-04-03T10:39:01Z</time></trkpt><trkpt lat="45.5628696982133" lon="11.925226004195874"><ele>22.0</ele><time>2026-04-03T10:39:03Z</time></trkpt><trkpt lat="45.56277251641518" lon="11.925158622176685"><ele>22.0</ele><time>2026-04-03T10:39:05Z</time></trkpt><trkpt lat="45.56267803938333" lon="11.925084416982962"><ele>22.0</ele><time>2026-04-03T10:39:07Z</time></trkpt><trkpt lat="45.56258686337718" lon="11.92500074784953"><ele>22.0</ele><time>2026-04-03T10:39:09Z</time></trkpt><trkpt lat="45.56249842409445" lon="11.924906199525863"><ele>22.0</ele><time>2026-04-03T10:39:11Z</time></trkpt><trkpt lat="45.562412432953316" lon="11.924817683997027"><ele>21.8</ele><time>2026-04-03T10:39:13Z</time></trkpt><trkpt lat="45.56233910444327" lon="11.924720694817408"><ele>21.6</ele><time>2026-04-03T10:39:15Z</time></trkpt><trkpt lat="45.56223165213692" lon="11.924703116028908"><ele>21.400000000000002</ele><time>2026-04-03T10:39:17Z</time></trkpt><trkpt lat="45.562131587832155" lon="11.924761030411236"><ele>21.200000000000003</ele><time>2026-04-03T10:39:19Z</time></trkpt><trkpt lat="45.56202579745559" lon="11.924794637038927"><ele>21.0</ele><time>2026-04-03T10:39:21Z</time></trkpt><trkpt lat="45.56193009140053" lon="11.924721868328437"><ele>21.0</ele><time>2026-04-03T10:39:23Z</time></trkpt><trkpt lat="45.561844177046716" lon="11.924630223294495"><ele>21.0</ele><time>2026-04-03T10:39:25Z</time></trkpt><trkpt lat="45.561757139226145" lon="11.924539474493777"><ele>21.0</ele><time>2026-04-03T10:39:27Z</time></trkpt><trkpt lat="45.561724207206225" lon="11.92415758407284"><ele>21.333333333333332</ele><time>2026-04-03T10:39:29Z</time></trkpt><trkpt lat="45.56166027431162" lon="11.924133955643171"><ele>21.666666666666668</ele><time>2026-04-03T10:39:30Z</time></trkpt><trkpt lat="45.561543165880366" lon="11.924090226486458"><ele>22.0</ele><time>2026-04-03T10:39:32Z</time></trkpt><trkpt lat="45.56148165122526" lon="11.924066979883703"><ele>22.333333333333336</ele><time>2026-04-03T10:39:33Z</time></trkpt><trkpt lat="45.561418227276775" lon="11.924043011942615"><ele>22.666666666666668</ele><time>2026-04-03T10:39:34Z</time></trkpt><trkpt lat="45.56130237302562" lon="11.923999230511107"><ele>23.0</ele><time>2026-04-03T10:39:36Z</time></trkpt><trkpt lat="45.56119230289955" lon="11.923957106668889"><ele>22.2</ele><time>2026-04-03T10:39:38Z</time></trkpt><trkpt lat="45.56108562380178" lon="11.923916102993097"><ele>21.4</ele><time>2026-04-03T10:39:40Z</time></trkpt><trkpt lat="45.56098101125043" lon="11.923875893585"><ele>20.599999999999998</ele><time>2026-04-03T10:39:42Z</time></trkpt><trkpt lat="45.560880631464535" lon="11.923836494111447"><ele>19.799999999999997</ele><time>2026-04-03T10:39:44Z</time></trkpt><trkpt lat="45.56077009686419" lon="11.923792963951929"><ele>19.0</ele><time>2026-04-03T10:39:46Z</time></trkpt><trkpt lat="45.56060457830287" lon="11.924004515919075"><ele>19.0</ele><time>2026-04-03T10:39:48Z</time></trkpt><trkpt lat="45.560490858999984" lon="11.923962900843495"><ele>19.0</ele><time>2026-04-03T10:39:50Z</time></trkpt><trkpt lat="45.56037736037318" lon="11.92391109607424"><ele>19.0</ele><time>2026-04-03T10:39:52Z</time></trkpt><trkpt lat="45.56026500406633" lon="11.92386194973752"><ele>19.0</ele><time>2026-04-03T10:39:54Z</time></trkpt><trkpt lat="45.56015311124035" lon="11.923825589858504"><ele>19.2</ele><time>2026-04-03T10:39:56Z</time></trkpt><trkpt lat="45.560045569106094" lon="11.923777496043764"><ele>19.4</ele><time>2026-04-03T10:39:58Z</time></trkpt><trkpt lat="45.55993890439309" lon="11.923737944480253"><ele>19.6</ele><time>2026-04-03T10:40:00Z</time></trkpt><trkpt lat="45.5598359579371" lon="11.923695749045745"><ele>19.8</ele><time>2026-04-03T10:40:02Z</time></trkpt><trkpt lat="45.55972815498922" lon="11.923655356219095"><ele>20.0</ele><time>2026-04-03T10:40:04Z</time></trkpt><trkpt lat="45.55961852291636" lon="11.923608958648057"><ele>20.0</ele><time>2026-04-03T10:40:06Z</time></trkpt><trkpt lat="45.55950619755566" lon="11.923562143235543"><ele>20.0</ele><time>2026-04-03T10:40:08Z</time></trkpt><trkpt lat="45.5593926541402" lon="11.923519747571179"><ele>20.0</ele><time>2026-04-03T10:40:10Z</time></trkpt><trkpt lat="45.55928036175074" lon="11.923476194143587"><ele>20.0</ele><time>2026-04-03T10:40:12Z</time></trkpt><trkpt lat="45.559172396492606" lon="11.923436298515725"><ele>20.0</ele><time>2026-04-03T10:40:14Z</time></trkpt><trkpt lat="45.559058957585165" lon="11.923404020621613"><ele>20.0</ele><time>2026-04-03T10:40:16Z</time></trkpt><trkpt lat="45.55894894872737" lon="11.923363388920318"><ele>20.0</ele><time>2026-04-03T10:40:18Z</time></trkpt><trkpt lat="45.55883831399398" lon="11.923340135108873"><ele>20.0</ele><time>2026-04-03T10:40:20Z</time></trkpt><trkpt lat="45.55872511308769" lon="11.92331421799069"><ele>19.75</ele><time>2026-04-03T10:40:22Z</time></trkpt><trkpt lat="45.558608783522594" lon="11.923276707890867"><ele>19.5</ele><time>2026-04-03T10:40:24Z</time></trkpt><trkpt lat="45.55849155843777" lon="11.923244179679456"><ele>19.25</ele><time>2026-04-03T10:40:26Z</time></trkpt><trkpt lat="45.558376766637316" lon="11.92323093642129"><ele>19.0</ele><time>2026-04-03T10:40:28Z</time></trkpt><trkpt lat="45.55826569207719" lon="11.923234564639909"><ele>19.0</ele><time>2026-04-03T10:40:30Z</time></trkpt><trkpt lat="45.5581547035212" lon="11.923238830715187"><ele>19.0</ele><time>2026-04-03T10:40:32Z</time></trkpt><trkpt lat="45.558047664298016" lon="11.923243617867035"><ele>19.0</ele><time>2026-04-03T10:40:34Z</time></trkpt><trkpt lat="45.55794363112194" lon="11.923210673534754"><ele>19.0</ele><time>2026-04-03T10:40:36Z</time></trkpt><trkpt lat="45.55787466151491" lon="11.923091587497776"><ele>19.0</ele><time>2026-04-03T10:40:38Z</time></trkpt><trkpt lat="45.557861194172176" lon="11.923002284726435"><ele>19.0</ele><time>2026-04-03T10:40:39Z</time></trkpt><trkpt lat="45.55786266328532" lon="11.922885744031273"><ele>19.0</ele><time>2026-04-03T10:40:41Z</time></trkpt><trkpt lat="45.5578739718909" lon="11.922754054792543"><ele>19.0</ele><time>2026-04-03T10:40:43Z</time></trkpt><trkpt lat="45.55791408220547" lon="11.922623763203545"><ele>19.0</ele><time>2026-04-03T10:40:45Z</time></trkpt><trkpt lat="45.558012345067894" lon="11.92254718381983"><ele>19.0</ele><time>2026-04-03T10:40:47Z</time></trkpt><trkpt lat="45.55812512172575" lon="11.922553398395381"><ele>19.0</ele><time>2026-04-03T10:40:49Z</time></trkpt><trkpt lat="45.55824012304478" lon="11.922588031543341"><ele>19.0</ele><time>2026-04-03T10:40:51Z</time></trkpt><trkpt lat="45.55835209500503" lon="11.922622680013118"><ele>19.0</ele><time>2026-04-03T10:40:53Z</time></trkpt><trkpt lat="45.55845788448939" lon="11.922656340959291"><ele>19.0</ele><time>2026-04-03T10:40:55Z</time></trkpt><trkpt lat="45.558554204588575" lon="11.922696447923938"><ele>19.0</ele><time>2026-04-03T10:40:57Z</time></trkpt><trkpt lat="45.558653952522796" lon="11.92272899809503"><ele>19.0</ele><time>2026-04-03T10:40:59Z</time></trkpt><trkpt lat="45.55875808211274" lon="11.922763713862702"><ele>19.0</ele><time>2026-04-03T10:41:01Z</time></trkpt><trkpt lat="45.55885092101761" lon="11.922804209167099"><ele>19.0</ele><time>2026-04-03T10:41:03Z</time></trkpt><trkpt lat="45.558954930430176" lon="11.922842923144636"><ele>19.0</ele><time>2026-04-03T10:41:05Z</time></trkpt><trkpt lat="45.55906168271993" lon="11.922898348211294"><ele>19.0</ele><time>2026-04-03T10:41:07Z</time></trkpt><trkpt lat="45.55917248689424" lon="11.922943036462689"><ele>19.0</ele><time>2026-04-03T10:41:09Z</time></trkpt><trkpt lat="45.55928348325427" lon="11.92299429644031"><ele>19.0</ele><time>2026-04-03T10:41:11Z</time></trkpt><trkpt lat="45.55939254374106" lon="11.923037874190483"><ele>19.0</ele><time>2026-04-03T10:41:13Z</time></trkpt><trkpt lat="45.55949900640955" lon="11.923087280168534"><ele>19.0</ele><time>2026-04-03T10:41:15Z</time></trkpt><trkpt lat="45.5596066618232" lon="11.923129385184625"><ele>19.0</ele><time>2026-04-03T10:41:17Z</time></trkpt><trkpt lat="45.55971782147668" lon="11.923175159819987"><ele>19.0</ele><time>2026-04-03T10:41:19Z</time></trkpt><trkpt lat="45.55983088928734" lon="11.923229818741525"><ele>19.0</ele><time>2026-04-03T10:41:21Z</time></trkpt><trkpt lat="45.559948011006824" lon="11.923284298782704"><ele>19.0</ele><time>2026-04-03T10:41:23Z</time></trkpt><trkpt lat="45.560008618460245" lon="11.923308990081503"><ele>19.0</ele><time>2026-04-03T10:41:24Z</time></trkpt><trkpt lat="45.560128732027266" lon="11.923360521186599"><ele>19.0</ele><time>2026-04-03T10:41:26Z</time></trkpt><trkpt lat="45.560248661357235" lon="11.923408700823403"><ele>19.0</ele><time>2026-04-03T10:41:28Z</time></trkpt><trkpt lat="45.56032692022959" lon="11.923667387245482"><ele>19.0</ele><time>2026-04-03T10:41:30Z</time></trkpt><trkpt lat="45.560446804502334" lon="11.923714817815044"><ele>19.0</ele><time>2026-04-03T10:41:32Z</time></trkpt><trkpt lat="45.56056229069928" lon="11.92376029892884"><ele>19.0</ele><time>2026-04-03T10:41:34Z</time></trkpt><trkpt lat="45.56067591017929" lon="11.923805043996012"><ele>19.0</ele><time>2026-04-03T10:41:36Z</time></trkpt><trkpt lat="45.56078601845681" lon="11.92384840625851"><ele>19.0</ele><time>2026-04-03T10:41:38Z</time></trkpt><trkpt lat="45.56089109656408" lon="11.92388978763201"><ele>19.0</ele><time>2026-04-03T10:41:40Z</time></trkpt><trkpt lat="45.56097527132352" lon="11.923922776583966"><ele>19.0</ele><time>2026-04-03T10:41:42Z</time></trkpt><trkpt lat="45.56104113278826" lon="11.923948091413582"><ele>19.0</ele><time>2026-04-03T10:41:44Z</time></trkpt><trkpt lat="45.56110658025831" lon="11.923633105720706"><ele>19.0</ele><time>2026-04-03T10:41:48Z</time></trkpt><trkpt lat="45.56105236860863" lon="11.92357496013519"><ele>19.0</ele><time>2026-04-03T10:41:50Z</time></trkpt><trkpt lat="45.5610083732839" lon="11.923495055000386"><ele>19.0</ele><time>2026-04-03T10:41:52Z</time></trkpt><trkpt lat="45.56094713333649" lon="11.923388300547307"><ele>19.5</ele><time>2026-04-03T10:41:54Z</time></trkpt><trkpt lat="45.56088305876443" lon="11.923265942449289"><ele>20.0</ele><time>2026-04-03T10:41:56Z</time></trkpt><trkpt lat="45.560820633169335" lon="11.923133862973337"><ele>20.5</ele><time>2026-04-03T10:41:58Z</time></trkpt><trkpt lat="45.56075686346451" lon="11.922995367907042"><ele>21.0</ele><time>2026-04-03T10:42:00Z</time></trkpt><trkpt lat="45.56068806845145" lon="11.922863445729535"><ele>21.0</ele><time>2026-04-03T10:42:02Z</time></trkpt><trkpt lat="45.56062677106996" lon="11.922731877658267"><ele>21.0</ele><time>2026-04-03T10:42:04Z</time></trkpt><trkpt lat="45.56057048235642" lon="11.922588743188813"><ele>21.0</ele><time>2026-04-03T10:42:06Z</time></trkpt><trkpt lat="45.56051750767539" lon="11.92243912168792"><ele>21.0</ele><time>2026-04-03T10:42:08Z</time></trkpt><trkpt lat="45.5604673963542" lon="11.922285104979867"><ele>21.0</ele><time>2026-04-03T10:42:10Z</time></trkpt><trkpt lat="45.560412166782776" lon="11.922139028449864"><ele>21.0</ele><time>2026-04-03T10:42:12Z</time></trkpt><trkpt lat="45.560368795850756" lon="11.9219853881708"><ele>21.0</ele><time>2026-04-03T10:42:14Z</time></trkpt><trkpt lat="45.56032000389191" lon="11.921834260638747"><ele>21.0</ele><time>2026-04-03T10:42:16Z</time></trkpt><trkpt lat="45.56027585799136" lon="11.921682881145593"><ele>21.0</ele><time>2026-04-03T10:42:18Z</time></trkpt><trkpt lat="45.56023315248481" lon="11.921536781326214"><ele>21.0</ele><time>2026-04-03T10:42:20Z</time></trkpt><trkpt lat="45.56019833172019" lon="11.921386429252632"><ele>21.0</ele><time>2026-04-03T10:42:22Z</time></trkpt><trkpt lat="45.560166425516734" lon="11.921232747863801"><ele>21.0</ele><time>2026-04-03T10:42:24Z</time></trkpt><trkpt lat="45.56013496533023" lon="11.921074680727505"><ele>21.0</ele><time>2026-04-03T10:42:26Z</time></trkpt><trkpt lat="45.56010081927352" lon="11.920924385043875"><ele>21.0</ele><time>2026-04-03T10:42:28Z</time></trkpt><trkpt lat="45.56006831470396" lon="11.920760904157397"><ele>21.0</ele><time>2026-04-03T10:42:30Z</time></trkpt><trkpt lat="45.560029780730744" lon="11.920604482696339"><ele>21.0</ele><time>2026-04-03T10:42:32Z</time></trkpt><trkpt lat="45.559996344621936" lon="11.92043911501502"><ele>21.0</ele><time>2026-04-03T10:42:34Z</time></trkpt><trkpt lat="45.559959599919125" lon="11.920283983421475"><ele>21.0</ele><time>2026-04-03T10:42:36Z</time></trkpt><trkpt lat="45.5599298553892" lon="11.920120377285295"><ele>21.0</ele><time>2026-04-03T10:42:38Z</time></trkpt><trkpt lat="45.55989441489295" lon="11.9199594043289"><ele>21.0</ele><time>2026-04-03T10:42:40Z</time></trkpt><trkpt lat="45.559863822058986" lon="11.919800520768957"><ele>21.0</ele><time>2026-04-03T10:42:42Z</time></trkpt><trkpt lat="45.55982487758256" lon="11.91964364066458"><ele>20.75</ele><time>2026-04-03T10:42:44Z</time></trkpt><trkpt lat="45.559790136786496" lon="11.91948223953852"><ele>20.5</ele><time>2026-04-03T10:42:46Z</time></trkpt><trkpt lat="45.55975400164341" lon="11.919321678502634"><ele>20.25</ele><time>2026-04-03T10:42:48Z</time></trkpt><trkpt lat="45.559716518292596" lon="11.91916481481361"><ele>20.0</ele><time>2026-04-03T10:42:50Z</time></trkpt><trkpt lat="45.55968487213481" lon="11.91899640572151"><ele>20.0</ele><time>2026-04-03T10:42:52Z</time></trkpt><trkpt lat="45.55964779969145" lon="11.91884049179247"><ele>20.0</ele><time>2026-04-03T10:42:54Z</time></trkpt><trkpt lat="45.55961667291508" lon="11.91869046152074"><ele>20.0</ele><time>2026-04-03T10:42:56Z</time></trkpt><trkpt lat="45.55958607240017" lon="11.918547834840584"><ele>20.0</ele><time>2026-04-03T10:42:58Z</time></trkpt><trkpt lat="45.559549109806035" lon="11.918393209865231"><ele>20.0</ele><time>2026-04-03T10:43:00Z</time></trkpt><trkpt lat="45.55952112941755" lon="11.918239883729045"><ele>20.0</ele><time>2026-04-03T10:43:02Z</time></trkpt><trkpt lat="45.55949105476431" lon="11.91809244239059"><ele>20.0</ele><time>2026-04-03T10:43:04Z</time></trkpt><trkpt lat="45.55945650085513" lon="11.917943071571594"><ele>20.0</ele><time>2026-04-03T10:43:06Z</time></trkpt><trkpt lat="45.55942593531787" lon="11.917804829398321"><ele>20.0</ele><time>2026-04-03T10:43:08Z</time></trkpt><trkpt lat="45.55939932206497" lon="11.917712721814125"><ele>20.0</ele><time>2026-04-03T10:43:10Z</time></trkpt><trkpt lat="45.55937544732341" lon="11.917616602500114"><ele>20.0</ele><time>2026-04-03T10:43:12Z</time></trkpt><trkpt lat="45.559367571217116" lon="11.917496472550825"><ele>20.0</ele><time>2026-04-03T10:43:14Z</time></trkpt><trkpt lat="45.559342960434805" lon="11.917374868627496"><ele>20.0</ele><time>2026-04-03T10:43:16Z</time></trkpt><trkpt lat="45.55930474545809" lon="11.917240112206281"><ele>20.0</ele><time>2026-04-03T10:43:18Z</time></trkpt><trkpt lat="45.55927276860046" lon="11.917096243012987"><ele>20.0</ele><time>2026-04-03T10:43:20Z</time></trkpt><trkpt lat="45.55924399461105" lon="11.916950610095936"><ele>20.0</ele><time>2026-04-03T10:43:22Z</time></trkpt><trkpt lat="45.5592172218697" lon="11.916810184868064"><ele>20.0</ele><time>2026-04-03T10:43:24Z</time></trkpt><trkpt lat="45.559191724892635" lon="11.916672485202456"><ele>20.0</ele><time>2026-04-03T10:43:26Z</time></trkpt><trkpt lat="45.55915812029176" lon="11.91653216423895"><ele>20.0</ele><time>2026-04-03T10:43:28Z</time></trkpt><trkpt lat="45.55912688477651" lon="11.916386140780551"><ele>20.0</ele><time>2026-04-03T10:43:30Z</time></trkpt><trkpt lat="45.559095446541974" lon="11.916245605165289"><ele>20.2</ele><time>2026-04-03T10:43:32Z</time></trkpt><trkpt lat="45.55905912883077" lon="11.916110685908885"><ele>20.4</ele><time>2026-04-03T10:43:34Z</time></trkpt><trkpt lat="45.55903009616667" lon="11.915968336180597"><ele>20.6</ele><time>2026-04-03T10:43:36Z</time></trkpt><trkpt lat="45.55900247559362" lon="11.915826001847563"><ele>20.8</ele><time>2026-04-03T10:43:38Z</time></trkpt><trkpt lat="45.55897263797721" lon="11.915684612665757"><ele>21.0</ele><time>2026-04-03T10:43:40Z</time></trkpt><trkpt lat="45.55894401690519" lon="11.915543247297265"><ele>21.0</ele><time>2026-04-03T10:43:42Z</time></trkpt><trkpt lat="45.55890879459469" lon="11.915414064431681"><ele>21.0</ele><time>2026-04-03T10:43:44Z</time></trkpt><trkpt lat="45.558882830489104" lon="11.915282652371333"><ele>21.0</ele><time>2026-04-03T10:43:46Z</time></trkpt><trkpt lat="45.55885888697156" lon="11.915145434582135"><ele>21.0</ele><time>2026-04-03T10:43:48Z</time></trkpt><trkpt lat="45.55882576703663" lon="11.915010806546238"><ele>21.0</ele><time>2026-04-03T10:43:50Z</time></trkpt><trkpt lat="45.55879955083958" lon="11.914881729723392"><ele>21.0</ele><time>2026-04-03T10:43:52Z</time></trkpt><trkpt lat="45.558778729698744" lon="11.914751697924999"><ele>21.0</ele><time>2026-04-03T10:43:54Z</time></trkpt><trkpt lat="45.558741591176364" lon="11.914616416521154"><ele>21.0</ele><time>2026-04-03T10:43:56Z</time></trkpt><trkpt lat="45.558705166098285" lon="11.914469202811174"><ele>21.0</ele><time>2026-04-03T10:43:58Z</time></trkpt><trkpt lat="45.55868018456923" lon="11.914313437950856"><ele>21.0</ele><time>2026-04-03T10:44:00Z</time></trkpt><trkpt lat="45.558654100648724" lon="11.914161660455225"><ele>20.8</ele><time>2026-04-03T10:44:02Z</time></trkpt><trkpt lat="45.558628044108275" lon="11.914007249941932"><ele>20.6</ele><time>2026-04-03T10:44:04Z</time></trkpt><trkpt lat="45.558594537966236" lon="11.913856090019467"><ele>20.4</ele><time>2026-04-03T10:44:06Z</time></trkpt><trkpt lat="45.558562788998444" lon="11.913708680103525"><ele>20.2</ele><time>2026-04-03T10:44:08Z</time></trkpt><trkpt lat="45.55852958576655" lon="11.913558162092723"><ele>20.0</ele><time>2026-04-03T10:44:10Z</time></trkpt><trkpt lat="45.55849614508475" lon="11.913413321903604"><ele>20.2</ele><time>2026-04-03T10:44:12Z</time></trkpt><trkpt lat="45.55846552126779" lon="11.913267836145593"><ele>20.4</ele><time>2026-04-03T10:44:14Z</time></trkpt><trkpt lat="45.55843952954366" lon="11.913119909293162"><ele>20.6</ele><time>2026-04-03T10:44:16Z</time></trkpt><trkpt lat="45.558402803320014" lon="11.912974622847319"><ele>20.8</ele><time>2026-04-03T10:44:18Z</time></trkpt><trkpt lat="45.55837141457497" lon="11.91282947267277"><ele>21.0</ele><time>2026-04-03T10:44:20Z</time></trkpt><trkpt lat="45.55834582954561" lon="11.912685130860343"><ele>20.6</ele><time>2026-04-03T10:44:22Z</time></trkpt><trkpt lat="45.55831107343164" lon="11.912540786389052"><ele>20.200000000000003</ele><time>2026-04-03T10:44:24Z</time></trkpt><trkpt lat="45.55828061423427" lon="11.912393572912643"><ele>19.799999999999997</ele><time>2026-04-03T10:44:26Z</time></trkpt><trkpt lat="45.55824981785652" lon="11.912256276272897"><ele>19.4</ele><time>2026-04-03T10:44:28Z</time></trkpt><trkpt lat="45.558233227871845" lon="11.912119144897797"><ele>19.0</ele><time>2026-04-03T10:44:30Z</time></trkpt><trkpt lat="45.558190700605316" lon="11.911994489641497"><ele>19.0</ele><time>2026-04-03T10:44:32Z</time></trkpt><trkpt lat="45.558160655242304" lon="11.911860738793605"><ele>19.0</ele><time>2026-04-03T10:44:34Z</time></trkpt><trkpt lat="45.558130169206656" lon="11.911725926950819"><ele>19.0</ele><time>2026-04-03T10:44:36Z</time></trkpt><trkpt lat="45.558101220570784" lon="11.911588881723906"><ele>19.0</ele><time>2026-04-03T10:44:38Z</time></trkpt><trkpt lat="45.558070834515284" lon="11.91144816382823"><ele>19.0</ele><time>2026-04-03T10:44:40Z</time></trkpt><trkpt lat="45.558045581548804" lon="11.911313296801035"><ele>19.4</ele><time>2026-04-03T10:44:42Z</time></trkpt><trkpt lat="45.55801444546719" lon="11.911192833133226"><ele>19.799999999999997</ele><time>2026-04-03T10:44:44Z</time></trkpt><trkpt lat="45.55799057133426" lon="11.911073790087572"><ele>20.200000000000003</ele><time>2026-04-03T10:44:46Z</time></trkpt><trkpt lat="45.55796525994838" lon="11.910954079667023"><ele>20.6</ele><time>2026-04-03T10:44:48Z</time></trkpt><trkpt lat="45.557928356086656" lon="11.910830264564158"><ele>21.0</ele><time>2026-04-03T10:44:50Z</time></trkpt><trkpt lat="45.55790340385461" lon="11.910697887215402"><ele>21.142857142857142</ele><time>2026-04-03T10:44:52Z</time></trkpt><trkpt lat="45.55790426863222" lon="11.910584137172185"><ele>21.285714285714285</ele><time>2026-04-03T10:44:54Z</time></trkpt><trkpt lat="45.557915529086856" lon="11.910480682462609"><ele>21.42857142857143</ele><time>2026-04-03T10:44:56Z</time></trkpt><trkpt lat="45.557932326413855" lon="11.910385174138"><ele>21.57142857142857</ele><time>2026-04-03T10:44:59Z</time></trkpt><trkpt lat="45.557874879946475" lon="11.910322193417764"><ele>21.714285714285715</ele><time>2026-04-03T10:45:07Z</time></trkpt><trkpt lat="45.557812151884725" lon="11.910295033609875"><ele>21.857142857142858</ele><time>2026-04-03T10:45:09Z</time></trkpt><trkpt lat="45.55777380738427" lon="11.91020822755804"><ele>22.0</ele><time>2026-04-03T10:45:11Z</time></trkpt><trkpt lat="45.55776337152851" lon="11.910087887986991"><ele>22.0</ele><time>2026-04-03T10:45:13Z</time></trkpt><trkpt lat="45.55775161640161" lon="11.90996874018346"><ele>22.0</ele><time>2026-04-03T10:45:15Z</time></trkpt><trkpt lat="45.55772106005893" lon="11.90984936817869"><ele>22.0</ele><time>2026-04-03T10:45:17Z</time></trkpt><trkpt lat="45.5577020802526" lon="11.909717190643573"><ele>22.0</ele><time>2026-04-03T10:45:19Z</time></trkpt><trkpt lat="45.557679170363855" lon="11.909576349365864"><ele>22.0</ele><time>2026-04-03T10:45:21Z</time></trkpt><trkpt lat="45.55764594245881" lon="11.909429213527185"><ele>22.0</ele><time>2026-04-03T10:45:23Z</time></trkpt><trkpt lat="45.55761733689648" lon="11.909280623174382"><ele>22.0</ele><time>2026-04-03T10:45:25Z</time></trkpt><trkpt lat="45.55758934363603" lon="11.90913545806521"><ele>22.0</ele><time>2026-04-03T10:45:27Z</time></trkpt><trkpt lat="45.55755388277674" lon="11.908998038031045"><ele>22.0</ele><time>2026-04-03T10:45:29Z</time></trkpt><trkpt lat="45.557525298433" lon="11.908844858985496"><ele>22.0</ele><time>2026-04-03T10:45:31Z</time></trkpt><trkpt lat="45.55749127380127" lon="11.908695957299685"><ele>22.0</ele><time>2026-04-03T10:45:33Z</time></trkpt><trkpt lat="45.557462409267565" lon="11.90854119532188"><ele>22.0</ele><time>2026-04-03T10:45:35Z</time></trkpt><trkpt lat="45.55742584860745" lon="11.908391122306206"><ele>22.0</ele><time>2026-04-03T10:45:37Z</time></trkpt><trkpt lat="45.557391800506394" lon="11.908241224236114"><ele>22.0</ele><time>2026-04-03T10:45:39Z</time></trkpt><trkpt lat="45.557363677861616" lon="11.90808385137242"><ele>22.0</ele><time>2026-04-03T10:45:41Z</time></trkpt><trkpt lat="45.5573309994277" lon="11.907936570632115"><ele>21.8</ele><time>2026-04-03T10:45:43Z</time></trkpt><trkpt lat="45.55729915056899" lon="11.907795179777516"><ele>21.6</ele><time>2026-04-03T10:45:45Z</time></trkpt><trkpt lat="45.55726859323088" lon="11.907651064626348"><ele>21.400000000000002</ele><time>2026-04-03T10:45:47Z</time></trkpt><trkpt lat="45.55723204289941" lon="11.90750525584972"><ele>21.200000000000003</ele><time>2026-04-03T10:45:49Z</time></trkpt><trkpt lat="45.55720620681701" lon="11.907361418692764"><ele>21.0</ele><time>2026-04-03T10:45:51Z</time></trkpt><trkpt lat="45.557178016528425" lon="11.907216832219023"><ele>20.5</ele><time>2026-04-03T10:45:53Z</time></trkpt><trkpt lat="45.5571430446286" lon="11.90706543386641"><ele>20.0</ele><time>2026-04-03T10:45:55Z</time></trkpt><trkpt lat="45.557109011571455" lon="11.90690349905178"><ele>19.5</ele><time>2026-04-03T10:45:57Z</time></trkpt><trkpt lat="45.55707928271221" lon="11.906746824992684"><ele>19.0</ele><time>2026-04-03T10:45:59Z</time></trkpt><trkpt lat="45.557045918668905" lon="11.906592083314443"><ele>19.25</ele><time>2026-04-03T10:46:01Z</time></trkpt><trkpt lat="45.55701892678486" lon="11.90643401111436"><ele>19.5</ele><time>2026-04-03T10:46:03Z</time></trkpt><trkpt lat="45.556982660085296" lon="11.906275768525088"><ele>19.75</ele><time>2026-04-03T10:46:05Z</time></trkpt><trkpt lat="45.55694994366754" lon="11.906115660368178"><ele>20.0</ele><time>2026-04-03T10:46:07Z</time></trkpt><trkpt lat="45.55691584834884" lon="11.905963700301186"><ele>20.0</ele><time>2026-04-03T10:46:09Z</time></trkpt><trkpt lat="45.5568824373726" lon="11.905799830532736"><ele>20.0</ele><time>2026-04-03T10:46:11Z</time></trkpt><trkpt lat="45.5568643828928" lon="11.905713670187303"><ele>20.0</ele><time>2026-04-03T10:46:12Z</time></trkpt><trkpt lat="45.55684589963543" lon="11.905622623448332"><ele>20.0</ele><time>2026-04-03T10:46:13Z</time></trkpt><trkpt lat="45.55682846299743" lon="11.905522544822793"><ele>20.0</ele><time>2026-04-03T10:46:14Z</time></trkpt><trkpt lat="45.55680846464086" lon="11.905429482036627"><ele>20.0</ele><time>2026-04-03T10:46:15Z</time></trkpt><trkpt lat="45.55678651425917" lon="11.905344799550198"><ele>20.0</ele><time>2026-04-03T10:46:16Z</time></trkpt><trkpt lat="45.55675999109558" lon="11.905179347751185"><ele>20.0</ele><time>2026-04-03T10:46:18Z</time></trkpt><trkpt lat="45.55672225908346" lon="11.905014871836004"><ele>20.0</ele><time>2026-04-03T10:46:20Z</time></trkpt><trkpt lat="45.55668302036456" lon="11.904845323584755"><ele>20.0</ele><time>2026-04-03T10:46:22Z</time></trkpt><trkpt lat="45.556651139233864" lon="11.904680469173345"><ele>19.75</ele><time>2026-04-03T10:46:24Z</time></trkpt><trkpt lat="45.55661475788831" lon="11.90452606847257"><ele>19.5</ele><time>2026-04-03T10:46:26Z</time></trkpt><trkpt lat="45.55658569129598" lon="11.904377809770814"><ele>19.25</ele><time>2026-04-03T10:46:28Z</time></trkpt><trkpt lat="45.55654832762125" lon="11.904221618074047"><ele>19.0</ele><time>2026-04-03T10:46:30Z</time></trkpt><trkpt lat="45.55651576106923" lon="11.904060997197455"><ele>19.0</ele><time>2026-04-03T10:46:32Z</time></trkpt><trkpt lat="45.5564819743843" lon="11.90389871312238"><ele>19.0</ele><time>2026-04-03T10:46:34Z</time></trkpt><trkpt lat="45.55644990674943" lon="11.903736946865981"><ele>19.0</ele><time>2026-04-03T10:46:36Z</time></trkpt><trkpt lat="45.55641022276194" lon="11.903577071729499"><ele>19.0</ele><time>2026-04-03T10:46:38Z</time></trkpt><trkpt lat="45.55638017940908" lon="11.903412295750625"><ele>19.0</ele><time>2026-04-03T10:46:40Z</time></trkpt><trkpt lat="45.55634816351928" lon="11.90325229609807"><ele>19.0</ele><time>2026-04-03T10:46:42Z</time></trkpt><trkpt lat="45.55630981811517" lon="11.903091899974367"><ele>19.0</ele><time>2026-04-03T10:46:44Z</time></trkpt><trkpt lat="45.55627853306635" lon="11.902924111353641"><ele>19.0</ele><time>2026-04-03T10:46:46Z</time></trkpt><trkpt lat="45.55624196839584" lon="11.902757594905843"><ele>19.0</ele><time>2026-04-03T10:46:48Z</time></trkpt><trkpt lat="45.556207709588264" lon="11.902601620069333"><ele>19.0</ele><time>2026-04-03T10:46:50Z</time></trkpt><trkpt lat="45.5561722872777" lon="11.902431763753265"><ele>19.0</ele><time>2026-04-03T10:46:52Z</time></trkpt><trkpt lat="45.556152268892646" lon="11.90234542859468"><ele>19.0</ele><time>2026-04-03T10:46:53Z</time></trkpt><trkpt lat="45.55610585330202" lon="11.902186669842377"><ele>19.0</ele><time>2026-04-03T10:46:55Z</time></trkpt><trkpt lat="45.55606778303008" lon="11.902018814025284"><ele>19.0</ele><time>2026-04-03T10:46:57Z</time></trkpt><trkpt lat="45.55602823022558" lon="11.90184730838736"><ele>19.0</ele><time>2026-04-03T10:46:59Z</time></trkpt><trkpt lat="45.556000240200156" lon="11.9016765399533"><ele>19.0</ele><time>2026-04-03T10:47:01Z</time></trkpt><trkpt lat="45.55596459455288" lon="11.901509515703193"><ele>19.0</ele><time>2026-04-03T10:47:03Z</time></trkpt><trkpt lat="45.55594614163488" lon="11.901422834735815"><ele>19.0</ele><time>2026-04-03T10:47:04Z</time></trkpt><trkpt lat="45.555927669772245" lon="11.901336767215634"><ele>19.0</ele><time>2026-04-03T10:47:05Z</time></trkpt><trkpt lat="45.555891550102494" lon="11.901183299588276"><ele>19.0</ele><time>2026-04-03T10:47:07Z</time></trkpt><trkpt lat="45.55585835711009" lon="11.901022374756014"><ele>19.0</ele><time>2026-04-03T10:47:09Z</time></trkpt><trkpt lat="45.55582481201294" lon="11.900865979495299"><ele>19.0</ele><time>2026-04-03T10:47:11Z</time></trkpt><trkpt lat="45.55579364677851" lon="11.90070534350839"><ele>19.25</ele><time>2026-04-03T10:47:13Z</time></trkpt><trkpt lat="45.55576035264913" lon="11.900544078163804"><ele>19.5</ele><time>2026-04-03T10:47:15Z</time></trkpt><trkpt lat="45.555728415940266" lon="11.900374708879774"><ele>19.75</ele><time>2026-04-03T10:47:17Z</time></trkpt><trkpt lat="45.55569566754397" lon="11.900214335720815"><ele>20.0</ele><time>2026-04-03T10:47:19Z</time></trkpt><trkpt lat="45.55565750482313" lon="11.900054762948281"><ele>20.0</ele><time>2026-04-03T10:47:21Z</time></trkpt><trkpt lat="45.555626350237866" lon="11.899891671165545"><ele>20.0</ele><time>2026-04-03T10:47:23Z</time></trkpt><trkpt lat="45.55558667382245" lon="11.899725767446752"><ele>20.0</ele><time>2026-04-03T10:47:25Z</time></trkpt><trkpt lat="45.55554800503198" lon="11.899571048908802"><ele>20.0</ele><time>2026-04-03T10:47:27Z</time></trkpt><trkpt lat="45.55551075025482" lon="11.899421915082206"><ele>20.0</ele><time>2026-04-03T10:47:29Z</time></trkpt><trkpt lat="45.555482989103915" lon="11.89926746645367"><ele>20.0</ele><time>2026-04-03T10:47:31Z</time></trkpt><trkpt lat="45.555445863369876" lon="11.899124637744274"><ele>20.0</ele><time>2026-04-03T10:47:33Z</time></trkpt><trkpt lat="45.55541674261251" lon="11.89898386937706"><ele>20.0</ele><time>2026-04-03T10:47:35Z</time></trkpt><trkpt lat="45.55539610383435" lon="11.898843157776682"><ele>20.0</ele><time>2026-04-03T10:47:37Z</time></trkpt><trkpt lat="45.555376258374885" lon="11.898720022597573"><ele>20.0</ele><time>2026-04-03T10:47:39Z</time></trkpt><trkpt lat="45.555390929121714" lon="11.898632160783897"><ele>20.0</ele><time>2026-04-03T10:47:41Z</time></trkpt><trkpt lat="45.55539005986513" lon="11.898539962037173"><ele>20.0</ele><time>2026-04-03T10:47:49Z</time></trkpt><trkpt lat="45.55535826532118" lon="11.898437771394088"><ele>20.0</ele><time>2026-04-03T10:47:52Z</time></trkpt><trkpt lat="45.5552842289455" lon="11.898387943027744"><ele>20.0</ele><time>2026-04-03T10:47:54Z</time></trkpt><trkpt lat="45.55526514962119" lon="11.898288639210623"><ele>20.0</ele><time>2026-04-03T10:47:56Z</time></trkpt><trkpt lat="45.5552611220124" lon="11.89819846612433"><ele>20.0</ele><time>2026-04-03T10:48:00Z</time></trkpt><trkpt lat="45.5552365342578" lon="11.898172500334972"><ele>20.0</ele><time>2026-04-03T10:55:50Z</time></trkpt><trkpt lat="45.55521757567841" lon="11.89805595579154"><ele>20.0</ele><time>2026-04-03T10:55:55Z</time></trkpt><trkpt lat="45.55518742887496" lon="11.897935622356709"><ele>20.0</ele><time>2026-04-03T10:55:58Z</time></trkpt><trkpt lat="45.55515659994082" lon="11.89782229407712"><ele>20.0</ele><time>2026-04-03T10:56:00Z</time></trkpt><trkpt lat="45.555129639295124" lon="11.897705611150915"><ele>20.0</ele><time>2026-04-03T10:56:02Z</time></trkpt><trkpt lat="45.555110749431186" lon="11.897575421711386"><ele>20.0</ele><time>2026-04-03T10:56:04Z</time></trkpt><trkpt lat="45.55509129290058" lon="11.897457761574861"><ele>20.0</ele><time>2026-04-03T10:56:06Z</time></trkpt><trkpt lat="45.55505384641" lon="11.897327725422361"><ele>20.0</ele><time>2026-04-03T10:56:08Z</time></trkpt><trkpt lat="45.55502213698669" lon="11.897203914319917"><ele>20.0</ele><time>2026-04-03T10:56:10Z</time></trkpt><trkpt lat="45.555004793652" lon="11.897063706669783"><ele>20.0</ele><time>2026-04-03T10:56:12Z</time></trkpt><trkpt lat="45.554976056940845" lon="11.896926199292446"><ele>20.0</ele><time>2026-04-03T10:56:14Z</time></trkpt><trkpt lat="45.55494981650849" lon="11.89679540448699"><ele>20.0</ele><time>2026-04-03T10:56:16Z</time></trkpt><trkpt lat="45.554917730986915" lon="11.896660956251226"><ele>20.0</ele><time>2026-04-03T10:56:18Z</time></trkpt><trkpt lat="45.5548934303328" lon="11.896521700613437"><ele>20.0</ele><time>2026-04-03T10:56:20Z</time></trkpt><trkpt lat="45.55485586393222" lon="11.896398773769432"><ele>20.0</ele><time>2026-04-03T10:56:22Z</time></trkpt><trkpt lat="45.554831015586466" lon="11.896279506885206"><ele>20.0</ele><time>2026-04-03T10:56:24Z</time></trkpt><trkpt lat="45.554814588328355" lon="11.896166706481278"><ele>20.0</ele><time>2026-04-03T10:56:26Z</time></trkpt><trkpt lat="45.55478877540883" lon="11.896072898545755"><ele>20.0</ele><time>2026-04-03T10:56:28Z</time></trkpt><trkpt lat="45.5547632411945" lon="11.895941416927808"><ele>20.0</ele><time>2026-04-03T10:56:30Z</time></trkpt><trkpt lat="45.55473508980241" lon="11.895803728449305"><ele>20.0</ele><time>2026-04-03T10:56:32Z</time></trkpt><trkpt lat="45.55469961952163" lon="11.895655301039666"><ele>20.0</ele><time>2026-04-03T10:56:34Z</time></trkpt><trkpt lat="45.55467320562285" lon="11.895502878610023"><ele>20.0</ele><time>2026-04-03T10:56:36Z</time></trkpt><trkpt lat="45.55464877375067" lon="11.895373849822338"><ele>20.0</ele><time>2026-04-03T10:56:37Z</time></trkpt><trkpt lat="45.55462284199869" lon="11.895277791935419"><ele>20.0</ele><time>2026-04-03T10:56:39Z</time></trkpt><trkpt lat="45.55459142659127" lon="11.89513137166928"><ele>20.0</ele><time>2026-04-03T10:56:41Z</time></trkpt><trkpt lat="45.55456462228714" lon="11.894983482505745"><ele>20.0</ele><time>2026-04-03T10:56:43Z</time></trkpt><trkpt lat="45.55452776807388" lon="11.894858945735704"><ele>20.4</ele><time>2026-04-03T10:56:45Z</time></trkpt><trkpt lat="45.55450191728076" lon="11.89470611210055"><ele>20.8</ele><time>2026-04-03T10:56:47Z</time></trkpt><trkpt lat="45.55447668159285" lon="11.894559332495586"><ele>21.200000000000003</ele><time>2026-04-03T10:56:49Z</time></trkpt><trkpt lat="45.55444462220979" lon="11.894423324597563"><ele>21.6</ele><time>2026-04-03T10:56:51Z</time></trkpt><trkpt lat="45.55441291497053" lon="11.894276388586318"><ele>22.0</ele><time>2026-04-03T10:56:53Z</time></trkpt><trkpt lat="45.55438035695856" lon="11.894142477577503"><ele>22.0</ele><time>2026-04-03T10:56:55Z</time></trkpt><trkpt lat="45.55434836093453" lon="11.89402373173202"><ele>22.0</ele><time>2026-04-03T10:56:57Z</time></trkpt><trkpt lat="45.55432785171759" lon="11.893899883163396"><ele>22.0</ele><time>2026-04-03T10:56:59Z</time></trkpt><trkpt lat="45.554302598375585" lon="11.893773776327219"><ele>22.0</ele><time>2026-04-03T10:57:01Z</time></trkpt><trkpt lat="45.55427133353695" lon="11.893644396554658"><ele>22.0</ele><time>2026-04-03T10:57:03Z</time></trkpt><trkpt lat="45.55424504265351" lon="11.89352659863234"><ele>21.6</ele><time>2026-04-03T10:57:05Z</time></trkpt><trkpt lat="45.554234382107616" lon="11.8934201684304"><ele>21.200000000000003</ele><time>2026-04-03T10:57:07Z</time></trkpt><trkpt lat="45.55420007615677" lon="11.893287194130526"><ele>20.8</ele><time>2026-04-03T10:57:09Z</time></trkpt><trkpt lat="45.55417887641587" lon="11.893141133797558"><ele>20.4</ele><time>2026-04-03T10:57:11Z</time></trkpt><trkpt lat="45.55413379034334" lon="11.893009345849427"><ele>20.0</ele><time>2026-04-03T10:57:13Z</time></trkpt><trkpt lat="45.554104332555674" lon="11.892877127057863"><ele>20.0</ele><time>2026-04-03T10:57:15Z</time></trkpt><trkpt lat="45.554078196999185" lon="11.892737343474339"><ele>20.0</ele><time>2026-04-03T10:57:17Z</time></trkpt><trkpt lat="45.55405851635712" lon="11.892582481915586"><ele>20.0</ele><time>2026-04-03T10:57:19Z</time></trkpt><trkpt lat="45.554021059028635" lon="11.892423166418743"><ele>20.0</ele><time>2026-04-03T10:57:21Z</time></trkpt><trkpt lat="45.55398913011187" lon="11.892265271958873"><ele>20.0</ele><time>2026-04-03T10:57:23Z</time></trkpt><trkpt lat="45.55395363050013" lon="11.89211160761277"><ele>20.25</ele><time>2026-04-03T10:57:25Z</time></trkpt><trkpt lat="45.55392660726683" lon="11.891955532954396"><ele>20.5</ele><time>2026-04-03T10:57:27Z</time></trkpt><trkpt lat="45.55388909688756" lon="11.891804208893822"><ele>20.75</ele><time>2026-04-03T10:57:29Z</time></trkpt><trkpt lat="45.55385384596886" lon="11.89164740919276"><ele>21.0</ele><time>2026-04-03T10:57:31Z</time></trkpt><trkpt lat="45.55381367656795" lon="11.891496354843126"><ele>21.25</ele><time>2026-04-03T10:57:33Z</time></trkpt><trkpt lat="45.55379176559906" lon="11.891333509781811"><ele>21.5</ele><time>2026-04-03T10:57:35Z</time></trkpt><trkpt lat="45.55376588302565" lon="11.89118036596392"><ele>21.75</ele><time>2026-04-03T10:57:37Z</time></trkpt><trkpt lat="45.55372709499719" lon="11.891025993132502"><ele>22.0</ele><time>2026-04-03T10:57:39Z</time></trkpt><trkpt lat="45.553692053175716" lon="11.890868516512525"><ele>22.0</ele><time>2026-04-03T10:57:41Z</time></trkpt><trkpt lat="45.55365590232641" lon="11.890710958087622"><ele>22.0</ele><time>2026-04-03T10:57:43Z</time></trkpt><trkpt lat="45.55362166922565" lon="11.890554345487578"><ele>22.0</ele><time>2026-04-03T10:57:45Z</time></trkpt><trkpt lat="45.55359165630847" lon="11.89039856422124"><ele>22.0</ele><time>2026-04-03T10:57:47Z</time></trkpt><trkpt lat="45.55355460788266" lon="11.890248920873931"><ele>22.0</ele><time>2026-04-03T10:57:49Z</time></trkpt><trkpt lat="45.55352125208162" lon="11.890096132763512"><ele>22.0</ele><time>2026-04-03T10:57:51Z</time></trkpt><trkpt lat="45.55348656147672" lon="11.88993973823683"><ele>22.0</ele><time>2026-04-03T10:57:53Z</time></trkpt><trkpt lat="45.553457689497876" lon="11.889780538887141"><ele>22.0</ele><time>2026-04-03T10:57:55Z</time></trkpt><trkpt lat="45.55342404370704" lon="11.889626058406362"><ele>21.75</ele><time>2026-04-03T10:57:57Z</time></trkpt><trkpt lat="45.55339811370656" lon="11.889472563395461"><ele>21.5</ele><time>2026-04-03T10:57:59Z</time></trkpt><trkpt lat="45.55336517827464" lon="11.889318350623991"><ele>21.25</ele><time>2026-04-03T10:58:01Z</time></trkpt><trkpt lat="45.55333259148072" lon="11.889164067269924"><ele>21.0</ele><time>2026-04-03T10:58:03Z</time></trkpt><trkpt lat="45.55329888519949" lon="11.889008750487125"><ele>21.0</ele><time>2026-04-03T10:58:05Z</time></trkpt><trkpt lat="45.553260271335134" lon="11.888848550189103"><ele>21.0</ele><time>2026-04-03T10:58:07Z</time></trkpt><trkpt lat="45.55322716745302" lon="11.888687968417441"><ele>21.0</ele><time>2026-04-03T10:58:09Z</time></trkpt><trkpt lat="45.55318805723876" lon="11.888530199907906"><ele>21.0</ele><time>2026-04-03T10:58:11Z</time></trkpt><trkpt lat="45.55315567023214" lon="11.88837179950176"><ele>21.0</ele><time>2026-04-03T10:58:13Z</time></trkpt><trkpt lat="45.55311726861085" lon="11.888219052832735"><ele>21.0</ele><time>2026-04-03T10:58:15Z</time></trkpt><trkpt lat="45.5530885636422" lon="11.88807598750148"><ele>21.0</ele><time>2026-04-03T10:58:17Z</time></trkpt><trkpt lat="45.55305662565634" lon="11.88795094760236"><ele>21.0</ele><time>2026-04-03T10:58:19Z</time></trkpt><trkpt lat="45.553031907811885" lon="11.887830861772848"><ele>21.0</ele><time>2026-04-03T10:58:21Z</time></trkpt><trkpt lat="45.553005520306414" lon="11.887718450764343"><ele>21.0</ele><time>2026-04-03T10:58:23Z</time></trkpt><trkpt lat="45.552980211238186" lon="11.887627334181598"><ele>21.0</ele><time>2026-04-03T10:58:25Z</time></trkpt><trkpt lat="45.55295404907588" lon="11.887535385997358"><ele>21.0</ele><time>2026-04-03T10:58:27Z</time></trkpt><trkpt lat="45.55295307602365" lon="11.887401527168127"><ele>21.0</ele><time>2026-04-03T10:58:29Z</time></trkpt><trkpt lat="45.552915108875" lon="11.887273639687299"><ele>21.0</ele><time>2026-04-03T10:58:31Z</time></trkpt><trkpt lat="45.55288744841819" lon="11.887134677064699"><ele>21.0</ele><time>2026-04-03T10:58:33Z</time></trkpt><trkpt lat="45.5528583365467" lon="11.886990892822785"><ele>20.8</ele><time>2026-04-03T10:58:35Z</time></trkpt><trkpt lat="45.552830869141395" lon="11.886849573163362"><ele>20.6</ele><time>2026-04-03T10:58:37Z</time></trkpt><trkpt lat="45.552796019718166" lon="11.8867049968611"><ele>20.4</ele><time>2026-04-03T10:58:39Z</time></trkpt><trkpt lat="45.55276154358742" lon="11.886554679497866"><ele>20.2</ele><time>2026-04-03T10:58:41Z</time></trkpt><trkpt lat="45.55272551827306" lon="11.886403320934505"><ele>20.0</ele><time>2026-04-03T10:58:43Z</time></trkpt><trkpt lat="45.55269294536633" lon="11.886240093524057"><ele>20.0</ele><time>2026-04-03T10:58:45Z</time></trkpt><trkpt lat="45.55266735160961" lon="11.886079082708385"><ele>20.0</ele><time>2026-04-03T10:58:47Z</time></trkpt><trkpt lat="45.55263157366865" lon="11.88592630242495"><ele>20.0</ele><time>2026-04-03T10:58:49Z</time></trkpt><trkpt lat="45.55260136943431" lon="11.885783975184195"><ele>20.0</ele><time>2026-04-03T10:58:51Z</time></trkpt><trkpt lat="45.55257736903901" lon="11.885642989368304"><ele>20.0</ele><time>2026-04-03T10:58:53Z</time></trkpt><trkpt lat="45.552541620884455" lon="11.885510540998117"><ele>20.2</ele><time>2026-04-03T10:58:55Z</time></trkpt><trkpt lat="45.5525160752485" lon="11.885357477752535"><ele>20.4</ele><time>2026-04-03T10:58:57Z</time></trkpt><trkpt lat="45.5524886862058" lon="11.885210345492704"><ele>20.6</ele><time>2026-04-03T10:58:59Z</time></trkpt><trkpt lat="45.55245624526223" lon="11.88505865297586"><ele>20.8</ele><time>2026-04-03T10:59:01Z</time></trkpt><trkpt lat="45.55242070804837" lon="11.884915250018887"><ele>21.0</ele><time>2026-04-03T10:59:03Z</time></trkpt><trkpt lat="45.55238881440263" lon="11.884762970535734"><ele>21.0</ele><time>2026-04-03T10:59:05Z</time></trkpt><trkpt lat="45.55236536229637" lon="11.884608142879083"><ele>21.0</ele><time>2026-04-03T10:59:07Z</time></trkpt><trkpt lat="45.55232506799771" lon="11.884459535197093"><ele>21.0</ele><time>2026-04-03T10:59:09Z</time></trkpt><trkpt lat="45.55229654857431" lon="11.884307259267361"><ele>21.0</ele><time>2026-04-03T10:59:11Z</time></trkpt><trkpt lat="45.55226669671411" lon="11.884157269018699"><ele>21.0</ele><time>2026-04-03T10:59:13Z</time></trkpt><trkpt lat="45.55222521720978" lon="11.884004545869102"><ele>21.200000000000003</ele><time>2026-04-03T10:59:15Z</time></trkpt><trkpt lat="45.552197489809956" lon="11.883860287452714"><ele>21.400000000000002</ele><time>2026-04-03T10:59:17Z</time></trkpt><trkpt lat="45.552164794380964" lon="11.883711794236516"><ele>21.6</ele><time>2026-04-03T10:59:19Z</time></trkpt><trkpt lat="45.552130532817976" lon="11.88355657396561"><ele>21.8</ele><time>2026-04-03T10:59:21Z</time></trkpt><trkpt lat="45.55209594681816" lon="11.88340503928138"><ele>22.0</ele><time>2026-04-03T10:59:23Z</time></trkpt><trkpt lat="45.55206402995379" lon="11.883252045880784"><ele>21.5</ele><time>2026-04-03T10:59:25Z</time></trkpt><trkpt lat="45.552032577482976" lon="11.883096475846065"><ele>21.0</ele><time>2026-04-03T10:59:27Z</time></trkpt><trkpt lat="45.55199743525558" lon="11.882944275543272"><ele>20.5</ele><time>2026-04-03T10:59:29Z</time></trkpt><trkpt lat="45.55196630846291" lon="11.882788569196984"><ele>20.0</ele><time>2026-04-03T10:59:31Z</time></trkpt><trkpt lat="45.55193356140244" lon="11.882637577173304"><ele>20.4</ele><time>2026-04-03T10:59:33Z</time></trkpt><trkpt lat="45.55189906483808" lon="11.882480668594942"><ele>20.8</ele><time>2026-04-03T10:59:35Z</time></trkpt><trkpt lat="45.55187139129091" lon="11.882323332336492"><ele>21.200000000000003</ele><time>2026-04-03T10:59:37Z</time></trkpt><trkpt lat="45.55184131720083" lon="11.882173217536485"><ele>21.6</ele><time>2026-04-03T10:59:39Z</time></trkpt><trkpt lat="45.55180797058049" lon="11.882027512582185"><ele>22.0</ele><time>2026-04-03T10:59:41Z</time></trkpt><trkpt lat="45.55177555510549" lon="11.881883936091802"><ele>22.0</ele><time>2026-04-03T10:59:43Z</time></trkpt><trkpt lat="45.55174367350932" lon="11.881748919272232"><ele>22.0</ele><time>2026-04-03T10:59:45Z</time></trkpt><trkpt lat="45.55171322733722" lon="11.881620504665111"><ele>22.0</ele><time>2026-04-03T10:59:47Z</time></trkpt><trkpt lat="45.55168618055165" lon="11.881491117850713"><ele>22.0</ele><time>2026-04-03T10:59:49Z</time></trkpt><trkpt lat="45.55165858790874" lon="11.88137786826219"><ele>22.0</ele><time>2026-04-03T10:59:51Z</time></trkpt><trkpt lat="45.55164904648002" lon="11.881267133582314"><ele>22.0</ele><time>2026-04-03T10:59:54Z</time></trkpt><trkpt lat="45.55166738294037" lon="11.881157335311688"><ele>22.0</ele><time>2026-04-03T11:00:00Z</time></trkpt><trkpt lat="45.55162605741886" lon="11.8810818915253"><ele>22.0</ele><time>2026-04-03T11:00:02Z</time></trkpt><trkpt lat="45.55158653077187" lon="11.880975569271095"><ele>22.0</ele><time>2026-04-03T11:00:04Z</time></trkpt><trkpt lat="45.55156492317542" lon="11.88083815437678"><ele>22.0</ele><time>2026-04-03T11:00:06Z</time></trkpt><trkpt lat="45.55153558527976" lon="11.880700922978122"><ele>22.0</ele><time>2026-04-03T11:00:08Z</time></trkpt><trkpt lat="45.551510342570566" lon="11.880550591535911"><ele>22.0</ele><time>2026-04-03T11:00:10Z</time></trkpt><trkpt lat="45.55146655935429" lon="11.880404873272699"><ele>22.0</ele><time>2026-04-03T11:00:12Z</time></trkpt><trkpt lat="45.55143043165906" lon="11.880258749489018"><ele>22.0</ele><time>2026-04-03T11:00:14Z</time></trkpt><trkpt lat="45.551402483144294" lon="11.88010289540226"><ele>22.0</ele><time>2026-04-03T11:00:16Z</time></trkpt><trkpt lat="45.55136845038027" lon="11.879949116154426"><ele>22.0</ele><time>2026-04-03T11:00:18Z</time></trkpt><trkpt lat="45.5513370286879" lon="11.87979753825246"><ele>22.0</ele><time>2026-04-03T11:00:20Z</time></trkpt><trkpt lat="45.55130118592533" lon="11.879640529135324"><ele>22.0</ele><time>2026-04-03T11:00:22Z</time></trkpt><trkpt lat="45.55127314327189" lon="11.879478595174712"><ele>22.0</ele><time>2026-04-03T11:00:24Z</time></trkpt><trkpt lat="45.55123960868997" lon="11.879323267754897"><ele>22.0</ele><time>2026-04-03T11:00:26Z</time></trkpt><trkpt lat="45.551209481307275" lon="11.879162294947669"><ele>21.75</ele><time>2026-04-03T11:00:28Z</time></trkpt><trkpt lat="45.551173782223344" lon="11.879006351587872"><ele>21.5</ele><time>2026-04-03T11:00:30Z</time></trkpt><trkpt lat="45.55115103620369" lon="11.878841460289514"><ele>21.25</ele><time>2026-04-03T11:00:32Z</time></trkpt><trkpt lat="45.55110711535348" lon="11.878686393063061"><ele>21.0</ele><time>2026-04-03T11:00:34Z</time></trkpt><trkpt lat="45.551077691307924" lon="11.87852897277345"><ele>21.25</ele><time>2026-04-03T11:00:36Z</time></trkpt><trkpt lat="45.55105083579301" lon="11.878364523166258"><ele>21.5</ele><time>2026-04-03T11:00:38Z</time></trkpt><trkpt lat="45.551018875173376" lon="11.878205213588965"><ele>21.75</ele><time>2026-04-03T11:00:40Z</time></trkpt><trkpt lat="45.5509960262479" lon="11.878044232203964"><ele>22.0</ele><time>2026-04-03T11:00:42Z</time></trkpt><trkpt lat="45.550970161392804" lon="11.87788700006467"><ele>22.0</ele><time>2026-04-03T11:00:44Z</time></trkpt><trkpt lat="45.55094197355037" lon="11.877746281190968"><ele>22.0</ele><time>2026-04-03T11:00:46Z</time></trkpt><trkpt lat="45.550914831430276" lon="11.87759330427887"><ele>22.0</ele><time>2026-04-03T11:00:48Z</time></trkpt><trkpt lat="45.55088202851105" lon="11.87743582529062"><ele>22.0</ele><time>2026-04-03T11:00:50Z</time></trkpt><trkpt lat="45.55085757021494" lon="11.87727501314597"><ele>22.0</ele><time>2026-04-03T11:00:52Z</time></trkpt><trkpt lat="45.55082642742918" lon="11.87712913849104"><ele>22.25</ele><time>2026-04-03T11:00:54Z</time></trkpt><trkpt lat="45.55080749363953" lon="11.87697276080981"><ele>22.5</ele><time>2026-04-03T11:00:56Z</time></trkpt><trkpt lat="45.55077862882921" lon="11.876817456731542"><ele>22.75</ele><time>2026-04-03T11:00:58Z</time></trkpt><trkpt lat="45.55075137689632" lon="11.87665847485417"><ele>23.0</ele><time>2026-04-03T11:01:00Z</time></trkpt><trkpt lat="45.55072205554264" lon="11.876494818567439"><ele>22.599999999999998</ele><time>2026-04-03T11:01:02Z</time></trkpt><trkpt lat="45.55068953125006" lon="11.8763560377136"><ele>22.2</ele><time>2026-04-03T11:01:04Z</time></trkpt><trkpt lat="45.55066816441626" lon="11.876208784912698"><ele>21.8</ele><time>2026-04-03T11:01:06Z</time></trkpt><trkpt lat="45.55064703148025" lon="11.876056033535331"><ele>21.4</ele><time>2026-04-03T11:01:08Z</time></trkpt><trkpt lat="45.55062086783112" lon="11.875894816358608"><ele>21.0</ele><time>2026-04-03T11:01:10Z</time></trkpt><trkpt lat="45.55059403988669" lon="11.875739229001367"><ele>21.0</ele><time>2026-04-03T11:01:12Z</time></trkpt><trkpt lat="45.55056799758227" lon="11.875577549603069"><ele>21.0</ele><time>2026-04-03T11:01:14Z</time></trkpt><trkpt lat="45.550539485581176" lon="11.875425483244529"><ele>21.0</ele><time>2026-04-03T11:01:16Z</time></trkpt><trkpt lat="45.55051418056606" lon="11.875265235013057"><ele>21.0</ele><time>2026-04-03T11:01:18Z</time></trkpt><trkpt lat="45.55048726849698" lon="11.875107966869322"><ele>21.0</ele><time>2026-04-03T11:01:20Z</time></trkpt><trkpt lat="45.55046178372761" lon="11.874955744722275"><ele>21.0</ele><time>2026-04-03T11:01:22Z</time></trkpt><trkpt lat="45.55043553794364" lon="11.874795693063001"><ele>21.0</ele><time>2026-04-03T11:01:24Z</time></trkpt><trkpt lat="45.55041190868899" lon="11.874636862484737"><ele>21.0</ele><time>2026-04-03T11:01:26Z</time></trkpt><trkpt lat="45.55038431986811" lon="11.874485692088738"><ele>21.0</ele><time>2026-04-03T11:01:28Z</time></trkpt><trkpt lat="45.55035536991135" lon="11.874335214850651"><ele>21.200000000000003</ele><time>2026-04-03T11:01:30Z</time></trkpt><trkpt lat="45.5503285137929" lon="11.874182631481665"><ele>21.400000000000002</ele><time>2026-04-03T11:01:32Z</time></trkpt><trkpt lat="45.55030920374931" lon="11.874033861498923"><ele>21.6</ele><time>2026-04-03T11:01:34Z</time></trkpt><trkpt lat="45.55028137398605" lon="11.87388532544168"><ele>21.8</ele><time>2026-04-03T11:01:36Z</time></trkpt><trkpt lat="45.55025786691207" lon="11.873747551957631"><ele>22.0</ele><time>2026-04-03T11:01:38Z</time></trkpt><trkpt lat="45.55023896057123" lon="11.873614135284809"><ele>22.0</ele><time>2026-04-03T11:01:40Z</time></trkpt><trkpt lat="45.55022623538266" lon="11.873493133673882"><ele>22.0</ele><time>2026-04-03T11:01:42Z</time></trkpt><trkpt lat="45.55020556952194" lon="11.873394106686588"><ele>22.0</ele><time>2026-04-03T11:01:44Z</time></trkpt><trkpt lat="45.55013041874207" lon="11.873392322462367"><ele>22.0</ele><time>2026-04-03T11:01:47Z</time></trkpt><trkpt lat="45.5500693719282" lon="11.873423596736952"><ele>22.0</ele><time>2026-04-03T11:01:49Z</time></trkpt><trkpt lat="45.55001075138175" lon="11.873378203926434"><ele>22.0</ele><time>2026-04-03T11:02:02Z</time></trkpt><trkpt lat="45.550007497898605" lon="11.873288168330463"><ele>22.0</ele><time>2026-04-03T11:02:06Z</time></trkpt><trkpt lat="45.55009973035341" lon="11.873264627754006"><ele>21.833333333333332</ele><time>2026-04-03T11:02:09Z</time></trkpt><trkpt lat="45.5501693174948" lon="11.873230590312009"><ele>21.666666666666664</ele><time>2026-04-03T11:02:12Z</time></trkpt><trkpt lat="45.55016835162595" lon="11.873138762443475"><ele>21.5</ele><time>2026-04-03T11:02:14Z</time></trkpt><trkpt lat="45.55012916308628" lon="11.873039403894312"><ele>21.333333333333332</ele><time>2026-04-03T11:02:16Z</time></trkpt><trkpt lat="45.55011161721387" lon="11.87291596319711"><ele>21.166666666666668</ele><time>2026-04-03T11:02:18Z</time></trkpt><trkpt lat="45.55009704103648" lon="11.87278805989118"><ele>21.0</ele><time>2026-04-03T11:02:20Z</time></trkpt><trkpt lat="45.55007389301271" lon="11.872646986436413"><ele>20.8</ele><time>2026-04-03T11:02:22Z</time></trkpt><trkpt lat="45.550050708907435" lon="11.872494336843404"><ele>20.6</ele><time>2026-04-03T11:02:24Z</time></trkpt><trkpt lat="45.550024449967594" lon="11.87234359473678"><ele>20.4</ele><time>2026-04-03T11:02:26Z</time></trkpt><trkpt lat="45.549997709105526" lon="11.872191194488813"><ele>20.2</ele><time>2026-04-03T11:02:28Z</time></trkpt><trkpt lat="45.549979660984356" lon="11.8720367350027"><ele>20.0</ele><time>2026-04-03T11:02:30Z</time></trkpt><trkpt lat="45.54995012397915" lon="11.871890916238865"><ele>20.0</ele><time>2026-04-03T11:02:32Z</time></trkpt><trkpt lat="45.54992624292741" lon="11.871734050497308"><ele>20.0</ele><time>2026-04-03T11:02:34Z</time></trkpt><trkpt lat="45.54989886132392" lon="11.871590255568567"><ele>20.0</ele><time>2026-04-03T11:02:36Z</time></trkpt><trkpt lat="45.549872705168056" lon="11.871444199975441"><ele>20.0</ele><time>2026-04-03T11:02:38Z</time></trkpt><trkpt lat="45.549850234728154" lon="11.871292041029466"><ele>20.0</ele><time>2026-04-03T11:02:40Z</time></trkpt><trkpt lat="45.54982368560202" lon="11.871134434775097"><ele>20.0</ele><time>2026-04-03T11:02:42Z</time></trkpt><trkpt lat="45.54979853997221" lon="11.870988976026853"><ele>20.0</ele><time>2026-04-03T11:02:44Z</time></trkpt><trkpt lat="45.549775964237604" lon="11.870847436627557"><ele>20.0</ele><time>2026-04-03T11:02:46Z</time></trkpt><trkpt lat="45.54975754530026" lon="11.870701948634508"><ele>20.0</ele><time>2026-04-03T11:02:48Z</time></trkpt><trkpt lat="45.549730048444474" lon="11.870555096270973"><ele>20.0</ele><time>2026-04-03T11:02:50Z</time></trkpt><trkpt lat="45.549703727200594" lon="11.870405787539301"><ele>20.4</ele><time>2026-04-03T11:02:52Z</time></trkpt><trkpt lat="45.549684113516115" lon="11.870255361139822"><ele>20.8</ele><time>2026-04-03T11:02:54Z</time></trkpt><trkpt lat="45.549654669548694" lon="11.870105279131067"><ele>21.200000000000003</ele><time>2026-04-03T11:02:56Z</time></trkpt><trkpt lat="45.549623344766125" lon="11.86994934712946"><ele>21.6</ele><time>2026-04-03T11:02:58Z</time></trkpt><trkpt lat="45.549593776041775" lon="11.869790334894567"><ele>22.0</ele><time>2026-04-03T11:03:00Z</time></trkpt><trkpt lat="45.549566817407296" lon="11.869633671950249"><ele>22.0</ele><time>2026-04-03T11:03:02Z</time></trkpt><trkpt lat="45.54954920319247" lon="11.869466451708671"><ele>22.0</ele><time>2026-04-03T11:03:04Z</time></trkpt><trkpt lat="45.549519200433664" lon="11.869303101009221"><ele>22.0</ele><time>2026-04-03T11:03:06Z</time></trkpt><trkpt lat="45.54949448133871" lon="11.869142769613283"><ele>22.0</ele><time>2026-04-03T11:03:08Z</time></trkpt><trkpt lat="45.54946643854058" lon="11.868977450502607"><ele>22.0</ele><time>2026-04-03T11:03:10Z</time></trkpt><trkpt lat="45.54943996265313" lon="11.868821046423358"><ele>22.0</ele><time>2026-04-03T11:03:12Z</time></trkpt><trkpt lat="45.54940797967761" lon="11.868679467354847"><ele>22.0</ele><time>2026-04-03T11:03:14Z</time></trkpt><trkpt lat="45.54939179680667" lon="11.868549856956204"><ele>22.0</ele><time>2026-04-03T11:03:16Z</time></trkpt><trkpt lat="45.54937246743695" lon="11.868417709235523"><ele>22.0</ele><time>2026-04-03T11:03:18Z</time></trkpt><trkpt lat="45.54934668833378" lon="11.868289278096197"><ele>21.75</ele><time>2026-04-03T11:03:20Z</time></trkpt><trkpt lat="45.54932019661517" lon="11.868149015356776"><ele>21.5</ele><time>2026-04-03T11:03:22Z</time></trkpt><trkpt lat="45.549469028176844" lon="11.867923445689144"><ele>21.25</ele><time>2026-04-03T11:03:24Z</time></trkpt><trkpt lat="45.549440614637064" lon="11.867784715805884"><ele>21.0</ele><time>2026-04-03T11:03:26Z</time></trkpt><trkpt lat="45.54941836392519" lon="11.867652908250921"><ele>21.200000000000003</ele><time>2026-04-03T11:03:28Z</time></trkpt><trkpt lat="45.54939448479059" lon="11.867502286686832"><ele>21.400000000000002</ele><time>2026-04-03T11:03:30Z</time></trkpt><trkpt lat="45.54937179559541" lon="11.867357653850267"><ele>21.6</ele><time>2026-04-03T11:03:32Z</time></trkpt><trkpt lat="45.54934841151513" lon="11.867208591452131"><ele>21.8</ele><time>2026-04-03T11:03:34Z</time></trkpt><trkpt lat="45.549324144538836" lon="11.867053901016703"><ele>22.0</ele><time>2026-04-03T11:03:36Z</time></trkpt><trkpt lat="45.54914203941549" lon="11.866954261079485"><ele>22.0</ele><time>2026-04-03T11:03:38Z</time></trkpt><trkpt lat="45.54911216748826" lon="11.866788273383786"><ele>22.0</ele><time>2026-04-03T11:03:40Z</time></trkpt><trkpt lat="45.549087527027844" lon="11.866636786032567"><ele>22.0</ele><time>2026-04-03T11:03:42Z</time></trkpt><trkpt lat="45.54904423807876" lon="11.866535808423052"><ele>22.0</ele><time>2026-04-03T11:03:44Z</time></trkpt><trkpt lat="45.549045525045116" lon="11.86643235764639"><ele>22.0</ele><time>2026-04-03T11:03:46Z</time></trkpt><trkpt lat="45.54899566284409" lon="11.866361541462524"><ele>22.166666666666664</ele><time>2026-04-03T11:03:50Z</time></trkpt><trkpt lat="45.548980178290066" lon="11.866235202841763"><ele>22.333333333333332</ele><time>2026-04-03T11:03:53Z</time></trkpt><trkpt lat="45.54896692406218" lon="11.866122767507402"><ele>22.5</ele><time>2026-04-03T11:03:55Z</time></trkpt><trkpt lat="45.54894674789438" lon="11.8660011190667"><ele>22.666666666666668</ele><time>2026-04-03T11:03:57Z</time></trkpt><trkpt lat="45.5489325377026" lon="11.865875534854272"><ele>22.833333333333336</ele><time>2026-04-03T11:03:59Z</time></trkpt><trkpt lat="45.54892429632214" lon="11.865742033803583"><ele>23.0</ele><time>2026-04-03T11:04:01Z</time></trkpt><trkpt lat="45.54889348380589" lon="11.865603229376893"><ele>23.2</ele><time>2026-04-03T11:04:03Z</time></trkpt><trkpt lat="45.54886931329264" lon="11.86545602188505"><ele>23.4</ele><time>2026-04-03T11:04:05Z</time></trkpt><trkpt lat="45.548843499823604" lon="11.865298190949025"><ele>23.599999999999998</ele><time>2026-04-03T11:04:07Z</time></trkpt><trkpt lat="45.54881338020365" lon="11.865141397457306"><ele>23.799999999999997</ele><time>2026-04-03T11:04:09Z</time></trkpt><trkpt lat="45.54878411642988" lon="11.864989472212443"><ele>24.0</ele><time>2026-04-03T11:04:11Z</time></trkpt><trkpt lat="45.54875650860609" lon="11.8648211190511"><ele>24.0</ele><time>2026-04-03T11:04:13Z</time></trkpt><trkpt lat="45.54873463126148" lon="11.86465396035866"><ele>24.0</ele><time>2026-04-03T11:04:15Z</time></trkpt><trkpt lat="45.548706832227985" lon="11.864484237989018"><ele>24.0</ele><time>2026-04-03T11:04:17Z</time></trkpt><trkpt lat="45.54868018551198" lon="11.86431477454416"><ele>24.0</ele><time>2026-04-03T11:04:19Z</time></trkpt><trkpt lat="45.548647854839444" lon="11.864149747106495"><ele>23.799999999999997</ele><time>2026-04-03T11:04:21Z</time></trkpt><trkpt lat="45.54862641027532" lon="11.863981295004738"><ele>23.599999999999998</ele><time>2026-04-03T11:04:23Z</time></trkpt><trkpt lat="45.5486161122312" lon="11.863891792272032"><ele>23.4</ele><time>2026-04-03T11:04:24Z</time></trkpt><trkpt lat="45.54859087032719" lon="11.8637282411867"><ele>23.2</ele><time>2026-04-03T11:04:26Z</time></trkpt><trkpt lat="45.54856656148384" lon="11.863573267932454"><ele>23.0</ele><time>2026-04-03T11:04:28Z</time></trkpt><trkpt lat="45.54855222980521" lon="11.86341571467353"><ele>23.0</ele><time>2026-04-03T11:04:30Z</time></trkpt><trkpt lat="45.54853257307626" lon="11.86326351650566"><ele>23.0</ele><time>2026-04-03T11:04:32Z</time></trkpt><trkpt lat="45.54850176392533" lon="11.863113005382905"><ele>23.0</ele><time>2026-04-03T11:04:34Z</time></trkpt><trkpt lat="45.548481103469925" lon="11.862965122317709"><ele>23.0</ele><time>2026-04-03T11:04:36Z</time></trkpt><trkpt lat="45.548463933481344" lon="11.862814978458776"><ele>23.0</ele><time>2026-04-03T11:04:38Z</time></trkpt><trkpt lat="45.54844413461499" lon="11.862683008380502"><ele>23.0</ele><time>2026-04-03T11:04:40Z</time></trkpt><trkpt lat="45.548426191999766" lon="11.862547027889033"><ele>23.0</ele><time>2026-04-03T11:04:42Z</time></trkpt><trkpt lat="45.548408219984005" lon="11.862418177905901"><ele>23.0</ele><time>2026-04-03T11:04:44Z</time></trkpt><trkpt lat="45.548393160037065" lon="11.86227596745628"><ele>23.0</ele><time>2026-04-03T11:04:46.001Z</time></trkpt><trkpt lat="45.548360914377284" lon="11.862138966887573"><ele>23.0</ele><time>2026-04-03T11:04:48.001Z</time></trkpt><trkpt lat="45.54833880814373" lon="11.862007309335953"><ele>23.0</ele><time>2026-04-03T11:04:50.001Z</time></trkpt><trkpt lat="45.54833662485843" lon="11.861905940715062"><ele>23.0</ele><time>2026-04-03T11:04:52.001Z</time></trkpt><trkpt lat="45.54829698106325" lon="11.86177644658712"><ele>23.0</ele><time>2026-04-03T11:04:54.001Z</time></trkpt><trkpt lat="45.548274815291066" lon="11.861668102327526"><ele>23.0</ele><time>2026-04-03T11:04:56.001Z</time></trkpt><trkpt lat="45.54826334829189" lon="11.86152956189047"><ele>23.0</ele><time>2026-04-03T11:04:58.001Z</time></trkpt><trkpt lat="45.54823554924625" lon="11.861380230775678"><ele>23.0</ele><time>2026-04-03T11:05:00.001Z</time></trkpt><trkpt lat="45.548216029067355" lon="11.861219279045214"><ele>23.0</ele><time>2026-04-03T11:05:02Z</time></trkpt><trkpt lat="45.54818828772391" lon="11.861063021926448"><ele>23.0</ele><time>2026-04-03T11:05:04Z</time></trkpt><trkpt lat="45.54815940378037" lon="11.860903265365012"><ele>23.0</ele><time>2026-04-03T11:05:06Z</time></trkpt><trkpt lat="45.54813012802365" lon="11.860740691403802"><ele>23.0</ele><time>2026-04-03T11:05:08Z</time></trkpt><trkpt lat="45.5481135981151" lon="11.860647880852275"><ele>23.0</ele><time>2026-04-03T11:05:09Z</time></trkpt><trkpt lat="45.54808733932139" lon="11.860473264708956"><ele>23.0</ele><time>2026-04-03T11:05:11Z</time></trkpt><trkpt lat="45.54806678425628" lon="11.860334360456434"><ele>23.0</ele><time>2026-04-03T11:05:13Z</time></trkpt><trkpt lat="45.548056331002236" lon="11.860239049890403"><ele>23.0</ele><time>2026-04-03T11:05:14Z</time></trkpt><trkpt lat="45.54802814818569" lon="11.860084033805862"><ele>23.0</ele><time>2026-04-03T11:05:16Z</time></trkpt><trkpt lat="45.54803780769764" lon="11.859954639886535"><ele>23.0</ele><time>2026-04-03T11:05:18Z</time></trkpt><trkpt lat="45.5480075556286" lon="11.859835815351323"><ele>23.0</ele><time>2026-04-03T11:05:19Z</time></trkpt><trkpt lat="45.54796983474815" lon="11.85968869834916"><ele>23.0</ele><time>2026-04-03T11:05:21Z</time></trkpt><trkpt lat="45.54792927798802" lon="11.859528680300222"><ele>23.0</ele><time>2026-04-03T11:05:23Z</time></trkpt><trkpt lat="45.5478854369302" lon="11.859374758412946"><ele>22.75</ele><time>2026-04-03T11:05:25Z</time></trkpt><trkpt lat="45.54784292346098" lon="11.859212673577211"><ele>22.5</ele><time>2026-04-03T11:05:27Z</time></trkpt><trkpt lat="45.54780667320364" lon="11.859046885532761"><ele>22.25</ele><time>2026-04-03T11:05:29Z</time></trkpt><trkpt lat="45.547785279414434" lon="11.858873402071191"><ele>22.0</ele><time>2026-04-03T11:05:31Z</time></trkpt><trkpt lat="45.54776167931391" lon="11.858700077630797"><ele>22.0</ele><time>2026-04-03T11:05:33Z</time></trkpt><trkpt lat="45.54773187258515" lon="11.858542260046512"><ele>22.0</ele><time>2026-04-03T11:05:35Z</time></trkpt><trkpt lat="45.54771140867822" lon="11.858449045312437"><ele>22.0</ele><time>2026-04-03T11:05:36Z</time></trkpt><trkpt lat="45.5476731279437" lon="11.858283760288744"><ele>22.0</ele><time>2026-04-03T11:05:38Z</time></trkpt><trkpt lat="45.54763319753032" lon="11.858117370230094"><ele>22.0</ele><time>2026-04-03T11:05:40Z</time></trkpt><trkpt lat="45.54761172475863" lon="11.858032191934436"><ele>22.200000000000003</ele><time>2026-04-03T11:05:41Z</time></trkpt><trkpt lat="45.54759385502648" lon="11.857943359880936"><ele>22.4</ele><time>2026-04-03T11:05:42Z</time></trkpt><trkpt lat="45.54756040668935" lon="11.857766010697617"><ele>22.6</ele><time>2026-04-03T11:05:44Z</time></trkpt><trkpt lat="45.54753693924192" lon="11.857600951908674"><ele>22.799999999999997</ele><time>2026-04-03T11:05:46Z</time></trkpt><trkpt lat="45.547521073499716" lon="11.857510435572259"><ele>23.0</ele><time>2026-04-03T11:05:47Z</time></trkpt><trkpt lat="45.547494279776245" lon="11.857338834841547"><ele>23.0</ele><time>2026-04-03T11:05:49Z</time></trkpt><trkpt lat="45.547464935844324" lon="11.857169162054653"><ele>23.0</ele><time>2026-04-03T11:05:51Z</time></trkpt><trkpt lat="45.54742454603634" lon="11.857001992369572"><ele>23.0</ele><time>2026-04-03T11:05:53Z</time></trkpt><trkpt lat="45.547409669449394" lon="11.856912725825799"><ele>23.0</ele><time>2026-04-03T11:05:54Z</time></trkpt><trkpt lat="45.54739483203857" lon="11.856820328710779"><ele>23.0</ele><time>2026-04-03T11:05:55Z</time></trkpt><trkpt lat="45.5473829928181" lon="11.856632991054587"><ele>22.599999999999998</ele><time>2026-04-03T11:05:57Z</time></trkpt><trkpt lat="45.54735907046136" lon="11.856457443646663"><ele>22.2</ele><time>2026-04-03T11:05:59Z</time></trkpt><trkpt lat="45.54734408768325" lon="11.856369992690922"><ele>21.8</ele><time>2026-04-03T11:06:00Z</time></trkpt><trkpt lat="45.54730862963052" lon="11.856201057826773"><ele>21.4</ele><time>2026-04-03T11:06:02Z</time></trkpt><trkpt lat="45.54728471357923" lon="11.856046450665614"><ele>21.0</ele><time>2026-04-03T11:06:04Z</time></trkpt><trkpt lat="45.547265569827125" lon="11.855886425865268"><ele>21.0</ele><time>2026-04-03T11:06:06Z</time></trkpt><trkpt lat="45.54724752731416" lon="11.855740762360886"><ele>21.0</ele><time>2026-04-03T11:06:08Z</time></trkpt><trkpt lat="45.5472252110616" lon="11.855589394011641"><ele>21.0</ele><time>2026-04-03T11:06:10Z</time></trkpt><trkpt lat="45.54720527667203" lon="11.855430373708309"><ele>21.0</ele><time>2026-04-03T11:06:12Z</time></trkpt><trkpt lat="45.5471734613868" lon="11.855283095613048"><ele>21.0</ele><time>2026-04-03T11:06:14Z</time></trkpt><trkpt lat="45.547158295941024" lon="11.855127872469565"><ele>21.0</ele><time>2026-04-03T11:06:16Z</time></trkpt><trkpt lat="45.54712905528425" lon="11.854961626685617"><ele>21.0</ele><time>2026-04-03T11:06:18Z</time></trkpt><trkpt lat="45.54709578280048" lon="11.85479985661757"><ele>21.0</ele><time>2026-04-03T11:06:20Z</time></trkpt><trkpt lat="45.5470676303195" lon="11.854640257181757"><ele>21.0</ele><time>2026-04-03T11:06:22Z</time></trkpt><trkpt lat="45.547039721706895" lon="11.854480703179465"><ele>21.4</ele><time>2026-04-03T11:06:24Z</time></trkpt><trkpt lat="45.5470177849067" lon="11.854318683116677"><ele>21.8</ele><time>2026-04-03T11:06:26Z</time></trkpt><trkpt lat="45.54699123137604" lon="11.85416759621529"><ele>22.2</ele><time>2026-04-03T11:06:28Z</time></trkpt><trkpt lat="45.54696566053054" lon="11.854031447952442"><ele>22.599999999999998</ele><time>2026-04-03T11:06:30Z</time></trkpt><trkpt lat="45.546943276010374" lon="11.853885024959256"><ele>23.0</ele><time>2026-04-03T11:06:32Z</time></trkpt><trkpt lat="45.54693822682771" lon="11.853725625866833"><ele>23.2</ele><time>2026-04-03T11:06:34Z</time></trkpt><trkpt lat="45.54690107726591" lon="11.853555321616607"><ele>23.4</ele><time>2026-04-03T11:06:36Z</time></trkpt><trkpt lat="45.54687578080511" lon="11.853389739915725"><ele>23.599999999999998</ele><time>2026-04-03T11:06:38Z</time></trkpt><trkpt lat="45.5468569130154" lon="11.853301674142484"><ele>23.799999999999997</ele><time>2026-04-03T11:06:39Z</time></trkpt><trkpt lat="45.546839801238775" lon="11.85313836385176"><ele>24.0</ele><time>2026-04-03T11:06:41Z</time></trkpt><trkpt lat="45.546813086267896" lon="11.852980657255218"><ele>24.0</ele><time>2026-04-03T11:06:43Z</time></trkpt><trkpt lat="45.54678902067176" lon="11.852816330326963"><ele>24.0</ele><time>2026-04-03T11:06:45Z</time></trkpt><trkpt lat="45.54676588354465" lon="11.852732706978824"><ele>24.0</ele><time>2026-04-03T11:06:46Z</time></trkpt><trkpt lat="45.54673929346041" lon="11.852584002214094"><ele>24.0</ele><time>2026-04-03T11:06:48Z</time></trkpt><trkpt lat="45.54670711941898" lon="11.852434635564952"><ele>24.0</ele><time>2026-04-03T11:06:50Z</time></trkpt><trkpt lat="45.54667913087011" lon="11.852277551830355"><ele>24.0</ele><time>2026-04-03T11:06:52Z</time></trkpt><trkpt lat="45.546650105934795" lon="11.85212320199999"><ele>24.0</ele><time>2026-04-03T11:06:54Z</time></trkpt><trkpt lat="45.54662089335744" lon="11.851967902180325"><ele>24.0</ele><time>2026-04-03T11:06:56Z</time></trkpt><trkpt lat="45.546597839981885" lon="11.851810268400895"><ele>24.0</ele><time>2026-04-03T11:06:58Z</time></trkpt><trkpt lat="45.546568043646026" lon="11.851662641878717"><ele>24.0</ele><time>2026-04-03T11:07:00Z</time></trkpt><trkpt lat="45.546553087994255" lon="11.851506984699181"><ele>24.0</ele><time>2026-04-03T11:07:02Z</time></trkpt><trkpt lat="45.54652703650773" lon="11.85133694394214"><ele>24.0</ele><time>2026-04-03T11:07:04Z</time></trkpt><trkpt lat="45.54649352994244" lon="11.851172583114941"><ele>24.0</ele><time>2026-04-03T11:07:06Z</time></trkpt><trkpt lat="45.54647360263556" lon="11.851085990844572"><ele>24.0</ele><time>2026-04-03T11:07:07Z</time></trkpt><trkpt lat="45.54644759468596" lon="11.850916498236279"><ele>24.0</ele><time>2026-04-03T11:07:09Z</time></trkpt><trkpt lat="45.54642034376444" lon="11.850743727288412"><ele>24.0</ele><time>2026-04-03T11:07:11Z</time></trkpt><trkpt lat="45.54638905971212" lon="11.85057595240088"><ele>24.0</ele><time>2026-04-03T11:07:13Z</time></trkpt><trkpt lat="45.54637161954034" lon="11.850488345949298"><ele>24.0</ele><time>2026-04-03T11:07:14Z</time></trkpt><trkpt lat="45.546339107924226" lon="11.85031751149835"><ele>24.0</ele><time>2026-04-03T11:07:16Z</time></trkpt><trkpt lat="45.54631391302923" lon="11.850145078312199"><ele>24.0</ele><time>2026-04-03T11:07:18Z</time></trkpt><trkpt lat="45.546290805056685" lon="11.849971804961726"><ele>23.799999999999997</ele><time>2026-04-03T11:07:20Z</time></trkpt><trkpt lat="45.54626143836836" lon="11.849806894915266"><ele>23.599999999999998</ele><time>2026-04-03T11:07:22Z</time></trkpt><trkpt lat="45.54623263823399" lon="11.849645525401238"><ele>23.4</ele><time>2026-04-03T11:07:24Z</time></trkpt><trkpt lat="45.54620407879396" lon="11.849496830717497"><ele>23.2</ele><time>2026-04-03T11:07:26Z</time></trkpt><trkpt lat="45.546181990953066" lon="11.849357439238519"><ele>23.0</ele><time>2026-04-03T11:07:28Z</time></trkpt><trkpt lat="45.5461564294079" lon="11.849227957442453"><ele>23.0</ele><time>2026-04-03T11:07:30Z</time></trkpt><trkpt lat="45.546134750061654" lon="11.849106865750988"><ele>23.0</ele><time>2026-04-03T11:07:32Z</time></trkpt><trkpt lat="45.546117806992164" lon="11.848982931918254"><ele>23.0</ele><time>2026-04-03T11:07:34Z</time></trkpt><trkpt lat="45.5461060873737" lon="11.848852436589919"><ele>23.0</ele><time>2026-04-03T11:07:36Z</time></trkpt><trkpt lat="45.54614058725472" lon="11.84869896010974"><ele>23.0</ele><time>2026-04-03T11:07:38Z</time></trkpt><trkpt lat="45.546198129187076" lon="11.848582126217652"><ele>22.799999999999997</ele><time>2026-04-03T11:07:40Z</time></trkpt><trkpt lat="45.54624725345196" lon="11.848476822567575"><ele>22.6</ele><time>2026-04-03T11:07:42Z</time></trkpt><trkpt lat="45.546279335496564" lon="11.848361094656873"><ele>22.4</ele><time>2026-04-03T11:07:44Z</time></trkpt><trkpt lat="45.54630117503367" lon="11.848244042086124"><ele>22.200000000000003</ele><time>2026-04-03T11:07:46Z</time></trkpt><trkpt lat="45.546320390635906" lon="11.84809998286383"><ele>22.0</ele><time>2026-04-03T11:07:48Z</time></trkpt><trkpt lat="45.546316689891846" lon="11.847937228020255"><ele>22.0</ele><time>2026-04-03T11:07:50Z</time></trkpt><trkpt lat="45.5462867062385" lon="11.847806316878122"><ele>22.0</ele><time>2026-04-03T11:07:52Z</time></trkpt><trkpt lat="45.546285047228224" lon="11.847697400121238"><ele>22.0</ele><time>2026-04-03T11:07:54Z</time></trkpt><trkpt lat="45.546214471165335" lon="11.847613952671427"><ele>22.0</ele><time>2026-04-03T11:07:56Z</time></trkpt><trkpt lat="45.546132478376975" lon="11.847548828364314"><ele>22.0</ele><time>2026-04-03T11:07:58Z</time></trkpt><trkpt lat="45.54603541336963" lon="11.847583754626296"><ele>22.5</ele><time>2026-04-03T11:08:00Z</time></trkpt><trkpt lat="45.545945017973814" lon="11.847584935919802"><ele>23.0</ele><time>2026-04-03T11:08:02Z</time></trkpt><trkpt lat="45.54588153572142" lon="11.847580207345613"><ele>23.5</ele><time>2026-04-03T11:08:04Z</time></trkpt><trkpt lat="45.545852140447344" lon="11.847497295714135"><ele>24.0</ele><time>2026-04-03T11:08:06Z</time></trkpt><trkpt lat="45.545835095999145" lon="11.847362723622952"><ele>24.500000000000004</ele><time>2026-04-03T11:08:08Z</time></trkpt><trkpt lat="45.54581906761249" lon="11.847218888231541"><ele>25.0</ele><time>2026-04-03T11:08:10Z</time></trkpt><trkpt lat="45.54578291591797" lon="11.847072858374458"><ele>25.0</ele><time>2026-04-03T11:08:12Z</time></trkpt><trkpt lat="45.54574550515739" lon="11.846930865345252"><ele>25.0</ele><time>2026-04-03T11:08:14Z</time></trkpt><trkpt lat="45.54573125080369" lon="11.846782485183539"><ele>25.0</ele><time>2026-04-03T11:08:16Z</time></trkpt><trkpt lat="45.54571089122681" lon="11.846614978737984"><ele>25.0</ele><time>2026-04-03T11:08:18Z</time></trkpt><trkpt lat="45.54567168485312" lon="11.846454722516286"><ele>25.0</ele><time>2026-04-03T11:08:20Z</time></trkpt><trkpt lat="45.54565222375094" lon="11.84636790765588"><ele>24.666666666666668</ele><time>2026-04-03T11:08:21Z</time></trkpt><trkpt lat="45.54561577779136" lon="11.846200517435289"><ele>24.333333333333336</ele><time>2026-04-03T11:08:23Z</time></trkpt><trkpt lat="45.54559732369497" lon="11.84611330310286"><ele>24.0</ele><time>2026-04-03T11:08:24Z</time></trkpt><trkpt lat="45.54557553772625" lon="11.846028108363724"><ele>23.666666666666668</ele><time>2026-04-03T11:08:25Z</time></trkpt><trkpt lat="45.54553931907784" lon="11.845935981044951"><ele>23.333333333333336</ele><time>2026-04-03T11:08:26Z</time></trkpt><trkpt lat="45.54549540697104" lon="11.845786940014884"><ele>23.0</ele><time>2026-04-03T11:08:28Z</time></trkpt><trkpt lat="45.54539634446399" lon="11.845777622735893"><ele>23.0</ele><time>2026-04-03T11:08:29Z</time></trkpt><trkpt lat="45.54532336510326" lon="11.845670365467342"><ele>23.0</ele><time>2026-04-03T11:08:31Z</time></trkpt><trkpt lat="45.54524442231302" lon="11.845541032085215"><ele>23.0</ele><time>2026-04-03T11:08:33Z</time></trkpt><trkpt lat="45.54536324332634" lon="11.845288177908605"><ele>23.0</ele><time>2026-04-03T11:08:34Z</time></trkpt><trkpt lat="45.54531404387734" lon="11.845127526871032"><ele>22.5</ele><time>2026-04-03T11:08:36Z</time></trkpt><trkpt lat="45.5452680598458" lon="11.844971393032575"><ele>22.0</ele><time>2026-04-03T11:08:38Z</time></trkpt><trkpt lat="45.545223551939145" lon="11.844836280789218"><ele>21.5</ele><time>2026-04-03T11:08:40Z</time></trkpt><trkpt lat="45.545180722456024" lon="11.844691277496265"><ele>21.0</ele><time>2026-04-03T11:08:42Z</time></trkpt><trkpt lat="45.54513421840379" lon="11.844532183279886"><ele>21.0</ele><time>2026-04-03T11:08:44Z</time></trkpt><trkpt lat="45.54508291611298" lon="11.844384244330788"><ele>21.0</ele><time>2026-04-03T11:08:46Z</time></trkpt><trkpt lat="45.54502990871202" lon="11.844244098069453"><ele>21.0</ele><time>2026-04-03T11:08:48Z</time></trkpt><trkpt lat="45.5449790413632" lon="11.84409154388691"><ele>21.0</ele><time>2026-04-03T11:08:50Z</time></trkpt><trkpt lat="45.54493122504534" lon="11.84394076940195"><ele>21.0</ele><time>2026-04-03T11:08:52Z</time></trkpt><trkpt lat="45.544890215404145" lon="11.84380880473006"><ele>21.0</ele><time>2026-04-03T11:08:54Z</time></trkpt><trkpt lat="45.54484672962041" lon="11.843674188705888"><ele>21.0</ele><time>2026-04-03T11:08:56Z</time></trkpt><trkpt lat="45.544801044197165" lon="11.843537677481288"><ele>21.0</ele><time>2026-04-03T11:08:58Z</time></trkpt><trkpt lat="45.54471240053637" lon="11.843413107925779"><ele>21.0</ele><time>2026-04-03T11:09:00Z</time></trkpt><trkpt lat="45.54471470629568" lon="11.84326532212614"><ele>21.0</ele><time>2026-04-03T11:09:02Z</time></trkpt><trkpt lat="45.54466004679608" lon="11.843124652618808"><ele>21.0</ele><time>2026-04-03T11:09:04Z</time></trkpt><trkpt lat="45.544605500253944" lon="11.84298015157215"><ele>21.0</ele><time>2026-04-03T11:09:06Z</time></trkpt><trkpt lat="45.54456521739339" lon="11.842827013238338"><ele>21.0</ele><time>2026-04-03T11:09:08Z</time></trkpt><trkpt lat="45.54451327034828" lon="11.842681295355105"><ele>21.25</ele><time>2026-04-03T11:09:10Z</time></trkpt><trkpt lat="45.544469413313" lon="11.842535776033408"><ele>21.5</ele><time>2026-04-03T11:09:12Z</time></trkpt><trkpt lat="45.54441902460219" lon="11.842384867407375"><ele>21.75</ele><time>2026-04-03T11:09:14Z</time></trkpt><trkpt lat="45.54437000076032" lon="11.842226331989613"><ele>22.0</ele><time>2026-04-03T11:09:16Z</time></trkpt><trkpt lat="45.544321818006836" lon="11.842091210819154"><ele>22.0</ele><time>2026-04-03T11:09:18Z</time></trkpt><trkpt lat="45.54426620064943" lon="11.84194013755789"><ele>22.0</ele><time>2026-04-03T11:09:20Z</time></trkpt><trkpt lat="45.54422644168136" lon="11.841808242292696"><ele>22.0</ele><time>2026-04-03T11:09:22Z</time></trkpt><trkpt lat="45.54418657711094" lon="11.841666570894823"><ele>22.0</ele><time>2026-04-03T11:09:24Z</time></trkpt><trkpt lat="45.54414224812488" lon="11.841535556722206"><ele>22.0</ele><time>2026-04-03T11:09:26Z</time></trkpt><trkpt lat="45.54410483845105" lon="11.841417209645277"><ele>21.8</ele><time>2026-04-03T11:09:28Z</time></trkpt><trkpt lat="45.544059447619475" lon="11.84127428709194"><ele>21.6</ele><time>2026-04-03T11:09:30Z</time></trkpt><trkpt lat="45.54401427463378" lon="11.841135207577564"><ele>21.400000000000002</ele><time>2026-04-03T11:09:32Z</time></trkpt><trkpt lat="45.54396484136454" lon="11.84098034595136"><ele>21.200000000000003</ele><time>2026-04-03T11:09:34Z</time></trkpt><trkpt lat="45.543915671005855" lon="11.840840390124814"><ele>21.0</ele><time>2026-04-03T11:09:36Z</time></trkpt><trkpt lat="45.54386604777597" lon="11.840692134096681"><ele>21.0</ele><time>2026-04-03T11:09:38Z</time></trkpt><trkpt lat="45.5438226865031" lon="11.840555867483744"><ele>21.0</ele><time>2026-04-03T11:09:40Z</time></trkpt><trkpt lat="45.543782224843895" lon="11.840412459726652"><ele>21.0</ele><time>2026-04-03T11:09:42Z</time></trkpt><trkpt lat="45.54373584840611" lon="11.840292567025577"><ele>21.0</ele><time>2026-04-03T11:09:44Z</time></trkpt><trkpt lat="45.54368640271942" lon="11.840151278807546"><ele>21.0</ele><time>2026-04-03T11:09:46Z</time></trkpt><trkpt lat="45.543632100056044" lon="11.839988641268032"><ele>21.0</ele><time>2026-04-03T11:09:48Z</time></trkpt><trkpt lat="45.543582795955054" lon="11.839841449419307"><ele>21.0</ele><time>2026-04-03T11:09:50Z</time></trkpt><trkpt lat="45.54353350592952" lon="11.839708175475252"><ele>21.0</ele><time>2026-04-03T11:09:52Z</time></trkpt><trkpt lat="45.543485869532525" lon="11.839579836188319"><ele>21.0</ele><time>2026-04-03T11:09:54Z</time></trkpt><trkpt lat="45.54342988773601" lon="11.839439101372996"><ele>21.0</ele><time>2026-04-03T11:09:56Z</time></trkpt><trkpt lat="45.54337709472286" lon="11.839279000385662"><ele>21.0</ele><time>2026-04-03T11:09:58Z</time></trkpt><trkpt lat="45.5433235094807" lon="11.839113605644858"><ele>21.0</ele><time>2026-04-03T11:10:00Z</time></trkpt><trkpt lat="45.54329412760937" lon="11.839034045845809"><ele>21.0</ele><time>2026-04-03T11:10:01Z</time></trkpt><trkpt lat="45.54324027341081" lon="11.838880952761654"><ele>21.0</ele><time>2026-04-03T11:10:03Z</time></trkpt><trkpt lat="45.54318216305482" lon="11.838737174705479"><ele>21.0</ele><time>2026-04-03T11:10:05Z</time></trkpt><trkpt lat="45.543136415783266" lon="11.83859547298865"><ele>21.0</ele><time>2026-04-03T11:10:07Z</time></trkpt><trkpt lat="45.54309964625264" lon="11.838468025008012"><ele>21.0</ele><time>2026-04-03T11:10:09Z</time></trkpt><trkpt lat="45.543067514333394" lon="11.8383813528401"><ele>21.0</ele><time>2026-04-03T11:10:11Z</time></trkpt><trkpt lat="45.54303886025955" lon="11.838276060711218"><ele>21.0</ele><time>2026-04-03T11:10:20Z</time></trkpt><trkpt lat="45.54303203446379" lon="11.838159975626318"><ele>21.0</ele><time>2026-04-03T11:10:23Z</time></trkpt><trkpt lat="45.54300437643573" lon="11.83805577925878"><ele>21.0</ele><time>2026-04-03T11:10:25Z</time></trkpt><trkpt lat="45.54295034248327" lon="11.837937640322325"><ele>21.0</ele><time>2026-04-03T11:10:27Z</time></trkpt><trkpt lat="45.542914277072676" lon="11.837813585292574"><ele>21.0</ele><time>2026-04-03T11:10:29Z</time></trkpt><trkpt lat="45.54286608522738" lon="11.83766696737183"><ele>21.0</ele><time>2026-04-03T11:10:31Z</time></trkpt><trkpt lat="45.542814222954505" lon="11.83751423609916"><ele>21.0</ele><time>2026-04-03T11:10:33Z</time></trkpt><trkpt lat="45.54276643094898" lon="11.837358075631505"><ele>21.0</ele><time>2026-04-03T11:10:35Z</time></trkpt><trkpt lat="45.542711625858026" lon="11.837207962314476"><ele>21.0</ele><time>2026-04-03T11:10:37Z</time></trkpt><trkpt lat="45.54267076718179" lon="11.837058335655508"><ele>21.0</ele><time>2026-04-03T11:10:39Z</time></trkpt><trkpt lat="45.542625770941264" lon="11.836909322144916"><ele>21.0</ele><time>2026-04-03T11:10:41Z</time></trkpt><trkpt lat="45.54258262024201" lon="11.836759666709067"><ele>21.0</ele><time>2026-04-03T11:10:43Z</time></trkpt><trkpt lat="45.54253501061364" lon="11.836617235562313"><ele>21.0</ele><time>2026-04-03T11:10:45Z</time></trkpt><trkpt lat="45.542482157504466" lon="11.836483063489908"><ele>21.0</ele><time>2026-04-03T11:10:47Z</time></trkpt><trkpt lat="45.542435342827204" lon="11.836343787953199"><ele>21.0</ele><time>2026-04-03T11:10:49Z</time></trkpt><trkpt lat="45.54238433566146" lon="11.836197780325543"><ele>21.0</ele><time>2026-04-03T11:10:51Z</time></trkpt><trkpt lat="45.542337150717294" lon="11.836056532823074"><ele>21.0</ele><time>2026-04-03T11:10:53Z</time></trkpt><trkpt lat="45.54228707311206" lon="11.835910701024291"><ele>21.0</ele><time>2026-04-03T11:10:55Z</time></trkpt><trkpt lat="45.54223230619274" lon="11.835765430227836"><ele>21.0</ele><time>2026-04-03T11:10:57Z</time></trkpt><trkpt lat="45.54218116617087" lon="11.835626811051254"><ele>21.0</ele><time>2026-04-03T11:10:59Z</time></trkpt><trkpt lat="45.54212994256944" lon="11.835486002650896"><ele>21.0</ele><time>2026-04-03T11:11:01Z</time></trkpt><trkpt lat="45.542079727971604" lon="11.835343341553191"><ele>21.0</ele><time>2026-04-03T11:11:03Z</time></trkpt><trkpt lat="45.54203161498898" lon="11.835198585460063"><ele>21.0</ele><time>2026-04-03T11:11:05Z</time></trkpt><trkpt lat="45.541981909741196" lon="11.835051660676282"><ele>21.0</ele><time>2026-04-03T11:11:07Z</time></trkpt><trkpt lat="45.54193151049211" lon="11.834917033491674"><ele>21.0</ele><time>2026-04-03T11:11:09Z</time></trkpt><trkpt lat="45.54188608744813" lon="11.834762554097628"><ele>21.0</ele><time>2026-04-03T11:11:11Z</time></trkpt><trkpt lat="45.54183742402056" lon="11.834615218399358"><ele>21.0</ele><time>2026-04-03T11:11:13Z</time></trkpt><trkpt lat="45.54179261552508" lon="11.834467807735349"><ele>21.0</ele><time>2026-04-03T11:11:15Z</time></trkpt><trkpt lat="45.541749142488044" lon="11.834325164499882"><ele>21.0</ele><time>2026-04-03T11:11:17Z</time></trkpt><trkpt lat="45.54172314862499" lon="11.834242456306303"><ele>21.0</ele><time>2026-04-03T11:11:18Z</time></trkpt><trkpt lat="45.54167677762158" lon="11.834098062668138"><ele>21.0</ele><time>2026-04-03T11:11:20Z</time></trkpt><trkpt lat="45.54162804674336" lon="11.8339415681306"><ele>21.0</ele><time>2026-04-03T11:11:22Z</time></trkpt><trkpt lat="45.541581983511605" lon="11.833800696984405"><ele>21.0</ele><time>2026-04-03T11:11:24Z</time></trkpt><trkpt lat="45.541525996955286" lon="11.833647254135764"><ele>21.0</ele><time>2026-04-03T11:11:26Z</time></trkpt><trkpt lat="45.54147472663044" lon="11.833531229063986"><ele>21.0</ele><time>2026-04-03T11:11:28Z</time></trkpt><trkpt lat="45.54143773758925" lon="11.833400434804597"><ele>21.0</ele><time>2026-04-03T11:11:30Z</time></trkpt><trkpt lat="45.5414004459787" lon="11.83327313247998"><ele>21.0</ele><time>2026-04-03T11:11:32Z</time></trkpt><trkpt lat="45.541354717563046" lon="11.833175361090824"><ele>21.0</ele><time>2026-04-03T11:11:34Z</time></trkpt><trkpt lat="45.54133213954376" lon="11.83307809155357"><ele>21.0</ele><time>2026-04-03T11:11:37Z</time></trkpt><trkpt lat="45.54127188389918" lon="11.832989846151566"><ele>21.0</ele><time>2026-04-03T11:11:41Z</time></trkpt><trkpt lat="45.54117923427249" lon="11.833034912166355"><ele>21.0</ele><time>2026-04-03T11:11:43Z</time></trkpt><trkpt lat="45.54108056438128" lon="11.83304318644164"><ele>21.0</ele><time>2026-04-03T11:11:45Z</time></trkpt><trkpt lat="45.540966093253374" lon="11.833045975074551"><ele>21.0</ele><time>2026-04-03T11:11:47Z</time></trkpt><trkpt lat="45.5408472864506" lon="11.833056585274202"><ele>21.0</ele><time>2026-04-03T11:11:49Z</time></trkpt><trkpt lat="45.540721573540566" lon="11.833064454149284"><ele>21.0</ele><time>2026-04-03T11:11:51Z</time></trkpt><trkpt lat="45.540657808124" lon="11.83307376367059"><ele>21.0</ele><time>2026-04-03T11:11:52Z</time></trkpt><trkpt lat="45.54059144669406" lon="11.833079449059884"><ele>21.0</ele><time>2026-04-03T11:11:53Z</time></trkpt><trkpt lat="45.54052379939233" lon="11.83308091180536"><ele>21.0</ele><time>2026-04-03T11:11:54Z</time></trkpt><trkpt lat="45.54045479661119" lon="11.833086267012389"><ele>21.0</ele><time>2026-04-03T11:11:55Z</time></trkpt><trkpt lat="45.540387219607126" lon="11.833086284381801"><ele>21.0</ele><time>2026-04-03T11:11:56Z</time></trkpt><trkpt lat="45.54031988318024" lon="11.833095096394175"><ele>21.0</ele><time>2026-04-03T11:11:57Z</time></trkpt><trkpt lat="45.54025144028698" lon="11.833104647438608"><ele>21.0</ele><time>2026-04-03T11:11:58Z</time></trkpt><trkpt lat="45.54018514229668" lon="11.833113094814514"><ele>21.0</ele><time>2026-04-03T11:11:59Z</time></trkpt><trkpt lat="45.54011902371971" lon="11.833133869895185"><ele>21.0</ele><time>2026-04-03T11:12:00Z</time></trkpt><trkpt lat="45.540052362627335" lon="11.83314809317899"><ele>21.0</ele><time>2026-04-03T11:12:01Z</time></trkpt><trkpt lat="45.539931678956805" lon="11.833185167580684"><ele>21.142857142857142</ele><time>2026-04-03T11:12:03Z</time></trkpt><trkpt lat="45.5398706459814" lon="11.833213106031804"><ele>21.285714285714285</ele><time>2026-04-03T11:12:04Z</time></trkpt><trkpt lat="45.539809229623444" lon="11.833244867060438"><ele>21.42857142857143</ele><time>2026-04-03T11:12:05Z</time></trkpt><trkpt lat="45.53975093108363" lon="11.833281106132928"><ele>21.57142857142857</ele><time>2026-04-03T11:12:06Z</time></trkpt><trkpt lat="45.539692741458495" lon="11.83331729933789"><ele>21.714285714285715</ele><time>2026-04-03T11:12:07Z</time></trkpt><trkpt lat="45.53963661010499" lon="11.833358252109507"><ele>21.857142857142858</ele><time>2026-04-03T11:12:08Z</time></trkpt><trkpt lat="45.539524123298676" lon="11.833430636166314"><ele>22.0</ele><time>2026-04-03T11:12:10Z</time></trkpt><trkpt lat="45.53941145556929" lon="11.833509187080436"><ele>22.0</ele><time>2026-04-03T11:12:12Z</time></trkpt><trkpt lat="45.539353269970334" lon="11.833549290287333"><ele>22.0</ele><time>2026-04-03T11:12:13Z</time></trkpt><trkpt lat="45.53929576023448" lon="11.83359908597563"><ele>22.0</ele><time>2026-04-03T11:12:14Z</time></trkpt><trkpt lat="45.53923590755858" lon="11.833632630492474"><ele>22.0</ele><time>2026-04-03T11:12:15Z</time></trkpt><trkpt lat="45.539176963484294" lon="11.833675120361809"><ele>22.0</ele><time>2026-04-03T11:12:16Z</time></trkpt><trkpt lat="45.53911974340648" lon="11.833718954816897"><ele>22.0</ele><time>2026-04-03T11:12:17Z</time></trkpt><trkpt lat="45.53905972682061" lon="11.833752953587913"><ele>22.0</ele><time>2026-04-03T11:12:18Z</time></trkpt><trkpt lat="45.53900208286549" lon="11.833790299517151"><ele>22.0</ele><time>2026-04-03T11:12:19Z</time></trkpt><trkpt lat="45.53894318459725" lon="11.833829404576452"><ele>22.0</ele><time>2026-04-03T11:12:20Z</time></trkpt><trkpt lat="45.53883057247337" lon="11.833902026856673"><ele>22.0</ele><time>2026-04-03T11:12:22Z</time></trkpt><trkpt lat="45.53871827009562" lon="11.833975739241952"><ele>22.0</ele><time>2026-04-03T11:12:24Z</time></trkpt><trkpt lat="45.53860721694472" lon="11.834047734504825"><ele>22.0</ele><time>2026-04-03T11:12:26Z</time></trkpt><trkpt lat="45.53849611165363" lon="11.834123151794545"><ele>22.0</ele><time>2026-04-03T11:12:28Z</time></trkpt><trkpt lat="45.538387677304804" lon="11.834193253733115"><ele>22.0</ele><time>2026-04-03T11:12:30Z</time></trkpt><trkpt lat="45.53827072800478" lon="11.8342705148813"><ele>22.0</ele><time>2026-04-03T11:12:32Z</time></trkpt><trkpt lat="45.53821014391824" lon="11.834307515031801"><ele>22.0</ele><time>2026-04-03T11:12:33Z</time></trkpt><trkpt lat="45.53814793023356" lon="11.834346751255566"><ele>22.0</ele><time>2026-04-03T11:12:34Z</time></trkpt><trkpt lat="45.53803327018028" lon="11.834432744544054"><ele>22.0</ele><time>2026-04-03T11:12:36Z</time></trkpt><trkpt lat="45.537974977090194" lon="11.834473083276354"><ele>22.0</ele><time>2026-04-03T11:12:37Z</time></trkpt><trkpt lat="45.53791430653073" lon="11.834508596215295"><ele>22.0</ele><time>2026-04-03T11:12:38Z</time></trkpt><trkpt lat="45.53785308039566" lon="11.834536807078823"><ele>22.0</ele><time>2026-04-03T11:12:39Z</time></trkpt><trkpt lat="45.53779326362849" lon="11.834583035378255"><ele>22.0</ele><time>2026-04-03T11:12:40Z</time></trkpt><trkpt lat="45.5377327636425" lon="11.834616688241782"><ele>22.0</ele><time>2026-04-03T11:12:41Z</time></trkpt><trkpt lat="45.537675253471015" lon="11.834657204850048"><ele>22.0</ele><time>2026-04-03T11:12:42Z</time></trkpt><trkpt lat="45.537560272548475" lon="11.834727037835579"><ele>22.400000000000002</ele><time>2026-04-03T11:12:44Z</time></trkpt><trkpt lat="45.537444793520734" lon="11.834804831306514"><ele>22.8</ele><time>2026-04-03T11:12:46Z</time></trkpt><trkpt lat="45.53738826588464" lon="11.834847039960911"><ele>23.2</ele><time>2026-04-03T11:12:47Z</time></trkpt><trkpt lat="45.53727774149473" lon="11.834940711268603"><ele>23.6</ele><time>2026-04-03T11:12:49Z</time></trkpt><trkpt lat="45.537182478012575" lon="11.835028730927341"><ele>24.0</ele><time>2026-04-03T11:12:51Z</time></trkpt><trkpt lat="45.537082122898795" lon="11.8351127028975"><ele>23.799999999999997</ele><time>2026-04-03T11:12:53Z</time></trkpt><trkpt lat="45.53698445166376" lon="11.83520635370038"><ele>23.599999999999998</ele><time>2026-04-03T11:12:55Z</time></trkpt><trkpt lat="45.536882715084644" lon="11.835295445815492"><ele>23.4</ele><time>2026-04-03T11:12:57Z</time></trkpt><trkpt lat="45.53679517605016" lon="11.83539011719515"><ele>23.2</ele><time>2026-04-03T11:12:59Z</time></trkpt><trkpt lat="45.53674130495439" lon="11.835449697075145"><ele>23.0</ele><time>2026-04-03T11:13:00Z</time></trkpt><trkpt lat="45.53665336496721" lon="11.835524681123102"><ele>23.0</ele><time>2026-04-03T11:13:02Z</time></trkpt><trkpt lat="45.536566387839464" lon="11.83559609094293"><ele>23.0</ele><time>2026-04-03T11:13:04Z</time></trkpt><trkpt lat="45.53648844458985" lon="11.835662993015026"><ele>23.0</ele><time>2026-04-03T11:13:06Z</time></trkpt><trkpt lat="45.53642679737483" lon="11.835725200615993"><ele>23.0</ele><time>2026-04-03T11:13:08Z</time></trkpt><trkpt lat="45.53634631010394" lon="11.835781716272365"><ele>23.0</ele><time>2026-04-03T11:13:10Z</time></trkpt><trkpt lat="45.5362509922468" lon="11.835878179677891"><ele>22.4</ele><time>2026-04-03T11:13:12Z</time></trkpt><trkpt lat="45.53614294871355" lon="11.835970967049215"><ele>21.799999999999997</ele><time>2026-04-03T11:13:14Z</time></trkpt><trkpt lat="45.53603254489674" lon="11.83606383001102"><ele>21.2</ele><time>2026-04-03T11:13:16Z</time></trkpt><trkpt lat="45.53597657492586" lon="11.83611226781117"><ele>20.6</ele><time>2026-04-03T11:13:17Z</time></trkpt><trkpt lat="45.53591888735686" lon="11.836159638401632"><ele>20.0</ele><time>2026-04-03T11:13:18Z</time></trkpt><trkpt lat="45.53581333969195" lon="11.836255493895786"><ele>20.0</ele><time>2026-04-03T11:13:20Z</time></trkpt><trkpt lat="45.535759223532175" lon="11.83630301454585"><ele>20.0</ele><time>2026-04-03T11:13:21Z</time></trkpt><trkpt lat="45.53570416394595" lon="11.836350489330568"><ele>20.0</ele><time>2026-04-03T11:13:22Z</time></trkpt><trkpt lat="45.53565347144682" lon="11.836404537377028"><ele>20.0</ele><time>2026-04-03T11:13:23Z</time></trkpt><trkpt lat="45.53560199232683" lon="11.83645959431531"><ele>20.0</ele><time>2026-04-03T11:13:24Z</time></trkpt><trkpt lat="45.535555596865755" lon="11.836521524723222"><ele>20.0</ele><time>2026-04-03T11:13:25Z</time></trkpt><trkpt lat="45.53551427303097" lon="11.836592438979592"><ele>20.0</ele><time>2026-04-03T11:13:26Z</time></trkpt><trkpt lat="45.53546851362565" lon="11.836659312166526"><ele>20.0</ele><time>2026-04-03T11:13:27Z</time></trkpt><trkpt lat="45.535424483527144" lon="11.836728449314784"><ele>20.142857142857142</ele><time>2026-04-03T11:13:28Z</time></trkpt><trkpt lat="45.535386929576646" lon="11.83680656544692"><ele>20.285714285714285</ele><time>2026-04-03T11:13:29Z</time></trkpt><trkpt lat="45.53535412176489" lon="11.83688527405649"><ele>20.42857142857143</ele><time>2026-04-03T11:13:30Z</time></trkpt><trkpt lat="45.53532038293379" lon="11.836968778286437"><ele>20.57142857142857</ele><time>2026-04-03T11:13:31Z</time></trkpt><trkpt lat="45.53528881014081" lon="11.837052923563094"><ele>20.714285714285715</ele><time>2026-04-03T11:13:32Z</time></trkpt><trkpt lat="45.535259634864644" lon="11.837139508684055"><ele>20.857142857142858</ele><time>2026-04-03T11:13:33Z</time></trkpt><trkpt lat="45.535231503648966" lon="11.837226761998204"><ele>21.0</ele><time>2026-04-03T11:13:34Z</time></trkpt><trkpt lat="45.5352053459985" lon="11.837317715492434"><ele>21.0</ele><time>2026-04-03T11:13:35Z</time></trkpt><trkpt lat="45.53518209995709" lon="11.83741097585856"><ele>21.0</ele><time>2026-04-03T11:13:36Z</time></trkpt><trkpt lat="45.53515543780689" lon="11.837502089492773"><ele>21.0</ele><time>2026-04-03T11:13:37Z</time></trkpt><trkpt lat="45.53512941765921" lon="11.837588463543494"><ele>21.0</ele><time>2026-04-03T11:13:38Z</time></trkpt><trkpt lat="45.535103266033815" lon="11.837676688103993"><ele>21.0</ele><time>2026-04-03T11:13:39Z</time></trkpt><trkpt lat="45.53507764708742" lon="11.837761637990035"><ele>21.0</ele><time>2026-04-03T11:13:40Z</time></trkpt><trkpt lat="45.53504920487884" lon="11.837844073591125"><ele>21.0</ele><time>2026-04-03T11:13:41Z</time></trkpt><trkpt lat="45.53501776254478" lon="11.837927268139595"><ele>20.857142857142858</ele><time>2026-04-03T11:13:42Z</time></trkpt><trkpt lat="45.534985964513815" lon="11.838009479086066"><ele>20.714285714285715</ele><time>2026-04-03T11:13:43Z</time></trkpt><trkpt lat="45.534949745650295" lon="11.838089813564626"><ele>20.57142857142857</ele><time>2026-04-03T11:13:44Z</time></trkpt><trkpt lat="45.5349144443492" lon="11.838166259387698"><ele>20.42857142857143</ele><time>2026-04-03T11:13:45Z</time></trkpt><trkpt lat="45.534875548862594" lon="11.838243844980209"><ele>20.285714285714285</ele><time>2026-04-03T11:13:46Z</time></trkpt><trkpt lat="45.53483346675697" lon="11.838320379170366"><ele>20.142857142857142</ele><time>2026-04-03T11:13:47Z</time></trkpt><trkpt lat="45.53478654232765" lon="11.83839527318732"><ele>20.0</ele><time>2026-04-03T11:13:48Z</time></trkpt><trkpt lat="45.53474144228471" lon="11.838471251190908"><ele>20.0</ele><time>2026-04-03T11:13:49Z</time></trkpt><trkpt lat="45.5346943668486" lon="11.838542420690954"><ele>20.0</ele><time>2026-04-03T11:13:50Z</time></trkpt><trkpt lat="45.534643686449144" lon="11.838609164427156"><ele>20.0</ele><time>2026-04-03T11:13:51Z</time></trkpt><trkpt lat="45.53459235454905" lon="11.838675855344915"><ele>20.0</ele><time>2026-04-03T11:13:52Z</time></trkpt><trkpt lat="45.534541085319944" lon="11.838740568000338"><ele>20.0</ele><time>2026-04-03T11:13:53Z</time></trkpt><trkpt lat="45.53448692413041" lon="11.838804027327312"><ele>20.0</ele><time>2026-04-03T11:13:54Z</time></trkpt><trkpt lat="45.53442961591694" lon="11.838860436905073"><ele>20.0</ele><time>2026-04-03T11:13:55Z</time></trkpt><trkpt lat="45.53437076526355" lon="11.838911607975497"><ele>19.833333333333336</ele><time>2026-04-03T11:13:56Z</time></trkpt><trkpt lat="45.53430819507036" lon="11.83896142431235"><ele>19.666666666666668</ele><time>2026-04-03T11:13:57Z</time></trkpt><trkpt lat="45.534244636793616" lon="11.839013148930086"><ele>19.5</ele><time>2026-04-03T11:13:58Z</time></trkpt><trkpt lat="45.534181836892536" lon="11.839056407572244"><ele>19.333333333333332</ele><time>2026-04-03T11:13:59Z</time></trkpt><trkpt lat="45.534123101923505" lon="11.83909932630711"><ele>19.166666666666664</ele><time>2026-04-03T11:14:00Z</time></trkpt><trkpt lat="45.53406158096433" lon="11.839131288923374"><ele>19.0</ele><time>2026-04-03T11:14:01Z</time></trkpt><trkpt lat="45.53394683643469" lon="11.839189787107063"><ele>19.0</ele><time>2026-04-03T11:14:03Z</time></trkpt><trkpt lat="45.53388453611596" lon="11.839219897575624"><ele>19.0</ele><time>2026-04-03T11:14:04Z</time></trkpt><trkpt lat="45.533823686560964" lon="11.83925029584132"><ele>19.0</ele><time>2026-04-03T11:14:05Z</time></trkpt><trkpt lat="45.53376191967095" lon="11.839278641337163"><ele>19.0</ele><time>2026-04-03T11:14:06Z</time></trkpt><trkpt lat="45.53370289615401" lon="11.839310663887137"><ele>19.0</ele><time>2026-04-03T11:14:07Z</time></trkpt><trkpt lat="45.533583979072105" lon="11.839363376777404"><ele>19.0</ele><time>2026-04-03T11:14:09Z</time></trkpt><trkpt lat="45.53347146137444" lon="11.8394228398776"><ele>19.4</ele><time>2026-04-03T11:14:11Z</time></trkpt><trkpt lat="45.53341028147974" lon="11.839444018434806"><ele>19.799999999999997</ele><time>2026-04-03T11:14:12Z</time></trkpt><trkpt lat="45.533294769038136" lon="11.839498201887851"><ele>20.200000000000003</ele><time>2026-04-03T11:14:14Z</time></trkpt><trkpt lat="45.53318753199257" lon="11.8395512644653"><ele>20.6</ele><time>2026-04-03T11:14:16Z</time></trkpt><trkpt lat="45.53306845302507" lon="11.839592845205159"><ele>21.0</ele><time>2026-04-03T11:14:18Z</time></trkpt><trkpt lat="45.532960202909784" lon="11.839650948513881"><ele>21.25</ele><time>2026-04-03T11:14:20Z</time></trkpt><trkpt lat="45.53284529703328" lon="11.839702130162767"><ele>21.5</ele><time>2026-04-03T11:14:22Z</time></trkpt><trkpt lat="45.532730807435414" lon="11.83976031946397"><ele>21.75</ele><time>2026-04-03T11:14:24Z</time></trkpt><trkpt lat="45.532620260246375" lon="11.839812557449807"><ele>22.0</ele><time>2026-04-03T11:14:26Z</time></trkpt><trkpt lat="45.532509303961966" lon="11.839862242773423"><ele>22.0</ele><time>2026-04-03T11:14:28Z</time></trkpt><trkpt lat="45.53239968097042" lon="11.839914693251098"><ele>22.0</ele><time>2026-04-03T11:14:30Z</time></trkpt><trkpt lat="45.53229543754674" lon="11.83996921253172"><ele>22.0</ele><time>2026-04-03T11:14:32Z</time></trkpt><trkpt lat="45.53218031885066" lon="11.840019929662104"><ele>22.0</ele><time>2026-04-03T11:14:34Z</time></trkpt><trkpt lat="45.532062659448805" lon="11.840074765651785"><ele>22.0</ele><time>2026-04-03T11:14:36Z</time></trkpt><trkpt lat="45.53200341293112" lon="11.84010713611652"><ele>22.0</ele><time>2026-04-03T11:14:37Z</time></trkpt><trkpt lat="45.531885429231" lon="11.840164745751187"><ele>22.0</ele><time>2026-04-03T11:14:39Z</time></trkpt><trkpt lat="45.5317655073728" lon="11.840217651433319"><ele>22.0</ele><time>2026-04-03T11:14:41Z</time></trkpt><trkpt lat="45.53164817041452" lon="11.840276590643445"><ele>22.0</ele><time>2026-04-03T11:14:43Z</time></trkpt><trkpt lat="45.531532566455844" lon="11.840331300788701"><ele>22.0</ele><time>2026-04-03T11:14:45Z</time></trkpt><trkpt lat="45.531472330332164" lon="11.84036074827819"><ele>22.0</ele><time>2026-04-03T11:14:46Z</time></trkpt><trkpt lat="45.53141126450289" lon="11.840391138843138"><ele>22.0</ele><time>2026-04-03T11:14:47Z</time></trkpt><trkpt lat="45.53134990390666" lon="11.840431321444125"><ele>22.0</ele><time>2026-04-03T11:14:48Z</time></trkpt><trkpt lat="45.53128655244712" lon="11.840454193563941"><ele>22.0</ele><time>2026-04-03T11:14:49Z</time></trkpt><trkpt lat="45.531224491452505" lon="11.840478869756883"><ele>22.0</ele><time>2026-04-03T11:14:50Z</time></trkpt><trkpt lat="45.531161588003705" lon="11.8405084503593"><ele>22.0</ele><time>2026-04-03T11:14:51Z</time></trkpt><trkpt lat="45.531099502208804" lon="11.840539168384932"><ele>21.6</ele><time>2026-04-03T11:14:52Z</time></trkpt><trkpt lat="45.53103361056454" lon="11.840566563878852"><ele>21.200000000000003</ele><time>2026-04-03T11:14:53Z</time></trkpt><trkpt lat="45.530910657886686" lon="11.840631463696832"><ele>20.8</ele><time>2026-04-03T11:14:55Z</time></trkpt><trkpt lat="45.53084948939363" lon="11.840661793384351"><ele>20.4</ele><time>2026-04-03T11:14:56Z</time></trkpt><trkpt lat="45.530787363806716" lon="11.840683083137106"><ele>20.0</ele><time>2026-04-03T11:14:57Z</time></trkpt><trkpt lat="45.530670811633144" lon="11.840741812303392"><ele>20.0</ele><time>2026-04-03T11:14:59Z</time></trkpt><trkpt lat="45.530610991091166" lon="11.840774498035579"><ele>20.0</ele><time>2026-04-03T11:15:00Z</time></trkpt><trkpt lat="45.53054797872532" lon="11.840800316333933"><ele>20.0</ele><time>2026-04-03T11:15:01Z</time></trkpt><trkpt lat="45.53048611936578" lon="11.840826904971397"><ele>20.0</ele><time>2026-04-03T11:15:02Z</time></trkpt><trkpt lat="45.53042249119358" lon="11.84085874221581"><ele>20.0</ele><time>2026-04-03T11:15:03Z</time></trkpt><trkpt lat="45.53035809261791" lon="11.840889399533717"><ele>20.0</ele><time>2026-04-03T11:15:04Z</time></trkpt><trkpt lat="45.53029559829424" lon="11.840922776495956"><ele>20.0</ele><time>2026-04-03T11:15:05Z</time></trkpt><trkpt lat="45.53023485989083" lon="11.840958541329137"><ele>20.285714285714285</ele><time>2026-04-03T11:15:06Z</time></trkpt><trkpt lat="45.530169886715214" lon="11.840991675696023"><ele>20.571428571428573</ele><time>2026-04-03T11:15:07Z</time></trkpt><trkpt lat="45.53010534852276" lon="11.84102206914558"><ele>20.857142857142858</ele><time>2026-04-03T11:15:08Z</time></trkpt><trkpt lat="45.53004162432094" lon="11.841057051038318"><ele>21.142857142857142</ele><time>2026-04-03T11:15:09Z</time></trkpt><trkpt lat="45.52997841634487" lon="11.841097705149425"><ele>21.428571428571427</ele><time>2026-04-03T11:15:10Z</time></trkpt><trkpt lat="45.52991555646335" lon="11.841135050915446"><ele>21.714285714285715</ele><time>2026-04-03T11:15:11Z</time></trkpt><trkpt lat="45.52985457605497" lon="11.84117197913275"><ele>22.0</ele><time>2026-04-03T11:15:12Z</time></trkpt><trkpt lat="45.52979363224699" lon="11.841205454780669"><ele>22.0</ele><time>2026-04-03T11:15:13Z</time></trkpt><trkpt lat="45.52973295606657" lon="11.841239084257674"><ele>22.0</ele><time>2026-04-03T11:15:14Z</time></trkpt><trkpt lat="45.52967315358624" lon="11.841276700582691"><ele>22.0</ele><time>2026-04-03T11:15:15Z</time></trkpt><trkpt lat="45.52961256914912" lon="11.841309058568225"><ele>22.0</ele><time>2026-04-03T11:15:16Z</time></trkpt><trkpt lat="45.52955185127714" lon="11.841343946913884"><ele>22.0</ele><time>2026-04-03T11:15:17Z</time></trkpt><trkpt lat="45.5294927841481" lon="11.841377061735386"><ele>22.0</ele><time>2026-04-03T11:15:18Z</time></trkpt><trkpt lat="45.529432298445094" lon="11.841407793246383"><ele>22.0</ele><time>2026-04-03T11:15:19Z</time></trkpt><trkpt lat="45.529372832600544" lon="11.841441811187263"><ele>21.400000000000002</ele><time>2026-04-03T11:15:20Z</time></trkpt><trkpt lat="45.52925226319859" lon="11.841495138411588"><ele>20.8</ele><time>2026-04-03T11:15:22Z</time></trkpt><trkpt lat="45.52919203088299" lon="11.841522874452163"><ele>20.2</ele><time>2026-04-03T11:15:23Z</time></trkpt><trkpt lat="45.52913113481383" lon="11.841546802838208"><ele>19.6</ele><time>2026-04-03T11:15:24Z</time></trkpt><trkpt lat="45.52901052859159" lon="11.841596519352768"><ele>19.0</ele><time>2026-04-03T11:15:26Z</time></trkpt><trkpt lat="45.528889754943314" lon="11.841642385505997"><ele>19.0</ele><time>2026-04-03T11:15:28Z</time></trkpt><trkpt lat="45.52882867650343" lon="11.841665650363671"><ele>19.0</ele><time>2026-04-03T11:15:29Z</time></trkpt><trkpt lat="45.528707067094" lon="11.841712560966577"><ele>19.0</ele><time>2026-04-03T11:15:31Z</time></trkpt><trkpt lat="45.528587858697335" lon="11.841760902698235"><ele>19.0</ele><time>2026-04-03T11:15:33Z</time></trkpt><trkpt lat="45.52852637391328" lon="11.84178690893009"><ele>19.0</ele><time>2026-04-03T11:15:34Z</time></trkpt><trkpt lat="45.52840672941212" lon="11.84183295626443"><ele>18.8</ele><time>2026-04-03T11:15:36Z</time></trkpt><trkpt lat="45.52834473015807" lon="11.841858542690506"><ele>18.599999999999998</ele><time>2026-04-03T11:15:37Z</time></trkpt><trkpt lat="45.52822752036961" lon="11.841908701216962"><ele>18.4</ele><time>2026-04-03T11:15:39Z</time></trkpt><trkpt lat="45.5281149613143" lon="11.841954307064876"><ele>18.2</ele><time>2026-04-03T11:15:41Z</time></trkpt><trkpt lat="45.528014379368024" lon="11.84201011608033"><ele>18.0</ele><time>2026-04-03T11:15:43Z</time></trkpt><trkpt lat="45.52790836520913" lon="11.842060898906517"><ele>17.75</ele><time>2026-04-03T11:15:45Z</time></trkpt><trkpt lat="45.52779867468951" lon="11.842133946135585"><ele>17.5</ele><time>2026-04-03T11:15:47Z</time></trkpt><trkpt lat="45.52769112406193" lon="11.842204715493907"><ele>17.25</ele><time>2026-04-03T11:15:49Z</time></trkpt><trkpt lat="45.52758159546482" lon="11.84228038118725"><ele>17.0</ele><time>2026-04-03T11:15:51Z</time></trkpt><trkpt lat="45.527470988967785" lon="11.842355272808165"><ele>17.0</ele><time>2026-04-03T11:15:53Z</time></trkpt><trkpt lat="45.52735931629887" lon="11.842432152184784"><ele>17.0</ele><time>2026-04-03T11:15:55Z</time></trkpt><trkpt lat="45.52724672715588" lon="11.842503094465343"><ele>17.0</ele><time>2026-04-03T11:15:57Z</time></trkpt><trkpt lat="45.5271354985661" lon="11.842583050659096"><ele>17.0</ele><time>2026-04-03T11:15:59Z</time></trkpt><trkpt lat="45.52707784983082" lon="11.842619898332723"><ele>17.0</ele><time>2026-04-03T11:16:00Z</time></trkpt><trkpt lat="45.52696523644962" lon="11.84269420653787"><ele>16.75</ele><time>2026-04-03T11:16:02Z</time></trkpt><trkpt lat="45.5268483141296" lon="11.84275583221594"><ele>16.5</ele><time>2026-04-03T11:16:04Z</time></trkpt><trkpt lat="45.52673417070784" lon="11.842816216355764"><ele>16.25</ele><time>2026-04-03T11:16:06Z</time></trkpt><trkpt lat="45.52662106580068" lon="11.84287579168559"><ele>16.0</ele><time>2026-04-03T11:16:08Z</time></trkpt><trkpt lat="45.52650659075081" lon="11.842934575393986"><ele>16.0</ele><time>2026-04-03T11:16:10Z</time></trkpt><trkpt lat="45.52638987245849" lon="11.842991060294061"><ele>16.0</ele><time>2026-04-03T11:16:12Z</time></trkpt><trkpt lat="45.52627230910745" lon="11.843038869243113"><ele>16.0</ele><time>2026-04-03T11:16:14Z</time></trkpt><trkpt lat="45.52620925458249" lon="11.843064023047022"><ele>16.0</ele><time>2026-04-03T11:16:15Z</time></trkpt><trkpt lat="45.52609036462965" lon="11.843107971707214"><ele>16.0</ele><time>2026-04-03T11:16:17Z</time></trkpt><trkpt lat="45.52597432630687" lon="11.843142103626528"><ele>16.25</ele><time>2026-04-03T11:16:19Z</time></trkpt><trkpt lat="45.52585522811409" lon="11.843164031076553"><ele>16.5</ele><time>2026-04-03T11:16:21Z</time></trkpt><trkpt lat="45.52573655029004" lon="11.843172516105424"><ele>16.75</ele><time>2026-04-03T11:16:23Z</time></trkpt><trkpt lat="45.525618217717295" lon="11.843177268275499"><ele>17.0</ele><time>2026-04-03T11:16:25Z</time></trkpt><trkpt lat="45.525496706732476" lon="11.84317544805935"><ele>17.5</ele><time>2026-04-03T11:16:27Z</time></trkpt><trkpt lat="45.52537877336411" lon="11.8431731811631"><ele>18.0</ele><time>2026-04-03T11:16:29Z</time></trkpt><trkpt lat="45.52525743809" lon="11.84317154131797"><ele>18.5</ele><time>2026-04-03T11:16:31Z</time></trkpt><trkpt lat="45.525141422226255" lon="11.843172391366444"><ele>19.0</ele><time>2026-04-03T11:16:33Z</time></trkpt><trkpt lat="45.525024646261905" lon="11.843169491300978"><ele>19.0</ele><time>2026-04-03T11:16:35Z</time></trkpt><trkpt lat="45.52490857701202" lon="11.843170236300312"><ele>19.0</ele><time>2026-04-03T11:16:37Z</time></trkpt><trkpt lat="45.52479243998992" lon="11.843171765798694"><ele>19.0</ele><time>2026-04-03T11:16:39Z</time></trkpt><trkpt lat="45.52467463917375" lon="11.843165863175399"><ele>19.0</ele><time>2026-04-03T11:16:41Z</time></trkpt><trkpt lat="45.524556614220614" lon="11.843167617164125"><ele>18.75</ele><time>2026-04-03T11:16:43Z</time></trkpt><trkpt lat="45.52444370267263" lon="11.84315748459807"><ele>18.5</ele><time>2026-04-03T11:16:45Z</time></trkpt><trkpt lat="45.52432391996657" lon="11.843147642216628"><ele>18.25</ele><time>2026-04-03T11:16:47Z</time></trkpt><trkpt lat="45.524206575920786" lon="11.843147768009699"><ele>18.0</ele><time>2026-04-03T11:16:49Z</time></trkpt><trkpt lat="45.52408746388901" lon="11.84314124747313"><ele>18.0</ele><time>2026-04-03T11:16:51Z</time></trkpt><trkpt lat="45.52397098041825" lon="11.84313656286122"><ele>18.0</ele><time>2026-04-03T11:16:53Z</time></trkpt><trkpt lat="45.523862892460464" lon="11.843134224822771"><ele>18.0</ele><time>2026-04-03T11:16:55Z</time></trkpt><trkpt lat="45.523762064686025" lon="11.843125312261002"><ele>18.0</ele><time>2026-04-03T11:16:57Z</time></trkpt><trkpt lat="45.52366116455774" lon="11.843119025333044"><ele>18.0</ele><time>2026-04-03T11:16:59Z</time></trkpt><trkpt lat="45.523585868572475" lon="11.843097388005551"><ele>18.0</ele><time>2026-04-03T11:17:01Z</time></trkpt><trkpt lat="45.523517645845246" lon="11.843106754575"><ele>18.0</ele><time>2026-04-03T11:17:16Z</time></trkpt><trkpt lat="45.52349568447829" lon="11.843202328672204"><ele>18.0</ele><time>2026-04-03T11:17:19Z</time></trkpt><trkpt lat="45.523502838885825" lon="11.84331586972245"><ele>18.0</ele><time>2026-04-03T11:17:21Z</time></trkpt><trkpt lat="45.523516572552055" lon="11.843454843565246"><ele>18.0</ele><time>2026-04-03T11:17:23Z</time></trkpt><trkpt lat="45.52349610112271" lon="11.843600858436659"><ele>18.0</ele><time>2026-04-03T11:17:25Z</time></trkpt><trkpt lat="45.52348882238287" lon="11.843760015457615"><ele>18.0</ele><time>2026-04-03T11:17:27Z</time></trkpt><trkpt lat="45.523478463451575" lon="11.843922858195121"><ele>18.0</ele><time>2026-04-03T11:17:29Z</time></trkpt><trkpt lat="45.52347051322552" lon="11.844082916820378"><ele>18.0</ele><time>2026-04-03T11:17:31Z</time></trkpt><trkpt lat="45.523452757383495" lon="11.844243618458158"><ele>18.0</ele><time>2026-04-03T11:17:33Z</time></trkpt><trkpt lat="45.5234358316101" lon="11.844402367308174"><ele>18.25</ele><time>2026-04-03T11:17:35Z</time></trkpt><trkpt lat="45.52341716184449" lon="11.844562687216088"><ele>18.5</ele><time>2026-04-03T11:17:37Z</time></trkpt><trkpt lat="45.52340534594324" lon="11.844729953607409"><ele>18.75</ele><time>2026-04-03T11:17:39Z</time></trkpt><trkpt lat="45.52339114075202" lon="11.84489579870462"><ele>19.0</ele><time>2026-04-03T11:17:41Z</time></trkpt><trkpt lat="45.523360186981456" lon="11.84506345624147"><ele>18.75</ele><time>2026-04-03T11:17:43Z</time></trkpt><trkpt lat="45.52333472393781" lon="11.845229942245656"><ele>18.5</ele><time>2026-04-03T11:17:45Z</time></trkpt><trkpt lat="45.52331188815644" lon="11.845396438136147"><ele>18.25</ele><time>2026-04-03T11:17:47Z</time></trkpt><trkpt lat="45.52328699098295" lon="11.845561935236896"><ele>18.0</ele><time>2026-04-03T11:17:49Z</time></trkpt><trkpt lat="45.523260685388294" lon="11.845726280107238"><ele>18.0</ele><time>2026-04-03T11:17:51Z</time></trkpt><trkpt lat="45.52323133780083" lon="11.845888831091012"><ele>18.0</ele><time>2026-04-03T11:17:53Z</time></trkpt><trkpt lat="45.52320791509216" lon="11.846052322749506"><ele>18.0</ele><time>2026-04-03T11:17:55Z</time></trkpt><trkpt lat="45.52318132295089" lon="11.846211143485377"><ele>18.0</ele><time>2026-04-03T11:17:57Z</time></trkpt><trkpt lat="45.52314008485589" lon="11.846369584063599"><ele>18.25</ele><time>2026-04-03T11:17:59Z</time></trkpt><trkpt lat="45.523095383837386" lon="11.846519406963507"><ele>18.5</ele><time>2026-04-03T11:18:01Z</time></trkpt><trkpt lat="45.52302517759613" lon="11.846661949518953"><ele>18.75</ele><time>2026-04-03T11:18:03Z</time></trkpt><trkpt lat="45.522938254785366" lon="11.846782243238662"><ele>19.0</ele><time>2026-04-03T11:18:05Z</time></trkpt><trkpt lat="45.522837985643584" lon="11.846886327285093"><ele>19.25</ele><time>2026-04-03T11:18:07Z</time></trkpt><trkpt lat="45.5227322880027" lon="11.846981565913072"><ele>19.5</ele><time>2026-04-03T11:18:09Z</time></trkpt><trkpt lat="45.522633082081185" lon="11.847081392793905"><ele>19.75</ele><time>2026-04-03T11:18:11Z</time></trkpt><trkpt lat="45.52253017584836" lon="11.847176968183474"><ele>20.0</ele><time>2026-04-03T11:18:13Z</time></trkpt><trkpt lat="45.52243233297753" lon="11.847278977955071"><ele>20.0</ele><time>2026-04-03T11:18:15Z</time></trkpt><trkpt lat="45.522333414568436" lon="11.847385573468797"><ele>20.0</ele><time>2026-04-03T11:18:17Z</time></trkpt><trkpt lat="45.522244163398675" lon="11.847503692680387"><ele>20.0</ele><time>2026-04-03T11:18:19Z</time></trkpt><trkpt lat="45.52215827220773" lon="11.847617562681101"><ele>20.0</ele><time>2026-04-03T11:18:21Z</time></trkpt><trkpt lat="45.52207283400375" lon="11.847735684710047"><ele>19.8</ele><time>2026-04-03T11:18:23Z</time></trkpt><trkpt lat="45.52198915322598" lon="11.847849511993497"><ele>19.6</ele><time>2026-04-03T11:18:25Z</time></trkpt><trkpt lat="45.52191917601334" lon="11.847959444549954"><ele>19.4</ele><time>2026-04-03T11:18:27Z</time></trkpt><trkpt lat="45.52185749350672" lon="11.848071927815885"><ele>19.2</ele><time>2026-04-03T11:18:29Z</time></trkpt><trkpt lat="45.521800426287115" lon="11.848206757440577"><ele>19.0</ele><time>2026-04-03T11:18:31Z</time></trkpt><trkpt lat="45.52174635421222" lon="11.848365206911781"><ele>19.0</ele><time>2026-04-03T11:18:33Z</time></trkpt><trkpt lat="45.52169659442589" lon="11.848520669351716"><ele>19.0</ele><time>2026-04-03T11:18:35Z</time></trkpt><trkpt lat="45.52164376613076" lon="11.848671019262989"><ele>19.0</ele><time>2026-04-03T11:18:37Z</time></trkpt><trkpt lat="45.52158875084112" lon="11.84882498744712"><ele>19.0</ele><time>2026-04-03T11:18:39Z</time></trkpt><trkpt lat="45.52152994494489" lon="11.848971633202162"><ele>19.0</ele><time>2026-04-03T11:18:41Z</time></trkpt><trkpt lat="45.52147004122372" lon="11.849119018275497"><ele>19.0</ele><time>2026-04-03T11:18:43Z</time></trkpt><trkpt lat="45.52140443380785" lon="11.849254386396483"><ele>19.0</ele><time>2026-04-03T11:18:45Z</time></trkpt><trkpt lat="45.5213313912063" lon="11.84938946185319"><ele>19.0</ele><time>2026-04-03T11:18:47Z</time></trkpt><trkpt lat="45.52125359895307" lon="11.849522968967483"><ele>18.8</ele><time>2026-04-03T11:18:49Z</time></trkpt><trkpt lat="45.52121108473233" lon="11.849590453159196"><ele>18.599999999999998</ele><time>2026-04-03T11:18:50Z</time></trkpt><trkpt lat="45.52112160901747" lon="11.849702185331687"><ele>18.4</ele><time>2026-04-03T11:18:52Z</time></trkpt><trkpt lat="45.52102563347401" lon="11.849809610598346"><ele>18.2</ele><time>2026-04-03T11:18:54Z</time></trkpt><trkpt lat="45.52093164211877" lon="11.849916861260118"><ele>18.0</ele><time>2026-04-03T11:18:56Z</time></trkpt><trkpt lat="45.52083769437032" lon="11.850026564138384"><ele>18.0</ele><time>2026-04-03T11:18:58Z</time></trkpt><trkpt lat="45.52074670801744" lon="11.850124641156023"><ele>18.0</ele><time>2026-04-03T11:19:00Z</time></trkpt><trkpt lat="45.52066126211189" lon="11.850213946505095"><ele>18.0</ele><time>2026-04-03T11:19:02Z</time></trkpt><trkpt lat="45.52057933393242" lon="11.85028243449053"><ele>18.0</ele><time>2026-04-03T11:19:04Z</time></trkpt><trkpt lat="45.520501652060055" lon="11.850374977130159"><ele>18.0</ele><time>2026-04-03T11:19:06Z</time></trkpt><trkpt lat="45.520412599448356" lon="11.850468197843735"><ele>18.2</ele><time>2026-04-03T11:19:08Z</time></trkpt><trkpt lat="45.52032396523781" lon="11.850564163721689"><ele>18.4</ele><time>2026-04-03T11:19:10Z</time></trkpt><trkpt lat="45.52023477540043" lon="11.850661552982247"><ele>18.599999999999998</ele><time>2026-04-03T11:19:12Z</time></trkpt><trkpt lat="45.52014291397676" lon="11.850755576198596"><ele>18.8</ele><time>2026-04-03T11:19:14Z</time></trkpt><trkpt lat="45.52006386954997" lon="11.850867109520758"><ele>19.0</ele><time>2026-04-03T11:19:16Z</time></trkpt><trkpt lat="45.51997825659141" lon="11.850968666400512"><ele>19.0</ele><time>2026-04-03T11:19:18Z</time></trkpt><trkpt lat="45.51989602464381" lon="11.851079298905224"><ele>19.0</ele><time>2026-04-03T11:19:20Z</time></trkpt><trkpt lat="45.51982337563839" lon="11.851193174126465"><ele>19.0</ele><time>2026-04-03T11:19:22Z</time></trkpt><trkpt lat="45.51975165321712" lon="11.851309504286093"><ele>19.0</ele><time>2026-04-03T11:19:24Z</time></trkpt><trkpt lat="45.51968705465748" lon="11.851412824349397"><ele>19.0</ele><time>2026-04-03T11:19:26Z</time></trkpt><trkpt lat="45.51964260200853" lon="11.851511304764001"><ele>19.0</ele><time>2026-04-03T11:19:28Z</time></trkpt><trkpt lat="45.5196344390941" lon="11.851662648617811"><ele>19.0</ele><time>2026-04-03T11:19:30Z</time></trkpt><trkpt lat="45.51963563157096" lon="11.851826033130473"><ele>19.0</ele><time>2026-04-03T11:19:32Z</time></trkpt><trkpt lat="45.51961411654395" lon="11.85198519815307"><ele>19.0</ele><time>2026-04-03T11:19:34Z</time></trkpt><trkpt lat="45.519557601507124" lon="11.852116163942222"><ele>19.0</ele><time>2026-04-03T11:19:36Z</time></trkpt><trkpt lat="45.519481608355605" lon="11.852237219874613"><ele>19.0</ele><time>2026-04-03T11:19:38Z</time></trkpt><trkpt lat="45.519423193923664" lon="11.8523693240499"><ele>19.0</ele><time>2026-04-03T11:19:40Z</time></trkpt><trkpt lat="45.51936564396766" lon="11.85250989810579"><ele>19.0</ele><time>2026-04-03T11:19:42Z</time></trkpt><trkpt lat="45.51934980950808" lon="11.8526715736378"><ele>19.0</ele><time>2026-04-03T11:19:44Z</time></trkpt><trkpt lat="45.51936878926782" lon="11.85283711296443"><ele>19.0</ele><time>2026-04-03T11:19:46Z</time></trkpt><trkpt lat="45.51939700191418" lon="11.852998372731646"><ele>19.0</ele><time>2026-04-03T11:19:48Z</time></trkpt><trkpt lat="45.51941743447721" lon="11.85315992946144"><ele>19.0</ele><time>2026-04-03T11:19:50Z</time></trkpt><trkpt lat="45.51944883176925" lon="11.853304132295902"><ele>19.0</ele><time>2026-04-03T11:19:52Z</time></trkpt><trkpt lat="45.51947504463616" lon="11.85344460725541"><ele>19.0</ele><time>2026-04-03T11:19:54Z</time></trkpt><trkpt lat="45.519489609791094" lon="11.853581421436095"><ele>19.0</ele><time>2026-04-03T11:19:56Z</time></trkpt><trkpt lat="45.519445024882344" lon="11.853704486424608"><ele>19.0</ele><time>2026-04-03T11:19:58Z</time></trkpt><trkpt lat="45.51933489070473" lon="11.853719072645662"><ele>19.0</ele><time>2026-04-03T11:20:00Z</time></trkpt><trkpt lat="45.51923421570127" lon="11.853719312705222"><ele>19.0</ele><time>2026-04-03T11:20:02Z</time></trkpt><trkpt lat="45.519126930955906" lon="11.853724411997877"><ele>19.0</ele><time>2026-04-03T11:20:04Z</time></trkpt><trkpt lat="45.51901805934356" lon="11.853742691282893"><ele>19.0</ele><time>2026-04-03T11:20:06Z</time></trkpt><trkpt lat="45.518910315373475" lon="11.853751930052143"><ele>19.0</ele><time>2026-04-03T11:20:08Z</time></trkpt><trkpt lat="45.51880075560815" lon="11.85376457784954"><ele>19.0</ele><time>2026-04-03T11:20:10Z</time></trkpt><trkpt lat="45.51869276427845" lon="11.853770046563065"><ele>19.0</ele><time>2026-04-03T11:20:12Z</time></trkpt><trkpt lat="45.51858494116674" lon="11.85378193368651"><ele>19.0</ele><time>2026-04-03T11:20:14Z</time></trkpt><trkpt lat="45.518478111976314" lon="11.853802076642468"><ele>18.8</ele><time>2026-04-03T11:20:16Z</time></trkpt><trkpt lat="45.51838518738558" lon="11.85388218539797"><ele>18.599999999999998</ele><time>2026-04-03T11:20:18Z</time></trkpt><trkpt lat="45.51834971085618" lon="11.854034139914367"><ele>18.4</ele><time>2026-04-03T11:20:20Z</time></trkpt><trkpt lat="45.51834733126844" lon="11.854197005793347"><ele>18.2</ele><time>2026-04-03T11:20:22Z</time></trkpt><trkpt lat="45.51834534770042" lon="11.85435827138546"><ele>18.0</ele><time>2026-04-03T11:20:24Z</time></trkpt><trkpt lat="45.518340715480434" lon="11.854522250425239"><ele>17.75</ele><time>2026-04-03T11:20:26Z</time></trkpt><trkpt lat="45.51832972581019" lon="11.854683418321212"><ele>17.5</ele><time>2026-04-03T11:20:28Z</time></trkpt><trkpt lat="45.51830705438739" lon="11.854849316419253"><ele>17.25</ele><time>2026-04-03T11:20:30Z</time></trkpt><trkpt lat="45.518266209448946" lon="11.854999250364598"><ele>17.0</ele><time>2026-04-03T11:20:32Z</time></trkpt><trkpt lat="45.51821720196953" lon="11.855146459944468"><ele>17.0</ele><time>2026-04-03T11:20:34Z</time></trkpt><trkpt lat="45.518155679371255" lon="11.85528904390507"><ele>17.0</ele><time>2026-04-03T11:20:36Z</time></trkpt><trkpt lat="45.51809739101953" lon="11.855410355627466"><ele>17.0</ele><time>2026-04-03T11:20:38Z</time></trkpt><trkpt lat="45.51806120745878" lon="11.855485792619625"><ele>17.0</ele><time>2026-04-03T11:20:40Z</time></trkpt><trkpt lat="45.518057609360376" lon="11.855595853502544"><ele>17.0</ele><time>2026-04-03T11:20:42Z</time></trkpt><trkpt lat="45.5181447605925" lon="11.855672246513809"><ele>17.0</ele><time>2026-04-03T11:20:44Z</time></trkpt><trkpt lat="45.51825146508546" lon="11.855706531349812"><ele>17.0</ele><time>2026-04-03T11:20:46Z</time></trkpt><trkpt lat="45.51836275575734" lon="11.855758966665734"><ele>17.0</ele><time>2026-04-03T11:20:48Z</time></trkpt><trkpt lat="45.51847195207029" lon="11.855806376079274"><ele>17.0</ele><time>2026-04-03T11:20:50Z</time></trkpt><trkpt lat="45.518583232296216" lon="11.855857560580004"><ele>17.0</ele><time>2026-04-03T11:20:52Z</time></trkpt><trkpt lat="45.51869572563826" lon="11.855913043871595"><ele>17.0</ele><time>2026-04-03T11:20:54Z</time></trkpt><trkpt lat="45.51880891632983" lon="11.855960439884528"><ele>17.0</ele><time>2026-04-03T11:20:56Z</time></trkpt><trkpt lat="45.51892376062205" lon="11.856012915940527"><ele>17.0</ele><time>2026-04-03T11:20:58Z</time></trkpt><trkpt lat="45.51904084237004" lon="11.85606373613552"><ele>17.0</ele><time>2026-04-03T11:21:00Z</time></trkpt><trkpt lat="45.51915974484514" lon="11.85611816313557"><ele>17.0</ele><time>2026-04-03T11:21:02Z</time></trkpt><trkpt lat="45.51927736060097" lon="11.85617231662243"><ele>17.0</ele><time>2026-04-03T11:21:04Z</time></trkpt><trkpt lat="45.519394303579716" lon="11.856227183623343"><ele>17.0</ele><time>2026-04-03T11:21:06Z</time></trkpt><trkpt lat="45.519456403728654" lon="11.856253153642077"><ele>17.0</ele><time>2026-04-03T11:21:07Z</time></trkpt><trkpt lat="45.51957637578084" lon="11.85630774484645"><ele>16.999999999999996</ele><time>2026-04-03T11:21:09Z</time></trkpt><trkpt lat="45.519635711461724" lon="11.856338785751648"><ele>17.0</ele><time>2026-04-03T11:21:10Z</time></trkpt><trkpt lat="45.51969640528282" lon="11.856364649432862"><ele>17.0</ele><time>2026-04-03T11:21:11Z</time></trkpt><trkpt lat="45.51975744190662" lon="11.856391633366695"><ele>17.0</ele><time>2026-04-03T11:21:12Z</time></trkpt><trkpt lat="45.5198177369884" lon="11.85642325738582"><ele>17.0</ele><time>2026-04-03T11:21:13Z</time></trkpt><trkpt lat="45.519881060103955" lon="11.856446263479196"><ele>16.999999999999996</ele><time>2026-04-03T11:21:14Z</time></trkpt><trkpt lat="45.51994595254793" lon="11.856473522192141"><ele>17.0</ele><time>2026-04-03T11:21:15Z</time></trkpt><trkpt lat="45.520009474981165" lon="11.85650747218694"><ele>16.999999999999996</ele><time>2026-04-03T11:21:16Z</time></trkpt><trkpt lat="45.52007387203979" lon="11.856533542527202"><ele>17.0</ele><time>2026-04-03T11:21:17Z</time></trkpt><trkpt lat="45.52014141829337" lon="11.856562675441646"><ele>17.0</ele><time>2026-04-03T11:21:18Z</time></trkpt><trkpt lat="45.52020509839694" lon="11.856594605950052"><ele>17.0</ele><time>2026-04-03T11:21:19Z</time></trkpt><trkpt lat="45.520271214292265" lon="11.85662506682952"><ele>17.0</ele><time>2026-04-03T11:21:20Z</time></trkpt><trkpt lat="45.52033611375343" lon="11.856651972200005"><ele>16.999999999999996</ele><time>2026-04-03T11:21:21Z</time></trkpt><trkpt lat="45.52040273910424" lon="11.856682032022258"><ele>17.0</ele><time>2026-04-03T11:21:22Z</time></trkpt><trkpt lat="45.52046764305994" lon="11.856712120243813"><ele>16.999999999999996</ele><time>2026-04-03T11:21:23Z</time></trkpt><trkpt lat="45.52053233527395" lon="11.856737212293629"><ele>17.0</ele><time>2026-04-03T11:21:24Z</time></trkpt><trkpt lat="45.52059939734926" lon="11.856770764060435"><ele>17.0</ele><time>2026-04-03T11:21:25Z</time></trkpt><trkpt lat="45.52066238664295" lon="11.856810038356999"><ele>17.0</ele><time>2026-04-03T11:21:26Z</time></trkpt><trkpt lat="45.520727538068584" lon="11.856853250858418"><ele>17.0</ele><time>2026-04-03T11:21:27Z</time></trkpt><trkpt lat="45.520792515495685" lon="11.85689793326013"><ele>16.999999999999996</ele><time>2026-04-03T11:21:28Z</time></trkpt><trkpt lat="45.520858152263145" lon="11.85693690034731"><ele>17.0</ele><time>2026-04-03T11:21:29Z</time></trkpt><trkpt lat="45.52092289573834" lon="11.856977324392085"><ele>17.285714285714285</ele><time>2026-04-03T11:21:30Z</time></trkpt><trkpt lat="45.520988114413754" lon="11.857014968328418"><ele>17.57142857142857</ele><time>2026-04-03T11:21:31Z</time></trkpt><trkpt lat="45.52105236662283" lon="11.857056460414071"><ele>17.857142857142854</ele><time>2026-04-03T11:21:32Z</time></trkpt><trkpt lat="45.521114301343616" lon="11.857109042103083"><ele>18.142857142857142</ele><time>2026-04-03T11:21:33Z</time></trkpt><trkpt lat="45.521171943420285" lon="11.857148614659605"><ele>18.42857142857143</ele><time>2026-04-03T11:21:34Z</time></trkpt><trkpt lat="45.521231324923896" lon="11.857190123224061"><ele>18.71428571428571</ele><time>2026-04-03T11:21:35Z</time></trkpt><trkpt lat="45.52129167929584" lon="11.857229626629486"><ele>19.0</ele><time>2026-04-03T11:21:36Z</time></trkpt><trkpt lat="45.52135034529772" lon="11.857268737225153"><ele>19.0</ele><time>2026-04-03T11:21:37Z</time></trkpt><trkpt lat="45.521452956405106" lon="11.857342944717633"><ele>19.0</ele><time>2026-04-03T11:21:39Z</time></trkpt><trkpt lat="45.52154354397448" lon="11.85739475465822"><ele>19.0</ele><time>2026-04-03T11:21:41Z</time></trkpt><trkpt lat="45.52161148560229" lon="11.857458447723841"><ele>19.0</ele><time>2026-04-03T11:21:43Z</time></trkpt><trkpt lat="45.52158160506424" lon="11.857585445876735"><ele>19.0</ele><time>2026-04-03T11:21:46Z</time></trkpt><trkpt lat="45.52155692207216" lon="11.857674747230083"><ele>19.0</ele><time>2026-04-03T11:21:48Z</time></trkpt><trkpt lat="45.52153205653851" lon="11.85776470760882"><ele>19.0</ele><time>2026-04-03T11:21:51Z</time></trkpt></trkseg><trkseg><trkpt lat="45.521582156337026" lon="11.85765075458244"><ele>19.0</ele><time>2026-04-03T11:45:57Z</time></trkpt><trkpt lat="45.52161940861796" lon="11.857560515381515"><ele>19.0</ele><time>2026-04-03T11:45:59Z</time></trkpt><trkpt lat="45.52166608716811" lon="11.857480621688335"><ele>19.0</ele><time>2026-04-03T11:46:02Z</time></trkpt><trkpt lat="45.521748323291014" lon="11.85751041530286"><ele>19.0</ele><time>2026-04-03T11:46:05Z</time></trkpt><trkpt lat="45.5218206349862" lon="11.857568874969257"><ele>19.0</ele><time>2026-04-03T11:46:07Z</time></trkpt><trkpt lat="45.52189441131106" lon="11.857617168863241"><ele>19.0</ele><time>2026-04-03T11:46:09Z</time></trkpt><trkpt lat="45.52196754287807" lon="11.857671657251561"><ele>19.0</ele><time>2026-04-03T11:46:11Z</time></trkpt><trkpt lat="45.52204533042388" lon="11.857741375606668"><ele>19.0</ele><time>2026-04-03T11:46:13Z</time></trkpt><trkpt lat="45.5221302228478" lon="11.85779366759782"><ele>19.0</ele><time>2026-04-03T11:46:15Z</time></trkpt><trkpt lat="45.52220775360913" lon="11.857842686354987"><ele>19.0</ele><time>2026-04-03T11:46:16.999Z</time></trkpt><trkpt lat="45.52227988800761" lon="11.85789732520432"><ele>19.0</ele><time>2026-04-03T11:46:18.999Z</time></trkpt><trkpt lat="45.52236081542319" lon="11.857941768774154"><ele>19.0</ele><time>2026-04-03T11:46:20.999Z</time></trkpt><trkpt lat="45.52244148262452" lon="11.85799933378804"><ele>19.0</ele><time>2026-04-03T11:46:22.999Z</time></trkpt><trkpt lat="45.52252391219044" lon="11.85805635451536"><ele>19.0</ele><time>2026-04-03T11:46:24.999Z</time></trkpt><trkpt lat="45.52260673578885" lon="11.85810556677162"><ele>19.0</ele><time>2026-04-03T11:46:26.999Z</time></trkpt><trkpt lat="45.52268602682802" lon="11.858151441626987"><ele>19.0</ele><time>2026-04-03T11:46:28.999Z</time></trkpt><trkpt lat="45.52276012294249" lon="11.858221299902919"><ele>19.0</ele><time>2026-04-03T11:46:30.999Z</time></trkpt><trkpt lat="45.52285401080526" lon="11.858266759265181"><ele>19.2</ele><time>2026-04-03T11:46:32.999Z</time></trkpt><trkpt lat="45.52294139478348" lon="11.858329201758421"><ele>19.4</ele><time>2026-04-03T11:46:34.999Z</time></trkpt><trkpt lat="45.52303544289766" lon="11.858391831480679"><ele>19.6</ele><time>2026-04-03T11:46:36.999Z</time></trkpt><trkpt lat="45.52313412747204" lon="11.858454566555155"><ele>19.8</ele><time>2026-04-03T11:46:38.999Z</time></trkpt><trkpt lat="45.52321934599009" lon="11.858511731976309"><ele>20.0</ele><time>2026-04-03T11:46:40.999Z</time></trkpt><trkpt lat="45.52329708995276" lon="11.85857170595785"><ele>19.833333333333336</ele><time>2026-04-03T11:46:42.999Z</time></trkpt><trkpt lat="45.52337040440175" lon="11.858610502124227"><ele>19.666666666666668</ele><time>2026-04-03T11:46:44.999Z</time></trkpt><trkpt lat="45.52343477132271" lon="11.858646756508108"><ele>19.5</ele><time>2026-04-03T11:46:46.999Z</time></trkpt><trkpt lat="45.52351056791375" lon="11.85868376529671"><ele>19.333333333333332</ele><time>2026-04-03T11:46:48.999Z</time></trkpt><trkpt lat="45.523603497697906" lon="11.858702200300783"><ele>19.166666666666664</ele><time>2026-04-03T11:46:50.999Z</time></trkpt><trkpt lat="45.523699788618366" lon="11.85873127228243"><ele>19.0</ele><time>2026-04-03T11:46:52.999Z</time></trkpt><trkpt lat="45.52379411845675" lon="11.858754819168123"><ele>19.0</ele><time>2026-04-03T11:46:54.999Z</time></trkpt><trkpt lat="45.523886485348946" lon="11.858789812384353"><ele>19.0</ele><time>2026-04-03T11:46:57Z</time></trkpt><trkpt lat="45.52398964902503" lon="11.858794444072304"><ele>19.0</ele><time>2026-04-03T11:46:59Z</time></trkpt><trkpt lat="45.52408224206318" lon="11.858796091211595"><ele>19.0</ele><time>2026-04-03T11:47:01Z</time></trkpt><trkpt lat="45.52417037193225" lon="11.85878559055679"><ele>19.0</ele><time>2026-04-03T11:47:03Z</time></trkpt><trkpt lat="45.524263893171856" lon="11.858786518805424"><ele>19.0</ele><time>2026-04-03T11:47:05Z</time></trkpt><trkpt lat="45.52435543980115" lon="11.858812727646507"><ele>19.0</ele><time>2026-04-03T11:47:07Z</time></trkpt><trkpt lat="45.524443765740365" lon="11.858845749523987"><ele>19.0</ele><time>2026-04-03T11:47:09Z</time></trkpt><trkpt lat="45.524537311245474" lon="11.858878446346463"><ele>19.0</ele><time>2026-04-03T11:47:11Z</time></trkpt><trkpt lat="45.5246391105014" lon="11.858918639656608"><ele>19.0</ele><time>2026-04-03T11:47:13Z</time></trkpt><trkpt lat="45.52474427457986" lon="11.858948585586342"><ele>18.8</ele><time>2026-04-03T11:47:15Z</time></trkpt><trkpt lat="45.5248361826929" lon="11.858989381159367"><ele>18.599999999999998</ele><time>2026-04-03T11:47:17Z</time></trkpt><trkpt lat="45.52492943151771" lon="11.859016737154453"><ele>18.4</ele><time>2026-04-03T11:47:19Z</time></trkpt><trkpt lat="45.52501365083422" lon="11.85905733510197"><ele>18.2</ele><time>2026-04-03T11:47:21Z</time></trkpt><trkpt lat="45.52509913115596" lon="11.85909301925194"><ele>18.0</ele><time>2026-04-03T11:47:23Z</time></trkpt><trkpt lat="45.5251807591042" lon="11.859128940598476"><ele>18.0</ele><time>2026-04-03T11:47:25Z</time></trkpt><trkpt lat="45.52526287706291" lon="11.85916017783412"><ele>18.0</ele><time>2026-04-03T11:47:27Z</time></trkpt><trkpt lat="45.525341038890424" lon="11.859191979211069"><ele>18.0</ele><time>2026-04-03T11:47:29Z</time></trkpt><trkpt lat="45.52541898638045" lon="11.859209716020718"><ele>18.0</ele><time>2026-04-03T11:47:31Z</time></trkpt><trkpt lat="45.525491920523734" lon="11.85925219287478"><ele>18.0</ele><time>2026-04-03T11:47:33Z</time></trkpt><trkpt lat="45.525578152241025" lon="11.859280997023696"><ele>18.0</ele><time>2026-04-03T11:47:35Z</time></trkpt><trkpt lat="45.5256732493975" lon="11.85931347425178"><ele>18.2</ele><time>2026-04-03T11:47:37Z</time></trkpt><trkpt lat="45.52577478069022" lon="11.859348483508208"><ele>18.4</ele><time>2026-04-03T11:47:39Z</time></trkpt><trkpt lat="45.525882126539194" lon="11.859384573029265"><ele>18.599999999999998</ele><time>2026-04-03T11:47:41Z</time></trkpt><trkpt lat="45.525991015580004" lon="11.859423360471276"><ele>18.8</ele><time>2026-04-03T11:47:43Z</time></trkpt><trkpt lat="45.52609584592723" lon="11.859450983510122"><ele>19.0</ele><time>2026-04-03T11:47:45Z</time></trkpt><trkpt lat="45.52618879335312" lon="11.85949785662702"><ele>19.0</ele><time>2026-04-03T11:47:47Z</time></trkpt><trkpt lat="45.52628334381494" lon="11.859537870111673"><ele>19.0</ele><time>2026-04-03T11:47:49Z</time></trkpt><trkpt lat="45.52637830286741" lon="11.859570143487188"><ele>19.0</ele><time>2026-04-03T11:47:51Z</time></trkpt><trkpt lat="45.52646791181708" lon="11.859599388970722"><ele>19.0</ele><time>2026-04-03T11:47:53Z</time></trkpt><trkpt lat="45.52656710837258" lon="11.85963994478646"><ele>19.0</ele><time>2026-04-03T11:47:55Z</time></trkpt><trkpt lat="45.52667734952151" lon="11.85967278552876"><ele>19.0</ele><time>2026-04-03T11:47:57Z</time></trkpt><trkpt lat="45.52678745136489" lon="11.859711440005535"><ele>19.0</ele><time>2026-04-03T11:47:59Z</time></trkpt><trkpt lat="45.526897953062914" lon="11.859752301155744"><ele>19.0</ele><time>2026-04-03T11:48:01Z</time></trkpt><trkpt lat="45.527008824817784" lon="11.859791503664283"><ele>19.0</ele><time>2026-04-03T11:48:03Z</time></trkpt><trkpt lat="45.527117357223005" lon="11.859833132481182"><ele>18.75</ele><time>2026-04-03T11:48:05Z</time></trkpt><trkpt lat="45.527232372272195" lon="11.859874857551729"><ele>18.5</ele><time>2026-04-03T11:48:07Z</time></trkpt><trkpt lat="45.52734023152932" lon="11.859916141406803"><ele>18.25</ele><time>2026-04-03T11:48:09Z</time></trkpt><trkpt lat="45.52744805688336" lon="11.859966592325522"><ele>18.0</ele><time>2026-04-03T11:48:11Z</time></trkpt><trkpt lat="45.5275567418962" lon="11.859995893443005"><ele>18.0</ele><time>2026-04-03T11:48:13Z</time></trkpt><trkpt lat="45.52766950970152" lon="11.860033465108526"><ele>18.0</ele><time>2026-04-03T11:48:15Z</time></trkpt><trkpt lat="45.527782737839225" lon="11.860081795057782"><ele>18.0</ele><time>2026-04-03T11:48:16.999Z</time></trkpt><trkpt lat="45.52789714109264" lon="11.86012197156086"><ele>18.0</ele><time>2026-04-03T11:48:18.999Z</time></trkpt><trkpt lat="45.528012441298685" lon="11.860162906874937"><ele>18.0</ele><time>2026-04-03T11:48:20.999Z</time></trkpt><trkpt lat="45.52812589498154" lon="11.860210814461228"><ele>18.0</ele><time>2026-04-03T11:48:22.999Z</time></trkpt><trkpt lat="45.52824265007432" lon="11.860250471904484"><ele>18.0</ele><time>2026-04-03T11:48:24.999Z</time></trkpt><trkpt lat="45.528346590709994" lon="11.860287095606589"><ele>18.0</ele><time>2026-04-03T11:48:26.999Z</time></trkpt><trkpt lat="45.52844981355099" lon="11.860324453847186"><ele>18.0</ele><time>2026-04-03T11:48:28.999Z</time></trkpt><trkpt lat="45.52854673875606" lon="11.860361735763137"><ele>18.0</ele><time>2026-04-03T11:48:30.999Z</time></trkpt><trkpt lat="45.52864015126824" lon="11.860388177517168"><ele>18.0</ele><time>2026-04-03T11:48:32.999Z</time></trkpt><trkpt lat="45.5287280614193" lon="11.860426468473287"><ele>18.0</ele><time>2026-04-03T11:48:34.999Z</time></trkpt><trkpt lat="45.528815598397536" lon="11.860458579231928"><ele>18.0</ele><time>2026-04-03T11:48:36.999Z</time></trkpt><trkpt lat="45.52890354760769" lon="11.860496195150736"><ele>18.166666666666668</ele><time>2026-04-03T11:48:38.999Z</time></trkpt><trkpt lat="45.528983122103085" lon="11.860518247134367"><ele>18.333333333333332</ele><time>2026-04-03T11:48:40.999Z</time></trkpt><trkpt lat="45.529052094520004" lon="11.860550136015535"><ele>18.5</ele><time>2026-04-03T11:48:58.999Z</time></trkpt><trkpt lat="45.52911951328472" lon="11.86056170497263"><ele>18.666666666666664</ele><time>2026-04-03T11:49:01.999Z</time></trkpt><trkpt lat="45.529212446136995" lon="11.860597550226272"><ele>18.833333333333332</ele><time>2026-04-03T11:49:05Z</time></trkpt><trkpt lat="45.52928914675159" lon="11.860621677169117"><ele>19.0</ele><time>2026-04-03T11:49:07Z</time></trkpt><trkpt lat="45.52937399897567" lon="11.860649540772727"><ele>19.0</ele><time>2026-04-03T11:49:09Z</time></trkpt><trkpt lat="45.529459841200506" lon="11.860696875701336"><ele>19.0</ele><time>2026-04-03T11:49:11Z</time></trkpt><trkpt lat="45.529557118127954" lon="11.86072364785512"><ele>19.0</ele><time>2026-04-03T11:49:13Z</time></trkpt><trkpt lat="45.52964507911252" lon="11.860752198093834"><ele>19.0</ele><time>2026-04-03T11:49:15Z</time></trkpt><trkpt lat="45.529735866180275" lon="11.860799275682442"><ele>19.0</ele><time>2026-04-03T11:49:17Z</time></trkpt><trkpt lat="45.529843224337625" lon="11.86082894678033"><ele>19.25</ele><time>2026-04-03T11:49:19Z</time></trkpt><trkpt lat="45.529947072069085" lon="11.860878182796045"><ele>19.5</ele><time>2026-04-03T11:49:21Z</time></trkpt><trkpt lat="45.530059034555364" lon="11.860914579722174"><ele>19.75</ele><time>2026-04-03T11:49:23Z</time></trkpt><trkpt lat="45.53017145071044" lon="11.860963016432574"><ele>20.0</ele><time>2026-04-03T11:49:25Z</time></trkpt><trkpt lat="45.53028216166191" lon="11.861005563293432"><ele>19.8</ele><time>2026-04-03T11:49:27Z</time></trkpt><trkpt lat="45.53038947273946" lon="11.861044381555857"><ele>19.6</ele><time>2026-04-03T11:49:29Z</time></trkpt><trkpt lat="45.530499559248014" lon="11.861084944944583"><ele>19.4</ele><time>2026-04-03T11:49:31Z</time></trkpt><trkpt lat="45.53060719569603" lon="11.861118484075012"><ele>19.2</ele><time>2026-04-03T11:49:33Z</time></trkpt><trkpt lat="45.53070943456981" lon="11.861156982253553"><ele>19.0</ele><time>2026-04-03T11:49:35Z</time></trkpt><trkpt lat="45.53080952744879" lon="11.861184813035116"><ele>19.0</ele><time>2026-04-03T11:49:37Z</time></trkpt><trkpt lat="45.53090481731296" lon="11.86122217483332"><ele>19.0</ele><time>2026-04-03T11:49:39Z</time></trkpt><trkpt lat="45.53100197646868" lon="11.861260953640567"><ele>19.0</ele><time>2026-04-03T11:49:41Z</time></trkpt><trkpt lat="45.5311121796326" lon="11.861296090782256"><ele>19.0</ele><time>2026-04-03T11:49:43Z</time></trkpt><trkpt lat="45.53122170415749" lon="11.861339855059313"><ele>19.0</ele><time>2026-04-03T11:49:45Z</time></trkpt><trkpt lat="45.53132922642375" lon="11.86137561931031"><ele>18.8</ele><time>2026-04-03T11:49:47Z</time></trkpt><trkpt lat="45.531436911404306" lon="11.861416050028582"><ele>18.599999999999998</ele><time>2026-04-03T11:49:49Z</time></trkpt><trkpt lat="45.53154295587291" lon="11.861447531613617"><ele>18.4</ele><time>2026-04-03T11:49:51Z</time></trkpt><trkpt lat="45.53164935924288" lon="11.861495884285679"><ele>18.2</ele><time>2026-04-03T11:49:52.999Z</time></trkpt><trkpt lat="45.53174744081073" lon="11.861526486111286"><ele>18.0</ele><time>2026-04-03T11:49:54.999Z</time></trkpt><trkpt lat="45.5318521426259" lon="11.86156682191635"><ele>18.0</ele><time>2026-04-03T11:49:56.999Z</time></trkpt><trkpt lat="45.53195964569611" lon="11.861603842146302"><ele>18.0</ele><time>2026-04-03T11:49:58.999Z</time></trkpt><trkpt lat="45.53206856549315" lon="11.861652187154677"><ele>18.0</ele><time>2026-04-03T11:50:00.999Z</time></trkpt><trkpt lat="45.53218334902862" lon="11.86168550210018"><ele>18.0</ele><time>2026-04-03T11:50:02.999Z</time></trkpt><trkpt lat="45.532293970085114" lon="11.861725512970411"><ele>18.0</ele><time>2026-04-03T11:50:04.999Z</time></trkpt><trkpt lat="45.53239915157413" lon="11.861759815932437"><ele>18.0</ele><time>2026-04-03T11:50:06.999Z</time></trkpt><trkpt lat="45.532497931196986" lon="11.861798543794386"><ele>18.0</ele><time>2026-04-03T11:50:08.999Z</time></trkpt><trkpt lat="45.532604945202436" lon="11.861840693318427"><ele>18.0</ele><time>2026-04-03T11:50:10.999Z</time></trkpt><trkpt lat="45.53271807503247" lon="11.86187939662692"><ele>18.0</ele><time>2026-04-03T11:50:12.999Z</time></trkpt><trkpt lat="45.53277903774744" lon="11.86190279895165"><ele>18.0</ele><time>2026-04-03T11:50:13.999Z</time></trkpt><trkpt lat="45.53284366099011" lon="11.861923845513564"><ele>18.0</ele><time>2026-04-03T11:50:14.999Z</time></trkpt><trkpt lat="45.53295209415699" lon="11.86196061099188"><ele>18.0</ele><time>2026-04-03T11:50:16.999Z</time></trkpt><trkpt lat="45.533056378335196" lon="11.862005797679837"><ele>18.0</ele><time>2026-04-03T11:50:18.999Z</time></trkpt><trkpt lat="45.53315337336228" lon="11.862053030089331"><ele>18.0</ele><time>2026-04-03T11:50:20.999Z</time></trkpt><trkpt lat="45.53325733500911" lon="11.862081690781157"><ele>18.166666666666668</ele><time>2026-04-03T11:50:22.999Z</time></trkpt><trkpt lat="45.53332639094022" lon="11.862118174918871"><ele>18.333333333333332</ele><time>2026-04-03T11:50:24.999Z</time></trkpt><trkpt lat="45.53339276749181" lon="11.862131707999573"><ele>18.5</ele><time>2026-04-03T11:50:26.999Z</time></trkpt><trkpt lat="45.533500275199124" lon="11.862188061510556"><ele>18.666666666666664</ele><time>2026-04-03T11:50:27.999Z</time></trkpt><trkpt lat="45.53357215398925" lon="11.862214118620077"><ele>18.833333333333332</ele><time>2026-04-03T11:50:28.999Z</time></trkpt><trkpt lat="45.53364501269579" lon="11.862230085710937"><ele>19.0</ele><time>2026-04-03T11:50:29.999Z</time></trkpt><trkpt lat="45.533782556800844" lon="11.86225902709814"><ele>19.0</ele><time>2026-04-03T11:50:31.999Z</time></trkpt><trkpt lat="45.53389484069184" lon="11.86229444415283"><ele>19.0</ele><time>2026-04-03T11:50:33.999Z</time></trkpt><trkpt lat="45.53401028155801" lon="11.862323908839189"><ele>19.0</ele><time>2026-04-03T11:50:35.999Z</time></trkpt><trkpt lat="45.53412670801894" lon="11.862372617280444"><ele>19.0</ele><time>2026-04-03T11:50:37.999Z</time></trkpt><trkpt lat="45.53419393704727" lon="11.862395497642789"><ele>19.0</ele><time>2026-04-03T11:50:38.999Z</time></trkpt><trkpt lat="45.534312764725776" lon="11.862440551617578"><ele>19.0</ele><time>2026-04-03T11:50:40.999Z</time></trkpt><trkpt lat="45.5343773353798" lon="11.862464022083113"><ele>19.0</ele><time>2026-04-03T11:50:41.999Z</time></trkpt><trkpt lat="45.53449892819059" lon="11.862511308079762"><ele>19.0</ele><time>2026-04-03T11:50:43.999Z</time></trkpt><trkpt lat="45.53456168336487" lon="11.862525483420649"><ele>19.0</ele><time>2026-04-03T11:50:44.999Z</time></trkpt><trkpt lat="45.53462731242999" lon="11.86254441811964"><ele>19.0</ele><time>2026-04-03T11:50:45.999Z</time></trkpt><trkpt lat="45.534694497536904" lon="11.862570780084239"><ele>19.0</ele><time>2026-04-03T11:50:46.999Z</time></trkpt><trkpt lat="45.53481129854241" lon="11.8626128254899"><ele>19.166666666666664</ele><time>2026-04-03T11:50:48.999Z</time></trkpt><trkpt lat="45.53487441702493" lon="11.862631827962561"><ele>19.333333333333332</ele><time>2026-04-03T11:50:49.999Z</time></trkpt><trkpt lat="45.53499121137219" lon="11.86267101025015"><ele>19.5</ele><time>2026-04-03T11:50:51.999Z</time></trkpt><trkpt lat="45.53505785230529" lon="11.862695806537234"><ele>19.666666666666668</ele><time>2026-04-03T11:50:52.999Z</time></trkpt><trkpt lat="45.53517989063142" lon="11.86273445727635"><ele>19.833333333333336</ele><time>2026-04-03T11:50:54.999Z</time></trkpt><trkpt lat="45.535244451040604" lon="11.86275347743259"><ele>20.0</ele><time>2026-04-03T11:50:55.999Z</time></trkpt><trkpt lat="45.53530672017435" lon="11.862771259228726"><ele>20.0</ele><time>2026-04-03T11:50:56.999Z</time></trkpt><trkpt lat="45.53542843723224" lon="11.86281328365553"><ele>20.0</ele><time>2026-04-03T11:50:58.999Z</time></trkpt><trkpt lat="45.53554665318991" lon="11.862853868102617"><ele>20.0</ele><time>2026-04-03T11:51:00.999Z</time></trkpt><trkpt lat="45.53565648950206" lon="11.86289211710908"><ele>20.0</ele><time>2026-04-03T11:51:02.999Z</time></trkpt><trkpt lat="45.53576610752223" lon="11.862929998089413"><ele>20.0</ele><time>2026-04-03T11:51:04.999Z</time></trkpt><trkpt lat="45.535874131160526" lon="11.86297055882235"><ele>20.0</ele><time>2026-04-03T11:51:06.999Z</time></trkpt><trkpt lat="45.5359890778809" lon="11.863020465310493"><ele>20.0</ele><time>2026-04-03T11:51:08.999Z</time></trkpt><trkpt lat="45.53609520087717" lon="11.863047678020699"><ele>20.0</ele><time>2026-04-03T11:51:10.999Z</time></trkpt><trkpt lat="45.53619514397083" lon="11.863119483362699"><ele>20.0</ele><time>2026-04-03T11:51:12.999Z</time></trkpt><trkpt lat="45.5362575236079" lon="11.863246614416989"><ele>20.0</ele><time>2026-04-03T11:51:15Z</time></trkpt><trkpt lat="45.536259828933815" lon="11.863397185338973"><ele>20.0</ele><time>2026-04-03T11:51:17Z</time></trkpt><trkpt lat="45.53624867783955" lon="11.863550408802956"><ele>20.0</ele><time>2026-04-03T11:51:19Z</time></trkpt><trkpt lat="45.53622843387756" lon="11.863700923444974"><ele>20.0</ele><time>2026-04-03T11:51:21Z</time></trkpt><trkpt lat="45.53622374339324" lon="11.863864380427602"><ele>20.0</ele><time>2026-04-03T11:51:23Z</time></trkpt><trkpt lat="45.536212761792804" lon="11.864014244536033"><ele>20.0</ele><time>2026-04-03T11:51:25Z</time></trkpt><trkpt lat="45.53618243159949" lon="11.86416686356277"><ele>20.0</ele><time>2026-04-03T11:51:27Z</time></trkpt><trkpt lat="45.53615477538806" lon="11.864314378153205"><ele>20.0</ele><time>2026-04-03T11:51:29Z</time></trkpt><trkpt lat="45.53612728487437" lon="11.864408739483723"><ele>20.0</ele><time>2026-04-03T11:51:32Z</time></trkpt><trkpt lat="45.53611276273093" lon="11.864516479812766"><ele>19.75</ele><time>2026-04-03T11:51:35Z</time></trkpt><trkpt lat="45.53601671710379" lon="11.864812446668989"><ele>19.5</ele><time>2026-04-03T11:51:36Z</time></trkpt><trkpt lat="45.53598924208972" lon="11.864894699297112"><ele>19.25</ele><time>2026-04-03T11:51:37Z</time></trkpt><trkpt lat="45.535957027391454" lon="11.865051094198071"><ele>19.0</ele><time>2026-04-03T11:51:39Z</time></trkpt><trkpt lat="45.5359243297455" lon="11.865219523225212"><ele>19.0</ele><time>2026-04-03T11:51:41Z</time></trkpt><trkpt lat="45.53587588471107" lon="11.865364537183567"><ele>19.0</ele><time>2026-04-03T11:51:43Z</time></trkpt><trkpt lat="45.53584334182639" lon="11.865542514030883"><ele>19.0</ele><time>2026-04-03T11:51:45Z</time></trkpt><trkpt lat="45.53581907267811" lon="11.865627460410229"><ele>19.0</ele><time>2026-04-03T11:51:46Z</time></trkpt><trkpt lat="45.53581249003573" lon="11.865732149850555"><ele>19.0</ele><time>2026-04-03T11:51:47Z</time></trkpt><trkpt lat="45.53577057982686" lon="11.865891141463818"><ele>18.833333333333332</ele><time>2026-04-03T11:51:49Z</time></trkpt><trkpt lat="45.53572671708057" lon="11.866004299127734"><ele>18.666666666666664</ele><time>2026-04-03T11:51:51Z</time></trkpt><trkpt lat="45.53569246404666" lon="11.866165548063154"><ele>18.5</ele><time>2026-04-03T11:51:53Z</time></trkpt><trkpt lat="45.53566354762299" lon="11.866247508481216"><ele>18.333333333333332</ele><time>2026-04-03T11:51:54Z</time></trkpt><trkpt lat="45.53564367907535" lon="11.866333520202522"><ele>18.166666666666668</ele><time>2026-04-03T11:51:55Z</time></trkpt><trkpt lat="45.53562139962899" lon="11.866429029127515"><ele>18.0</ele><time>2026-04-03T11:51:56Z</time></trkpt><trkpt lat="45.535610196838476" lon="11.86652471478994"><ele>18.0</ele><time>2026-04-03T11:51:57Z</time></trkpt><trkpt lat="45.5355759969806" lon="11.866695308264639"><ele>18.0</ele><time>2026-04-03T11:51:59Z</time></trkpt><trkpt lat="45.53554331019518" lon="11.86686192993494"><ele>18.0</ele><time>2026-04-03T11:52:01Z</time></trkpt><trkpt lat="45.53551500602309" lon="11.867028380427266"><ele>18.0</ele><time>2026-04-03T11:52:03Z</time></trkpt><trkpt lat="45.53549655175341" lon="11.867128444647403"><ele>18.0</ele><time>2026-04-03T11:52:04Z</time></trkpt><trkpt lat="45.535461915184676" lon="11.86730045909992"><ele>18.000000000000004</ele><time>2026-04-03T11:52:06Z</time></trkpt><trkpt lat="45.53544267691999" lon="11.867386681586144"><ele>18.0</ele><time>2026-04-03T11:52:07Z</time></trkpt><trkpt lat="45.535426114637026" lon="11.867476074473934"><ele>18.0</ele><time>2026-04-03T11:52:08Z</time></trkpt><trkpt lat="45.53540828970594" lon="11.867567978877245"><ele>18.0</ele><time>2026-04-03T11:52:09Z</time></trkpt><trkpt lat="45.535395393107436" lon="11.86766310608002"><ele>18.0</ele><time>2026-04-03T11:52:10Z</time></trkpt><trkpt lat="45.53538239275737" lon="11.867755176179813"><ele>18.000000000000004</ele><time>2026-04-03T11:52:11Z</time></trkpt><trkpt lat="45.53534838957627" lon="11.867919253859208"><ele>18.0</ele><time>2026-04-03T11:52:13Z</time></trkpt><trkpt lat="45.5353281828165" lon="11.868081990858999"><ele>17.8</ele><time>2026-04-03T11:52:15Z</time></trkpt><trkpt lat="45.53529789457418" lon="11.868211288051533"><ele>17.6</ele><time>2026-04-03T11:52:17Z</time></trkpt><trkpt lat="45.535270672412494" lon="11.868326191315731"><ele>17.4</ele><time>2026-04-03T11:52:19Z</time></trkpt><trkpt lat="45.53524358901506" lon="11.86849408451194"><ele>17.2</ele><time>2026-04-03T11:52:21Z</time></trkpt><trkpt lat="45.53521867202603" lon="11.868676257644271"><ele>17.0</ele><time>2026-04-03T11:52:23Z</time></trkpt><trkpt lat="45.53518948555886" lon="11.868829343089233"><ele>17.0</ele><time>2026-04-03T11:52:25Z</time></trkpt><trkpt lat="45.535160822101425" lon="11.86898060762092"><ele>17.0</ele><time>2026-04-03T11:52:27Z</time></trkpt><trkpt lat="45.53513964413162" lon="11.869148329310251"><ele>17.0</ele><time>2026-04-03T11:52:29Z</time></trkpt><trkpt lat="45.53511808338538" lon="11.869294990001391"><ele>17.0</ele><time>2026-04-03T11:52:31Z</time></trkpt><trkpt lat="45.53509140503179" lon="11.869445386836182"><ele>17.0</ele><time>2026-04-03T11:52:33Z</time></trkpt><trkpt lat="45.53507921469515" lon="11.869537593475954"><ele>17.0</ele><time>2026-04-03T11:52:34Z</time></trkpt><trkpt lat="45.535051100119354" lon="11.869712649091161"><ele>17.0</ele><time>2026-04-03T11:52:36Z</time></trkpt><trkpt lat="45.53502191875652" lon="11.86990122758902"><ele>17.0</ele><time>2026-04-03T11:52:38Z</time></trkpt><trkpt lat="45.535005753299394" lon="11.869992846416311"><ele>17.0</ele><time>2026-04-03T11:52:39Z</time></trkpt><trkpt lat="45.5349897302156" lon="11.870082798611314"><ele>17.0</ele><time>2026-04-03T11:52:40Z</time></trkpt><trkpt lat="45.534974483791004" lon="11.870181656182897"><ele>17.166666666666668</ele><time>2026-04-03T11:52:41Z</time></trkpt><trkpt lat="45.53495388420519" lon="11.870268800570278"><ele>17.333333333333336</ele><time>2026-04-03T11:52:42Z</time></trkpt><trkpt lat="45.53493780956038" lon="11.870361508244795"><ele>17.5</ele><time>2026-04-03T11:52:43Z</time></trkpt><trkpt lat="45.534927705223346" lon="11.870460820057108"><ele>17.666666666666668</ele><time>2026-04-03T11:52:44Z</time></trkpt><trkpt lat="45.534901090415204" lon="11.870627381305463"><ele>17.833333333333332</ele><time>2026-04-03T11:52:46Z</time></trkpt><trkpt lat="45.534866768430184" lon="11.870785813027403"><ele>18.0</ele><time>2026-04-03T11:52:48Z</time></trkpt><trkpt lat="45.5348371072766" lon="11.870951755916847"><ele>18.25</ele><time>2026-04-03T11:52:50Z</time></trkpt><trkpt lat="45.53479886204187" lon="11.871112738417029"><ele>18.5</ele><time>2026-04-03T11:52:52Z</time></trkpt><trkpt lat="45.534758570944156" lon="11.871268743083725"><ele>18.75</ele><time>2026-04-03T11:52:53.999Z</time></trkpt><trkpt lat="45.53472202710352" lon="11.871398185706648"><ele>19.0</ele><time>2026-04-03T11:52:55.999Z</time></trkpt><trkpt lat="45.53469056873503" lon="11.87156055514618"><ele>19.0</ele><time>2026-04-03T11:52:57.999Z</time></trkpt><trkpt lat="45.534660160761085" lon="11.871688033943892"><ele>19.0</ele><time>2026-04-03T11:52:59.999Z</time></trkpt><trkpt lat="45.53464218044397" lon="11.871804051624759"><ele>19.0</ele><time>2026-04-03T11:53:01.999Z</time></trkpt><trkpt lat="45.53464208527488" lon="11.871910006883285"><ele>19.0</ele><time>2026-04-03T11:53:03.999Z</time></trkpt><trkpt lat="45.534651960352406" lon="11.872008715200218"><ele>19.0</ele><time>2026-04-03T11:53:07.999Z</time></trkpt><trkpt lat="45.53473587276878" lon="11.872043234096756"><ele>19.0</ele><time>2026-04-03T11:53:13.999Z</time></trkpt><trkpt lat="45.53480433832267" lon="11.872074696901327"><ele>19.0</ele><time>2026-04-03T11:53:17Z</time></trkpt><trkpt lat="45.53484518891689" lon="11.872183177404231"><ele>19.0</ele><time>2026-04-03T11:53:25Z</time></trkpt><trkpt lat="45.534935845072184" lon="11.87223692456427"><ele>19.0</ele><time>2026-04-03T11:53:27Z</time></trkpt><trkpt lat="45.53502082572628" lon="11.872288424757143"><ele>19.0</ele><time>2026-04-03T11:53:29Z</time></trkpt><trkpt lat="45.53513191195516" lon="11.872342360245186"><ele>19.0</ele><time>2026-04-03T11:53:31Z</time></trkpt><trkpt lat="45.53524344080252" lon="11.872415405701854"><ele>19.0</ele><time>2026-04-03T11:53:33Z</time></trkpt><trkpt lat="45.535306509215275" lon="11.872439660130471"><ele>19.0</ele><time>2026-04-03T11:53:34Z</time></trkpt><trkpt lat="45.53536771191487" lon="11.872473586747702"><ele>19.0</ele><time>2026-04-03T11:53:35Z</time></trkpt><trkpt lat="45.535429802977404" lon="11.872499941656324"><ele>19.0</ele><time>2026-04-03T11:53:36Z</time></trkpt><trkpt lat="45.53554670981358" lon="11.872497399445802"><ele>19.0</ele><time>2026-04-03T11:53:38Z</time></trkpt><trkpt lat="45.535661812992295" lon="11.8725516868127"><ele>19.0</ele><time>2026-04-03T11:53:40Z</time></trkpt><trkpt lat="45.5357263666939" lon="11.872577223701033"><ele>19.2</ele><time>2026-04-03T11:53:41Z</time></trkpt><trkpt lat="45.535789052188335" lon="11.872611740078394"><ele>19.4</ele><time>2026-04-03T11:53:42Z</time></trkpt><trkpt lat="45.53585103272448" lon="11.872651058070895"><ele>19.6</ele><time>2026-04-03T11:53:43Z</time></trkpt><trkpt lat="45.53597507888181" lon="11.872704207716614"><ele>19.8</ele><time>2026-04-03T11:53:45Z</time></trkpt><trkpt lat="45.536096451673956" lon="11.872737628599177"><ele>20.0</ele><time>2026-04-03T11:53:47Z</time></trkpt><trkpt lat="45.53621640893226" lon="11.872747400085196"><ele>19.8</ele><time>2026-04-03T11:53:49Z</time></trkpt><trkpt lat="45.53633734215229" lon="11.872776741503632"><ele>19.6</ele><time>2026-04-03T11:53:51Z</time></trkpt><trkpt lat="45.5364042986471" lon="11.872804456917127"><ele>19.4</ele><time>2026-04-03T11:53:52Z</time></trkpt><trkpt lat="45.53646632699553" lon="11.872832341804111"><ele>19.2</ele><time>2026-04-03T11:53:53Z</time></trkpt><trkpt lat="45.53653340652886" lon="11.87285437905787"><ele>19.0</ele><time>2026-04-03T11:53:54Z</time></trkpt><trkpt lat="45.53665624204744" lon="11.872909368477483"><ele>19.0</ele><time>2026-04-03T11:53:56Z</time></trkpt><trkpt lat="45.53671965289815" lon="11.872937016617826"><ele>19.0</ele><time>2026-04-03T11:53:57Z</time></trkpt><trkpt lat="45.536788854029965" lon="11.872958549680272"><ele>19.0</ele><time>2026-04-03T11:53:58Z</time></trkpt><trkpt lat="45.53685906228282" lon="11.872971855635921"><ele>19.0</ele><time>2026-04-03T11:53:59Z</time></trkpt><trkpt lat="45.53692792779678" lon="11.872998460937978"><ele>19.0</ele><time>2026-04-03T11:54:00Z</time></trkpt><trkpt lat="45.53699360760859" lon="11.873021608514833"><ele>19.0</ele><time>2026-04-03T11:54:01Z</time></trkpt><trkpt lat="45.53705705829969" lon="11.873048121683647"><ele>19.0</ele><time>2026-04-03T11:54:02Z</time></trkpt><trkpt lat="45.53717299103364" lon="11.873093172342804"><ele>19.5</ele><time>2026-04-03T11:54:04Z</time></trkpt><trkpt lat="45.53724074286765" lon="11.873108969263027"><ele>20.0</ele><time>2026-04-03T11:54:05Z</time></trkpt><trkpt lat="45.53730393048622" lon="11.873129671751983"><ele>20.5</ele><time>2026-04-03T11:54:06Z</time></trkpt><trkpt lat="45.53736774566196" lon="11.873154775117479"><ele>21.0</ele><time>2026-04-03T11:54:07Z</time></trkpt><trkpt lat="45.53749386708934" lon="11.873186916359007"><ele>21.5</ele><time>2026-04-03T11:54:09Z</time></trkpt><trkpt lat="45.53756763649428" lon="11.8732100547908"><ele>22.0</ele><time>2026-04-03T11:54:10Z</time></trkpt><trkpt lat="45.53763799589586" lon="11.873235708869053"><ele>22.0</ele><time>2026-04-03T11:54:11Z</time></trkpt><trkpt lat="45.53770576012494" lon="11.873255066184099"><ele>22.0</ele><time>2026-04-03T11:54:12Z</time></trkpt><trkpt lat="45.53777326001798" lon="11.873276589659127"><ele>22.0</ele><time>2026-04-03T11:54:13Z</time></trkpt><trkpt lat="45.53783989886367" lon="11.873293778661237"><ele>22.0</ele><time>2026-04-03T11:54:14Z</time></trkpt><trkpt lat="45.5379016578244" lon="11.873314936697048"><ele>22.0</ele><time>2026-04-03T11:54:15Z</time></trkpt><trkpt lat="45.53801368845253" lon="11.873354826438296"><ele>22.0</ele><time>2026-04-03T11:54:17Z</time></trkpt><trkpt lat="45.53813519595912" lon="11.873387053839659"><ele>21.8</ele><time>2026-04-03T11:54:19Z</time></trkpt><trkpt lat="45.53826046010212" lon="11.873429948892946"><ele>21.6</ele><time>2026-04-03T11:54:21Z</time></trkpt><trkpt lat="45.5383307225292" lon="11.87345301470486"><ele>21.400000000000002</ele><time>2026-04-03T11:54:22Z</time></trkpt><trkpt lat="45.53839573308205" lon="11.873475907817486"><ele>21.200000000000003</ele><time>2026-04-03T11:54:23Z</time></trkpt><trkpt lat="45.538516662345046" lon="11.873523946723543"><ele>21.0</ele><time>2026-04-03T11:54:25Z</time></trkpt><trkpt lat="45.53858122505883" lon="11.873550202285763"><ele>21.0</ele><time>2026-04-03T11:54:26Z</time></trkpt><trkpt lat="45.53870386099551" lon="11.873604407758549"><ele>21.0</ele><time>2026-04-03T11:54:28Z</time></trkpt><trkpt lat="45.538773645257336" lon="11.873625885271844"><ele>21.0</ele><time>2026-04-03T11:54:29Z</time></trkpt><trkpt lat="45.538844454115605" lon="11.873645739387817"><ele>21.0</ele><time>2026-04-03T11:54:30Z</time></trkpt><trkpt lat="45.53890996751579" lon="11.873673847378129"><ele>21.0</ele><time>2026-04-03T11:54:31Z</time></trkpt><trkpt lat="45.538975948163994" lon="11.873699942415612"><ele>21.0</ele><time>2026-04-03T11:54:32Z</time></trkpt><trkpt lat="45.53903847761374" lon="11.873728071988202"><ele>20.8</ele><time>2026-04-03T11:54:33Z</time></trkpt><trkpt lat="45.53910403633762" lon="11.873749874713887"><ele>20.6</ele><time>2026-04-03T11:54:34Z</time></trkpt><trkpt lat="45.539165639937046" lon="11.873778650401531"><ele>20.4</ele><time>2026-04-03T11:54:35Z</time></trkpt><trkpt lat="45.53929284671096" lon="11.8738294284471"><ele>20.2</ele><time>2026-04-03T11:54:37Z</time></trkpt><trkpt lat="45.539419380044656" lon="11.873882951007351"><ele>20.0</ele><time>2026-04-03T11:54:39Z</time></trkpt><trkpt lat="45.53954795449078" lon="11.87393399879346"><ele>20.166666666666668</ele><time>2026-04-03T11:54:41Z</time></trkpt><trkpt lat="45.53966798153202" lon="11.873986277636524"><ele>20.333333333333336</ele><time>2026-04-03T11:54:43Z</time></trkpt><trkpt lat="45.539733401530555" lon="11.87401403862358"><ele>20.5</ele><time>2026-04-03T11:54:44Z</time></trkpt><trkpt lat="45.53979873142579" lon="11.874036476482038"><ele>20.666666666666668</ele><time>2026-04-03T11:54:45Z</time></trkpt><trkpt lat="45.53986219955027" lon="11.8740604832673"><ele>20.833333333333332</ele><time>2026-04-03T11:54:46Z</time></trkpt><trkpt lat="45.53992749954799" lon="11.874086487475564"><ele>21.0</ele><time>2026-04-03T11:54:47Z</time></trkpt><trkpt lat="45.540040675111676" lon="11.874135175740111"><ele>21.0</ele><time>2026-04-03T11:54:49Z</time></trkpt><trkpt lat="45.54012527028533" lon="11.874168614758805"><ele>21.0</ele><time>2026-04-03T11:54:51Z</time></trkpt><trkpt lat="45.54015051564701" lon="11.874284525711445"><ele>21.0</ele><time>2026-04-03T11:54:53Z</time></trkpt><trkpt lat="45.540103773091765" lon="11.874400275593565"><ele>21.0</ele><time>2026-04-03T11:54:55Z</time></trkpt><trkpt lat="45.5400788746218" lon="11.874485674886744"><ele>21.0</ele><time>2026-04-03T11:54:56Z</time></trkpt><trkpt lat="45.54004270845202" lon="11.87463035324481"><ele>21.0</ele><time>2026-04-03T11:54:58Z</time></trkpt><trkpt lat="45.539998449547895" lon="11.874774145715014"><ele>21.0</ele><time>2026-04-03T11:55:00Z</time></trkpt><trkpt lat="45.53996437142136" lon="11.874910052617873"><ele>21.0</ele><time>2026-04-03T11:55:02Z</time></trkpt><trkpt lat="45.54004347663093" lon="11.875031299603254"><ele>21.0</ele><time>2026-04-03T11:55:04Z</time></trkpt><trkpt lat="45.54016274946997" lon="11.875052921652133"><ele>21.0</ele><time>2026-04-03T11:55:06Z</time></trkpt><trkpt lat="45.54022643658667" lon="11.875072288696048"><ele>21.0</ele><time>2026-04-03T11:55:07Z</time></trkpt><trkpt lat="45.54029681744439" lon="11.875087595784453"><ele>21.0</ele><time>2026-04-03T11:55:08Z</time></trkpt><trkpt lat="45.54035806599463" lon="11.875116042319691"><ele>21.0</ele><time>2026-04-03T11:55:09Z</time></trkpt><trkpt lat="45.54046241955977" lon="11.875163612897294"><ele>21.0</ele><time>2026-04-03T11:55:11Z</time></trkpt><trkpt lat="45.540537945423814" lon="11.875210636054119"><ele>21.0</ele><time>2026-04-03T11:55:14Z</time></trkpt><trkpt lat="45.54062367519049" lon="11.875252200946232"><ele>21.0</ele><time>2026-04-03T11:55:16Z</time></trkpt><trkpt lat="45.5407305993102" lon="11.875304863307088"><ele>21.200000000000003</ele><time>2026-04-03T11:55:18Z</time></trkpt><trkpt lat="45.54078482843847" lon="11.875353075109901"><ele>21.400000000000002</ele><time>2026-04-03T11:55:19Z</time></trkpt><trkpt lat="45.54090640418047" lon="11.875409952558297"><ele>21.6</ele><time>2026-04-03T11:55:21Z</time></trkpt><trkpt lat="45.541028247162316" lon="11.875451062931576"><ele>21.8</ele><time>2026-04-03T11:55:23Z</time></trkpt><trkpt lat="45.54114237417021" lon="11.875492663815109"><ele>22.0</ele><time>2026-04-03T11:55:25Z</time></trkpt><trkpt lat="45.541204273294696" lon="11.875519628721182"><ele>22.200000000000003</ele><time>2026-04-03T11:55:26Z</time></trkpt><trkpt lat="45.541316679755056" lon="11.875561821380439"><ele>22.4</ele><time>2026-04-03T11:55:28Z</time></trkpt><trkpt lat="45.541431916915315" lon="11.8755926759112"><ele>22.6</ele><time>2026-04-03T11:55:30Z</time></trkpt><trkpt lat="45.54149110010131" lon="11.87562862341832"><ele>22.799999999999997</ele><time>2026-04-03T11:55:31Z</time></trkpt><trkpt lat="45.54155521531631" lon="11.875646381498163"><ele>23.0</ele><time>2026-04-03T11:55:32Z</time></trkpt><trkpt lat="45.541675398866374" lon="11.875683097139207"><ele>23.0</ele><time>2026-04-03T11:55:34Z</time></trkpt><trkpt lat="45.541737033716075" lon="11.875712764249938"><ele>23.0</ele><time>2026-04-03T11:55:35Z</time></trkpt><trkpt lat="45.541845676922236" lon="11.875762792305666"><ele>23.0</ele><time>2026-04-03T11:55:37Z</time></trkpt><trkpt lat="45.5419582101656" lon="11.875812262097908"><ele>23.0</ele><time>2026-04-03T11:55:39Z</time></trkpt><trkpt lat="45.54206179460151" lon="11.875859397377718"><ele>23.0</ele><time>2026-04-03T11:55:41Z</time></trkpt><trkpt lat="45.54217626478991" lon="11.87590556982966"><ele>23.0</ele><time>2026-04-03T11:55:43Z</time></trkpt><trkpt lat="45.54228845123785" lon="11.87595402508565"><ele>23.0</ele><time>2026-04-03T11:55:45Z</time></trkpt><trkpt lat="45.542420280096906" lon="11.875990445474521"><ele>23.0</ele><time>2026-04-03T11:55:47Z</time></trkpt><trkpt lat="45.542539818546736" lon="11.876038301068409"><ele>23.0</ele><time>2026-04-03T11:55:49Z</time></trkpt><trkpt lat="45.542605869827206" lon="11.8760643901344"><ele>23.0</ele><time>2026-04-03T11:55:50Z</time></trkpt><trkpt lat="45.54271673214546" lon="11.876137240457252"><ele>23.0</ele><time>2026-04-03T11:55:52Z</time></trkpt><trkpt lat="45.54279228448659" lon="11.876239697310856"><ele>23.0</ele><time>2026-04-03T11:55:54Z</time></trkpt><trkpt lat="45.54284699325452" lon="11.876319747728541"><ele>23.0</ele><time>2026-04-03T11:55:55Z</time></trkpt><trkpt lat="45.54288776744632" lon="11.876392788928168"><ele>23.0</ele><time>2026-04-03T11:55:56Z</time></trkpt><trkpt lat="45.54293350524137" lon="11.876525967544106"><ele>23.0</ele><time>2026-04-03T11:55:58Z</time></trkpt><trkpt lat="45.542962727494526" lon="11.876633991000347"><ele>23.0</ele><time>2026-04-03T11:56:00Z</time></trkpt><trkpt lat="45.54299696074047" lon="11.876735819698618"><ele>23.0</ele><time>2026-04-03T11:56:03Z</time></trkpt><trkpt lat="45.54302390862119" lon="11.876858478871531"><ele>23.0</ele><time>2026-04-03T11:56:05Z</time></trkpt><trkpt lat="45.54306736903832" lon="11.87699854224896"><ele>23.0</ele><time>2026-04-03T11:56:07Z</time></trkpt><trkpt lat="45.543116095777" lon="11.877144099035982"><ele>23.0</ele><time>2026-04-03T11:56:09Z</time></trkpt><trkpt lat="45.54315119148326" lon="11.877295720339394"><ele>23.0</ele><time>2026-04-03T11:56:11Z</time></trkpt><trkpt lat="45.5432026431219" lon="11.877441359655961"><ele>23.0</ele><time>2026-04-03T11:56:13Z</time></trkpt><trkpt lat="45.54326367409552" lon="11.877594816985544"><ele>23.0</ele><time>2026-04-03T11:56:15Z</time></trkpt><trkpt lat="45.54332337816369" lon="11.87772483757598"><ele>23.0</ele><time>2026-04-03T11:56:17Z</time></trkpt><trkpt lat="45.54333223094169" lon="11.877826965871527"><ele>23.0</ele><time>2026-04-03T11:56:21Z</time></trkpt><trkpt lat="45.543392043098585" lon="11.877914031395456"><ele>23.0</ele><time>2026-04-03T11:56:27Z</time></trkpt><trkpt lat="45.543331739476606" lon="11.87803233466836"><ele>23.0</ele><time>2026-04-03T11:56:28Z</time></trkpt><trkpt lat="45.54337193427484" lon="11.87811821256157"><ele>23.0</ele><time>2026-04-03T11:56:35Z</time></trkpt><trkpt lat="45.5433492562621" lon="11.878205979460263"><ele>23.0</ele><time>2026-04-03T11:56:53Z</time></trkpt><trkpt lat="45.54331441217229" lon="11.878316724622001"><ele>23.0</ele><time>2026-04-03T11:56:55Z</time></trkpt><trkpt lat="45.54329110166592" lon="11.87844230058476"><ele>23.0</ele><time>2026-04-03T11:56:57Z</time></trkpt><trkpt lat="45.543258460966136" lon="11.878599519310136"><ele>23.0</ele><time>2026-04-03T11:56:59Z</time></trkpt><trkpt lat="45.54317427085631" lon="11.878695753827243"><ele>22.833333333333336</ele><time>2026-04-03T11:57:02Z</time></trkpt><trkpt lat="45.543162512103706" lon="11.878810651251944"><ele>22.666666666666668</ele><time>2026-04-03T11:57:04Z</time></trkpt><trkpt lat="45.543174508865064" lon="11.87891368699751"><ele>22.5</ele><time>2026-04-03T11:57:07Z</time></trkpt><trkpt lat="45.54320354042078" lon="11.879000521796884"><ele>22.333333333333332</ele><time>2026-04-03T11:57:11Z</time></trkpt><trkpt lat="45.543276727335545" lon="11.879008975670283"><ele>22.166666666666664</ele><time>2026-04-03T11:57:14Z</time></trkpt><trkpt lat="45.5433107504094" lon="11.878905946699172"><ele>22.0</ele><time>2026-04-03T11:57:16Z</time></trkpt><trkpt lat="45.54333617561157" lon="11.878763259516559"><ele>22.0</ele><time>2026-04-03T11:57:18Z</time></trkpt><trkpt lat="45.543359673491146" lon="11.878658170943178"><ele>22.0</ele><time>2026-04-03T11:57:20Z</time></trkpt><trkpt lat="45.5433899149058" lon="11.878557949684144"><ele>22.0</ele><time>2026-04-03T11:57:22Z</time></trkpt><trkpt lat="45.54342381932258" lon="11.878389253861473"><ele>22.0</ele><time>2026-04-03T11:57:24Z</time></trkpt><trkpt lat="45.54348559073673" lon="11.878303725643464"><ele>22.0</ele><time>2026-04-03T11:57:26Z</time></trkpt><trkpt lat="45.5435974341611" lon="11.878288959721983"><ele>22.0</ele><time>2026-04-03T11:57:28Z</time></trkpt><trkpt lat="45.543720458101596" lon="11.87833691249688"><ele>22.0</ele><time>2026-04-03T11:57:30Z</time></trkpt><trkpt lat="45.54382845981474" lon="11.878410625278452"><ele>22.0</ele><time>2026-04-03T11:57:32Z</time></trkpt><trkpt lat="45.54394666876271" lon="11.878456956257388"><ele>22.0</ele><time>2026-04-03T11:57:34Z</time></trkpt><trkpt lat="45.54400857143654" lon="11.878479985974932"><ele>22.0</ele><time>2026-04-03T11:57:35Z</time></trkpt><trkpt lat="45.54412758407349" lon="11.878518779110484"><ele>22.0</ele><time>2026-04-03T11:57:37Z</time></trkpt><trkpt lat="45.54421630027358" lon="11.878545559910961"><ele>22.0</ele><time>2026-04-03T11:57:39Z</time></trkpt><trkpt lat="45.5442572287226" lon="11.878666890469194"><ele>22.0</ele><time>2026-04-03T11:57:42Z</time></trkpt><trkpt lat="45.544221237721544" lon="11.878791561792907"><ele>22.0</ele><time>2026-04-03T11:57:44Z</time></trkpt><trkpt lat="45.544205206652805" lon="11.878913397912168"><ele>22.0</ele><time>2026-04-03T11:57:46Z</time></trkpt><trkpt lat="45.54416399677056" lon="11.879024918130003"><ele>22.0</ele><time>2026-04-03T11:57:48Z</time></trkpt><trkpt lat="45.544131169278444" lon="11.87916073646514"><ele>22.0</ele><time>2026-04-03T11:57:50Z</time></trkpt><trkpt lat="45.54410732741595" lon="11.879315725030757"><ele>22.0</ele><time>2026-04-03T11:57:52Z</time></trkpt><trkpt lat="45.54407752812384" lon="11.87945095176839"><ele>22.0</ele><time>2026-04-03T11:57:54Z</time></trkpt><trkpt lat="45.544051807743124" lon="11.879595404009807"><ele>22.0</ele><time>2026-04-03T11:57:56Z</time></trkpt><trkpt lat="45.54402401734455" lon="11.879738270779859"><ele>21.0</ele><time>2026-04-03T11:57:58Z</time></trkpt><trkpt lat="45.54400502742406" lon="11.879846811901295"><ele>21.0</ele><time>2026-04-03T11:58:00Z</time></trkpt><trkpt lat="45.54399630587322" lon="11.87995471095618"><ele>21.0</ele><time>2026-04-03T11:58:02Z</time></trkpt><trkpt lat="45.544003844617585" lon="11.880074980569734"><ele>21.0</ele><time>2026-04-03T11:58:04Z</time></trkpt><trkpt lat="45.54406581488941" lon="11.880132714500137"><ele>20.0</ele><time>2026-04-03T11:58:06Z</time></trkpt><trkpt lat="45.54413316130465" lon="11.880191077230918"><ele>20.0</ele><time>2026-04-03T11:58:09Z</time></trkpt></trkseg></trk></gpx>